﻿_id	STATION	TIMESTAMP, LATITUD	LONGITUD	TEMPERATURE	R_HUMIDITY	PRESSURE	PM_1	PM_2P5	PM_10	NO2	O3	NO	CO	SO2	H2	NOISE	CODI_ENS	NOM_ENS
1	BET02050	2024-05-01T00:00:00	""	""	14.5919	2.4319	None	16.7484	22.6438	23.8801	31.6873	40.5271	0.1157	None	1.0001	""	""	81691000
2	BET02050	2024-05-01T00:10:00	""	""	14.2446	2.2447	None	16.9001	21.7887	23.5741	28.3147	45.8532	0.0224	None	1.0001	""	""	81691000
3	BET02050	2024-05-01T00:20:00	""	""	14.2279	2.5862	None	15.2999	20.0739	20.9642	27.581	45.4054	0.1257	None	1.0001	""	""	81691000
4	BET02050	2024-05-01T00:30:00	""	""	14.1657	2.475	None	13.8823	18.1079	19.5185	23.3684	54.0555	0.1778	None	1.0001	""	""	81691000
5	BET02050	2024-05-01T00:40:00	""	""	14.1199	2.4941	None	13.5358	17.5578	18.5291	23.8331	52.4894	0.1084	None	1.0001	""	""	81691000
6	BET02050	2024-05-01T00:50:00	""	""	14.0058	2.3078	None	13.7553	18.2787	19.0795	23.9772	56.104	0.0431	None	1.0001	""	""	81691000
7	BET02050	2024-05-01T01:00:00	""	""	13.8942	2.2706	None	None	None	None	25.9088	52.439	0.1037	None	1.0001	""	""	81691000
8	BET02050	2024-05-01T01:10:00	""	""	13.76	3.8249	None	15.2701	20.5691	23.3237	26.6036	50.6596	0.2446	None	1.0001	""	""	81691000
9	BET02050	2024-05-01T01:20:00	""	""	13.7084	4.9743	None	14.9921	21.5833	22	27.5815	48.3737	0.1657	None	1.0001	""	""	81691000
10	BET02050	2024-05-01T01:30:00	""	""	13.6455	5.2808	None	15.8619	21.8494	22.7122	27.929	47.3002	0.0096	None	1.0001	""	""	81691000
11	BET02050	2024-05-01T01:40:00	""	""	13.3737	5.5195	None	16.3354	23.2497	24.9578	27.3503	44.1682	0.0561	None	1.0001	""	""	81691000
12	BET02050	2024-05-01T01:50:00	""	""	13.2041	5.5271	None	15.872	20.5788	21.5599	26.4033	43.3341	0.2163	None	1.0001	""	""	81691000
13	BET02050	2024-05-01T02:00:00	""	""	13.1619	5.7449	None	16.1751	22.3771	24.2491	26.8208	39.9792	0.2386	None	1.0001	""	""	81691000
14	BET02050	2024-05-01T02:10:00	""	""	13.0221	5.7831	None	15.4275	21.3409	21.9383	26.4961	42.8909	0.1959	None	1.0001	""	""	81691000
15	BET02050	2024-05-01T02:20:00	""	""	12.838	6.3612	None	14.5198	20.0348	21.8372	27.8762	38.6059	0.0495	None	1.0001	""	""	81691000
16	BET02050	2024-05-01T02:30:00	""	""	12.8229	7.045	None	15.384	21.1334	22.3816	27.7532	39.6866	0.0476	None	1.0001	""	""	81691000
17	BET02050	2024-05-01T02:40:00	""	""	12.5428	7.1951	None	15.6409	22.0174	23.762	27.7845	40.3258	0.0892	None	1.0001	""	""	81691000
18	BET02050	2024-05-01T02:50:00	""	""	12.3753	7.967	None	15.4632	21.5086	23.0908	27.9347	39.1197	0.0061	None	1.0001	""	""	81691000
19	BET02050	2024-05-01T03:00:00	""	""	12.3491	8.7066	None	14.9246	21.1926	22.4951	27.3963	39.2677	0.2245	None	1.0001	""	""	81691000
20	BET02050	2024-05-01T03:10:00	""	""	12.25	9.1999	None	14	20.4537	21.9994	28.8109	37.5618	0.242	None	1.0001	""	""	81691000
21	BET02050	2024-05-01T03:20:00	""	""	12.2646	9.1848	None	14.9857	21.2997	22.9027	28.8367	37.8356	0.1936	None	1.0001	""	""	81691000
22	BET02050	2024-05-01T03:30:00	""	""	12.2988	9.4095	None	15.9104	21.3787	22.7832	28.3572	39.1642	0.0409	None	1.0001	""	""	81691000
23	BET02050	2024-05-01T03:40:00	""	""	12.2383	9.7173	None	15.0687	22.1455	23.8009	28.8474	36.0291	0.7886	None	1.0001	""	""	81691000
24	BET02050	2024-05-01T03:50:00	""	""	12.1235	9.6668	None	15.589	22.3851	23.9551	28.6664	37.749	1.4334	None	1.0001	""	""	81691000
25	BET02050	2024-05-01T04:00:00	""	""	12.1273	9.8796	None	15.2978	21.9053	24.1672	28.0547	36.91	1.1893	None	1.0001	""	""	81691000
26	BET02050	2024-05-01T04:10:00	""	""	12.1173	10.0974	None	16.6147	23.4261	25.9176	29.0728	37.7832	1.462	None	1.0001	""	""	81691000
27	BET02050	2024-05-01T04:20:00	""	""	11.9482	10.54	None	16.2308	24.2136	26.974	29.1048	36.1387	1.5882	None	1.0001	""	""	81691000
28	BET02050	2024-05-01T04:30:00	""	""	11.9156	10.7926	None	16.4131	24.4901	27.0772	27.707	35.7279	1.165	None	1.0001	""	""	81691000
29	BET02050	2024-05-01T04:40:00	""	""	11.9204	10.7856	None	17.0403	24.8338	27.0918	28.1419	36.0335	1.3836	None	1.0001	""	""	81691000
30	BET02050	2024-05-01T04:50:00	""	""	11.9564	11.0488	None	17.2335	25.2014	27.3336	27.5013	38.3984	1.0534	None	1.0001	""	""	81691000
31	BET02050	2024-05-01T05:00:00	""	""	11.9929	11.1136	None	17.288	25.6847	27.0491	27.3775	38.9855	2.7854	None	1.0001	""	""	81691000
32	BET02050	2024-05-01T05:10:00	""	""	12.0223	10.9787	None	17.7458	25.2588	28.9795	26.6895	40.9612	2.792	None	1.0001	""	""	81691000
33	BET02050	2024-05-01T05:20:00	""	""	11.8615	11.2359	None	18.8323	26.7721	31.1507	26.1576	40.9378	3.7368	None	1.0001	""	""	81691000
34	BET02050	2024-05-01T05:30:00	""	""	11.7673	11.1319	None	18.5783	28.2561	29.6729	26.1158	39.4669	5.8449	None	1.0001	""	""	81691000
35	BET02050	2024-05-01T05:40:00	""	""	11.7184	11.1594	None	19.5283	30.1793	33.2766	24.5972	42.9299	4.4393	None	1.0001	""	""	81691000
36	BET02050	2024-05-01T05:50:00	""	""	11.7174	11.1506	None	18.7245	27.1778	29.4072	24.973	41.9434	5.4218	None	1.0001	""	""	81691000
37	BET02050	2024-05-01T06:00:00	""	""	11.7374	11.2736	None	20.3333	31.2918	34.714	25.9252	43.0259	6.9745	None	1.0001	""	""	81691000
38	BET02050	2024-05-01T06:10:00	""	""	11.9252	11.9021	None	21	32.6683	38.0207	25.7804	43.7147	7.7573	None	1.0001	""	""	81691000
39	BET02050	2024-05-01T06:20:00	""	""	12.0742	12.3857	None	22.5915	35.3122	43.1667	25.9083	46.2332	7.7692	None	1.0001	""	""	81691000
40	BET02050	2024-05-01T06:30:00	""	""	12.312	12.7965	None	23.0001	38.3403	48.9887	26.3815	44.6507	7.5485	None	1.0001	""	""	81691000
41	BET02050	2024-05-01T06:40:00	""	""	12.5528	12.7542	None	24.0367	36.915	45.6634	25.7299	47.3832	5.3247	None	1.0001	""	""	81691000
42	BET02050	2024-05-01T06:50:00	""	""	13.0646	12.675	None	24	36.6429	44.0462	25.04	49.1434	4.7003	None	1.0001	""	""	81691000
43	BET02050	2024-05-01T07:00:00	""	""	13.3184	12.3207	None	23.5638	35.4263	44.2065	23.5639	52.696	4.3851	None	1.0001	""	""	81691000
44	BET02050	2024-05-01T07:10:00	""	""	13.5927	11.5831	None	24.1926	38.3079	46.9021	24.4606	49.6214	5.4747	None	1.0001	""	""	81691000
45	BET02050	2024-05-01T07:20:00	""	""	13.9971	11.2759	None	26.1992	39.9224	49.7293	24.7374	49.1069	5.6507	None	1.0001	""	""	81691000
46	BET02050	2024-05-01T07:30:00	""	""	14.4219	10.4836	None	24	36.1542	44.6975	23.1186	51.2859	5.6994	None	1.0001	""	""	81691000
47	BET02050	2024-05-01T07:40:00	""	""	14.7918	9.1603	None	23.0518	34.5296	41.7716	22.8354	52.8345	4.6238	None	1.0001	""	""	81691000
48	BET02050	2024-05-01T07:50:00	""	""	15.3622	6.4036	None	22.6611	33.471	39.2132	22.5874	55.8677	4.7573	None	1	""	""	81691000
49	BET02050	2024-05-01T08:00:00	""	""	15.7573	2.1664	None	20	29.6573	30.6998	18.1712	61.5509	3.6674	None	1	""	""	81691000
50	BET02050	2024-05-01T08:10:00	""	""	16.0993	100	None	16.6771	22.8419	23.9268	0.1201	32.9733	17.3535	None	1.3361	""	""	81691000
51	BET02050	2024-05-01T08:20:00	""	""	16.4931	100	None	16.2931	22.7849	23.9922	0.0136	26.5068	17.6093	None	1.2955	""	""	81691000
52	BET02050	2024-05-01T08:30:00	""	""	16.8101	100	None	15.4357	20.5978	22.7732	0.0483	31.5176	18.2	None	1.3441	""	""	81691000
53	BET02050	2024-05-01T08:40:00	""	""	17.3647	100	None	18.8213	26.2234	28.3617	12.6491	58.1374	16.3265	None	1.4417	""	""	81691000
54	BET02050	2024-05-01T08:50:00	""	""	17.2519	100	None	15.0014	21.516	22.4683	7.0565	64.3555	15.6355	None	1.4332	""	""	81691000
55	BET02050	2024-05-01T09:00:00	""	""	16.9248	100	None	12.0118	16.8418	17.6244	4.9189	69.3369	13.8192	None	1.6487	""	""	81691000
56	BET02050	2024-05-01T09:10:00	""	""	16.8301	None	None	12	16.3045	18.4277	None	None	None	None	None	""	""	81691000
57	BET02050	2024-05-01T09:20:00	""	""	17.0969	None	None	13.6143	18.4443	20.0621	None	None	None	None	None	""	""	81691000
58	BET02050	2024-05-01T09:30:00	""	""	17.2842	None	None	12.635	17.4821	18.1308	None	None	None	None	None	""	""	81691000
59	BET02050	2024-05-01T09:40:00	""	""	17.2995	100	None	13.351	18.3363	18.8597	2.5838	63.843	15.2859	None	1.6399	""	""	81691000
60	BET02050	2024-05-01T09:50:00	""	""	17.5631	100	None	14.9305	20.4137	20.9893	3.9224	61.0398	16.693	None	1.6516	""	""	81691000
61	BET02050	2024-05-01T10:00:00	""	""	17.9107	100	None	14.5115	19.9956	21.7459	8.5983	68.0484	16.78	None	1.6187	""	""	81691000
62	BET02050	2024-05-01T10:10:00	""	""	17.9086	100	None	15.5175	21.0238	21.9111	6.8598	61.8209	19.5445	None	1.552	""	""	81691000
63	BET02050	2024-05-01T10:20:00	""	""	18.0882	100	None	14.5758	20.493	21.736	4.4186	68.0249	17.5368	None	1.6844	""	""	81691000
64	BET02050	2024-05-01T10:30:00	""	""	18.0599	100	None	15.4428	20.4911	22.0553	6.1873	72.3521	16.1939	None	1.5904	""	""	81691000
65	BET02050	2024-05-01T10:40:00	""	""	18.1243	100	None	17.3215	23.9209	25.2582	7.5191	68.2877	15.8464	None	1.5913	""	""	81691000
66	BET02050	2024-05-01T10:50:00	""	""	18.7524	100	None	15.8203	22.4227	23.1019	10.7031	63.6773	14.8387	None	1.5435	""	""	81691000
67	BET02050	2024-05-01T11:00:00	""	""	18.5391	100	None	18.7331	25.8101	25.5767	7.7571	74.3082	13.9356	None	1.5753	""	""	81691000
68	BET02050	2024-05-01T11:10:00	""	""	18.8027	100	None	14.8589	19.8861	21.2848	8.2931	64.4936	15.3013	None	1.6165	""	""	81691000
69	BET02050	2024-05-01T11:20:00	""	""	18.8836	99.9999	None	12.0267	15.7905	16.4587	0.1328	70.3302	17.3309	None	1.6637	""	""	81691000
70	BET02050	2024-05-01T11:30:00	""	""	20.1614	94.2397	None	9.7752	12.7087	13.5618	0.1342	68.0261	14.8712	None	1.7851	""	""	81691000
71	BET02050	2024-05-01T11:40:00	""	""	21.682	89.3368	None	10.3406	13.5098	14.3438	0.0474	58.3765	13.1183	None	1.9137	""	""	81691000
72	BET02050	2024-05-01T11:50:00	""	""	22.1067	82.3828	None	10.2549	14.2241	14.3865	0.1077	64.1642	11.7691	None	1.9386	""	""	81691000
73	BET02050	2024-05-01T12:00:00	""	""	22.3907	77.971	None	11	14.1223	14.9942	0.116	63.9243	11.6268	None	1.9403	""	""	81691000
74	BET02050	2024-05-01T12:10:00	""	""	21.4923	77.2111	None	10.7326	13.49	13.8432	0.128	66.1144	10.1956	None	1.9685	""	""	81691000
75	BET02050	2024-05-01T12:20:00	""	""	21.3319	76.2882	None	9.0081	11.4206	11.6613	0.0151	50.1157	9.6882	None	1.9741	""	""	81691000
76	BET02050	2024-05-01T12:30:00	""	""	23.1762	68.6607	None	5.7796	7.6747	7.6823	0.1608	54.7853	10.6011	None	1.98	""	""	81691000
77	BET02050	2024-05-01T12:40:00	""	""	21.8032	69.1012	None	6.878	8.3724	8.8237	0.138	51.1599	9.0609	None	1.9923	""	""	81691000
78	BET02050	2024-05-01T12:50:00	""	""	21.8862	65.3781	None	8.5333	10.5519	10.6978	0.1607	62.0052	10.259	None	1.9734	""	""	81691000
79	BET02050	2024-05-01T13:00:00	""	""	23.5308	55.8972	None	3.2128	3.9088	3.905	0.1667	64.2316	9.5358	None	3.2226	""	""	81691000
80	BET02050	2024-05-01T13:10:00	""	""	23.068	53.807	None	4.689	5.7916	5.9839	0.0965	48.8499	10.6255	None	2.8639	""	""	81691000
81	BET02050	2024-05-01T13:20:00	""	""	22.9645	46.6893	None	2.9999	3.031	3.0323	0.1296	46.597	10.3634	None	3.6944	""	""	81691000
82	BET02050	2024-05-01T13:30:00	""	""	22.3199	46.0891	None	2.0126	3.0121	3.1979	0.1671	66.9638	9.8322	None	3.5434	""	""	81691000
83	BET02050	2024-05-01T13:40:00	""	""	22.0183	49.519	None	1	2.1983	2	1.0118	62.8316	8.3953	None	2.5934	""	""	81691000
84	BET02050	2024-05-01T13:50:00	""	""	21.1811	52.9441	None	3.3362	3.9259	4.1537	5.839	60.1346	2.5909	None	2.1713	""	""	81691000
85	BET02050	2024-05-01T14:00:00	""	""	21.276	49.0007	None	3.086	4.0501	4.1586	0.2077	51.3926	4.3208	None	2.606	""	""	81691000
86	BET02050	2024-05-01T14:10:00	""	""	21.3098	48.0049	None	1.6402	2.4819	2.5522	0.0077	55.8893	4.839	None	3.0686	""	""	81691000
87	BET02050	2024-05-01T14:20:00	""	""	21.0953	48.8906	None	1	1.5325	1.5121	1.3985	62.9859	2.8158	None	2.8522	""	""	81691000
88	BET02050	2024-05-01T14:30:00	""	""	21.7592	48.2323	None	1.5139	2	2.1838	0.3995	54.9822	8.1476	None	3.3447	""	""	81691000
89	BET02050	2024-05-01T14:40:00	""	""	21.3779	46.9962	None	1	1.4767	1.9999	0.2761	65.6482	4.9769	None	3.276	""	""	81691000
90	BET02050	2024-05-01T14:50:00	""	""	20.7841	46.938	None	1.4149	1.4264	1.5147	0.1644	64.7951	2.3755	None	2.8556	""	""	81691000
91	BET02050	2024-05-01T15:00:00	""	""	20.7542	45.1852	None	1	1.7101	1.9336	1.8078	58.2453	2.7438	None	3.1736	""	""	81691000
92	BET02050	2024-05-01T15:10:00	""	""	20.5256	43.6234	None	1	1	1	0.0468	57.4171	2.6272	None	3.0411	""	""	81691000
93	BET02050	2024-05-01T15:20:00	""	""	20.6841	42.0139	None	0.9998	0.84	1.2068	0.2673	62.6944	2.6821	None	3.6855	""	""	81691000
94	BET02050	2024-05-01T15:30:00	""	""	20.8913	43.5354	None	0.8223	1.3947	1.5432	6.1341	67.8259	2.3436	None	3.4609	""	""	81691000
95	BET02050	2024-05-01T15:40:00	""	""	20.6772	43.6619	None	0.7567	1.1333	1.1276	5.3249	65.1092	2.3421	None	3.3191	""	""	81691000
96	BET02050	2024-05-01T15:50:00	""	""	20.9255	42.2442	None	1.0475	1.3728	1.8981	3.4828	61.4643	2.7878	None	3.6453	""	""	81691000
97	BET02050	2024-05-01T16:00:00	""	""	20.3859	41.9704	None	1.0434	1.2514	1.1738	4.485	60.8443	2.3385	None	3.4865	""	""	81691000
98	BET02050	2024-05-01T16:10:00	""	""	20.1203	43.0491	None	1.2769	2	2	4.0281	58.2407	2.1972	None	3.1548	""	""	81691000
99	BET02050	2024-05-01T16:20:00	""	""	19.966	42.8432	None	1.9997	1.6996	1.9133	4.75	59.3759	2.1927	None	3.1231	""	""	81691000
100	BET02050	2024-05-01T16:30:00	""	""	19.8061	43.3017	None	0.9999	1.2839	1.2924	7.2785	58.6513	2.0486	None	2.8724	""	""	81691000
101	BET02050	2024-05-01T16:40:00	""	""	19.4931	43.7012	None	1.2442	1.4792	1.4988	7.8978	66.8712	1.7053	None	2.385	""	""	81691000
102	BET02050	2024-05-01T16:50:00	""	""	19.2684	44.3076	None	3	3.4617	4	9.5668	61.3039	1.5957	None	2.2947	""	""	81691000
103	BET02050	2024-05-01T17:00:00	""	""	19.4091	44.9787	None	0.8489	2	2	10.6574	59.3237	1.7852	None	2.3874	""	""	81691000
104	BET02050	2024-05-01T17:10:00	""	""	19.6112	44.5661	None	0.9702	1	1	10.2732	62.0407	1.7746	None	2.6225	""	""	81691000
105	BET02050	2024-05-01T17:20:00	""	""	19.5733	42.8695	None	0.3938	1.3697	1.1207	5.4589	62.9666	2.2824	None	2.9461	""	""	81691000
106	BET02050	2024-05-01T17:30:00	""	""	19.5983	41.7886	None	0.5	0.0001	1.9999	7.2198	65.5319	1.9254	None	2.8571	""	""	81691000
107	BET02050	2024-05-01T17:40:00	""	""	19.6149	37.989	None	0.9594	1.2857	1	1.2444	69.205	2.3956	None	3.3331	""	""	81691000
108	BET02050	2024-05-01T17:50:00	""	""	19.5844	36.1717	None	0	1	1	0.6605	59.6792	3.5044	None	3.8262	""	""	81691000
109	BET02050	2024-05-01T18:00:00	""	""	19.4978	35.7723	None	0	0.0001	1.0184	0.0301	55.3836	3.4637	None	3.6845	""	""	81691000
110	BET02050	2024-05-01T18:10:00	""	""	19.306	36.0795	None	0	0	0.3842	6.221	53.2466	2.2562	None	2.9242	""	""	81691000
111	BET02050	2024-05-01T18:20:00	""	""	19.1879	35.9967	None	0	0.6973	0.686	9.8536	58.683	1.5303	None	2.2151	""	""	81691000
112	BET02050	2024-05-01T18:30:00	""	""	19.3848	35.9345	None	0.3333	0.5589	0.6846	9.161	60.2392	1.86	None	2.9136	""	""	81691000
113	BET02050	2024-05-01T18:40:00	""	""	19.1975	36.9128	None	0	0	0.0001	5.5154	51.9028	2.4021	None	3.2075	""	""	81691000
114	BET02050	2024-05-01T18:50:00	""	""	18.8935	37.6396	None	0	0	0	11.5213	54.719	1.4344	None	3.152	""	""	81691000
115	BET02050	2024-05-01T19:00:00	""	""	19.0342	37.5491	None	0	1	0.7477	9.0808	44.965	2.2083	None	3.8844	""	""	81691000
116	BET02050	2024-05-01T19:10:00	""	""	18.7152	38.1062	None	0.3333	0.3333	0	11.8504	57.0251	1.4679	None	3.121	""	""	81691000
117	BET02050	2024-05-01T19:20:00	""	""	18.1102	37.4426	None	0.9999	1.9999	1.9999	19.9586	72.2655	0.2481	None	1.8773	""	""	81691000
118	BET02050	2024-05-01T19:30:00	""	""	17.4483	49.4108	None	1.3689	2	2.7048	28.6787	67.0069	0.2421	None	1.5054	""	""	81691000
119	BET02050	2024-05-01T19:40:00	""	""	17.2154	51.2862	None	1.9178	2.9591	2.9979	23.5528	61.9366	0.2494	None	1.4475	""	""	81691000
120	BET02050	2024-05-01T19:50:00	""	""	17.2426	50.6895	None	1.9303	3	3	18.5786	56.0982	0.099	None	1.3915	""	""	81691000
121	BET02050	2024-05-01T20:00:00	""	""	17.3168	46.0753	None	2.1925	3.0905	4.1706	10.5108	53.6627	2.8131	None	1.4117	""	""	81691000
122	BET02050	2024-05-01T20:10:00	""	""	17.2003	43.4142	None	2	2.2221	2.5082	9.1353	54.1376	3.0468	None	1.2805	""	""	81691000
123	BET02050	2024-05-01T20:20:00	""	""	16.9264	42.1302	None	1.6765	2	2.705	4.5454	55.6031	4.1567	None	1.1456	""	""	81691000
124	BET02050	2024-05-01T20:30:00	""	""	16.8092	41.7808	None	0.5	1.3871	1.3013	6.5424	54.3667	5.104	None	1.0621	""	""	81691000
125	BET02050	2024-05-01T20:40:00	""	""	16.8267	41.2608	None	0.6667	0.5	0.5	7.6044	58.6502	2.2343	None	1.0988	""	""	81691000
126	BET02050	2024-05-01T20:50:00	""	""	16.8189	41.2178	None	1	2	2	9.762	58.2038	2.313	None	1.1091	""	""	81691000
127	BET02050	2024-05-01T21:00:00	""	""	16.7139	42.2994	None	0.5	0.5	0	10.848	56.8259	2.2392	None	1.1086	""	""	81691000
128	BET02050	2024-05-01T21:10:00	""	""	16.6191	42.5352	None	2.0189	2.0786	2.3552	14.9998	42.7711	6.0995	None	1.1291	""	""	81691000
129	BET02050	2024-05-01T21:20:00	""	""	16.2795	43.9644	None	1	1.7434	2.0595	13.1802	51.2558	1.7448	None	1.0685	""	""	81691000
130	BET02050	2024-05-01T21:30:00	""	""	16.5915	42.463	None	1.8849	2.5627	3.5797	9.5507	57.7142	2.5722	None	1.181	""	""	81691000
131	BET02050	2024-05-01T21:40:00	""	""	16.6951	42.0202	None	0	0.9999	0.9999	8.4444	51.4218	4.0562	None	1.2637	""	""	81691000
132	BET02050	2024-05-01T21:50:00	""	""	16.5582	42.1692	None	0	0	0.5	12.8599	56.0495	2.9755	None	1.2114	""	""	81691000
133	BET02050	2024-05-01T22:00:00	""	""	16.1809	42.8664	None	0	0.9999	0.9999	7.2524	60.0783	2.8162	None	1.203	""	""	81691000
134	BET02050	2024-05-01T22:10:00	""	""	16.1766	43.4463	None	0	0.3108	0.3452	7.6267	55.9467	3.184	None	1.2299	""	""	81691000
135	BET02050	2024-05-01T22:20:00	""	""	15.7377	43.7927	None	0	0	0	8.6434	59.2757	2.807	None	1.156	""	""	81691000
136	BET02050	2024-05-01T22:30:00	""	""	15.6386	44.213	None	0	0.6355	0.6355	9.6173	58.5582	2.7008	None	1.1288	""	""	81691000
137	BET02050	2024-05-01T22:40:00	""	""	15.7323	44.4366	None	0	0	0	5.3812	59.5469	3.5467	None	1.3054	""	""	81691000
138	BET02050	2024-05-01T22:50:00	""	""	15.4312	44.8218	None	0	0	0	7.0831	61.5052	1.9083	None	1.1824	""	""	81691000
139	BET02050	2024-05-01T23:00:00	""	""	15.0697	45.7257	None	0	0.25	0.25	8.7556	57.9594	2.0816	None	1.1418	""	""	81691000
140	BET02050	2024-05-01T23:10:00	""	""	15.1062	45.7001	None	0.9999	1	1	5.6946	64.6404	2.0629	None	1.2234	""	""	81691000
141	BET02050	2024-05-01T23:20:00	""	""	14.8184	46.3246	None	0.0001	0.5	0.8593	7.4043	59.7737	2.3239	None	1.1307	""	""	81691000
142	BET02050	2024-05-01T23:30:00	""	""	14.5569	46.7357	None	0.9999	1	1	4.2667	63.3486	2.278	None	1.1304	""	""	81691000
143	BET02050	2024-05-01T23:40:00	""	""	14.8903	47.0516	None	0.5	1	1	4.4542	64.9263	2.0892	None	1.3368	""	""	81691000
144	BET02050	2024-05-01T23:50:00	""	""	14.615	48.2937	None	0	1	1	6.1093	60.5988	2.2354	None	1.4194	""	""	81691000
145	BET02050	2024-05-02T00:00:00	""	""	14.0844	49.6007	None	0.0002	1	1	10.1224	63.777	1.5433	None	1.2188	""	""	81691000
146	BET02050	2024-05-02T00:10:00	""	""	14.0481	50.437	None	0.5	1	1	10.5991	60.034	1.9812	None	1.2191	""	""	81691000
147	BET02050	2024-05-02T00:20:00	""	""	14.2617	51.0879	None	1	1	1	7.0411	63.3999	2.4962	None	1.4485	""	""	81691000
148	BET02050	2024-05-02T00:30:00	""	""	13.6487	51.8672	None	1	1	1	5.7302	60.6716	1.7696	None	1.2595	""	""	81691000
149	BET02050	2024-05-02T00:40:00	""	""	13.7912	52.9513	None	1	1	1	7.8047	64.0836	2.1703	None	1.4874	""	""	81691000
150	BET02050	2024-05-02T00:50:00	""	""	13.368	53.7266	None	0.6667	1	1	7.6485	61.0764	2.418	None	1.2173	""	""	81691000
151	BET02050	2024-05-02T01:00:00	""	""	13.316	54.0672	None	None	None	None	4.2476	63.3552	2.7254	None	1.2869	""	""	81691000
152	BET02050	2024-05-02T01:10:00	""	""	13.225	54.9606	None	0.75	1	1	7.3151	60.2339	2.6613	None	1.2872	""	""	81691000
153	BET02050	2024-05-02T01:20:00	""	""	13.023	55.485	None	1	1	1	4.3848	64.5773	2.5737	None	1.2858	""	""	81691000
154	BET02050	2024-05-02T01:30:00	""	""	12.4704	56.6422	None	0.5	1	1	7.9474	57.1628	2.1676	None	1.0966	""	""	81691000
155	BET02050	2024-05-02T01:40:00	""	""	12.3537	57.617	None	0.75	1	1	6.8605	57.1752	2.1924	None	1.1168	""	""	81691000
156	BET02050	2024-05-02T01:50:00	""	""	12.1655	59.4129	None	0.6	1	1	16.2712	47.6594	2.1748	None	1.1095	""	""	81691000
157	BET02050	2024-05-02T02:00:00	""	""	12.0139	60.3978	None	1	1	1	14.495	46.25	2.487	None	1.1235	""	""	81691000
158	BET02050	2024-05-02T02:10:00	""	""	11.7572	60.4347	None	0.5	1	1	12.1787	49.568	2.081	None	1.1364	""	""	81691000
159	BET02050	2024-05-02T02:20:00	""	""	11.6557	61.7916	None	0.25	0.8	0.5	15.4074	47.2283	1.9061	None	1.1343	""	""	81691000
160	BET02050	2024-05-02T02:30:00	""	""	11.5956	61.9206	None	1	1	1	12.5886	48.4524	1.8284	None	1.1185	""	""	81691000
161	BET02050	2024-05-02T02:40:00	""	""	11.6772	61.67	None	0.3333	1	1	6.7602	52.6893	2.2751	None	1.1716	""	""	81691000
162	BET02050	2024-05-02T02:50:00	""	""	11.4573	61.3415	None	0	0.8255	1	5.1571	53.4731	1.9016	None	1.1357	""	""	81691000
163	BET02050	2024-05-02T03:00:00	""	""	11.6856	61.2171	None	0.25	0.5	0.5	2.8009	55.6891	2.5771	None	1.2756	""	""	81691000
164	BET02050	2024-05-02T03:10:00	""	""	11.5593	61.5149	None	0	0	0	2.621	56.7469	2.2584	None	1.185	""	""	81691000
165	BET02050	2024-05-02T03:20:00	""	""	11.1818	62.9996	None	0	0.0001	0.0001	6.6612	54.9295	1.8953	None	1.1429	""	""	81691000
166	BET02050	2024-05-02T03:30:00	""	""	10.9254	63.548	None	0	0.75	0.75	6.4408	51.4281	1.5244	None	1.0925	""	""	81691000
167	BET02050	2024-05-02T03:40:00	""	""	11.042	63.8053	None	0.6667	1	1	7.1866	51.3972	1.7438	None	1.1253	""	""	81691000
168	BET02050	2024-05-02T03:50:00	""	""	10.963	64.1916	None	0.3333	1	1	6.798	51.7357	1.6041	None	1.1277	""	""	81691000
169	BET02050	2024-05-02T04:00:00	""	""	10.8992	64.429	None	0	0.5	0.5	6.8914	50.6759	1.7199	None	1.1106	""	""	81691000
170	BET02050	2024-05-02T04:10:00	""	""	11.0699	64.7628	None	0.7368	1	1	9.8466	48.7316	1.9706	None	1.1373	""	""	81691000
171	BET02050	2024-05-02T04:20:00	""	""	10.8321	65.1979	None	1	1	1	10.5337	46.5971	1.6347	None	1.0826	""	""	81691000
172	BET02050	2024-05-02T04:30:00	""	""	10.565	65.9726	None	1	1	1	23.0668	29.3427	1.5569	None	1.0463	""	""	81691000
173	BET02050	2024-05-02T04:40:00	""	""	10.5573	66.8339	None	1	1	1	24.5586	26.8928	1.6502	None	1.0437	""	""	81691000
174	BET02050	2024-05-02T04:50:00	""	""	10.6986	67.4293	None	1	1.5	1.5	21.1316	32.1234	1.7	None	1.0737	""	""	81691000
175	BET02050	2024-05-02T05:00:00	""	""	10.5259	68.1916	None	1	1.5	1.9999	29.7274	21.9891	1.8693	None	1.0414	""	""	81691000
176	BET02050	2024-05-02T05:10:00	""	""	10.4323	69.0959	None	2	3	3	45.084	9.4412	2.1195	None	1.0366	""	""	81691000
177	BET02050	2024-05-02T05:20:00	""	""	10.6522	70.1481	None	2	2	2	36.5315	16.3323	2.3728	None	1.0609	""	""	81691000
178	BET02050	2024-05-02T05:30:00	""	""	10.6635	71.0353	None	2	2.6	2.9999	48.2465	8.3848	4.1834	None	1.0423	""	""	81691000
179	BET02050	2024-05-02T05:40:00	""	""	10.6499	70.6163	None	2	2	2	26.1016	24.6484	2.4467	None	1.0537	""	""	81691000
180	BET02050	2024-05-02T05:50:00	""	""	10.8459	70.1097	None	2	2.472	2.7993	27.8644	23.9068	2.9581	None	1.063	""	""	81691000
181	BET02050	2024-05-02T06:00:00	""	""	11.0418	68.8062	None	1.5	2	2	19.0945	32.2339	2.7818	None	1.0456	""	""	81691000
182	BET02050	2024-05-02T06:10:00	""	""	11.1764	69.4706	None	2	2.3333	2.3333	22.4634	30.1183	3.4588	None	1.0755	""	""	81691000
183	BET02050	2024-05-02T06:20:00	""	""	11.6227	67.7796	None	2	2.1616	2.2653	8.5361	47.7152	4.9175	None	1.2515	""	""	81691000
184	BET02050	2024-05-02T06:30:00	""	""	11.6264	68.3848	None	2	2.9999	2	12.9315	43.5748	4.6582	None	1.185	""	""	81691000
185	BET02050	2024-05-02T06:40:00	""	""	11.6396	67.1826	None	2	2.3333	2	8.9045	48.5709	5.081	None	1.1636	""	""	81691000
186	BET02050	2024-05-02T06:50:00	""	""	11.8381	67.6553	None	2	2.3348	2.8046	13.2125	42.6603	6.16	None	1.1669	""	""	81691000
187	BET02050	2024-05-02T07:00:00	""	""	12.0438	66.8754	None	2	2.9999	2.3169	11.854	44.4963	7.4535	None	1.2128	""	""	81691000
188	BET02050	2024-05-02T07:10:00	""	""	12.289	66.6239	None	2	2.3333	2.5	9.3829	44.429	9.4634	None	1.2377	""	""	81691000
189	BET02050	2024-05-02T07:20:00	""	""	12.4069	64.9823	None	2	2	2	4.932	50.858	7.9141	None	1.2759	""	""	81691000
190	BET02050	2024-05-02T07:30:00	""	""	12.6313	64.4509	None	1.25	2	2	4.6802	50.0284	8.2485	None	1.3129	""	""	81691000
191	BET02050	2024-05-02T07:40:00	""	""	12.9256	63.5336	None	2	2	2	6.3117	49.0045	8.4797	None	1.3032	""	""	81691000
192	BET02050	2024-05-02T07:50:00	""	""	13.2714	61.5954	None	1	1.8476	2.0549	0.0365	52.7653	8.4287	None	1.3538	""	""	81691000
193	BET02050	2024-05-02T08:00:00	""	""	13.5116	61.141	None	1	1.3334	1.0001	4.2634	51.3631	8.3023	None	1.3005	""	""	81691000
194	BET02050	2024-05-02T08:10:00	""	""	13.7911	59.8505	None	1.5	2	2	2.8244	53.0309	8.4211	None	1.2728	""	""	81691000
195	BET02050	2024-05-02T08:20:00	""	""	14.1543	58.2258	None	1	1.2	1.5	0.105	53.5161	9.9742	None	1.2917	""	""	81691000
196	BET02050	2024-05-02T08:30:00	""	""	14.5533	57.3697	None	1	1	1	0.3462	52.1347	9.429	None	1.3804	""	""	81691000
197	BET02050	2024-05-02T08:40:00	""	""	14.8838	55.2997	None	0.6	1	1.0471	0.0026	57.0833	9.2459	None	1.3085	""	""	81691000
198	BET02050	2024-05-02T08:50:00	""	""	15.1993	55.5877	None	1	1.1667	1.2	21.6263	38.6661	15.4334	None	1.1598	""	""	81691000
199	BET02050	2024-05-02T09:00:00	""	""	15.4508	53.6313	None	2	2	2	0.1454	55.4238	11.6811	None	1.3581	""	""	81691000
200	BET02050	2024-05-02T09:10:00	""	""	15.7079	52.3416	None	1.9998	2	2	0.0998	49.53	15.551	None	1.2831	""	""	81691000
201	BET02050	2024-05-02T09:20:00	""	""	16.1976	51.5159	None	1	1	0.9621	0.0314	52.6906	15.1693	None	1.3591	""	""	81691000
202	BET02050	2024-05-02T09:30:00	""	""	16.5719	50.5028	None	0.5	1	1	0.2392	60.1439	11.8586	None	1.5276	""	""	81691000
203	BET02050	2024-05-02T09:40:00	""	""	16.8862	48.3534	None	1	1	1	0.0913	64.3426	10.7468	None	1.6807	""	""	81691000
204	BET02050	2024-05-02T09:50:00	""	""	17.0447	47.4739	None	0.5	0.9999	0.9999	0.0357	60.3385	12.1891	None	1.6614	""	""	81691000
205	BET02050	2024-05-02T10:00:00	""	""	17.2679	46.4223	None	0.5	0.4617	0.4617	0.043	65.82	9.2679	None	1.7284	""	""	81691000
206	BET02050	2024-05-02T10:10:00	""	""	17.5768	45.9393	None	0.5	0.0001	0.8332	0.1898	62.9535	9.674	None	1.7124	""	""	81691000
207	BET02050	2024-05-02T10:20:00	""	""	17.9331	44.1729	None	0	0	0	0.0868	61.7335	10.6742	None	2.3654	""	""	81691000
208	BET02050	2024-05-02T10:30:00	""	""	18.031	43.2262	None	0	0	0.5	0.2068	68.4641	8.0098	None	2.4282	""	""	81691000
209	BET02050	2024-05-02T10:40:00	""	""	18.4236	43.2327	None	0	0	0	0.2316	64.2362	8.6296	None	2.9706	""	""	81691000
210	BET02050	2024-05-02T10:50:00	""	""	18.8383	41.6375	None	0	0	0.0001	0.2099	63.3407	7.9726	None	3.3308	""	""	81691000
211	BET02050	2024-05-02T11:00:00	""	""	19.0182	38.6982	None	0	0.5	0.9997	0.1853	67.3522	9.3862	None	3.9421	""	""	81691000
212	BET02050	2024-05-02T11:10:00	""	""	19.0583	39.4212	None	0	0	0	0.179	69.6579	6.0946	None	3.6849	""	""	81691000
213	BET02050	2024-05-02T11:20:00	""	""	19.3113	39.6241	None	0.25	0.9996	0.9998	1.2751	70.6895	5.0793	None	3.6944	""	""	81691000
214	BET02050	2024-05-02T11:30:00	""	""	20.1762	38.3787	None	0	0.3333	0.5	1.0861	71.0947	6.4838	None	4.066	""	""	81691000
215	BET02050	2024-05-02T11:40:00	""	""	21.5075	37.3822	None	0	0	0	10.2998	65.9966	9.0543	None	4.2999	""	""	81691000
216	BET02050	2024-05-02T11:50:00	""	""	21.7925	36.0461	None	0	0	0	8.7441	66.9688	9.6332	None	4.3894	""	""	81691000
217	BET02050	2024-05-02T12:00:00	""	""	22.3947	33.2482	None	0.5062	0.8569	1.0159	0.063	85.1323	9.6078	None	4.531	""	""	81691000
218	BET02050	2024-05-02T12:10:00	""	""	21.7696	32.6452	None	0	0	0	0.0751	80.2351	9.004	None	4.485	""	""	81691000
219	BET02050	2024-05-02T12:20:00	""	""	21.9692	30.6335	None	0.3333	0.5	1	0.018	68.7016	8.7071	None	4.5807	""	""	81691000
220	BET02050	2024-05-02T12:30:00	""	""	22.5369	31.3462	None	0	0	0	2.2977	80.6579	8.5998	None	4.5285	""	""	81691000
221	BET02050	2024-05-02T12:40:00	""	""	22.6351	30.8967	None	0	0	0	2.7133	73.2107	8.3364	None	4.5353	""	""	81691000
222	BET02050	2024-05-02T12:50:00	""	""	22.2438	29.8746	None	0	0	0	12.0399	81.3749	7.7719	None	4.541	""	""	81691000
223	BET02050	2024-05-02T13:00:00	""	""	20.0471	40.2226	None	0	1.1801	1	9.6127	92.993	2.0354	None	3.4379	""	""	81691000
224	BET02050	2024-05-02T13:10:00	""	""	19.5927	43.0597	None	0	1.1066	1.1434	14.2908	82.0036	1.4801	None	3.0229	""	""	81691000
225	BET02050	2024-05-02T13:20:00	""	""	19.9093	42.1202	None	0.211	1	0.8563	12.9823	78.517	1.9682	None	3.4533	""	""	81691000
226	BET02050	2024-05-02T13:30:00	""	""	20.4639	40.5655	None	0	1.0144	1.0902	12.1133	74.6966	2.1549	None	3.7702	""	""	81691000
227	BET02050	2024-05-02T13:40:00	""	""	19.997	42.3629	None	0	0.7489	0.823	11.7804	75.9424	2.0893	None	3.4361	""	""	81691000
228	BET02050	2024-05-02T13:50:00	""	""	19.3747	45.1394	None	0.4424	0.9989	1.255	14.845	83.4334	1.1024	None	2.8122	""	""	81691000
229	BET02050	2024-05-02T14:00:00	""	""	19.7149	46.2535	None	0.2201	0.4831	0.6236	12.9922	76.5289	1.5847	None	2.9551	""	""	81691000
230	BET02050	2024-05-02T14:10:00	""	""	19.7567	48.6104	None	0	0.9999	0.9999	19.8029	91.2963	0.8828	None	2.7113	""	""	81691000
231	BET02050	2024-05-02T14:20:00	""	""	19.6618	50.8949	None	0.2822	0.8099	1.3376	19.779	88.2799	0.0446	None	2.2047	""	""	81691000
232	BET02050	2024-05-02T14:30:00	""	""	21.2423	48.4028	None	0.3333	0.356	0.8644	24.8995	97.7973	3.8865	None	3.282	""	""	81691000
233	BET02050	2024-05-02T14:40:00	""	""	21.9168	28.6436	None	0	0	0	0.0485	73.9665	8.9985	None	4.7186	""	""	81691000
234	BET02050	2024-05-02T14:50:00	""	""	22.2775	25.7431	None	0	0.2972	0.2972	0.204	77.4285	10.0067	None	4.8568	""	""	81691000
235	BET02050	2024-05-02T15:00:00	""	""	21.7153	43.6493	None	0.2	0	0	22.7857	113.9364	6.2402	None	3.6188	""	""	81691000
236	BET02050	2024-05-02T15:10:00	""	""	20.2405	46.6483	None	0.1904	1.0541	1.1457	18.007	87.8621	1.2018	None	2.9127	""	""	81691000
237	BET02050	2024-05-02T15:20:00	""	""	19.9439	48.6465	None	0	0.8804	1.1491	19.6326	90.4161	0.7936	None	2.4546	""	""	81691000
238	BET02050	2024-05-02T15:30:00	""	""	18.9418	52.0144	None	0	0.0001	1.1267	18.8704	90.3029	0.0231	None	2.1452	""	""	81691000
239	BET02050	2024-05-02T15:40:00	""	""	18.5192	56.997	None	0	0.8168	1.0748	21.0966	97.9579	0.1753	None	2.026	""	""	81691000
240	BET02050	2024-05-02T15:50:00	""	""	18.3244	54.6213	None	0.5	0.8854	1.0893	17.0872	89.8918	0.2304	None	2.0546	""	""	81691000
241	BET02050	2024-05-02T16:00:00	""	""	19.1468	55.7239	None	0	0.8206	0.9118	22.6045	88.5426	0.1797	None	2.1229	""	""	81691000
242	BET02050	2024-05-02T16:10:00	""	""	18.7102	57.0412	None	0.9999	0.9885	1.6495	19.3049	84.8448	0.3077	None	2.0337	""	""	81691000
243	BET02050	2024-05-02T16:20:00	""	""	18.3666	56.3217	None	1.2519	1.6046	1.7012	15.3138	81.6198	0.3772	None	2.0155	""	""	81691000
244	BET02050	2024-05-02T16:30:00	""	""	18.7046	56.5786	None	0.0001	1.8026	1.8669	16.0708	71.8049	1.5651	None	2.0204	""	""	81691000
245	BET02050	2024-05-02T16:40:00	""	""	20.3904	53.576	None	0.9999	1.9999	1.3956	17.0775	66.7654	4.2794	None	2.8652	""	""	81691000
246	BET02050	2024-05-02T16:50:00	""	""	19.731	50.9452	None	2.424	2.9703	4.3934	18.9546	56.3459	2.8056	None	1.9372	""	""	81691000
247	BET02050	2024-05-02T17:00:00	""	""	18.6465	52.2024	None	0.9822	2.3282	2.8995	15.7614	72.5528	1.3044	None	1.895	""	""	81691000
248	BET02050	2024-05-02T17:10:00	""	""	18.1165	54.9753	None	1.1391	1.8075	2.5942	21.3117	67.0338	0.2997	None	1.7456	""	""	81691000
249	BET02050	2024-05-02T17:20:00	""	""	18.051	56.2379	None	1.8233	3.6211	3.7255	18.8832	69.8528	1.8247	None	1.858	""	""	81691000
250	BET02050	2024-05-02T17:30:00	""	""	18.0206	57.327	None	2.5789	3.5932	3.8735	18.8572	69.2887	1.8351	None	1.9253	""	""	81691000
251	BET02050	2024-05-02T17:40:00	""	""	18.1075	59.2306	None	3.0718	5.1753	5.6353	24.0535	62.948	4.7282	None	1.9493	""	""	81691000
252	BET02050	2024-05-02T17:50:00	""	""	17.7761	57.4711	None	1.0256	2.0541	1.9731	13.9016	76.505	4.1108	None	1.9869	""	""	81691000
253	BET02050	2024-05-02T18:00:00	""	""	17.8038	58.7617	None	1	2.1254	2	23.0789	65.8054	4.3741	None	1.9287	""	""	81691000
254	BET02050	2024-05-02T18:10:00	""	""	17.4458	61.1152	None	2.6125	2.9383	3.7492	43.4871	45.4641	3.9843	None	1.8922	""	""	81691000
255	BET02050	2024-05-02T18:20:00	""	""	17.2716	62.3758	None	4.1792	6.4239	6.4105	46.6517	37.1176	5.9776	None	1.7613	""	""	81691000
256	BET02050	2024-05-02T18:30:00	""	""	16.9095	62.8564	None	3.1788	3.87	4.0846	41.1722	40.3215	5.6021	None	1.7751	""	""	81691000
257	BET02050	2024-05-02T18:40:00	""	""	16.9667	62.7934	None	3.7423	4.9654	5.112	36.0091	41.9643	7.0622	None	1.8238	""	""	81691000
258	BET02050	2024-05-02T18:50:00	""	""	16.6851	62.6623	None	2.9161	4.5393	4.7329	39.116	38.1866	5.4676	None	1.7912	""	""	81691000
259	BET02050	2024-05-02T19:00:00	""	""	16.4681	62.9837	None	3	5.0521	5.2879	61.2344	21.1512	9.8485	None	1.6084	""	""	81691000
260	BET02050	2024-05-02T19:10:00	""	""	16.3756	63.6336	None	4.2366	6.3387	7.1442	44.01	35.0748	7.266	None	1.6941	""	""	81691000
261	BET02050	2024-05-02T19:20:00	""	""	16.2112	64.768	None	6.5642	9.2781	12.3039	60.3903	21.9104	9.5585	None	1.4784	""	""	81691000
262	BET02050	2024-05-02T19:30:00	""	""	15.8585	64.0125	None	4.496	6.3814	7.5072	41.1381	35.772	9.7025	None	1.4986	""	""	81691000
263	BET02050	2024-05-02T19:40:00	""	""	15.876	63.5987	None	4	6.826	8.0261	32.9459	35.3792	9.3507	None	1.5462	""	""	81691000
264	BET02050	2024-05-02T19:50:00	""	""	15.8018	62.6012	None	2.2732	3.2416	3.7858	27.468	40.8547	8.8769	None	1.703	""	""	81691000
265	BET02050	2024-05-02T20:00:00	""	""	15.8248	61.9837	None	2.5	3.5658	4.1139	42.9299	28.2758	10.7176	None	1.5739	""	""	81691000
266	BET02050	2024-05-02T20:10:00	""	""	15.5047	61.734	None	6.9548	9.8404	10.5442	41.1396	29.0984	10.8255	None	1.3894	""	""	81691000
267	BET02050	2024-05-02T20:20:00	""	""	15.4382	60.9635	None	5.4189	7.5712	9.3191	40.0024	28.779	9.919	None	1.3603	""	""	81691000
268	BET02050	2024-05-02T20:30:00	""	""	15.3225	59.9587	None	3	4	4.9176	31.8568	38.5775	10.0723	None	1.349	""	""	81691000
269	BET02050	2024-05-02T20:40:00	""	""	15.2949	60.6735	None	3	4.7358	5.0835	26.8811	41.2663	10.6191	None	1.3101	""	""	81691000
270	BET02050	2024-05-02T20:50:00	""	""	15.314	61.8132	None	4.9999	6.2186	7.0389	23.498	49.9312	9.4529	None	1.5441	""	""	81691000
271	BET02050	2024-05-02T21:00:00	""	""	15.2917	62.9894	None	4	5.6119	5.8968	30.0357	41.7626	8.9492	None	1.5454	""	""	81691000
272	BET02050	2024-05-02T21:10:00	""	""	15.1623	65.0374	None	4.682	6.7684	7.8468	28.7088	48.4079	9.4129	None	1.6071	""	""	81691000
273	BET02050	2024-05-02T21:20:00	""	""	15.0186	66.8	None	4	8.1407	8.9689	19.9744	63.5862	8.7138	None	1.7653	""	""	81691000
274	BET02050	2024-05-02T21:30:00	""	""	15.0414	68.9368	None	3.6712	5.9153	7.1291	20.5912	56.5766	9.2155	None	1.6753	""	""	81691000
275	BET02050	2024-05-02T21:40:00	""	""	14.999	70.1236	None	4	6.0889	7.7658	21.5747	54.8243	10.7578	None	1.7738	""	""	81691000
276	BET02050	2024-05-02T21:50:00	""	""	14.8871	71.6285	None	4.8634	7.313	8.3821	23.0819	47.8064	10.4776	None	1.671	""	""	81691000
277	BET02050	2024-05-02T22:00:00	""	""	14.7689	72.6632	None	5.8139	10.1652	11.7803	27.1733	37.0055	12.7006	None	1.571	""	""	81691000
278	BET02050	2024-05-02T22:10:00	""	""	14.6364	72.6035	None	7.9999	10.7204	11.3072	17.7167	57.4836	10.9238	None	1.7019	""	""	81691000
279	BET02050	2024-05-02T22:20:00	""	""	14.5301	72.3786	None	3	3.1394	3.4789	18.5513	49.0624	10.2615	None	1.7316	""	""	81691000
280	BET02050	2024-05-02T22:30:00	""	""	14.5292	72.504	None	3	4.0346	4.3869	24.3858	29.1367	11.0498	None	1.5206	""	""	81691000
281	BET02050	2024-05-02T22:40:00	""	""	13.5925	71.2262	None	4.3557	5.9862	6.3674	35.2349	11.8132	11.0665	None	1.1084	""	""	81691000
282	BET02050	2024-05-02T22:50:00	""	""	13.2553	71.4927	None	4.0001	6.1422	6.8558	33.6305	13.5852	8.382	None	1.0864	""	""	81691000
283	BET02050	2024-05-02T23:00:00	""	""	13.2227	72.1638	None	5	6.4565	7.6414	33.0201	13.5979	7.9157	None	1.0976	""	""	81691000
284	BET02050	2024-05-02T23:10:00	""	""	13.1713	72.8541	None	5.0002	8	8.1966	28.2123	15.7547	7.5446	None	1.1114	""	""	81691000
285	BET02050	2024-05-02T23:20:00	""	""	12.8991	72.6553	None	5	6.9418	7.3915	20.7073	21.4099	7.1144	None	1.1259	""	""	81691000
286	BET02050	2024-05-02T23:30:00	""	""	12.9308	72.7858	None	5	6.4649	6.7701	19.8015	21.1785	7.1097	None	1.1634	""	""	81691000
287	BET02050	2024-05-02T23:40:00	""	""	12.7141	72.9274	None	5	8.2391	9.0351	19.2753	20.283	6.87	None	1.1553	""	""	81691000
288	BET02050	2024-05-02T23:50:00	""	""	12.6018	73.1661	None	5	7	8.8199	19.4302	20.426	6.7365	None	1.1263	""	""	81691000
289	BET02050	2024-05-03T00:00:00	""	""	12.4935	73.5709	None	6	8.3237	9.4414	20.092	19.0766	6.8253	None	1.14	""	""	81691000
290	BET02050	2024-05-03T00:10:00	""	""	12.3529	73.9024	None	6	8.0775	8.8578	19.6015	20.2398	6.5333	None	1.1216	""	""	81691000
291	BET02050	2024-05-03T00:20:00	""	""	12.324	74.7442	None	5.908	8.423	8.8695	19.157	20.8715	6.506	None	1.133	""	""	81691000
292	BET02050	2024-05-03T00:30:00	""	""	12.269	75.3988	None	5.4463	7.6703	8.134	19.4738	19.7129	6.5388	None	1.1245	""	""	81691000
293	BET02050	2024-05-03T00:40:00	""	""	12.251	76.587	None	5.5	7.4562	7.4575	22.4469	16.3658	6.7682	None	1.12	""	""	81691000
294	BET02050	2024-05-03T00:50:00	""	""	12.1929	77.6867	None	5.75	7.3426	7.6706	24.1522	15.4635	6.9369	None	1.1418	""	""	81691000
295	BET02050	2024-05-03T01:00:00	""	""	12.0153	77.7827	None	None	None	None	24.6216	14.7681	6.9204	None	1.1078	""	""	81691000
296	BET02050	2024-05-03T01:10:00	""	""	11.8471	78.4657	None	5	7.2536	7.3078	18.6853	21.7576	6.5446	None	1.1235	""	""	81691000
297	BET02050	2024-05-03T01:20:00	""	""	11.3857	79.3236	None	4.0001	7.1612	8.6594	18.3294	17.9934	5.6372	None	1.095	""	""	81691000
298	BET02050	2024-05-03T01:30:00	""	""	11.0941	80.1292	None	5.2689	6.7039	7.5555	20.6211	14.4235	4.1135	None	1.0889	""	""	81691000
299	BET02050	2024-05-03T01:40:00	""	""	11.0471	81.1086	None	5	7.2659	8.0224	20.7161	14.4864	3.6152	None	1.0893	""	""	81691000
300	BET02050	2024-05-03T01:50:00	""	""	10.911	82.0727	None	5.9999	8	8.0001	20.1162	15.1826	2.9832	None	1.0907	""	""	81691000
301	BET02050	2024-05-03T02:00:00	""	""	10.8365	82.5323	None	7.4999	10	10.7317	20.6	14.009	3.3372	None	1.0779	""	""	81691000
302	BET02050	2024-05-03T02:10:00	""	""	10.4465	83.5588	None	8	11.1208	11.798	22.9418	11.107	2.8955	None	1.0755	""	""	81691000
303	BET02050	2024-05-03T02:20:00	""	""	10.3318	85.4125	None	9.5	12.5865	13.0417	24.1709	11.7711	2.5099	None	1.0847	""	""	81691000
304	BET02050	2024-05-03T02:30:00	""	""	10.3886	87.3006	None	9	13.0131	13.4967	24.2859	12.8867	2.6852	None	1.0993	""	""	81691000
305	BET02050	2024-05-03T02:40:00	""	""	10.3989	88.4906	None	9.9123	13.4107	14.1936	25.4605	11.7161	2.7759	None	1.1128	""	""	81691000
306	BET02050	2024-05-03T02:50:00	""	""	10.2642	88.8037	None	11	14.9951	16.0168	25.2638	10.8909	2.6854	None	1.1183	""	""	81691000
307	BET02050	2024-05-03T03:00:00	""	""	10.0765	89.3132	None	11.7457	15.3863	17.2506	26.1635	9.8414	2.3875	None	1.1105	""	""	81691000
308	BET02050	2024-05-03T03:10:00	""	""	9.9196	90.0865	None	11.0344	14.1766	15.5023	26.9431	7.972	2.1187	None	1.1064	""	""	81691000
309	BET02050	2024-05-03T03:20:00	""	""	9.9664	90.9932	None	11.9999	14.5495	15.3522	25.5482	9.2844	2.2791	None	1.1193	""	""	81691000
310	BET02050	2024-05-03T03:30:00	""	""	9.9055	90.0676	None	9.5	12.8294	13.9072	24.9127	9.3684	2.2907	None	1.1156	""	""	81691000
311	BET02050	2024-05-03T03:40:00	""	""	9.9538	89.6414	None	9	12.4981	13.2765	25.2528	8.7923	2.5375	None	1.1127	""	""	81691000
312	BET02050	2024-05-03T03:50:00	""	""	9.7206	89.4315	None	9	11.0389	12.1761	28.7899	3.8019	4.3291	None	1.1013	""	""	81691000
313	BET02050	2024-05-03T04:00:00	""	""	9.5987	89.8692	None	9.5935	12.1473	12.3942	28.2504	4.0737	2.9219	None	1.0939	""	""	81691000
314	BET02050	2024-05-03T04:10:00	""	""	9.5004	90.6811	None	8.9999	10.8162	12.612	28.5092	3.652	3.2237	None	1.1006	""	""	81691000
315	BET02050	2024-05-03T04:20:00	""	""	9.5627	91.1401	None	8.0936	11.3504	12.1468	29.6191	3.099	8.9335	None	1.1101	""	""	81691000
316	BET02050	2024-05-03T04:30:00	""	""	9.5056	91.3147	None	9	11.4809	12.0449	30.0349	1.5893	21.3799	None	1.1228	""	""	81691000
317	BET02050	2024-05-03T04:40:00	""	""	9.4522	91.253	None	8.8243	12	13.1585	29.7373	1.728	24.0508	None	1.4344	""	""	81691000
318	BET02050	2024-05-03T04:50:00	""	""	9.4679	90.9207	None	9.8324	14	13.7193	28.944	3.9075	22.9738	None	1.2359	""	""	81691000
319	BET02050	2024-05-03T05:00:00	""	""	9.3931	90.5114	None	10	13.43	15.0216	28.1295	2.9823	27.2342	None	3.0255	""	""	81691000
320	BET02050	2024-05-03T05:10:00	""	""	9.4208	89.7402	None	9.0001	12.9451	13.576	28.0521	4.5782	29.797	None	2.6055	""	""	81691000
321	BET02050	2024-05-03T05:20:00	""	""	9.5816	88.6317	None	9.9256	14.1003	15.4276	26.4518	6.7943	25.0151	None	1.3976	""	""	81691000
322	BET02050	2024-05-03T05:30:00	""	""	9.6527	88.381	None	8.3382	10.5184	12.4619	25.9039	6.9715	23.6824	None	1.3323	""	""	81691000
323	BET02050	2024-05-03T05:40:00	""	""	10.0631	86.629	None	7	8.8815	9.8121	25.0013	9.9834	22.3034	None	1.1116	""	""	81691000
324	BET02050	2024-05-03T05:50:00	""	""	10.2321	85.9361	None	7.9588	11.0825	11.6346	25.3487	8.1789	30.9441	None	1.5119	""	""	81691000
325	BET02050	2024-05-03T06:00:00	""	""	10.3599	84.26	None	7	10.122	11.1169	22.6849	11.9001	22.3118	None	1.1335	""	""	81691000
326	BET02050	2024-05-03T06:10:00	""	""	10.6958	82.9597	None	7.0001	11.1026	11.4577	22.2894	13.3468	20.8191	None	1.1	""	""	81691000
327	BET02050	2024-05-03T06:20:00	""	""	11.2997	81.0365	None	8.0893	10.9951	12.162	20.5472	16.5143	18.4127	None	1.109	""	""	81691000
328	BET02050	2024-05-03T06:30:00	""	""	11.5795	79.5207	None	8	10.4536	11	20.7117	16.2726	19.9986	None	1.1068	""	""	81691000
329	BET02050	2024-05-03T06:40:00	""	""	11.8146	75.4722	None	8	10.5511	11.1341	19.6545	17.8612	19.7424	None	1.0848	""	""	81691000
330	BET02050	2024-05-03T06:50:00	""	""	12.0152	75.0384	None	8	10.9455	11.4347	20.5658	16.1718	21.4346	None	1.0964	""	""	81691000
331	BET02050	2024-05-03T07:00:00	""	""	12.4301	73.764	None	8.0141	10.337	11.7872	19.3674	19.1244	20.4372	None	1.0964	""	""	81691000
332	BET02050	2024-05-03T07:10:00	""	""	13.0458	71.9772	None	7.1792	10.0273	11.0274	16.7782	20.6437	17.095	None	1.1378	""	""	81691000
333	BET02050	2024-05-03T07:20:00	""	""	13.5667	68.2276	None	6	8.2863	8.5669	15.5142	23.3125	17.3841	None	1.1319	""	""	81691000
334	BET02050	2024-05-03T07:30:00	""	""	14.04	63.8748	None	5.6652	7.0492	7.8468	10.0879	27.004	14.9117	None	1.1605	""	""	81691000
335	BET02050	2024-05-03T07:40:00	""	""	14.3704	62.4955	None	5	7.0955	7.5572	10.2714	27.0373	16.1917	None	1.1405	""	""	81691000
336	BET02050	2024-05-03T07:50:00	""	""	14.6798	60.4536	None	5	6.3012	6.4061	8.8083	30.757	15.2615	None	1.1404	""	""	81691000
337	BET02050	2024-05-03T08:00:00	""	""	15.1512	59.4498	None	4.75	6.1514	6.2787	12.0593	29.2069	16.1636	None	1.1874	""	""	81691000
338	BET02050	2024-05-03T08:10:00	""	""	15.4582	58.9705	None	4	6	5.8337	9.2906	33.2255	15.5575	None	1.2021	""	""	81691000
339	BET02050	2024-05-03T08:20:00	""	""	15.7933	57.8954	None	4.7251	6.354	6.132	8.9676	35.8945	17.5697	None	1.2487	""	""	81691000
340	BET02050	2024-05-03T08:30:00	""	""	16.19	57.1915	None	4	5.7715	6.273	18.1947	26.3594	21.5004	None	1.2541	""	""	81691000
341	BET02050	2024-05-03T08:40:00	""	""	16.4823	57.5496	None	6	7.3241	7.7114	38.4858	24.977	12.9899	None	1.1392	""	""	81691000
342	BET02050	2024-05-03T08:50:00	""	""	17.2128	57.3134	None	5.0001	7.552	8.8643	27.3146	27.7301	19.4479	None	1.4075	""	""	81691000
343	BET02050	2024-05-03T09:00:00	""	""	17.4019	55.9733	None	6.4994	8.348	8.5816	24.4775	26.3244	21.9787	None	1.4122	""	""	81691000
344	BET02050	2024-05-03T09:10:00	""	""	17.503	55.1192	None	7	9.565	10.5638	46.0833	16.2983	31.9311	None	1.2648	""	""	81691000
345	BET02050	2024-05-03T09:20:00	""	""	17.757	53.5374	None	4.4146	6.1287	6.4753	22.32	37.3264	19.59	None	1.5811	""	""	81691000
346	BET02050	2024-05-03T09:30:00	""	""	17.6072	53.6183	None	3.3741	4.2545	4.2893	17.9378	46.5875	17.6179	None	1.375	""	""	81691000
347	BET02050	2024-05-03T09:40:00	""	""	17.7026	53.6539	None	3	3.9766	4.1336	19.7927	42.172	17.3816	None	1.5423	""	""	81691000
348	BET02050	2024-05-03T09:50:00	""	""	17.2094	54.4402	None	4	5.4024	5.4896	24.2874	44.9305	16.2987	None	1.4538	""	""	81691000
349	BET02050	2024-05-03T10:00:00	""	""	17.3982	54.5016	None	4.9999	6.426	5.6306	18.1236	50.0586	12.7411	None	1.6856	""	""	81691000
350	BET02050	2024-05-03T10:10:00	""	""	17.2324	59.0381	None	3.8383	4.6465	5	21.2037	57.8759	10.4913	None	1.8916	""	""	81691000
351	BET02050	2024-05-03T10:20:00	""	""	17.089	62.4174	None	4	5.0845	5.7459	23.7043	65.553	7.5221	None	1.9315	""	""	81691000
352	BET02050	2024-05-03T10:30:00	""	""	17.3773	67.107	None	5.3283	6.6783	7.0091	29.7467	54.9252	10.5212	None	1.9682	""	""	81691000
353	BET02050	2024-05-03T10:40:00	""	""	17.4175	67.8472	None	6.131	7.9398	8.6654	26.7519	55.2375	11.0557	None	1.9757	""	""	81691000
354	BET02050	2024-05-03T10:50:00	""	""	17.7609	67.1003	None	6.0992	7.833	8.6031	35.8419	56.8076	11.0417	None	1.974	""	""	81691000
355	BET02050	2024-05-03T11:00:00	""	""	18.1898	68.1425	None	6.6927	8.6892	9.005	28.6804	61.2389	11.7464	None	1.9778	""	""	81691000
356	BET02050	2024-05-03T11:10:00	""	""	18.4278	65.8004	None	5.6178	7.7549	8.0576	19.1535	65.5841	10.8613	None	1.9861	""	""	81691000
357	BET02050	2024-05-03T11:20:00	""	""	18.4372	65.0564	None	4.953	6.7822	7.3565	15.7539	67.3613	9.4209	None	1.9933	""	""	81691000
358	BET02050	2024-05-03T11:30:00	""	""	19.2199	63.0385	None	4.4296	6	6	12.5626	71.0098	11.6748	None	2.0005	""	""	81691000
359	BET02050	2024-05-03T11:40:00	""	""	20.1338	57.8869	None	3.0001	4.7562	4.9319	9.5748	69.8718	4.4291	None	2.8429	""	""	81691000
360	BET02050	2024-05-03T11:50:00	""	""	20.1491	51.9008	None	3.6118	4.6219	5.188	0.0365	74.6055	9.7442	None	3.3624	""	""	81691000
361	BET02050	2024-05-03T12:00:00	""	""	21.037	49.5632	None	2.0001	4.2556	4.7378	0.1957	80.2322	10.1818	None	3.5757	""	""	81691000
362	BET02050	2024-05-03T12:10:00	""	""	20.7153	48.4642	None	2.8971	3.3621	3.5281	0.0467	77.6546	7.8127	None	3.5762	""	""	81691000
363	BET02050	2024-05-03T12:20:00	""	""	20.9966	48.1056	None	2.78	3.7096	3.7986	0.1513	90.212	8.1884	None	3.5959	""	""	81691000
364	BET02050	2024-05-03T12:30:00	""	""	21.4725	47.9206	None	3	3.9411	4.2436	1.6939	72.6427	10.3309	None	3.6934	""	""	81691000
365	BET02050	2024-05-03T12:40:00	""	""	21.7378	41.4647	None	2.0001	3	4.0156	0.1634	89.634	10.3126	None	4.043	""	""	81691000
366	BET02050	2024-05-03T12:50:00	""	""	21.2056	44.0934	None	2	3.4549	3.7294	0.8725	101.7206	5.8369	None	3.8219	""	""	81691000
367	BET02050	2024-05-03T13:00:00	""	""	21.6599	41.6361	None	3	3.2991	3.1917	0.4455	74.5223	9.8245	None	3.9805	""	""	81691000
368	BET02050	2024-05-03T13:10:00	""	""	21.0101	42.5293	None	2.015	3.0278	3.0312	9.925	96.3473	2.6389	None	3.8168	""	""	81691000
369	BET02050	2024-05-03T13:20:00	""	""	21.3701	43.4762	None	2.3936	3.4943	3.5805	2.9702	74.0675	5.6792	None	3.8086	""	""	81691000
370	BET02050	2024-05-03T13:30:00	""	""	21.1615	46.7461	None	1.3027	2.0792	2.0705	12.1256	87.6439	2.5177	None	3.5882	""	""	81691000
371	BET02050	2024-05-03T13:40:00	""	""	21.2346	49.3752	None	2.2078	2.4244	2.1484	13.8641	77.7453	2.541	None	3.4675	""	""	81691000
372	BET02050	2024-05-03T13:50:00	""	""	21.4349	50.5913	None	1.0001	2	2	14.8251	85.7047	3.9153	None	3.3794	""	""	81691000
373	BET02050	2024-05-03T14:00:00	""	""	20.9736	47.9875	None	1	2	2	13.0084	82.3198	2.2348	None	3.4731	""	""	81691000
374	BET02050	2024-05-03T14:10:00	""	""	21.0429	43.964	None	1	1.0001	1.0001	1.4704	73.0203	3.2647	None	3.7681	""	""	81691000
375	BET02050	2024-05-03T14:20:00	""	""	21.1307	43.7104	None	1.3848	1.7183	2.0845	7.3585	76.5721	3.0346	None	3.7936	""	""	81691000
376	BET02050	2024-05-03T14:30:00	""	""	21.7134	43.2903	None	1.701	2.1958	2.4987	6.5224	84.8928	7.7456	None	3.8642	""	""	81691000
377	BET02050	2024-05-03T14:40:00	""	""	21.5977	43.2819	None	1.0237	1.7531	1.8904	9.3641	72.8458	5.6059	None	3.7876	""	""	81691000
378	BET02050	2024-05-03T14:50:00	""	""	21.4809	40.2694	None	1	1.7059	2	4.5083	65.832	8.8067	None	3.965	""	""	81691000
379	BET02050	2024-05-03T15:00:00	""	""	21.4694	39.1694	None	0.5463	1	1	6.937	73.0623	4.2226	None	4.025	""	""	81691000
380	BET02050	2024-05-03T15:10:00	""	""	21.7951	36.3188	None	1.3464	2.027	2.1455	4.5043	74.5267	6.4507	None	4.2101	""	""	81691000
381	BET02050	2024-05-03T15:20:00	""	""	21.4298	37.5114	None	1	1	1	3.462	92.5408	3.8922	None	4.0483	""	""	81691000
382	BET02050	2024-05-03T15:30:00	""	""	21.5065	37.6308	None	0	1.0787	1.2966	11.1307	60.3149	5.332	None	4.0698	""	""	81691000
383	BET02050	2024-05-03T15:40:00	""	""	21.6297	37.7903	None	0	1.3543	1.4025	13.0585	65.6598	5.9946	None	4.0955	""	""	81691000
384	BET02050	2024-05-03T15:50:00	""	""	21.2911	37.2106	None	1	1	1.3694	6.7876	82.5183	4.3718	None	4.0599	""	""	81691000
385	BET02050	2024-05-03T16:00:00	""	""	20.0956	43.1225	None	0	1	1.2642	15.2356	86.0746	1.233	None	3.6401	""	""	81691000
386	BET02050	2024-05-03T16:10:00	""	""	19.9068	47.2731	None	0.9709	1.7178	1.8136	17.7705	97.3691	0.0169	None	3.3959	""	""	81691000
387	BET02050	2024-05-03T16:20:00	""	""	19.3189	49.1161	None	1.2553	1.3535	1.7427	19.2246	88.4034	0.1664	None	2.9261	""	""	81691000
388	BET02050	2024-05-03T16:30:00	""	""	19.0831	52.8226	None	1.3924	1.9278	2.3684	24.2531	101.4748	0.2082	None	2.3928	""	""	81691000
389	BET02050	2024-05-03T16:40:00	""	""	19.1142	53.4458	None	2.217	3.0162	2.944	22.7359	79.8198	0.1581	None	2.3868	""	""	81691000
390	BET02050	2024-05-03T16:50:00	""	""	18.6945	56.1691	None	2.1114	2.0001	2.8352	25.1482	98.5641	0.0034	None	2.0912	""	""	81691000
391	BET02050	2024-05-03T17:00:00	""	""	18.4758	59.6315	None	1	2.2443	2.4445	23.2311	98.1415	0.1851	None	2.0164	""	""	81691000
392	BET02050	2024-05-03T17:10:00	""	""	18.3231	59.0315	None	1	1.8769	2.0959	18.78	92.8268	0.0417	None	2.0135	""	""	81691000
393	BET02050	2024-05-03T17:20:00	""	""	18.5411	57.8936	None	2	2.5169	2.6005	19.5254	76.9823	0.1826	None	2.0179	""	""	81691000
394	BET02050	2024-05-03T17:30:00	""	""	18.1046	59.8911	None	1.5617	2.3322	2.4273	17.7201	88.0043	0.2067	None	1.9972	""	""	81691000
395	BET02050	2024-05-03T17:40:00	""	""	18.0504	58.6398	None	1.4658	2.273	2.3039	16.088	82.8837	0.1645	None	2.0022	""	""	81691000
396	BET02050	2024-05-03T17:50:00	""	""	18.0326	59.5426	None	1.3114	2.0772	2.1551	15.3186	80.2589	1.4989	None	2	""	""	81691000
397	BET02050	2024-05-03T18:00:00	""	""	17.8826	56.3778	None	1.5608	2.5546	2.7908	9.9628	71.0691	3.7577	None	1.9937	""	""	81691000
398	BET02050	2024-05-03T18:10:00	""	""	18.0599	54.3188	None	1.2384	2	2.1393	11.0558	67.0069	4.1436	None	1.9824	""	""	81691000
399	BET02050	2024-05-03T18:20:00	""	""	17.97	52.6134	None	1.6605	1.1578	1.1784	9.6609	57.0439	6.4625	None	1.9409	""	""	81691000
400	BET02050	2024-05-03T18:30:00	""	""	17.9297	50.6166	None	1.2805	2.0049	2.183	5.7133	60.5211	6.4023	None	1.9179	""	""	81691000
401	BET02050	2024-05-03T18:40:00	""	""	17.7439	49.4908	None	1.3219	2.018	2.1196	12.155	60.0907	5.383	None	1.8244	""	""	81691000
402	BET02050	2024-05-03T18:50:00	""	""	17.6792	49.5467	None	1.8797	2.9327	3.0197	11.0645	57.4926	6.6286	None	1.921	""	""	81691000
403	BET02050	2024-05-03T19:00:00	""	""	17.4403	50.7874	None	1	2.2865	2.3908	16.7427	55.7064	5.0093	None	1.7526	""	""	81691000
404	BET02050	2024-05-03T19:10:00	""	""	17.3388	51.8483	None	2	2.8457	3.309	13.3766	64.6007	3.4617	None	1.8967	""	""	81691000
405	BET02050	2024-05-03T19:20:00	""	""	17.1076	52.5869	None	2.1539	3.1446	3.582	15.0571	63.9892	3.138	None	1.8823	""	""	81691000
406	BET02050	2024-05-03T19:30:00	""	""	17.0013	52.1024	None	2.0001	3.6371	3.8965	14.2483	55.6871	5.3054	None	1.7588	""	""	81691000
407	BET02050	2024-05-03T19:40:00	""	""	16.9223	50.3693	None	2.5811	3	3.5642	10.4766	60.4117	4.7983	None	1.7698	""	""	81691000
408	BET02050	2024-05-03T19:50:00	""	""	16.8061	50.2005	None	2.7329	3.4197	3.4889	8.5959	63.8797	4.8048	None	1.7896	""	""	81691000
409	BET02050	2024-05-03T20:00:00	""	""	16.8911	49.937	None	2.3109	3	4.1483	9.8705	59.5294	5.8233	None	1.8423	""	""	81691000
410	BET02050	2024-05-03T20:10:00	""	""	16.9445	48.9133	None	2.053	3.1069	3.0778	5.7839	63.4843	5.5359	None	1.78	""	""	81691000
411	BET02050	2024-05-03T20:20:00	""	""	16.9056	48.9038	None	1.9837	2	2.8915	9.8343	60.7046	5.7103	None	1.768	""	""	81691000
412	BET02050	2024-05-03T20:30:00	""	""	16.83	48.72	None	2.0124	2.9937	3.3234	7.3811	66.0717	4.5881	None	1.8501	""	""	81691000
413	BET02050	2024-05-03T20:40:00	""	""	17.0905	48.3486	None	2	2.0001	3.1782	11.6697	61.1495	4.5794	None	1.9561	""	""	81691000
414	BET02050	2024-05-03T20:50:00	""	""	17.0976	47.7986	None	2.2778	3	3.0001	7.7732	60.9732	4.6813	None	1.8719	""	""	81691000
415	BET02050	2024-05-03T21:00:00	""	""	17.127	47.9947	None	2	3.3001	3.36	19.3781	53.0113	4.3634	None	1.4717	""	""	81691000
416	BET02050	2024-05-03T21:10:00	""	""	16.8985	48.4804	None	7.5355	10.1631	11.2889	21.6801	48.0865	5.0474	None	1.5525	""	""	81691000
417	BET02050	2024-05-03T21:20:00	""	""	16.7938	48.5396	None	5.4022	7.0932	6.9759	31.0285	38.5405	3.6044	None	1.1776	""	""	81691000
418	BET02050	2024-05-03T21:30:00	""	""	16.8477	49.1618	None	8.8116	11.4929	11.9856	20.5892	53.1623	2.6436	None	1.4145	""	""	81691000
419	BET02050	2024-05-03T21:40:00	""	""	16.7269	50.5953	None	3.5951	5.0372	5.1636	16.7253	56.7893	2.2378	None	1.5621	""	""	81691000
420	BET02050	2024-05-03T21:50:00	""	""	16.6273	52.0279	None	2.4048	2.6904	3.4565	19.2063	60.2916	2.7563	None	1.5608	""	""	81691000
421	BET02050	2024-05-03T22:00:00	""	""	16.4756	53.4729	None	2.3272	2.9812	3.0969	16.6594	69.6721	1.5627	None	1.7751	""	""	81691000
422	BET02050	2024-05-03T22:10:00	""	""	16.3496	56.5824	None	2	3.3627	3.3609	21.379	73.5731	0.5094	None	1.8666	""	""	81691000
423	BET02050	2024-05-03T22:20:00	""	""	16.2869	59.7656	None	2.2204	3.0434	3.1441	20.8457	73.6985	0.8391	None	1.9351	""	""	81691000
424	BET02050	2024-05-03T22:30:00	""	""	16.2328	61.8189	None	3	4	3.9983	20.371	76.4267	1.5537	None	1.9711	""	""	81691000
425	BET02050	2024-05-03T22:40:00	""	""	16.1985	63.1295	None	2.5069	3	4.0139	20.8168	73.4368	1.1496	None	1.961	""	""	81691000
426	BET02050	2024-05-03T22:50:00	""	""	16.1668	64.4204	None	3	3.1834	3.1925	18.7592	73.5916	2.224	None	1.9737	""	""	81691000
427	BET02050	2024-05-03T23:00:00	""	""	16.1238	64.9647	None	2.4976	2.886	3.2938	17.6942	71.7906	3.0921	None	1.9658	""	""	81691000
428	BET02050	2024-05-03T23:10:00	""	""	16.1453	65.8629	None	3	3.1706	3.2773	15.1144	79.0451	3.5593	None	1.9822	""	""	81691000
429	BET02050	2024-05-03T23:20:00	""	""	16.1514	67.107	None	3	3	3.1659	16.391	81.4514	3.5659	None	1.9874	""	""	81691000
430	BET02050	2024-05-03T23:30:00	""	""	16.1043	69.8977	None	3	4	3.6721	18.7704	80.9935	3.3179	None	1.9924	""	""	81691000
431	BET02050	2024-05-03T23:40:00	""	""	15.9544	72.8751	None	3	3.492	3.4842	18.4294	78.5093	3.2785	None	1.9905	""	""	81691000
432	BET02050	2024-05-03T23:50:00	""	""	15.841	74.3009	None	3	4	4.8923	15.2431	74.704	4.6669	None	1.9873	""	""	81691000
433	BET02050	2024-05-04T00:00:00	""	""	15.8282	73.4911	None	2.8342	3.7514	4.5415	12.1684	65.2355	6.7322	None	1.9856	""	""	81691000
434	BET02050	2024-05-04T00:10:00	""	""	15.8099	73.5219	None	3	3.7893	4.5998	11.4484	70.2319	6.4103	None	1.9865	""	""	81691000
435	BET02050	2024-05-04T00:20:00	""	""	15.7581	73.4662	None	3	4	4	12.6102	66.4459	6.8012	None	1.9808	""	""	81691000
436	BET02050	2024-05-04T00:30:00	""	""	15.6817	74.8485	None	3.7773	4.3156	4.4089	17.0927	59.5137	5.484	None	1.9676	""	""	81691000
437	BET02050	2024-05-04T00:40:00	""	""	15.1266	71.9788	None	4	5.0001	5	11.5036	32.5637	11.6584	None	1.6883	""	""	81691000
438	BET02050	2024-05-04T00:50:00	""	""	14.3467	66.2504	None	5	6.2622	6.2225	12.3519	24.3099	8.9417	None	1.1618	""	""	81691000
439	BET02050	2024-05-04T01:00:00	""	""	13.9206	63.6009	None	None	None	None	16.4913	22.4558	7.1097	None	1.0678	""	""	81691000
440	BET02050	2024-05-04T01:10:00	""	""	13.6513	63.2991	None	7.8912	10	10.8107	18.3189	23.0615	6.5422	None	1.0585	""	""	81691000
441	BET02050	2024-05-04T01:20:00	""	""	13.4471	63.928	None	8.0352	9.8714	10.4293	19.4438	17.195	6.1149	None	1.0598	""	""	81691000
442	BET02050	2024-05-04T01:30:00	""	""	13.3955	64.3807	None	8.1932	11.2805	11.9192	21.2348	21.9183	5.4524	None	1.0574	""	""	81691000
443	BET02050	2024-05-04T01:40:00	""	""	13.1783	64.8365	None	7.0001	10.2098	11.2221	22.885	17.1234	5.7249	None	1.055	""	""	81691000
444	BET02050	2024-05-04T01:50:00	""	""	13.0961	64.8896	None	6.0001	9.4437	9.6354	20.3223	19.134	5.46	None	1.0555	""	""	81691000
445	BET02050	2024-05-04T02:00:00	""	""	13.0103	65.8924	None	8	10.9438	11.1439	28.7646	16.5171	5.0186	None	1.06	""	""	81691000
446	BET02050	2024-05-04T02:10:00	""	""	12.9032	67.6701	None	9.2904	11.5768	12.7859	33.4046	12.8336	5.0759	None	1.0634	""	""	81691000
447	BET02050	2024-05-04T02:20:00	""	""	12.6892	68.3305	None	10	12.7271	13.7268	32.1405	11.1971	4.7742	None	1.0599	""	""	81691000
448	BET02050	2024-05-04T02:30:00	""	""	12.7067	69.0641	None	10.231	13.2845	14.0712	31.2647	11.1721	5.0031	None	1.0661	""	""	81691000
449	BET02050	2024-05-04T02:40:00	""	""	12.3896	70.0935	None	10.0001	13.7613	14.4645	34.6122	8.8059	4.8806	None	1.0529	""	""	81691000
450	BET02050	2024-05-04T02:50:00	""	""	12.3907	71.1945	None	11.2169	14.055	14.8765	31.7009	12.0379	4.8947	None	1.0621	""	""	81691000
451	BET02050	2024-05-04T03:00:00	""	""	12.4898	71.3794	None	12	15.8742	16.6106	32.0204	10.944	5.3224	None	1.0723	""	""	81691000
452	BET02050	2024-05-04T03:10:00	""	""	12.4557	71.7605	None	13.1547	17.3405	18.7012	38.248	10.1783	5.7637	None	1.0699	""	""	81691000
453	BET02050	2024-05-04T03:20:00	""	""	12.3671	72.1678	None	12.3942	16.529	17.2305	33.8142	8.8631	5.6429	None	1.0646	""	""	81691000
454	BET02050	2024-05-04T03:30:00	""	""	12.3136	72.127	None	10.4834	13.5358	14.1427	27.4559	14.8033	5.6159	None	1.0654	""	""	81691000
455	BET02050	2024-05-04T03:40:00	""	""	12.2998	72.0789	None	10.98	13.6669	14.1724	28.0062	10.5963	5.9133	None	1.0715	""	""	81691000
456	BET02050	2024-05-04T03:50:00	""	""	12.2097	71.5413	None	11.2856	14.4091	15.6771	25.5285	11.6266	5.4954	None	1.071	""	""	81691000
457	BET02050	2024-05-04T04:00:00	""	""	12.3346	71.0145	None	9.831	12.7273	13.2996	24.4414	12.8439	6.0801	None	1.0874	""	""	81691000
458	BET02050	2024-05-04T04:10:00	""	""	12.3669	70.5109	None	9.9878	12.6926	13.3293	21.1729	14.2552	6.0158	None	1.0931	""	""	81691000
459	BET02050	2024-05-04T04:20:00	""	""	12.3341	70.0943	None	9	11.5624	12.4397	20.5237	14.4386	5.5728	None	1.0771	""	""	81691000
460	BET02050	2024-05-04T04:30:00	""	""	12.4351	69.3209	None	9	11.34	13.0555	17.3908	18.3529	6.1159	None	1.0817	""	""	81691000
461	BET02050	2024-05-04T04:40:00	""	""	12.6084	68.4776	None	8.7073	10.6039	11.2051	15.5223	21.9305	6.2575	None	1.069	""	""	81691000
462	BET02050	2024-05-04T04:50:00	""	""	12.694	67.7899	None	8.0002	10.8236	11.3201	17.29	20.8804	6.5335	None	1.0717	""	""	81691000
463	BET02050	2024-05-04T05:00:00	""	""	12.4929	68.2801	None	9.9107	12.2591	12.9206	22.4721	17.4282	6.4141	None	1.0536	""	""	81691000
464	BET02050	2024-05-04T05:10:00	""	""	12.4543	68.6217	None	9.1574	11.9147	12.5524	24.1275	16.447	6.8066	None	1.0514	""	""	81691000
465	BET02050	2024-05-04T05:20:00	""	""	12.4511	68.869	None	8.0001	10.5805	11.2453	24.7657	16.1077	7.134	None	1.0483	""	""	81691000
466	BET02050	2024-05-04T05:30:00	""	""	12.4313	69.2599	None	9.1754	11.0361	12.0335	27.325	15.1666	8.3543	None	1.0456	""	""	81691000
467	BET02050	2024-05-04T05:40:00	""	""	12.5327	69.5714	None	9	11.1452	12.111	32.1646	13.7406	11.7663	None	1.0423	""	""	81691000
468	BET02050	2024-05-04T05:50:00	""	""	12.5282	70.3713	None	10	13.2437	14.1336	33.4709	10.8975	12.2317	None	1.0462	""	""	81691000
469	BET02050	2024-05-04T06:00:00	""	""	12.7355	70.853	None	10.503	12.6522	13.9183	34.359	9.9982	13.0719	None	1.0635	""	""	81691000
470	BET02050	2024-05-04T06:10:00	""	""	12.9983	71.2409	None	11.6497	15.2702	16.3149	34.3704	11.493	14.4392	None	1.0733	""	""	81691000
471	BET02050	2024-05-04T06:20:00	""	""	13.3196	70.7243	None	12.6199	16.7649	17.9927	28.7315	13.8323	13.3657	None	1.0876	""	""	81691000
472	BET02050	2024-05-04T06:30:00	""	""	13.7284	69.9146	None	12.5307	16.8983	18.6186	31.0345	14.903	14.4001	None	1.1001	""	""	81691000
473	BET02050	2024-05-04T06:40:00	""	""	14.1066	68.4971	None	11.8037	15.4424	16.0711	20.4915	18.9969	12.698	None	1.1254	""	""	81691000
474	BET02050	2024-05-04T06:50:00	""	""	14.4348	67.6564	None	10.7628	14.2356	15.2097	21.448	20.0349	11.1677	None	1.1553	""	""	81691000
475	BET02050	2024-05-04T07:00:00	""	""	14.844	67.1205	None	9.6498	12.8065	14.2507	20.7578	20.6682	13.9329	None	1.1627	""	""	81691000
476	BET02050	2024-05-04T07:10:00	""	""	15.1608	66.231	None	10.2675	13.7119	13.6709	20.3787	27.413	14.1062	None	1.2517	""	""	81691000
477	BET02050	2024-05-04T07:20:00	""	""	15.4756	67.1168	None	11.4807	14.704	15.757	23.4216	25.5396	13.2198	None	1.2739	""	""	81691000
478	BET02050	2024-05-04T07:30:00	""	""	15.6934	68.9896	None	11.2444	15.2467	15.2554	22.844	29.0912	15.2297	None	1.3585	""	""	81691000
479	BET02050	2024-05-04T07:40:00	""	""	16.1234	69.9329	None	10.054	13.5872	15.6347	27.0717	29.4894	13.4966	None	1.473	""	""	81691000
480	BET02050	2024-05-04T07:50:00	""	""	16.547	72.6007	None	10.8468	14.43	15.3986	34.0807	25.2405	11.6139	None	1.5836	""	""	81691000
481	BET02050	2024-05-04T08:00:00	""	""	17.1874	87.9221	None	10.1704	12.4363	13.0766	29.7475	73.9852	5.9364	None	1.945	""	""	81691000
482	BET02050	2024-05-04T08:10:00	""	""	17.6187	93.4471	None	5.319	7.3874	7.3892	20.4522	64.4999	6.8843	None	1.917	""	""	81691000
483	BET02050	2024-05-04T08:20:00	""	""	17.8341	92.5881	None	6.9378	8.839	9.3685	17.7742	60.7558	9.2044	None	1.8403	""	""	81691000
484	BET02050	2024-05-04T08:30:00	""	""	18.0428	92.9888	None	7.4139	9.7166	10.2446	12.3037	77.5303	8.9856	None	1.903	""	""	81691000
485	BET02050	2024-05-04T08:40:00	""	""	18.2073	91.684	None	5.8151	7.5745	8.7762	7.8982	71.8368	10.6229	None	1.9064	""	""	81691000
486	BET02050	2024-05-04T08:50:00	""	""	18.2024	91.1521	None	5	7.0314	7.3276	7.3885	73.4494	10.0708	None	1.8966	""	""	81691000
487	BET02050	2024-05-04T09:00:00	""	""	18.3538	89.8658	None	5.7172	7.3673	7.5237	7.4772	78.4246	12.1562	None	1.9389	""	""	81691000
488	BET02050	2024-05-04T09:10:00	""	""	18.6378	88.5294	None	6.6728	8.8124	9.6677	3.2623	77.3269	11.4046	None	1.9533	""	""	81691000
489	BET02050	2024-05-04T09:20:00	""	""	18.3991	87.7212	None	6	8.3868	9.0852	3.6569	80.889	11.6222	None	1.986	""	""	81691000
490	BET02050	2024-05-04T09:30:00	""	""	18.3698	89.724	None	6.5627	7.6136	8.2695	3.7965	82.6142	10.6138	None	1.9448	""	""	81691000
491	BET02050	2024-05-04T09:40:00	""	""	18.0605	87.3664	None	5.9921	7.6797	8.0327	4.6879	87.662	10.8618	None	1.9989	""	""	81691000
492	BET02050	2024-05-04T09:50:00	""	""	18.5187	90.2814	None	5.9999	6.7412	7.6131	4.9676	80.6696	11.1073	None	1.9617	""	""	81691000
493	BET02050	2024-05-04T10:00:00	""	""	18.5957	89.7765	None	5.9237	8.0704	8.165	0.1841	85.1743	10.6146	None	1.9746	""	""	81691000
494	BET02050	2024-05-04T10:10:00	""	""	19.0945	87.1554	None	6.3642	7.8845	8.4351	0.092	86.0213	11.2582	None	1.999	""	""	81691000
495	BET02050	2024-05-04T10:20:00	""	""	19.1629	85.9316	None	5.0503	6.9583	7.2196	0.1175	82.7385	11.8116	None	1.9997	""	""	81691000
496	BET02050	2024-05-04T10:30:00	""	""	19.3219	82.2756	None	4.9648	6.718	7.627	0.0673	76.4514	12.6202	None	1.9995	""	""	81691000
497	BET02050	2024-05-04T10:40:00	""	""	19.1974	84.3938	None	5	6.4815	7.2955	2.7716	82.13	10.5942	None	1.9988	""	""	81691000
498	BET02050	2024-05-04T10:50:00	""	""	19.3885	85.8074	None	5.1827	6.9173	7.5296	8.3274	80.7503	11.0002	None	1.974	""	""	81691000
499	BET02050	2024-05-04T11:00:00	""	""	19.7277	83.9566	None	6	8	8.0679	14.6122	66.9035	13.0203	None	1.9922	""	""	81691000
500	BET02050	2024-05-04T11:10:00	""	""	19.6033	82.4245	None	6.2753	8.4819	8.7668	0.1971	83.0015	11.2432	None	2.0002	""	""	81691000
501	BET02050	2024-05-04T11:20:00	""	""	19.7701	78.103	None	4.8905	6.1702	6.0972	0.2185	83.435	9.8953	None	2.0014	""	""	81691000
502	BET02050	2024-05-04T11:30:00	""	""	20.1896	71.269	None	4.4256	4.3385	6.4302	0.066	77.9571	9.182	None	2.0044	""	""	81691000
503	BET02050	2024-05-04T11:40:00	""	""	21.454	67.0151	None	4.742	6.4351	6.6062	0.0874	77.2722	11.2564	None	2.0361	""	""	81691000
504	BET02050	2024-05-04T11:50:00	""	""	21.8948	65.5238	None	3.4685	4.3993	4.8722	0.0485	94.5931	10.5077	None	2.1202	""	""	81691000
505	BET02050	2024-05-04T12:00:00	""	""	21.7164	66.9451	None	5	6.8574	7.1356	0.0238	80.7265	10.3594	None	2.0603	""	""	81691000
506	BET02050	2024-05-04T12:10:00	""	""	21.7986	66.2766	None	4.8737	7.072	8.2098	0.0505	76.127	11.2791	None	2.0656	""	""	81691000
507	BET02050	2024-05-04T12:20:00	""	""	21.9778	61.6473	None	5.8998	7.9314	9.1099	0.1593	74.0839	11.3123	None	2.2526	""	""	81691000
508	BET02050	2024-05-04T12:30:00	""	""	22.3679	58.6601	None	6.0232	7.7227	8.4171	0.0408	76.9391	10.8123	None	2.6446	""	""	81691000
509	BET02050	2024-05-04T12:40:00	""	""	22.2951	56.9213	None	6	7.3276	8.5434	0.0508	81.458	10.0247	None	2.8688	""	""	81691000
510	BET02050	2024-05-04T12:50:00	""	""	22.882	51.3805	None	4.2628	5.9241	6.2442	0.1809	80.6404	11.0282	None	3.4755	""	""	81691000
511	BET02050	2024-05-04T13:00:00	""	""	23.0029	49.7428	None	3.7619	4.5508	4.4955	0.1047	82.7307	10.4066	None	3.567	""	""	81691000
512	BET02050	2024-05-04T13:10:00	""	""	23.4249	46.6456	None	3	4.1754	4.3266	0.0441	71.5293	10.6656	None	3.7794	""	""	81691000
513	BET02050	2024-05-04T13:20:00	""	""	23.1785	49.1725	None	3	4.1284	4.1823	0.0337	82.7251	9.4572	None	3.4824	""	""	81691000
514	BET02050	2024-05-04T13:30:00	""	""	23.2249	46.7076	None	2.2433	3.435	3.6976	0.1421	81.0533	9.679	None	3.7004	""	""	81691000
515	BET02050	2024-05-04T13:40:00	""	""	22.9868	48.2193	None	2	3.2459	3.4304	0.1383	73.5997	8.9869	None	3.4968	""	""	81691000
516	BET02050	2024-05-04T13:50:00	""	""	22.6498	50.465	None	2.3824	3	3	4.2579	81.839	8.2077	None	3.4047	""	""	81691000
517	BET02050	2024-05-04T14:00:00	""	""	22.5396	49.1652	None	2	3.1889	3.3308	2.8966	78.5049	8.5317	None	3.4266	""	""	81691000
518	BET02050	2024-05-04T14:10:00	""	""	22.4053	45.839	None	2.7869	3.0597	3.0892	0.184	71.9896	9.0082	None	3.6699	""	""	81691000
519	BET02050	2024-05-04T14:20:00	""	""	22.5046	45.4614	None	1.8372	2	2.2473	3.6544	78.6872	8.0472	None	3.6892	""	""	81691000
520	BET02050	2024-05-04T14:30:00	""	""	21.9125	49.2424	None	2.115	3	3.2328	7.7493	92.3636	7.3456	None	3.377	""	""	81691000
521	BET02050	2024-05-04T14:40:00	""	""	21.0929	50.7643	None	2.4999	2.931	3.0032	7.093	99.9308	2.1381	None	3.2378	""	""	81691000
522	BET02050	2024-05-04T14:50:00	""	""	21.1857	52.3243	None	2.6118	3.1697	3.2772	10.6023	91.1218	1.805	None	3.1892	""	""	81691000
523	BET02050	2024-05-04T15:00:00	""	""	22.038	50.2562	None	1.7497	2.5894	2.6046	10.6175	88.3201	7.2943	None	3.4156	""	""	81691000
524	BET02050	2024-05-04T15:10:00	""	""	22.2294	48.0238	None	2.0001	2.7172	2.8151	6.1752	91.1207	7.7521	None	3.479	""	""	81691000
525	BET02050	2024-05-04T15:20:00	""	""	21.7689	45.6448	None	3.2286	4.1507	4.22	4.7259	103.464	7.0138	None	3.5266	""	""	81691000
526	BET02050	2024-05-04T15:30:00	""	""	21.8109	46.3505	None	2.7607	4.1073	4.1329	3.2006	87.2372	6.8757	None	3.5806	""	""	81691000
527	BET02050	2024-05-04T15:40:00	""	""	22.2032	45.7022	None	3	3.594	4	1.1834	90.9361	8.2672	None	3.6952	""	""	81691000
528	BET02050	2024-05-04T15:50:00	""	""	23.2553	46.1481	None	2	3.2319	3.9321	10.1024	91.6787	7.4	None	3.7848	""	""	81691000
529	BET02050	2024-05-04T16:00:00	""	""	21.5032	47.7494	None	2.8498	3.8611	4.1952	10.2646	97.9139	5.4431	None	3.4256	""	""	81691000
530	BET02050	2024-05-04T16:10:00	""	""	21.2551	48.5277	None	3.0342	3.9905	4.6521	8.9315	91.0046	3.059	None	3.3767	""	""	81691000
531	BET02050	2024-05-04T16:20:00	""	""	21.2497	46.282	None	2.7433	3.5963	4.2132	5.4819	85.6261	2.9209	None	3.506	""	""	81691000
532	BET02050	2024-05-04T16:30:00	""	""	21.4849	44.142	None	2	3.0533	3.0849	4.3625	87.3529	5.3036	None	3.7222	""	""	81691000
533	BET02050	2024-05-04T16:40:00	""	""	22.3458	42.8291	None	1.8242	2.3584	2.3708	4.4905	91.2353	7.7613	None	3.8945	""	""	81691000
534	BET02050	2024-05-04T16:50:00	""	""	21.7291	41.9165	None	1.3714	2.4606	2.6225	4.818	85.9483	7.3708	None	3.8009	""	""	81691000
535	BET02050	2024-05-04T17:00:00	""	""	21.4319	42.3369	None	1.0001	2.0001	2	6.2037	85.1188	4.4357	None	3.7199	""	""	81691000
536	BET02050	2024-05-04T17:10:00	""	""	21.5705	41.3748	None	1.3218	1.9559	2.4533	7.1122	75.2085	6.0115	None	3.8099	""	""	81691000
537	BET02050	2024-05-04T17:20:00	""	""	21.772	39.6467	None	1	2	2.893	5.2281	69.7131	8.109	None	3.9626	""	""	81691000
538	BET02050	2024-05-04T17:30:00	""	""	21.4171	39.0608	None	1.5194	2.0768	2.115	5.1084	73.3601	4.8506	None	3.9276	""	""	81691000
539	BET02050	2024-05-04T17:40:00	""	""	21.7474	39.2561	None	1	1.0001	1.5	10.0992	77.6892	6.6442	None	3.9814	""	""	81691000
540	BET02050	2024-05-04T17:50:00	""	""	21.7393	39.3657	None	1.6919	2.485	2.5772	9.7437	81.1866	6.373	None	3.9146	""	""	81691000
541	BET02050	2024-05-04T18:00:00	""	""	21.229	44.3396	None	2.0479	2.909	2.9916	17.7761	84.7806	2.329	None	3.5037	""	""	81691000
542	BET02050	2024-05-04T18:10:00	""	""	20.6015	48.6688	None	2	3.3739	3.7419	21.331	94.2244	0.0771	None	3.1436	""	""	81691000
543	BET02050	2024-05-04T18:20:00	""	""	19.5137	55.7758	None	3.1232	4.2818	4.0943	25.6057	99.3152	0.0485	None	2.1925	""	""	81691000
544	BET02050	2024-05-04T18:30:00	""	""	19.0752	58.0204	None	3.2628	3.8911	4.4138	23.6822	99.2168	0.2417	None	2.0713	""	""	81691000
545	BET02050	2024-05-04T18:40:00	""	""	18.8257	60.8406	None	3.6615	5.204	6.0993	23.4514	98.0115	0.0261	None	2.0275	""	""	81691000
546	BET02050	2024-05-04T18:50:00	""	""	18.6147	61.3466	None	3.9694	5.2567	5.5903	22.9265	92.0584	0.0858	None	2.0103	""	""	81691000
547	BET02050	2024-05-04T19:00:00	""	""	18.4835	62.122	None	3.8531	4	4	21.2007	87.3037	0.1644	None	2.0055	""	""	81691000
548	BET02050	2024-05-04T19:10:00	""	""	18.3978	61.3592	None	4.1696	5.2762	5.4702	18.4824	83.5882	0.0391	None	2.0058	""	""	81691000
549	BET02050	2024-05-04T19:20:00	""	""	18.4028	59.7515	None	4.2442	6.0244	6.5115	14.9887	79.7304	0.366	None	2.0063	""	""	81691000
550	BET02050	2024-05-04T19:30:00	""	""	18.6134	57.2701	None	3.6598	4	5.0213	13.0776	70.6373	2.4353	None	2.0234	""	""	81691000
551	BET02050	2024-05-04T19:40:00	""	""	18.7048	55.1376	None	3.6734	5.446	5.813	10.2024	69.371	2.4197	None	2.1045	""	""	81691000
552	BET02050	2024-05-04T19:50:00	""	""	18.8164	52.9855	None	3.1979	4.895	5.2104	8.0162	63.7089	2.8906	None	2.4075	""	""	81691000
553	BET02050	2024-05-04T20:00:00	""	""	18.9271	51.9447	None	3	4	4.817	8.6269	61.6349	2.6076	None	2.0662	""	""	81691000
554	BET02050	2024-05-04T20:10:00	""	""	19.0459	50.5583	None	3.5136	4.7741	5.3083	7.2713	62.9613	2.544	None	2.2182	""	""	81691000
555	BET02050	2024-05-04T20:20:00	""	""	19.1129	50.0346	None	3.9073	4.417	4.8666	10.1839	54.4568	2.9738	None	2.0845	""	""	81691000
556	BET02050	2024-05-04T20:30:00	""	""	19.0777	48.9545	None	3.6914	4.9476	5.0824	4.106	63.5424	3.2225	None	2.1112	""	""	81691000
557	BET02050	2024-05-04T20:40:00	""	""	19.0605	48.0584	None	2.7466	4.001	4.0126	2.3469	70.8296	2.7694	None	2.5276	""	""	81691000
558	BET02050	2024-05-04T20:50:00	""	""	19.0498	49.6752	None	2.0001	3	3	8.9222	70.0112	1.9255	None	2.2922	""	""	81691000
559	BET02050	2024-05-04T21:00:00	""	""	19.219	49.9725	None	2.9874	3.7828	4.5992	12.8016	64.6971	1.7818	None	2.162	""	""	81691000
560	BET02050	2024-05-04T21:10:00	""	""	18.6903	51.1376	None	3.5569	4.3895	4.643	16.2215	62.0353	1.771	None	1.7253	""	""	81691000
561	BET02050	2024-05-04T21:20:00	""	""	18.3976	52.3333	None	3.9307	5.5378	6.1146	15.8523	62.0165	1.2738	None	1.7997	""	""	81691000
562	BET02050	2024-05-04T21:30:00	""	""	18.2405	52.7395	None	4	5	5	19.2702	51.2335	1.4692	None	1.6751	""	""	81691000
563	BET02050	2024-05-04T21:40:00	""	""	18.3088	52.7714	None	4.3568	5.6007	6.1917	12.0754	58.594	2.3833	None	1.8268	""	""	81691000
564	BET02050	2024-05-04T21:50:00	""	""	18.4736	52.6024	None	3.0001	4.7409	5.1881	20.9174	46.2142	1.6328	None	1.5849	""	""	81691000
565	BET02050	2024-05-04T22:00:00	""	""	18.3815	52.6256	None	5.0481	6.3674	7.0644	18.805	42.4545	2.4092	None	1.5528	""	""	81691000
566	BET02050	2024-05-04T22:10:00	""	""	18.3499	52.4414	None	4.8641	6	6	18.7755	40.427	1.9705	None	1.4975	""	""	81691000
567	BET02050	2024-05-04T22:20:00	""	""	18.2781	52.4403	None	5.6413	8.0055	8.0157	19.5422	43.4101	2.4958	None	1.5067	""	""	81691000
568	BET02050	2024-05-04T22:30:00	""	""	18.2154	52.673	None	6.6599	8.6787	9.7816	20.2503	39.2709	2.6751	None	1.4481	""	""	81691000
569	BET02050	2024-05-04T22:40:00	""	""	18.1099	52.9817	None	6.9318	8.4618	8.7805	25.8303	37.3756	2.8175	None	1.3424	""	""	81691000
570	BET02050	2024-05-04T22:50:00	""	""	18.0946	53.2723	None	6.0584	7.5088	8.1739	26.132	33.8085	3.389	None	1.298	""	""	81691000
571	BET02050	2024-05-04T23:00:00	""	""	18.0143	53.7911	None	4.7071	6.1943	6.5854	33.1992	32.9945	2.819	None	1.3888	""	""	81691000
572	BET02050	2024-05-04T23:10:00	""	""	17.8986	54.4135	None	5.8207	7.2431	8.3502	29.2098	38.8157	1.7307	None	1.4438	""	""	81691000
573	BET02050	2024-05-04T23:20:00	""	""	17.7084	55.4322	None	5.4619	7.2081	8.0155	21.3663	49.4517	1.5988	None	1.6232	""	""	81691000
574	BET02050	2024-05-04T23:30:00	""	""	17.5814	56.519	None	7.1343	9.305	9.8634	22.0552	48.927	1.2726	None	1.6562	""	""	81691000
575	BET02050	2024-05-04T23:40:00	""	""	17.4874	57.4767	None	6	7.3802	7.4708	21.9856	42.6837	1.4883	None	1.5624	""	""	81691000
576	BET02050	2024-05-04T23:50:00	""	""	17.5238	58.2811	None	6.2376	8.5095	8.5567	20.4592	49.6721	1.959	None	1.7169	""	""	81691000
577	BET02050	2024-05-05T00:00:00	""	""	17.451	58.9944	None	7.1943	9.0325	9.5657	20.6372	41.9725	4.1224	None	1.5612	""	""	81691000
578	BET02050	2024-05-05T00:10:00	""	""	17.0944	56.3219	None	6.2652	8.6239	9.1443	16.1234	34.5786	6.186	None	1.3449	""	""	81691000
579	BET02050	2024-05-05T00:20:00	""	""	16.789	55.1651	None	6.5414	7.8561	8.4306	17.1022	34.3299	5.7627	None	1.1929	""	""	81691000
580	BET02050	2024-05-05T00:30:00	""	""	16.6986	55.3286	None	6.0771	7.9334	8.5622	19.8921	30.7244	5.9589	None	1.1647	""	""	81691000
581	BET02050	2024-05-05T00:40:00	""	""	16.3965	55.488	None	5.6128	7.0532	7.4518	24.4773	29.039	5.5499	None	1.1324	""	""	81691000
582	BET02050	2024-05-05T00:50:00	""	""	16.4159	55.7912	None	6.645	8.3019	8.7219	25.3005	28.0986	6.6044	None	1.1363	""	""	81691000
583	BET02050	2024-05-05T01:00:00	""	""	16.3543	55.9861	None	None	None	None	28.1774	25.2821	5.139	None	1.1128	""	""	81691000
584	BET02050	2024-05-05T01:10:00	""	""	16.1377	56.6325	None	6	8.5951	9.569	36.0509	18.391	5.9547	None	1.1073	""	""	81691000
585	BET02050	2024-05-05T01:20:00	""	""	16.0537	57.0217	None	7.0791	10	9.4052	27.0464	24.842	5.7158	None	1.1411	""	""	81691000
586	BET02050	2024-05-05T01:30:00	""	""	15.5822	57.1159	None	6	7	7.7057	30.7028	22.1225	6.3084	None	1.0858	""	""	81691000
587	BET02050	2024-05-05T01:40:00	""	""	15.4188	57.4948	None	6.4806	8	8.1223	26.5778	22.3764	5.3581	None	1.0791	""	""	81691000
588	BET02050	2024-05-05T01:50:00	""	""	15.3844	57.7293	None	6.5199	7.8853	8.0839	25.4361	29.2353	5.6802	None	1.0872	""	""	81691000
589	BET02050	2024-05-05T02:00:00	""	""	15.3723	57.9262	None	7.0711	8.7784	9.0444	23.2943	27.6809	5.5862	None	1.0915	""	""	81691000
590	BET02050	2024-05-05T02:10:00	""	""	15.0928	58.8352	None	6	7.9857	8.3329	25.4176	27.7649	5.3991	None	1.0972	""	""	81691000
591	BET02050	2024-05-05T02:20:00	""	""	15.1186	58.8408	None	6.8693	9.2248	9.379	26.0931	21.6246	5.6462	None	1.0865	""	""	81691000
592	BET02050	2024-05-05T02:30:00	""	""	15.0274	59.12	None	7.159	8.8089	9.2547	28.3347	19.4136	5.6823	None	1.0811	""	""	81691000
593	BET02050	2024-05-05T02:40:00	""	""	14.8133	59.4721	None	8.0674	10.3462	10.967	28.7609	19.05	5.2192	None	1.0701	""	""	81691000
594	BET02050	2024-05-05T02:50:00	""	""	14.7077	59.8992	None	8.4672	10.6943	11.1244	28.4731	18.0016	5.5964	None	1.0738	""	""	81691000
595	BET02050	2024-05-05T03:00:00	""	""	14.555	60.3065	None	8.3026	10	10.8477	30.0431	17.6928	4.8213	None	1.0693	""	""	81691000
596	BET02050	2024-05-05T03:10:00	""	""	14.3704	60.5338	None	8.8719	11.4656	12.2876	29.8681	15.7291	4.6199	None	1.0607	""	""	81691000
597	BET02050	2024-05-05T03:20:00	""	""	13.9848	61.4024	None	9.4002	11.5773	12.3825	32.1719	18.3376	4.0672	None	1.0548	""	""	81691000
598	BET02050	2024-05-05T03:30:00	""	""	13.692	62.0774	None	8.3912	9.8437	10.5426	30.0386	12.4253	4.1638	None	1.052	""	""	81691000
599	BET02050	2024-05-05T03:40:00	""	""	13.5906	62.6249	None	7.0001	9.6922	10.9184	30.4559	14.1372	4.0337	None	1.0493	""	""	81691000
600	BET02050	2024-05-05T03:50:00	""	""	13.3524	63.3278	None	8.3409	10.5084	11.0381	33.2092	12.7549	3.6856	None	1.0445	""	""	81691000
601	BET02050	2024-05-05T04:00:00	""	""	13.3061	64.222	None	8.8951	11.3202	11.6773	33.0371	14.2159	4.0689	None	1.0454	""	""	81691000
602	BET02050	2024-05-05T04:10:00	""	""	13.0637	65.7761	None	9.5743	11.4986	12	32.9702	11.7906	3.949	None	1.0441	""	""	81691000
603	BET02050	2024-05-05T04:20:00	""	""	13.0775	66.2979	None	10.7598	14	14.4112	33.6991	9.9121	4.1029	None	1.0456	""	""	81691000
604	BET02050	2024-05-05T04:30:00	""	""	13.0101	66.9882	None	10.0001	13.9776	14.4829	34.67	8.9146	4.3602	None	1.0468	""	""	81691000
605	BET02050	2024-05-05T04:40:00	""	""	13.0462	68.1262	None	11	14.2928	15.3121	29.1904	12.142	4.3618	None	1.0477	""	""	81691000
606	BET02050	2024-05-05T04:50:00	""	""	13.1184	68.9181	None	11.2827	14.5964	15.5179	25.852	15.4697	4.9285	None	1.0568	""	""	81691000
607	BET02050	2024-05-05T05:00:00	""	""	13.1572	69.2848	None	11.8306	15.4027	16.0188	25.9611	14.5034	5.3246	None	1.0574	""	""	81691000
608	BET02050	2024-05-05T05:10:00	""	""	13.1315	69.7564	None	13.0818	15.9598	16.7584	22.8677	19.5985	5.6893	None	1.0637	""	""	81691000
609	BET02050	2024-05-05T05:20:00	""	""	13.1236	70.3756	None	12	15.282	15.5726	21.7318	21.6784	6.2206	None	1.0696	""	""	81691000
610	BET02050	2024-05-05T05:30:00	""	""	13.1201	70.9838	None	12.1288	15.1324	15.6405	23.3291	19.4107	6.8323	None	1.0724	""	""	81691000
611	BET02050	2024-05-05T05:40:00	""	""	13.3755	71.8348	None	13	16.1339	17.0142	24.0069	19.7069	7.816	None	1.0869	""	""	81691000
612	BET02050	2024-05-05T05:50:00	""	""	13.6099	72.1657	None	13.0794	16.1216	16.6781	26.3099	19.5739	11.4683	None	1.1021	""	""	81691000
613	BET02050	2024-05-05T06:00:00	""	""	13.8816	72.6631	None	13.0098	15.7585	17.0593	23.746	20.5436	9.2069	None	1.1307	""	""	81691000
614	BET02050	2024-05-05T06:10:00	""	""	14.3379	72.4779	None	12.4209	15.8139	16.7274	25.1798	18.4216	10.0552	None	1.1643	""	""	81691000
615	BET02050	2024-05-05T06:20:00	""	""	14.4936	72.8951	None	13.6108	16.909	17.8769	22.8039	22.6122	11.0295	None	1.1724	""	""	81691000
616	BET02050	2024-05-05T06:30:00	""	""	14.7288	73.3132	None	13.1827	17.4602	18.4382	23.0517	22.2986	11.1177	None	1.2213	""	""	81691000
617	BET02050	2024-05-05T06:40:00	""	""	15.4624	73.358	None	14.2436	18.1683	18.9947	25.2122	19.905	14.7783	None	1.3174	""	""	81691000
618	BET02050	2024-05-05T06:50:00	""	""	15.8325	73.4803	None	15.5956	19.1693	19.9366	24.5025	18.9565	15.7427	None	1.3559	""	""	81691000
619	BET02050	2024-05-05T07:00:00	""	""	16.095	73.5226	None	16.6503	19.6026	21.1019	35.2341	13.2958	14.3966	None	1.4145	""	""	81691000
620	BET02050	2024-05-05T07:10:00	""	""	16.6651	89.4691	None	18.4311	23.1238	24.3699	46.281	38.3037	9.4765	None	1.7823	""	""	81691000
621	BET02050	2024-05-05T07:20:00	""	""	16.9934	93.9665	None	18.3434	22.854	23.4138	30.5932	54.9516	10.1348	None	1.7691	""	""	81691000
622	BET02050	2024-05-05T07:30:00	""	""	17.1572	95.3663	None	18.9029	22.5073	23.8496	31.8642	56.6306	11.1815	None	1.7286	""	""	81691000
623	BET02050	2024-05-05T07:40:00	""	""	17.1499	98.1873	None	15.9446	20.0831	20.6777	24.2892	64.9877	10.6005	None	1.71	""	""	81691000
624	BET02050	2024-05-05T07:50:00	""	""	17.3685	99.0175	None	15.7828	20.6216	21.5162	30.5675	51.8444	15.0246	None	1.6427	""	""	81691000
625	BET02050	2024-05-05T08:00:00	""	""	17.5458	98.5019	None	17.2434	21.6759	23.3008	29.4649	47.6841	15.2387	None	1.6428	""	""	81691000
626	BET02050	2024-05-05T08:10:00	""	""	17.7801	98.3384	None	16.2414	21.1815	20.9842	23.3511	56.0745	15.5225	None	1.7399	""	""	81691000
627	BET02050	2024-05-05T08:20:00	""	""	17.8042	96.9865	None	15.9657	20.7623	21.5639	33.3468	37.2615	18.5371	None	1.5633	""	""	81691000
628	BET02050	2024-05-05T08:30:00	""	""	18.04	96.4768	None	16.6484	20.942	21.9189	39.6753	33.1408	21.709	None	1.564	""	""	81691000
629	BET02050	2024-05-05T08:40:00	""	""	17.8182	95.3432	None	17.4942	21.8325	23.2787	46.8172	21.6505	23.2971	None	1.5041	""	""	81691000
630	BET02050	2024-05-05T08:50:00	""	""	17.9635	94.3435	None	17.5843	21.8168	21.4423	41.0361	33.0099	19.9796	None	1.6043	""	""	81691000
631	BET02050	2024-05-05T09:00:00	""	""	18.2928	93.9622	None	15.7875	19.3941	19.4606	13.5944	61.3173	15.4381	None	1.8692	""	""	81691000
632	BET02050	2024-05-05T09:10:00	""	""	18.4062	93.3623	None	15.4244	19.3052	20.4716	17.6943	62.3478	15.8047	None	1.8823	""	""	81691000
633	BET02050	2024-05-05T09:20:00	""	""	18.6091	91.0796	None	15.3898	20.0593	19.6999	11.2026	70.677	14.1033	None	1.9358	""	""	81691000
634	BET02050	2024-05-05T09:30:00	""	""	18.6945	90.0594	None	13.7019	18.1726	19.9612	13.268	68.0352	14.7443	None	1.9168	""	""	81691000
635	BET02050	2024-05-05T09:40:00	""	""	18.5395	90.3695	None	14.5015	18.1708	19.745	11.0501	78.1737	12.7842	None	1.9619	""	""	81691000
636	BET02050	2024-05-05T09:50:00	""	""	19.3806	90.5518	None	15.528	19.8176	21.4598	10.1824	59.0189	15.8994	None	1.889	""	""	81691000
637	BET02050	2024-05-05T10:00:00	""	""	19.4939	87.255	None	14.0695	18.129	18.4542	4.4672	75.669	12.9373	None	1.9661	""	""	81691000
638	BET02050	2024-05-05T10:10:00	""	""	19.6002	85.0641	None	16.8041	22.3813	22.8396	1.2147	77.1289	13.7591	None	1.9997	""	""	81691000
639	BET02050	2024-05-05T10:20:00	""	""	19.6443	83.8895	None	14.4407	17.8747	19.2254	0.1131	71.7899	11.0203	None	1.9998	""	""	81691000
640	BET02050	2024-05-05T10:30:00	""	""	20.2778	82.8306	None	15.2096	18.9002	20.1369	0.198	76.5636	12.4202	None	1.9969	""	""	81691000
641	BET02050	2024-05-05T10:40:00	""	""	20.6166	80.7729	None	14.3652	17.9962	19.5009	3.0757	64.8013	11.6645	None	1.9945	""	""	81691000
642	BET02050	2024-05-05T10:50:00	""	""	20.6864	78.8873	None	13.5859	17.0875	17.8775	6.3847	63.801	11.9923	None	2.0006	""	""	81691000
643	BET02050	2024-05-05T11:00:00	""	""	20.6238	77.6933	None	13.8072	17.9816	19.0844	3.1788	67.8452	11.0486	None	2.0014	""	""	81691000
644	BET02050	2024-05-05T11:10:00	""	""	21.0448	77.07	None	11.7342	15.4302	16.6206	8.9322	67.6534	11.1285	None	2.0045	""	""	81691000
645	BET02050	2024-05-05T11:20:00	""	""	21.5489	73.6574	None	8.2419	12.4702	13.3803	0.4728	68.967	11.3399	None	2.015	""	""	81691000
646	BET02050	2024-05-05T11:30:00	""	""	22.9975	72.1733	None	6.7772	8.2801	9.7618	3.9366	66.0903	11.0441	None	2.0422	""	""	81691000
647	BET02050	2024-05-05T11:40:00	""	""	23.9588	69.5876	None	9.2597	11.884	12.8416	12.3578	63.8272	11.0132	None	2.065	""	""	81691000
648	BET02050	2024-05-05T11:50:00	""	""	22.6768	66.4898	None	4.8009	7.1702	7.7666	0.0012	83.383	10.832	None	2.1997	""	""	81691000
649	BET02050	2024-05-05T12:00:00	""	""	24.232	65.9834	None	6	8.2787	8.3726	0.2365	85.9579	10.5342	None	2.8244	""	""	81691000
650	BET02050	2024-05-05T12:10:00	""	""	23.5813	65.538	None	6.3642	7.4513	8.8015	0.1258	85.6986	10.1978	None	2.2666	""	""	81691000
651	BET02050	2024-05-05T12:20:00	""	""	22.5094	65.9056	None	4.251	5.5892	6.4119	3.8606	82.5894	9.9193	None	2.091	""	""	81691000
652	BET02050	2024-05-05T12:30:00	""	""	21.7163	66.0643	None	7.0916	8.2657	10.1386	0.0666	91.6702	9.7801	None	2.1253	""	""	81691000
653	BET02050	2024-05-05T12:40:00	""	""	21.6606	67.5246	None	6.3783	9.4961	10.662	2.7075	73.0235	10.1767	None	2.0566	""	""	81691000
654	BET02050	2024-05-05T12:50:00	""	""	21.0633	68.7158	None	5.7539	8.9703	9.167	12.3946	73.6425	4.5179	None	2.0338	""	""	81691000
655	BET02050	2024-05-05T13:00:00	""	""	21.2809	71.2998	None	5.2905	7.3679	7.8574	11.6033	76.342	5.4355	None	2.0367	""	""	81691000
656	BET02050	2024-05-05T13:10:00	""	""	20.7573	72.9501	None	4.9397	7.3232	8.4457	11.9916	81.3875	2.4388	None	2.0219	""	""	81691000
657	BET02050	2024-05-05T13:20:00	""	""	21.3336	72.7465	None	5.8328	7.6053	8.6822	9.3898	80.7707	6.4286	None	2.0347	""	""	81691000
658	BET02050	2024-05-05T13:30:00	""	""	20.6572	72.9429	None	5.3328	6.9136	7.6439	12.626	80.2752	2.4431	None	2.0245	""	""	81691000
659	BET02050	2024-05-05T13:40:00	""	""	20.3659	76.3786	None	2.7828	3.7195	4.3805	15.6876	83.0361	2.34	None	2.013	""	""	81691000
660	BET02050	2024-05-05T13:50:00	""	""	21.3955	76.6487	None	3.5776	4.9376	5.3619	11.0978	76.3753	5.1682	None	2.0351	""	""	81691000
661	BET02050	2024-05-05T14:00:00	""	""	21.3346	75.5071	None	3.1877	4.6088	4.9916	12.8948	78.3446	5.126	None	2.042	""	""	81691000
662	BET02050	2024-05-05T14:10:00	""	""	21.8077	74.062	None	3.7507	5.1301	5.3319	8.0303	80.1057	9.0386	None	2.0835	""	""	81691000
663	BET02050	2024-05-05T14:20:00	""	""	22.1077	71.6187	None	3.1795	4.5607	4.5666	1.1257	84.1189	9.3441	None	2.1493	""	""	81691000
664	BET02050	2024-05-05T14:30:00	""	""	21.9818	71.0544	None	3.3595	4.3405	4.7711	5.9757	79.7405	9.3286	None	2.1391	""	""	81691000
665	BET02050	2024-05-05T14:40:00	""	""	21.8084	70.9035	None	3.4094	4.3982	4.7419	0.1989	90.7504	8.8289	None	2.1871	""	""	81691000
666	BET02050	2024-05-05T14:50:00	""	""	20.9087	70.319	None	3.5453	4.5773	4.9092	8.0967	93.6046	2.0461	None	2.0871	""	""	81691000
667	BET02050	2024-05-05T15:00:00	""	""	21.5851	73.7347	None	3.9256	4.1345	5.8649	11.1725	82.8807	6.829	None	2.0853	""	""	81691000
668	BET02050	2024-05-05T15:10:00	""	""	22.2729	71.5593	None	4.9177	6.3766	7.1559	7.1665	87.9446	9.0376	None	2.3147	""	""	81691000
669	BET02050	2024-05-05T15:20:00	""	""	23.0694	70.1905	None	5.1564	7.1041	7.7651	1.5288	90.2121	8.8	None	2.874	""	""	81691000
670	BET02050	2024-05-05T15:30:00	""	""	22.7694	70.511	None	5.1917	6.8998	7.1443	16.4322	69.7724	9.3686	None	2.3481	""	""	81691000
671	BET02050	2024-05-05T15:40:00	""	""	21.974	70.2218	None	6.2001	8.3748	8.3903	15.9982	76.91	9.3576	None	2.1758	""	""	81691000
672	BET02050	2024-05-05T15:50:00	""	""	20.5923	73.1261	None	5.6876	7.0091	7.4592	13.8287	84.603	1.7234	None	2.0371	""	""	81691000
673	BET02050	2024-05-05T16:00:00	""	""	19.78	77.7952	None	6.5601	8.0919	8.5	16.9485	93.402	2.2269	None	2.0058	""	""	81691000
674	BET02050	2024-05-05T16:10:00	""	""	19.6463	81.2467	None	6.7012	8.8456	9.0046	16.1767	89.5462	2.5012	None	2.0023	""	""	81691000
675	BET02050	2024-05-05T16:20:00	""	""	20.0661	83.2931	None	7.4079	9.396	9.9365	18.6776	81.2196	3.3125	None	2.0025	""	""	81691000
676	BET02050	2024-05-05T16:30:00	""	""	19.7634	83.7819	None	6.3411	8.3958	8.4414	22.071	71.5194	3.9323	None	1.9968	""	""	81691000
677	BET02050	2024-05-05T16:40:00	""	""	20.0792	83.8518	None	8.8034	10.59	11.4908	18.902	73.6193	4.5979	None	1.962	""	""	81691000
678	BET02050	2024-05-05T16:50:00	""	""	19.4776	85.7202	None	9.2343	11.9603	12.4992	19.8296	68.713	5.7568	None	1.9781	""	""	81691000
679	BET02050	2024-05-05T17:00:00	""	""	19.9595	86.0378	None	12.3497	16.2001	16.0197	20.9219	54.9193	5.6575	None	1.7358	""	""	81691000
680	BET02050	2024-05-05T17:10:00	""	""	19.704	85.3975	None	14.9788	18.7144	19.3258	13.8596	69.3978	6.0894	None	1.9447	""	""	81691000
681	BET02050	2024-05-05T17:20:00	""	""	19.63	86.4042	None	18.0489	23.7356	24.4302	13.5511	69.6222	6.5384	None	1.8015	""	""	81691000
682	BET02050	2024-05-05T17:30:00	""	""	18.8713	86.6796	None	16.8246	22.2595	23.3279	18.4812	62.8549	8.0167	None	1.8156	""	""	81691000
683	BET02050	2024-05-05T17:40:00	""	""	19.149	87.3535	None	19.2342	25.2282	25.3135	12.2156	67.9417	7.9237	None	1.7986	""	""	81691000
684	BET02050	2024-05-05T17:50:00	""	""	18.1392	89.3	None	16.2031	20.3375	21.4154	10.4392	75.6094	8.3725	None	1.7708	""	""	81691000
685	BET02050	2024-05-05T18:00:00	""	""	18.3752	90.5105	None	15.3153	18.7475	20.9622	14.1511	65.0438	9.1438	None	1.7832	""	""	81691000
686	BET02050	2024-05-05T18:10:00	""	""	17.9196	93.7428	None	14.548	19.3985	20.3415	10.4579	77.6205	8.5295	None	1.8004	""	""	81691000
687	BET02050	2024-05-05T18:20:00	""	""	17.907	96.1118	None	15.7733	22.0812	21.5262	12.7444	70.2665	9.6398	None	1.6219	""	""	81691000
688	BET02050	2024-05-05T18:30:00	""	""	18.3499	96.6438	None	19.4135	25.3914	26.4846	17.2358	56.9607	10.9404	None	1.5707	""	""	81691000
689	BET02050	2024-05-05T18:40:00	""	""	18.1088	96.3312	None	17.9764	24.3983	26.0578	13.4698	65.0882	9.6936	None	1.5422	""	""	81691000
690	BET02050	2024-05-05T18:50:00	""	""	17.6739	100	None	16.7324	22.0548	23.066	15.2182	65.0144	9.7733	None	1.6117	""	""	81691000
691	BET02050	2024-05-05T19:00:00	""	""	17.6892	100	None	17.4353	23.239	24.0359	17.1991	61.3367	10.2459	None	1.5679	""	""	81691000
692	BET02050	2024-05-05T19:10:00	""	""	17.6548	100	None	17	22.9201	23.3242	16.0261	59.9585	10.659	None	1.6239	""	""	81691000
693	BET02050	2024-05-05T19:20:00	""	""	17.7281	100	None	16.9282	22.2067	23.5855	18.6353	46.568	10.6858	None	1.4902	""	""	81691000
694	BET02050	2024-05-05T19:30:00	""	""	17.8821	100	None	16.7825	22.6631	24.0961	14.19	57.7734	11.2842	None	1.4336	""	""	81691000
695	BET02050	2024-05-05T19:40:00	""	""	17.8587	100	None	15.6037	19.9171	21.2214	15.829	50.6779	11.9699	None	1.3492	""	""	81691000
696	BET02050	2024-05-05T19:50:00	""	""	17.7284	100	None	15.9697	19.4987	21.5841	19.4756	48.7303	13.2254	None	1.273	""	""	81691000
697	BET02050	2024-05-05T20:00:00	""	""	17.8413	100	None	14.1733	20.128	21.0142	17.8117	49.6538	12.0746	None	1.3381	""	""	81691000
698	BET02050	2024-05-05T20:10:00	""	""	17.8858	99.9999	None	16.9927	22.1524	23.4096	9.3606	55.5537	12.4984	None	1.3962	""	""	81691000
699	BET02050	2024-05-05T20:20:00	""	""	17.8409	98.8478	None	16.1389	22.0126	22.9349	7.9391	58.4182	11.7523	None	1.3972	""	""	81691000
700	BET02050	2024-05-05T20:30:00	""	""	17.7412	98.6864	None	17.4763	23.1779	23.8884	5.6701	57.6554	12.1644	None	1.4488	""	""	81691000
701	BET02050	2024-05-05T20:40:00	""	""	17.6398	99.3036	None	18.7214	24.954	26.0882	6.8678	58.4407	12.2188	None	1.4095	""	""	81691000
702	BET02050	2024-05-05T20:50:00	""	""	17.642	99.0272	None	18.0074	24.1265	25.61	5.2819	62.1426	12.8236	None	1.4641	""	""	81691000
703	BET02050	2024-05-05T21:00:00	""	""	17.6307	99.9994	None	17.5718	23.8066	25.0101	7.1924	65.8157	12.4064	None	1.4717	""	""	81691000
704	BET02050	2024-05-05T21:10:00	""	""	17.6796	100	None	13.819	18.4385	19.8241	9.1021	54.2449	12.5426	None	1.3841	""	""	81691000
705	BET02050	2024-05-05T21:20:00	""	""	17.8222	100	None	15.188	19.4402	20.9821	9.1225	53.5652	12.601	None	1.3227	""	""	81691000
706	BET02050	2024-05-05T21:30:00	""	""	17.7459	100	None	12.9024	17.6912	18.1114	9.469	62.9214	12.9858	None	1.4692	""	""	81691000
707	BET02050	2024-05-05T21:40:00	""	""	17.8539	100	None	12.4985	16.4446	17.2366	6.8763	56.8726	12.5893	None	1.4287	""	""	81691000
708	BET02050	2024-05-05T21:50:00	""	""	17.8857	100	None	11.1171	14.3282	14.9793	8.4744	55.2936	12.7465	None	1.4711	""	""	81691000
709	BET02050	2024-05-05T22:00:00	""	""	17.8517	100	None	12.8457	15.7655	16.2916	7.5192	58.4881	13.1267	None	1.4471	""	""	81691000
710	BET02050	2024-05-05T22:10:00	""	""	17.7672	100	None	11.9216	15.5686	17.8278	6.419	62.786	12.7784	None	1.5288	""	""	81691000
711	BET02050	2024-05-05T22:20:00	""	""	17.7426	100	None	12.86	17.9602	17.4877	5.8945	65.6519	12.5207	None	1.5906	""	""	81691000
712	BET02050	2024-05-05T22:30:00	""	""	17.6436	100	None	12.5215	16.4878	17.2869	7.622	60.993	12.5357	None	1.5281	""	""	81691000
713	BET02050	2024-05-05T22:40:00	""	""	17.5659	100	None	14.6563	19.046	19.5343	10.4231	55.1057	12.4769	None	1.5117	""	""	81691000
714	BET02050	2024-05-05T22:50:00	""	""	17.4412	100	None	14.3748	19.0375	19.2359	8.5512	63.8998	11.9402	None	1.5829	""	""	81691000
715	BET02050	2024-05-05T23:00:00	""	""	17.3284	100	None	14.5441	19.1654	20.4972	10.0054	56.4806	11.9511	None	1.4847	""	""	81691000
716	BET02050	2024-05-05T23:10:00	""	""	17.3724	100	None	14.6131	19.4787	21.4327	10.074	55.852	11.8191	None	1.5182	""	""	81691000
717	BET02050	2024-05-05T23:20:00	""	""	17.579	100	None	16.1606	22.5359	22.8995	8.5942	53.9725	12.3736	None	1.426	""	""	81691000
718	BET02050	2024-05-05T23:30:00	""	""	17.5483	100	None	13.7148	18.8953	19.7217	9.2322	58.7404	11.8127	None	1.4895	""	""	81691000
719	BET02050	2024-05-05T23:40:00	""	""	17.664	100	None	14.6185	20.5392	20.7163	11.0761	55.2198	11.9928	None	1.5049	""	""	81691000
720	BET02050	2024-05-05T23:50:00	""	""	17.4921	100	None	15.6156	20.8773	21.8335	10.3034	52.7003	12.4505	None	1.4418	""	""	81691000
721	BET02050	2024-05-06T00:00:00	""	""	17.3404	100	None	20.1979	28.047	28.6197	10.2447	54.7925	12.2773	None	1.4193	""	""	81691000
722	BET02050	2024-05-06T00:10:00	""	""	17.2035	100	None	21.9695	29.8012	32.4954	10.6727	46.906	12.5569	None	1.3338	""	""	81691000
723	BET02050	2024-05-06T00:20:00	""	""	17.1434	100	None	22.7797	31.1643	34.4894	9.1291	41.3923	13.0307	None	1.265	""	""	81691000
724	BET02050	2024-05-06T00:30:00	""	""	17.0599	100	None	21.9024	30.0564	32.6422	12.2741	34.5804	13.8654	None	1.209	""	""	81691000
725	BET02050	2024-05-06T00:40:00	""	""	17.0429	100	None	21.2047	29.1356	29.4679	10.8617	41.1511	13.1569	None	1.2538	""	""	81691000
726	BET02050	2024-05-06T00:50:00	""	""	17.0123	100	None	20.6189	29.0583	30.5915	9.3054	43.5532	12.8591	None	1.2707	""	""	81691000
727	BET02050	2024-05-06T01:00:00	""	""	16.9774	100	None	None	None	None	8.7949	46.9956	13.3932	None	1.3074	""	""	81691000
728	BET02050	2024-05-06T01:10:00	""	""	16.9276	100	None	18.1507	22.9756	24.9739	9.6382	49.2772	13.0933	None	1.3884	""	""	81691000
729	BET02050	2024-05-06T01:20:00	""	""	16.884	100	None	17.6328	22.7253	23.5822	8.6407	52.1405	12.6753	None	1.4412	""	""	81691000
730	BET02050	2024-05-06T01:30:00	""	""	16.8406	100	None	18.5783	24.8118	26.1258	9.6062	49.8658	12.2977	None	1.3489	""	""	81691000
731	BET02050	2024-05-06T01:40:00	""	""	16.707	100	None	19.0823	25.494	27.8154	9.0003	52.6762	12.1484	None	1.4616	""	""	81691000
732	BET02050	2024-05-06T01:50:00	""	""	16.6826	100	None	19.422	26.2188	28.0425	8.8043	60.9543	11.8402	None	1.4897	""	""	81691000
733	BET02050	2024-05-06T02:00:00	""	""	16.5671	None	None	19.315	26.4882	27.2069	None	None	None	None	None	""	""	81691000
734	BET02050	2024-05-06T02:10:00	""	""	16.5043	None	None	20.1245	26.1895	29.0348	None	None	None	None	None	""	""	81691000
735	BET02050	2024-05-06T02:20:00	""	""	16.4239	0.4186	None	20.3692	27.3195	29.2985	21.0183	82.6065	0.1423	None	1	""	""	81691000
736	BET02050	2024-05-06T02:30:00	""	""	16.2998	1.198	None	17.6602	24.7245	26.014	20.3257	84.5946	0.1306	None	1	""	""	81691000
737	BET02050	2024-05-06T02:40:00	""	""	16.3193	0.9587	None	18.3423	23.8865	25.431	21.3456	77.7553	0.1664	None	1	""	""	81691000
738	BET02050	2024-05-06T02:50:00	""	""	16.1002	0.3739	None	20.443	28.777	30.9372	20.975	73.9413	0.0956	None	1	""	""	81691000
739	BET02050	2024-05-06T03:00:00	""	""	16.0178	None	None	20.0977	27.7513	28.844	None	None	None	None	None	""	""	81691000
740	BET02050	2024-05-06T03:10:00	""	""	15.9858	None	None	17	22.4999	23.0058	None	None	None	None	None	""	""	81691000
741	BET02050	2024-05-06T03:20:00	""	""	15.8229	100	None	18.333	22.813	23.722	16.5422	8.1779	12.1504	None	1.1356	""	""	81691000
742	BET02050	2024-05-06T03:30:00	""	""	15.523	100	None	19.3458	24.8691	26.0619	14.4355	3.5576	12.421	None	1.2071	""	""	81691000
743	BET02050	2024-05-06T03:40:00	""	""	15.3302	100	None	17.1648	22.2458	23.6496	14.8696	4.273	11.9962	None	1.201	""	""	81691000
744	BET02050	2024-05-06T03:50:00	""	""	15.4461	100	None	16.6916	22.2577	22.7856	18.5876	0.749	12.1469	None	1.1897	""	""	81691000
745	BET02050	2024-05-06T04:00:00	""	""	15.3901	100	None	16.4163	20.7754	22.1418	24.4562	0.1741	13.8103	None	1.7987	""	""	81691000
746	BET02050	2024-05-06T04:10:00	""	""	15.3948	100	None	17.2872	21.7862	23.5227	23.2671	0.0507	14.6974	None	1.4012	""	""	81691000
747	BET02050	2024-05-06T04:20:00	""	""	15.3732	100	None	16.6235	22.658	22.8778	21.505	0.1776	12.2259	None	1.2748	""	""	81691000
748	BET02050	2024-05-06T04:30:00	""	""	15.4363	100	None	17.1752	21.4977	23.2884	23.3925	0.0755	12.1071	None	1.3129	""	""	81691000
749	BET02050	2024-05-06T04:40:00	""	""	15.3884	100	None	16.1403	22.5135	23.4471	26.217	0.0801	16.8354	None	3.2467	""	""	81691000
750	BET02050	2024-05-06T04:50:00	""	""	15.4342	100	None	16.6034	21.8271	22.9804	29.4091	0.147	23.8011	None	4.3786	""	""	81691000
751	BET02050	2024-05-06T05:00:00	""	""	15.4509	100	None	17.4514	23.6633	24.8737	31.5386	0.0243	27.374	None	4.3588	""	""	81691000
752	BET02050	2024-05-06T05:10:00	""	""	15.6799	100	None	18.6566	23.5675	25.0611	31.699	0.1332	38.385	None	4.3194	""	""	81691000
753	BET02050	2024-05-06T05:20:00	""	""	15.7014	100	None	18.2243	23.8358	25.5744	33.624	0.1641	54.2581	None	4.1855	""	""	81691000
754	BET02050	2024-05-06T05:30:00	""	""	16.0383	100	None	18.0041	23.806	24.907	33.7581	0.1755	26.1855	None	3.6568	""	""	81691000
755	BET02050	2024-05-06T05:40:00	""	""	16.292	100	None	18.7521	24.4878	26.9876	34.082	0.2129	25.4702	None	3.2208	""	""	81691000
756	BET02050	2024-05-06T05:50:00	""	""	16.3667	100	None	17.2345	23.0042	25.2083	32.7851	0.1857	33.5374	None	4.2451	""	""	81691000
757	BET02050	2024-05-06T06:00:00	""	""	16.8258	100	None	19.1424	25.9449	27.7184	43.1516	0.2479	46.0314	None	4.1198	""	""	81691000
758	BET02050	2024-05-06T06:10:00	""	""	17.0604	100	None	18.7678	24.7084	25.9979	44.5062	0.0851	59.3804	None	4.1724	""	""	81691000
759	BET02050	2024-05-06T06:20:00	""	""	17.242	100	None	16.6818	22.0391	23.0769	29.4352	0.1047	26.2999	None	1.23	""	""	81691000
760	BET02050	2024-05-06T06:30:00	""	""	17.4369	100	None	15.5966	19.9727	21.2533	25.8639	0.1213	24.1952	None	1.2027	""	""	81691000
761	BET02050	2024-05-06T06:40:00	""	""	17.6425	100	None	17.6223	22.6282	23.5563	33.0779	0.0918	36.6485	None	3.534	""	""	81691000
762	BET02050	2024-05-06T06:50:00	""	""	17.8689	95.6288	None	17.7683	23.1883	24.0909	40.1138	0.1373	62.0876	None	3.6633	""	""	81691000
763	BET02050	2024-05-06T07:00:00	""	""	18.1861	93.6818	None	16.6252	20.9762	21.6712	39.2408	0.1278	65.623	None	3.5057	""	""	81691000
764	BET02050	2024-05-06T07:10:00	""	""	18.5929	90.563	None	13.0232	16.4011	18.1435	35.8498	0.1591	50.1696	None	3.5984	""	""	81691000
765	BET02050	2024-05-06T07:20:00	""	""	19.1195	81.6363	None	10.6098	13.5553	14.2208	19.4911	2.0257	34.2063	None	1.6815	""	""	81691000
766	BET02050	2024-05-06T07:30:00	""	""	19.8292	73.0848	None	5.0922	6.7251	6.4695	10.1029	14.809	34.0055	None	1.7892	""	""	81691000
767	BET02050	2024-05-06T07:40:00	""	""	20.0018	69.7056	None	3.0495	3	4.6726	1.0787	21.4392	21.2805	None	1.8194	""	""	81691000
768	BET02050	2024-05-06T07:50:00	""	""	20.3708	67.3872	None	2.0299	3.0652	3.3725	0.2374	32.2049	16.6045	None	1.9323	""	""	81691000
769	BET02050	2024-05-06T08:00:00	""	""	20.4896	64.8234	None	0.585	1.3328	1.4049	0.0184	37.8167	11.6019	None	1.965	""	""	81691000
770	BET02050	2024-05-06T08:10:00	""	""	20.7303	64.992	None	1	2	2	3.7703	31.2728	9.9746	None	1.9225	""	""	81691000
771	BET02050	2024-05-06T08:20:00	""	""	20.7626	63.426	None	1.7838	2.2857	2.7335	0.1508	36.3083	7.6387	None	1.9333	""	""	81691000
772	BET02050	2024-05-06T08:30:00	""	""	20.9288	63.4519	None	1.6661	2.7136	2.6097	10.595	28.6849	9.7968	None	1.8805	""	""	81691000
773	BET02050	2024-05-06T08:40:00	""	""	20.6305	73.7507	None	19.3231	26.1423	27.608	77.5633	0.0522	42.9066	None	1.6162	""	""	81691000
774	BET02050	2024-05-06T08:50:00	""	""	20.7101	75.4059	None	21.4713	29.6335	31.9793	69.7923	1.5335	43.0466	None	1.5912	""	""	81691000
775	BET02050	2024-05-06T09:00:00	""	""	20.9455	75.3557	None	21.0723	29	31.6445	62.7721	5.6523	24.5153	None	1.6051	""	""	81691000
776	BET02050	2024-05-06T09:10:00	""	""	20.6076	74.8988	None	19.7555	26.8699	28.9047	29.5333	30.1906	9.7074	None	1.8415	""	""	81691000
777	BET02050	2024-05-06T09:20:00	""	""	20.1184	75.9106	None	19	24.7859	26.07	31.3329	35.6057	8.1732	None	1.8755	""	""	81691000
778	BET02050	2024-05-06T09:30:00	""	""	19.9484	77.0757	None	19.5	25.5581	26.092	44.0368	22.9803	16.398	None	1.693	""	""	81691000
779	BET02050	2024-05-06T09:40:00	""	""	20.5275	79.1244	None	19	24.9826	26.2181	58.7057	26.7261	13.2295	None	1.6585	""	""	81691000
780	BET02050	2024-05-06T09:50:00	""	""	20.2817	80.9987	None	19.796	27.3937	29.2517	62.6277	19.6646	15.0259	None	1.4934	""	""	81691000
781	BET02050	2024-05-06T10:00:00	""	""	20.5504	80.6717	None	19	27.146	28.8533	30.6052	42.3354	9.4185	None	1.7178	""	""	81691000
782	BET02050	2024-05-06T10:10:00	""	""	20.8859	79.099	None	19.2558	26.3369	27.3298	22.9447	55.2872	8.854	None	1.9705	""	""	81691000
783	BET02050	2024-05-06T10:20:00	""	""	21.0826	77.8865	None	15.5513	19.7548	20.6422	30.0183	36.0969	14.8903	None	1.7527	""	""	81691000
784	BET02050	2024-05-06T10:30:00	""	""	20.8234	75.8866	None	15.6797	21.2092	22.1493	12.3517	55.3263	8.0187	None	1.9866	""	""	81691000
785	BET02050	2024-05-06T10:40:00	""	""	20.9077	76.1635	None	18.6363	24.0787	26.033	24.6615	41.1432	10.6232	None	1.9117	""	""	81691000
786	BET02050	2024-05-06T10:50:00	""	""	21.2717	76.2665	None	18.1304	23.1037	23.9489	25.3572	41.3318	9.968	None	1.9688	""	""	81691000
787	BET02050	2024-05-06T11:00:00	""	""	21.2379	74.0945	None	18.1119	23.653	24.9183	26.2704	43.2897	11.8674	None	1.974	""	""	81691000
788	BET02050	2024-05-06T11:10:00	""	""	21.8876	72.7485	None	15.5655	20.8791	22.3428	10.9643	60.3091	10.8571	None	2.0186	""	""	81691000
789	BET02050	2024-05-06T11:20:00	""	""	22.2696	70.7093	None	15.9745	21.3691	22.9086	10.3271	55.836	10.7574	None	2.0328	""	""	81691000
790	BET02050	2024-05-06T11:30:00	""	""	21.6052	71.3833	None	14.2266	19.6256	20.0366	36.6902	26.8042	12.101	None	1.9442	""	""	81691000
791	BET02050	2024-05-06T11:40:00	""	""	21.7804	71.3721	None	14	19.694	22.1401	18.5371	53.6534	10.8462	None	2.0008	""	""	81691000
792	BET02050	2024-05-06T11:50:00	""	""	22.4913	71.7221	None	14.3254	18.8906	19.7995	21.3676	43.0206	9.9806	None	2.0207	""	""	81691000
793	BET02050	2024-05-06T12:00:00	""	""	21.6767	70.0669	None	14.3941	19.1068	20.4346	12.3032	64.5383	10.0703	None	2.0193	""	""	81691000
794	BET02050	2024-05-06T12:10:00	""	""	21.2987	71.7373	None	13.0191	16.9829	17.7147	12.2925	73.6742	9.0539	None	2.0174	""	""	81691000
795	BET02050	2024-05-06T12:20:00	""	""	21.8143	73.2156	None	11.4875	14.8455	14.8908	17.382	58.1818	10.2268	None	2.0251	""	""	81691000
796	BET02050	2024-05-06T12:30:00	""	""	21.1225	72.9797	None	13.4674	18.4958	19.4397	15.2493	66.4169	7.6186	None	2.0117	""	""	81691000
797	BET02050	2024-05-06T12:40:00	""	""	20.8891	73.5429	None	14.5935	18.6663	19.4158	12.561	67.426	4.0216	None	2.0116	""	""	81691000
798	BET02050	2024-05-06T12:50:00	""	""	20.8799	74.0742	None	14.9645	19.5469	21.1803	20.8748	73.1794	5.4856	None	2.012	""	""	81691000
799	BET02050	2024-05-06T13:00:00	""	""	20.4952	75.9403	None	16.2159	20.7938	21.6282	18.406	75.5367	3.2132	None	2.0062	""	""	81691000
800	BET02050	2024-05-06T13:10:00	""	""	20.2126	78.2687	None	17.7006	22.8679	24.8335	19.6642	70.9785	3.2405	None	1.9996	""	""	81691000
801	BET02050	2024-05-06T13:20:00	""	""	20.0842	78.6453	None	15.9369	22.5001	25.2835	14.1782	77.5622	3.7693	None	2.0017	""	""	81691000
802	BET02050	2024-05-06T13:30:00	""	""	19.6287	79.9029	None	14.8503	19.4875	20.0573	13.7397	82.5555	3.8678	None	2.0002	""	""	81691000
803	BET02050	2024-05-06T13:40:00	""	""	19.2437	82.0779	None	14.9355	20.3684	21.2141	16.0729	79.0582	5.672	None	1.9978	""	""	81691000
804	BET02050	2024-05-06T13:50:00	""	""	19.3056	83.1597	None	11.2071	15.1084	15.8054	17.8165	66.496	6.7707	None	1.9947	""	""	81691000
805	BET02050	2024-05-06T14:00:00	""	""	19.34	83.2807	None	9.1632	12.2854	13.3714	14.3497	74.7523	7.5921	None	1.9948	""	""	81691000
806	BET02050	2024-05-06T14:10:00	""	""	18.7929	85.045	None	7	8.8259	9.3242	15.4487	63.9927	8.1951	None	1.9451	""	""	81691000
807	BET02050	2024-05-06T14:20:00	""	""	18.9809	83.9892	None	7.946	10.5891	10.9979	12.0357	74.1167	7.7683	None	1.9919	""	""	81691000
808	BET02050	2024-05-06T14:30:00	""	""	18.52	85.7029	None	8	10.2997	11.1906	23.5508	49.5764	10.1541	None	1.6136	""	""	81691000
809	BET02050	2024-05-06T14:40:00	""	""	18.8568	85.5807	None	8.0663	10.2018	10.792	16.6402	58.2131	11.6219	None	1.7261	""	""	81691000
810	BET02050	2024-05-06T14:50:00	""	""	18.8018	85.649	None	8.1472	10.5888	11.121	16.23	58.9512	10.3743	None	1.7832	""	""	81691000
811	BET02050	2024-05-06T15:00:00	""	""	19.046	83.5788	None	8	9.8293	10.2247	10.9649	59.1661	12.8296	None	1.8353	""	""	81691000
812	BET02050	2024-05-06T15:10:00	""	""	18.6995	83.0415	None	6.9734	8.7471	9.8936	12.1889	59.4185	10.8111	None	1.9652	""	""	81691000
813	BET02050	2024-05-06T15:20:00	""	""	18.7533	82.8897	None	7	8.9228	9.1386	28.8436	32.5654	20.9458	None	1.441	""	""	81691000
814	BET02050	2024-05-06T15:30:00	""	""	18.7038	81.9243	None	7.002	9.2834	10.2808	16.0957	51.2586	14.4337	None	1.9188	""	""	81691000
815	BET02050	2024-05-06T15:40:00	""	""	18.8726	78.664	None	4	5.703	6.5859	0.1513	54.3178	14.8826	None	1.9852	""	""	81691000
816	BET02050	2024-05-06T15:50:00	""	""	19.1071	73.9354	None	1.7137	2.4062	3.0909	12.54	35.6431	17.6406	None	1.9549	""	""	81691000
817	BET02050	2024-05-06T16:00:00	""	""	20.8945	69.0225	None	1.614	2.4075	3.0075	0.2309	48.8639	12.7058	None	1.9925	""	""	81691000
818	BET02050	2024-05-06T16:10:00	""	""	20.0092	66.5448	None	0.0001	0.3499	0.9359	0.231	62.4469	9.159	None	1.9847	""	""	81691000
819	BET02050	2024-05-06T16:20:00	""	""	20.1335	66.8307	None	0	1	1	0.1915	55.6092	7.2217	None	1.9838	""	""	81691000
820	BET02050	2024-05-06T16:30:00	""	""	20.4301	66.0472	None	1.0001	1.4753	1.6227	0.8416	52.6365	6.782	None	1.9885	""	""	81691000
821	BET02050	2024-05-06T16:40:00	""	""	20.86	63.1832	None	1.0678	2.0115	2.2565	4.9009	48.5086	10.7193	None	1.9791	""	""	81691000
822	BET02050	2024-05-06T16:50:00	""	""	22.2823	62.6476	None	0.5498	1.4291	1.3152	3.8516	63.7002	10.2726	None	2.4048	""	""	81691000
823	BET02050	2024-05-06T17:00:00	""	""	19.5056	63.6141	None	0	0.7764	1.1252	9.0889	59.1051	3.5532	None	1.9178	""	""	81691000
824	BET02050	2024-05-06T17:10:00	""	""	19.3595	64.646	None	1.4263	2.2121	2.5399	7.249	56.843	6.1221	None	1.9507	""	""	81691000
825	BET02050	2024-05-06T17:20:00	""	""	18.7924	65.4986	None	0.0001	1.3339	1.4755	12.6482	53.6976	7.0351	None	1.8889	""	""	81691000
826	BET02050	2024-05-06T17:30:00	""	""	18.6641	66.3626	None	1.7593	2.4063	2.7955	11.5169	52.4513	9.9217	None	1.7789	""	""	81691000
827	BET02050	2024-05-06T17:40:00	""	""	18.4197	66.7924	None	1.7838	2.4933	2.9645	15.6567	52.7437	8.1757	None	1.9157	""	""	81691000
828	BET02050	2024-05-06T17:50:00	""	""	18.1998	67.9941	None	1.7402	2.3412	2.7784	24.233	38.6387	17.1982	None	1.7466	""	""	81691000
829	BET02050	2024-05-06T18:00:00	""	""	18.4058	68.6166	None	1.0001	2	3.4428	25.8196	35.5884	13.5435	None	1.7196	""	""	81691000
830	BET02050	2024-05-06T18:10:00	""	""	18.3967	68.888	None	2.2263	3.2096	3.2598	17.4861	45.0414	9.0515	None	1.8583	""	""	81691000
831	BET02050	2024-05-06T18:20:00	""	""	18.2699	69.2049	None	2.6613	3.8726	3.801	15.9408	47.2567	6.8409	None	1.8604	""	""	81691000
832	BET02050	2024-05-06T18:30:00	""	""	17.8176	69.7534	None	1	2	2.0001	22.8295	38.7424	7.877	None	1.7562	""	""	81691000
833	BET02050	2024-05-06T18:40:00	""	""	17.7746	70.4755	None	2.4205	4.2978	4.931	18.2226	46.7042	6.9702	None	1.7648	""	""	81691000
834	BET02050	2024-05-06T18:50:00	""	""	17.6288	71.2765	None	2.5994	3.9468	4.0895	22.6836	35.9484	9.1982	None	1.8073	""	""	81691000
835	BET02050	2024-05-06T19:00:00	""	""	17.2898	71.7447	None	2.7462	3.3878	3.7447	19.7364	42.623	8.0376	None	1.834	""	""	81691000
836	BET02050	2024-05-06T19:10:00	""	""	17.2629	72.9955	None	2.2855	3	3.5054	19.1899	42.018	6.9609	None	1.9065	""	""	81691000
837	BET02050	2024-05-06T19:20:00	""	""	16.9851	73.0736	None	2	3	3	23.2751	36.1321	7.5934	None	1.8426	""	""	81691000
838	BET02050	2024-05-06T19:30:00	""	""	16.8921	74.2272	None	3	3.6919	4.0706	18.2597	42.0157	7.1411	None	1.8469	""	""	81691000
839	BET02050	2024-05-06T19:40:00	""	""	16.8455	74.3017	None	2	3	3.5507	15.7393	46.2947	8.2987	None	1.8701	""	""	81691000
840	BET02050	2024-05-06T19:50:00	""	""	16.9009	73.7656	None	1.9998	2.6569	2.7663	14.6275	38.8356	7.2992	None	1.7501	""	""	81691000
841	BET02050	2024-05-06T20:00:00	""	""	16.9438	73.2147	None	3	3.7039	3.9698	17.953	38.5575	8.4397	None	1.8305	""	""	81691000
842	BET02050	2024-05-06T20:10:00	""	""	16.9156	72.9752	None	2	3.7258	4.0525	19.0298	35.1911	8.1384	None	1.7188	""	""	81691000
843	BET02050	2024-05-06T20:20:00	""	""	16.6897	73.5174	None	3.4036	4.9447	5.2772	20.4563	34.8946	7.7349	None	1.7046	""	""	81691000
844	BET02050	2024-05-06T20:30:00	""	""	16.7948	73.5137	None	3.5108	4.4914	5	21.5203	35.24	7.9114	None	1.7638	""	""	81691000
845	BET02050	2024-05-06T20:40:00	""	""	17.0132	73.8076	None	3	4.4271	4.5861	19.7557	35.6349	7.6244	None	1.8018	""	""	81691000
846	BET02050	2024-05-06T20:50:00	""	""	17.0045	74.3847	None	3.0232	4.1594	4.4222	16.4412	37.7309	7.1307	None	1.8528	""	""	81691000
847	BET02050	2024-05-06T21:00:00	""	""	16.8342	74.7051	None	2	3.8705	4.4135	17.8287	33.2859	8.7792	None	1.7472	""	""	81691000
848	BET02050	2024-05-06T21:10:00	""	""	16.7299	74.625	None	2.7892	4.0576	4.507	13.0012	38.004	8.2043	None	1.7392	""	""	81691000
849	BET02050	2024-05-06T21:20:00	""	""	16.7196	74.5718	None	2	3.4671	3.6524	14.7742	34.9759	8.2199	None	1.7461	""	""	81691000
850	BET02050	2024-05-06T21:30:00	""	""	16.849	74.609	None	3.0157	4.885	5.2049	14.7443	38.9021	8.4687	None	1.7878	""	""	81691000
851	BET02050	2024-05-06T21:40:00	""	""	16.8381	74.9746	None	2	3.8892	4.605	15.5522	40.7055	8.4148	None	1.7983	""	""	81691000
852	BET02050	2024-05-06T21:50:00	""	""	16.888	75.3084	None	2.3731	3.4434	3.7525	13.3629	34.6088	8.8376	None	1.7741	""	""	81691000
853	BET02050	2024-05-06T22:00:00	""	""	16.8913	74.959	None	3	4	4.3248	13.8659	31.9006	8.6962	None	1.7079	""	""	81691000
854	BET02050	2024-05-06T22:10:00	""	""	16.7549	74.7229	None	2.9999	4	4.32	13.6973	33.7069	8.6817	None	1.6704	""	""	81691000
855	BET02050	2024-05-06T22:20:00	""	""	16.7926	74.8169	None	2	3.8058	4	12.6805	35.4673	8.3167	None	1.72	""	""	81691000
856	BET02050	2024-05-06T22:30:00	""	""	16.8006	75.3251	None	2.1442	3.5722	4.4438	12.7045	36.0402	8.5046	None	1.7517	""	""	81691000
857	BET02050	2024-05-06T22:40:00	""	""	16.9047	75.9315	None	3.3296	5.9999	5.3462	16.7433	31.4122	8.79	None	1.7352	""	""	81691000
858	BET02050	2024-05-06T22:50:00	""	""	16.9027	76.1541	None	3.3911	4.7485	5.2038	11.8326	36.122	8.6533	None	1.7838	""	""	81691000
859	BET02050	2024-05-06T23:00:00	""	""	16.7748	76.8501	None	2.46	4	4.068	11.058	41.8224	8.7333	None	1.7991	""	""	81691000
860	BET02050	2024-05-06T23:10:00	""	""	16.7378	77.4088	None	2.0001	3.8062	4	9.9491	37.69	9.3437	None	1.7362	""	""	81691000
861	BET02050	2024-05-06T23:20:00	""	""	16.7538	77.1068	None	3.2997	4.5393	4.7437	9.4208	39.7642	9.2309	None	1.8212	""	""	81691000
862	BET02050	2024-05-06T23:30:00	""	""	16.6581	77.3455	None	3.5072	4.38	4.6865	9.3179	44.958	8.2309	None	1.881	""	""	81691000
863	BET02050	2024-05-06T23:40:00	""	""	16.5991	78.3633	None	3.0937	4.5132	4.8418	12.6963	43.0762	8.2246	None	1.8092	""	""	81691000
864	BET02050	2024-05-06T23:50:00	""	""	16.5079	80.6213	None	3.9044	5	6.2319	17.9549	36.8857	8.1416	None	1.72	""	""	81691000
865	BET02050	2024-05-07T00:00:00	""	""	16.3533	83.2107	None	3.5469	5.2659	6.1861	10.8166	45.9698	8.6062	None	1.6497	""	""	81691000
866	BET02050	2024-05-07T00:10:00	""	""	16.1006	83.2278	None	1.2361	1.848	1.9219	6.2965	45.7548	8.7618	None	1.6054	""	""	81691000
867	BET02050	2024-05-07T00:20:00	""	""	16.0664	82.125	None	2	2	1.5772	0.215	46.916	9.4583	None	1.666	""	""	81691000
868	BET02050	2024-05-07T00:30:00	""	""	16.0182	80.927	None	1	1.1911	1.5903	0.2341	43.3318	9.909	None	1.7808	""	""	81691000
869	BET02050	2024-05-07T00:40:00	""	""	16.0599	80.1685	None	1	1.1642	1.1492	0.0215	49.7941	9.3486	None	1.8526	""	""	81691000
870	BET02050	2024-05-07T00:50:00	""	""	15.6908	82.8014	None	1	1.9999	2	6.5583	50.5178	8.406	None	1.6915	""	""	81691000
871	BET02050	2024-05-07T01:00:00	""	""	15.4977	84.616	None	None	None	None	7.8158	49.3128	7.8895	None	1.6189	""	""	81691000
872	BET02050	2024-05-07T01:10:00	""	""	15.5534	85.4881	None	1	1.5	1.459	9.9028	43.2919	7.8152	None	1.549	""	""	81691000
873	BET02050	2024-05-07T01:20:00	""	""	15.6832	86.0255	None	1.519	2	2.1069	8.6643	42.5974	7.894	None	1.5452	""	""	81691000
874	BET02050	2024-05-07T01:30:00	""	""	15.8083	86.4097	None	2	2	1.823	9.6124	43.0544	8.9955	None	1.5073	""	""	81691000
875	BET02050	2024-05-07T01:40:00	""	""	15.4799	86.9553	None	2	2.7048	2.8115	8.9191	40.094	7.9533	None	1.4652	""	""	81691000
876	BET02050	2024-05-07T01:50:00	""	""	15.4466	87.6398	None	3	3.4116	3.4434	9.03	37.0022	8.1144	None	1.4032	""	""	81691000
877	BET02050	2024-05-07T02:00:00	""	""	15.6098	88.6215	None	3	3.985	4.3044	11.5507	35.2996	8.4219	None	1.4255	""	""	81691000
878	BET02050	2024-05-07T02:10:00	""	""	15.6682	89.4776	None	3	3.9028	3.9937	10.1307	36.4624	8.4777	None	1.4511	""	""	81691000
879	BET02050	2024-05-07T02:20:00	""	""	15.63	91.0348	None	3	4.1315	4.4839	12.1728	39.7479	8.1696	None	1.4122	""	""	81691000
880	BET02050	2024-05-07T02:30:00	""	""	15.5201	93.753	None	2	3.3964	3.7982	10.8876	41.7498	8.5429	None	1.3616	""	""	81691000
881	BET02050	2024-05-07T02:40:00	""	""	15.4171	94.0869	None	1.772	2.5717	2.786	10.7286	41.6433	9.1621	None	1.4703	""	""	81691000
882	BET02050	2024-05-07T02:50:00	""	""	15.4339	92.3312	None	2	2	2.3233	2.3803	46.3664	9.5111	None	1.5492	""	""	81691000
883	BET02050	2024-05-07T03:00:00	""	""	15.518	90.2403	None	1.426	1.7521	1.8529	1.1796	45.6781	9.9735	None	1.6218	""	""	81691000
884	BET02050	2024-05-07T03:10:00	""	""	15.6302	89.3319	None	1	2.0162	2.186	3.7762	48.5826	9.7813	None	1.6928	""	""	81691000
885	BET02050	2024-05-07T03:20:00	""	""	15.683	89.1274	None	1.1284	2.0641	2.3814	1.7425	46.6747	10.5579	None	1.6628	""	""	81691000
886	BET02050	2024-05-07T03:30:00	""	""	15.5154	87.3651	None	1.5615	1.9114	2.1107	2.9884	50.3987	10.8054	None	1.7201	""	""	81691000
887	BET02050	2024-05-07T03:40:00	""	""	15.4897	87.0083	None	2	2.367	2.5585	0.2814	49.713	9.8092	None	1.7043	""	""	81691000
888	BET02050	2024-05-07T03:50:00	""	""	15.521	87.1492	None	2	2.4961	2.6091	3.1208	50.2199	9.3901	None	1.6603	""	""	81691000
889	BET02050	2024-05-07T04:00:00	""	""	15.498	89.4356	None	2	2.8906	3	7.0256	49.2045	8.9083	None	1.5919	""	""	81691000
890	BET02050	2024-05-07T04:10:00	""	""	15.4659	89.9573	None	2	3	3.1141	8.7413	44.8618	9.5338	None	1.6148	""	""	81691000
891	BET02050	2024-05-07T04:20:00	""	""	15.4632	88.6008	None	1.7274	2.7433	2.5121	6.4292	41.217	9.6568	None	1.6298	""	""	81691000
892	BET02050	2024-05-07T04:30:00	""	""	15.4985	87.3944	None	2.0699	3.0728	3.1101	4.0869	47.4518	9.7497	None	1.6283	""	""	81691000
893	BET02050	2024-05-07T04:40:00	""	""	15.5602	86.7412	None	2.2435	3	3	12.4176	39.406	9.535	None	1.5517	""	""	81691000
894	BET02050	2024-05-07T04:50:00	""	""	15.6186	87.4849	None	2.2132	4	4	12.1186	39.9583	9.8629	None	1.5304	""	""	81691000
895	BET02050	2024-05-07T05:00:00	""	""	15.7105	88.0397	None	2.7292	3.682	3.8876	14.3234	44.562	10.5	None	1.5586	""	""	81691000
896	BET02050	2024-05-07T05:10:00	""	""	15.6035	89.2579	None	3	4.3161	4.329	12.8939	44.743	9.7393	None	1.5316	""	""	81691000
897	BET02050	2024-05-07T05:20:00	""	""	15.8224	89.8513	None	3.8016	5.2389	5.5201	15.3803	35.4499	10.5701	None	1.4828	""	""	81691000
898	BET02050	2024-05-07T05:30:00	""	""	15.9831	88.6007	None	3	4	5.4776	20.7571	31.5873	15.243	None	1.4662	""	""	81691000
899	BET02050	2024-05-07T05:40:00	""	""	15.8206	84.017	None	2.166	3.1199	3.3282	1.9561	40.7103	13.0714	None	1.6852	""	""	81691000
900	BET02050	2024-05-07T05:50:00	""	""	15.9496	81.2355	None	1.0001	2.2816	2.5388	7.2326	30.9455	15.046	None	1.4785	""	""	81691000
901	BET02050	2024-05-07T06:00:00	""	""	16.015	82.5685	None	3	4.4068	4.6172	30.4346	16.9261	15.0406	None	1.325	""	""	81691000
902	BET02050	2024-05-07T06:10:00	""	""	15.9055	83.625	None	4.9401	6.724	7.9999	27.1985	8.4203	17.1778	None	1.2964	""	""	81691000
903	BET02050	2024-05-07T06:20:00	""	""	15.8983	77.2451	None	5	5.3431	7	9.1147	28.5621	15.2874	None	1.6131	""	""	81691000
904	BET02050	2024-05-07T06:30:00	""	""	15.6977	74.8792	None	4	5.4032	5.5987	8.4491	17.2016	19.4587	None	1.5178	""	""	81691000
905	BET02050	2024-05-07T06:40:00	""	""	15.7906	63.8666	None	2.1526	3	3	0.0575	39.1944	17.0087	None	1.7292	""	""	81691000
906	BET02050	2024-05-07T06:50:00	""	""	15.871	64.1205	None	1.75	2	3	3.5093	36.5494	15.8152	None	1.6391	""	""	81691000
907	BET02050	2024-05-07T07:00:00	""	""	15.9158	62.2085	None	2	2	2	0.0653	42.0125	15.3462	None	1.6897	""	""	81691000
908	BET02050	2024-05-07T07:10:00	""	""	16.1124	60.7948	None	2	2	2.2279	0.2451	46.9436	13.2114	None	1.6652	""	""	81691000
909	BET02050	2024-05-07T07:20:00	""	""	16.2969	59.8924	None	1	2	2.1279	0.2046	46.6932	13.1744	None	1.7099	""	""	81691000
910	BET02050	2024-05-07T07:30:00	""	""	16.4136	59.1697	None	1	2.1305	2.9999	0.5108	44.1221	13.1222	None	1.661	""	""	81691000
911	BET02050	2024-05-07T07:40:00	""	""	16.5275	58.7669	None	1.9999	1.8932	1.9927	4.1505	42.9916	13.357	None	1.6274	""	""	81691000
912	BET02050	2024-05-07T07:50:00	""	""	16.7464	58.9272	None	1.8	2.7394	2.9832	5.4028	44.3194	12.4371	None	1.668	""	""	81691000
913	BET02050	2024-05-07T08:00:00	""	""	16.9761	58.0815	None	1.2021	2	1.6014	2.6583	45.478	11.54	None	1.5871	""	""	81691000
914	BET02050	2024-05-07T08:10:00	""	""	17.2969	57.0814	None	1.9999	2	2	0.093	48.0605	10.9267	None	1.6502	""	""	81691000
915	BET02050	2024-05-07T08:20:00	""	""	17.3954	56.4375	None	1.7056	2	2	3.5815	45.6168	11.0692	None	1.6627	""	""	81691000
916	BET02050	2024-05-07T08:30:00	""	""	17.6641	56.3232	None	1.5592	2.3253	2.759	3.1063	47.9293	10.8904	None	1.676	""	""	81691000
917	BET02050	2024-05-07T08:40:00	""	""	17.8338	55.9844	None	1.4746	2.3082	2.6787	15.7961	39.0752	18.2791	None	1.5182	""	""	81691000
918	BET02050	2024-05-07T08:50:00	""	""	18.0878	56.03	None	1.9143	2.6471	3.0527	9.5426	45.3746	11.3563	None	1.7245	""	""	81691000
919	BET02050	2024-05-07T09:00:00	""	""	18.3215	56.3548	None	1.5	2.2149	2.3026	17.4751	39.4234	15.5911	None	1.5633	""	""	81691000
920	BET02050	2024-05-07T09:10:00	""	""	18.5189	54.718	None	0.7995	1.3938	1.3245	9.168	51.2462	10.7141	None	1.7567	""	""	81691000
921	BET02050	2024-05-07T09:20:00	""	""	18.6263	53.7125	None	0.9225	1.1523	1.1712	8.5581	47.347	12.1513	None	1.7405	""	""	81691000
922	BET02050	2024-05-07T09:30:00	""	""	18.5761	53.252	None	1	1.3669	1.7011	7.9037	53.842	9.8157	None	1.7429	""	""	81691000
923	BET02050	2024-05-07T09:40:00	""	""	18.7944	52.0905	None	1.6007	1.5	1.5	10.6169	45.94	11.8991	None	1.7708	""	""	81691000
924	BET02050	2024-05-07T09:50:00	""	""	19.1163	51.6646	None	1	1.7865	1.5817	11.612	49.469	8.8372	None	1.8266	""	""	81691000
925	BET02050	2024-05-07T10:00:00	""	""	19.3161	51.3918	None	1.4122	1.822	2.1343	13.3894	47.3037	11.9885	None	1.9831	""	""	81691000
926	BET02050	2024-05-07T10:10:00	""	""	19.1156	50.4108	None	0.7155	1.2474	1.263	14.6973	45.7585	8.9225	None	1.774	""	""	81691000
927	BET02050	2024-05-07T10:20:00	""	""	18.8782	50.03	None	1	1	1.9386	10.1366	55.1228	8.3083	None	1.9072	""	""	81691000
928	BET02050	2024-05-07T10:30:00	""	""	18.6155	51.5184	None	1.7689	2.1521	2.3325	10.8437	62.068	7.142	None	1.8559	""	""	81691000
929	BET02050	2024-05-07T10:40:00	""	""	18.8094	53.57	None	1.1707	1.8053	2.1245	15.2105	62.4143	4.9676	None	2.0172	""	""	81691000
930	BET02050	2024-05-07T10:50:00	""	""	19.0506	53.4299	None	2	2.4941	2.6507	10.8448	60.0034	5.6928	None	2.0377	""	""	81691000
931	BET02050	2024-05-07T11:00:00	""	""	18.8796	53.1975	None	2	2.821	2.7813	9.1592	62.7204	5.4844	None	2.0694	""	""	81691000
932	BET02050	2024-05-07T11:10:00	""	""	19.6811	53.0743	None	2	2.3492	2.3117	13.468	61.8823	2.9564	None	2.0921	""	""	81691000
933	BET02050	2024-05-07T11:20:00	""	""	19.4776	52.3558	None	1	2.0955	2.2723	10.4912	63.1615	2.7779	None	2.1662	""	""	81691000
934	BET02050	2024-05-07T11:30:00	""	""	19.5989	52.565	None	2	2	3.1277	11.5687	70.2902	2.2277	None	2.2431	""	""	81691000
935	BET02050	2024-05-07T11:40:00	""	""	20.6472	51.4252	None	1.5896	2.2208	2.3223	8.9014	63.8903	2.8955	None	2.7015	""	""	81691000
936	BET02050	2024-05-07T11:50:00	""	""	20.4707	51.4641	None	1.8691	2.2908	2.407	12.7532	70.3492	2.3357	None	2.5804	""	""	81691000
937	BET02050	2024-05-07T12:00:00	""	""	20.6607	50.4736	None	2.3786	3.236	3.6361	6.8757	77.5191	2.5084	None	3.0264	""	""	81691000
938	BET02050	2024-05-07T12:10:00	""	""	20.8872	50.0172	None	2.4518	3.231	3.1871	6.4646	73.1485	2.8492	None	3.0677	""	""	81691000
939	BET02050	2024-05-07T12:20:00	""	""	20.849	49.5749	None	2.3451	4	3.6052	6.6412	75.9009	3.0259	None	3.0996	""	""	81691000
940	BET02050	2024-05-07T12:30:00	""	""	21.1431	49.2543	None	1.9921	2.9472	3.2314	9.107	71.6064	3.201	None	3.0071	""	""	81691000
941	BET02050	2024-05-07T12:40:00	""	""	21.2958	48.8308	None	2	3	3	8.7818	74.6914	3.0072	None	3.1234	""	""	81691000
942	BET02050	2024-05-07T12:50:00	""	""	20.2453	49.2625	None	2.0138	2.9428	3.0274	5.0809	81.1765	2.1914	None	2.6625	""	""	81691000
943	BET02050	2024-05-07T13:00:00	""	""	20.9281	50.8413	None	2	2.457	2.6022	8.9568	74.3029	2.4256	None	3.0864	""	""	81691000
944	BET02050	2024-05-07T13:10:00	""	""	20.8665	49.0123	None	2	3.0069	3.2944	11.947	64.0779	3.424	None	2.7493	""	""	81691000
945	BET02050	2024-05-07T13:20:00	""	""	20.5077	47.9365	None	1.4323	2.2918	2.3562	11.9771	66.6275	3.2222	None	2.7623	""	""	81691000
946	BET02050	2024-05-07T13:30:00	""	""	21.0404	47.8305	None	1.0001	2.4874	2.6027	6.7192	73.1007	2.8727	None	3.2345	""	""	81691000
947	BET02050	2024-05-07T13:40:00	""	""	20.6316	47.5395	None	2.031	2.97	2.9687	9.7361	71.8653	2.4082	None	2.7973	""	""	81691000
948	BET02050	2024-05-07T13:50:00	""	""	20.5661	50.246	None	2.2431	2.7765	3.2303	10.6988	77.2292	2.1167	None	2.787	""	""	81691000
949	BET02050	2024-05-07T14:00:00	""	""	20.4861	49.9122	None	2	2.2254	2.9944	8.1783	73.2383	2.2836	None	2.6739	""	""	81691000
950	BET02050	2024-05-07T14:10:00	""	""	20.7081	51.0293	None	2.5	3.9999	3.1384	16.479	75.272	1.7871	None	2.8293	""	""	81691000
951	BET02050	2024-05-07T14:20:00	""	""	22.423	49.731	None	2.0796	3.2024	3.4429	24.9413	70.3588	7.7205	None	3.3178	""	""	81691000
952	BET02050	2024-05-07T14:30:00	""	""	21.6085	50.2829	None	2.7849	3.8901	4.134	13.1103	90.469	3.8381	None	3.2675	""	""	81691000
953	BET02050	2024-05-07T14:40:00	""	""	22.8991	49.811	None	3.2002	4.1233	4.271	15.8662	75.3299	7.9103	None	3.4032	""	""	81691000
954	BET02050	2024-05-07T14:50:00	""	""	20.9528	48.7059	None	2.7231	3.6062	3.7058	7.75	86.2643	2.0561	None	2.9318	""	""	81691000
955	BET02050	2024-05-07T15:00:00	""	""	22.3623	50.2137	None	2.5638	3	3.0001	17.7671	73.8508	7.4689	None	3.1069	""	""	81691000
956	BET02050	2024-05-07T15:10:00	""	""	23.1582	49.9918	None	2.0001	3.5253	3.7738	15.8386	67.2066	7.9963	None	3.4258	""	""	81691000
957	BET02050	2024-05-07T15:20:00	""	""	21.8751	50.2874	None	2.2879	3	3.0001	17.114	74.4651	7.9861	None	2.8851	""	""	81691000
958	BET02050	2024-05-07T15:30:00	""	""	22.0816	49.666	None	3.0702	3.9519	4.213	9.4277	79.4265	8.575	None	2.8634	""	""	81691000
959	BET02050	2024-05-07T15:40:00	""	""	21.9082	49.6484	None	3.1852	4.1265	4.3565	11.3313	81.5825	7.9226	None	3.0843	""	""	81691000
960	BET02050	2024-05-07T15:50:00	""	""	20.5761	52.3236	None	4.1664	4.4076	4.599	20.4639	69.0028	2.4384	None	2.0806	""	""	81691000
961	BET02050	2024-05-07T16:00:00	""	""	19.7635	53.657	None	3.9242	5.0356	5.1984	13.3917	77.145	1.2309	None	2.1312	""	""	81691000
962	BET02050	2024-05-07T16:10:00	""	""	19.3525	55.414	None	3.3122	4.0886	4.214	17.8971	74.0545	1.2112	None	2.0231	""	""	81691000
963	BET02050	2024-05-07T16:20:00	""	""	18.7193	60.3449	None	3	4.26	4.4031	33.2115	85.0344	0.0517	None	1.9882	""	""	81691000
964	BET02050	2024-05-07T16:30:00	""	""	18.2855	65.2191	None	4.2211	5.6782	5.8673	25.4424	77.4132	0.0137	None	1.9783	""	""	81691000
965	BET02050	2024-05-07T16:40:00	""	""	18.4257	68.4988	None	6.9999	6.1167	7.1534	30.6058	56.4315	0.0116	None	1.9716	""	""	81691000
966	BET02050	2024-05-07T16:50:00	""	""	18.2116	68.4566	None	4.3306	5.5806	6.6862	37.5288	47.6378	1.1354	None	1.9667	""	""	81691000
967	BET02050	2024-05-07T17:00:00	""	""	18.1379	67.7523	None	10.0532	13.5064	13.3524	48.9235	30.4438	6.801	None	1.9231	""	""	81691000
968	BET02050	2024-05-07T17:10:00	""	""	18	66.8018	None	6.9385	8.3128	8.7273	29.7644	53.2471	3.8551	None	1.968	""	""	81691000
969	BET02050	2024-05-07T17:20:00	""	""	17.9098	66.6054	None	5.005	6.1358	7.0998	31.8069	44.5804	6.7165	None	1.914	""	""	81691000
970	BET02050	2024-05-07T17:30:00	""	""	17.9475	65.7381	None	5	7.6472	8.3127	40.7761	33.53	8.2736	None	1.9338	""	""	81691000
971	BET02050	2024-05-07T17:40:00	""	""	17.7504	65.5616	None	6.4231	7.7525	8.4465	61.8271	23.4741	9.7479	None	1.8799	""	""	81691000
972	BET02050	2024-05-07T17:50:00	""	""	17.5661	66.7749	None	6.1852	7.455	7.8929	34.986	45.3295	6.3296	None	1.9108	""	""	81691000
973	BET02050	2024-05-07T18:00:00	""	""	17.3307	68.3744	None	5	6.0567	6.1197	29.801	47.5377	6.327	None	1.8607	""	""	81691000
974	BET02050	2024-05-07T18:10:00	""	""	17.427	69.0878	None	4.71	5.6024	6.4745	36.1375	34.2435	6.8641	None	1.8376	""	""	81691000
975	BET02050	2024-05-07T18:20:00	""	""	17.4086	68.8654	None	6.1688	8.4737	8.9169	25.2845	46.9691	6.0117	None	1.9053	""	""	81691000
976	BET02050	2024-05-07T18:30:00	""	""	16.9564	71.2423	None	4.7949	6.6562	6.9412	28.9877	56.872	6.201	None	1.9281	""	""	81691000
977	BET02050	2024-05-07T18:40:00	""	""	16.7117	72.4854	None	5	6.4376	7.5977	24.216	55.4391	7.7488	None	1.9395	""	""	81691000
978	BET02050	2024-05-07T18:50:00	""	""	16.7479	72.8747	None	6.163	8.5608	9.6267	23.0101	51.6161	7.045	None	1.9493	""	""	81691000
979	BET02050	2024-05-07T19:00:00	""	""	16.8175	73.1171	None	4	5.8759	6	31.6257	43.8456	8.4262	None	1.9784	""	""	81691000
980	BET02050	2024-05-07T19:10:00	""	""	16.9189	72.2537	None	3.5556	4.4103	4.83	18.8104	60.7645	7.4188	None	1.9738	""	""	81691000
981	BET02050	2024-05-07T19:20:00	""	""	16.8608	74.0563	None	4.3268	5.9341	6.1619	29.9541	56.1571	6.6121	None	1.9569	""	""	81691000
982	BET02050	2024-05-07T19:30:00	""	""	16.4406	75.8023	None	5.0915	6.9374	7.8661	21.1382	62.9042	6.6856	None	1.9688	""	""	81691000
983	BET02050	2024-05-07T19:40:00	""	""	16.4487	75.8002	None	4.7566	6.4234	6.8463	18.1733	50.5979	8.5505	None	1.9495	""	""	81691000
984	BET02050	2024-05-07T19:50:00	""	""	16.5017	73.7905	None	5.5648	7.6408	8.2418	17.7706	52.4941	9.3975	None	1.9306	""	""	81691000
985	BET02050	2024-05-07T20:00:00	""	""	16.5031	72.9779	None	5.9999	6.2632	6.9812	11.8202	65.0517	8.577	None	1.9713	""	""	81691000
986	BET02050	2024-05-07T20:10:00	""	""	16.5763	73.4105	None	5	6.2417	6.6423	14.6888	61.9925	8.4777	None	1.959	""	""	81691000
987	BET02050	2024-05-07T20:20:00	""	""	16.5952	73.6244	None	4.6075	6.161	6.1183	23.4963	51.7094	7.8974	None	1.9408	""	""	81691000
988	BET02050	2024-05-07T20:30:00	""	""	16.2808	74.4752	None	5	6.9018	8.1232	15.4836	55.507	8.7334	None	1.9225	""	""	81691000
989	BET02050	2024-05-07T20:40:00	""	""	16.0355	74.4126	None	6.4028	8.9285	9.7089	18.3872	41.8303	10.6791	None	1.8004	""	""	81691000
990	BET02050	2024-05-07T20:50:00	""	""	15.9818	74.1901	None	5.5266	7	7.4079	14.7342	44.4332	10.062	None	1.7833	""	""	81691000
991	BET02050	2024-05-07T21:00:00	""	""	15.5592	75.1157	None	5	5.977	6.0303	16.8432	51.8629	8.4538	None	1.842	""	""	81691000
992	BET02050	2024-05-07T21:10:00	""	""	15.4686	78.8809	None	4	5	5	17.6703	51.8627	8.8317	None	1.8867	""	""	81691000
993	BET02050	2024-05-07T21:20:00	""	""	15.5125	80.8308	None	4	4.9094	4.0001	15.4141	48.2577	8.8973	None	1.8724	""	""	81691000
994	BET02050	2024-05-07T21:30:00	""	""	15.8302	80.8103	None	4	6.0588	6.8654	12.9507	45.708	9.4526	None	1.8844	""	""	81691000
995	BET02050	2024-05-07T21:40:00	""	""	15.8424	81.0338	None	4.9999	6.8748	6	14.5475	47.8362	9.7452	None	1.8922	""	""	81691000
996	BET02050	2024-05-07T21:50:00	""	""	15.7546	82.2012	None	5	6.6323	6.7025	16.0801	46.9043	9.4101	None	1.9262	""	""	81691000
997	BET02050	2024-05-07T22:00:00	""	""	15.626	83.0027	None	9.4269	11.815	11.158	14.9431	39.6951	10.0449	None	1.8551	""	""	81691000
998	BET02050	2024-05-07T22:10:00	""	""	15.6395	83.4585	None	5.7154	7.3511	7.9874	12.3436	45.5267	10.0583	None	1.9076	""	""	81691000
999	BET02050	2024-05-07T22:20:00	""	""	15.6799	83.5937	None	4.8029	6.6776	7.1123	11.4621	39.5654	10.7129	None	1.756	""	""	81691000
1000	BET02050	2024-05-07T22:30:00	""	""	15.5202	83.0291	None	4.7504	6.1466	6.9258	11.9252	37.3551	10.9998	None	1.6192	""	""	81691000
1001	BET02050	2024-05-07T22:40:00	""	""	15.489	82.4118	None	6	6.8649	7.7273	9.6968	36.4652	11.619	None	1.7412	""	""	81691000
1002	BET02050	2024-05-07T22:50:00	""	""	15.262	80.1648	None	6	8.6379	9.5846	9.6482	29.8344	11.8265	None	1.5515	""	""	81691000
1003	BET02050	2024-05-07T23:00:00	""	""	14.9676	78.6576	None	21.3728	29.2743	31.4677	21.7202	15.2941	11.071	None	1.2753	""	""	81691000
1004	BET02050	2024-05-07T23:10:00	""	""	14.7768	78.2481	None	10.7444	14.4421	15.3686	20.9468	19.5915	9.9407	None	1.3053	""	""	81691000
1005	BET02050	2024-05-07T23:20:00	""	""	14.6485	78.8732	None	11.5	15.9766	16.9084	18.5188	20.2425	9.2075	None	1.2846	""	""	81691000
1006	BET02050	2024-05-07T23:30:00	""	""	14.4922	79.0358	None	11	14.1326	15.7425	20.1264	19.0753	8.6816	None	1.28	""	""	81691000
1007	BET02050	2024-05-07T23:40:00	""	""	14.2592	79.1805	None	9.9603	13.2388	13.7701	25.9989	13.9472	8.3123	None	1.2416	""	""	81691000
1008	BET02050	2024-05-07T23:50:00	""	""	14.0714	80.0001	None	9.9798	14.1483	14.9598	19.1889	20.0881	7.7576	None	1.2328	""	""	81691000
1009	BET02050	2024-05-08T00:00:00	""	""	13.8797	80.9404	None	10.1778	13.6759	13.9656	18.1717	20.6826	7.5354	None	1.2274	""	""	81691000
1010	BET02050	2024-05-08T00:10:00	""	""	13.8344	81.7702	None	10	13.9407	15.3372	17.5344	21.3943	7.6419	None	1.2562	""	""	81691000
1011	BET02050	2024-05-08T00:20:00	""	""	13.7496	82.1764	None	11.0607	14.8283	15.8194	16.7811	21.3189	7.5015	None	1.2499	""	""	81691000
1012	BET02050	2024-05-08T00:30:00	""	""	13.7216	82.9114	None	14.635	19.6011	20.2529	18.1028	20.3945	7.8806	None	1.2716	""	""	81691000
1013	BET02050	2024-05-08T00:40:00	""	""	13.5541	83.1894	None	16.4916	21.3125	22.1691	17.1123	21.0533	7.6413	None	1.2309	""	""	81691000
1014	BET02050	2024-05-08T00:50:00	""	""	13.3952	83.5767	None	17.9702	23.9102	25.3924	17.2146	20.2767	7.5063	None	1.2245	""	""	81691000
1015	BET02050	2024-05-08T01:00:00	""	""	13.3171	83.6934	None	None	None	None	18.4435	18.8502	7.3979	None	1.2182	""	""	81691000
1016	BET02050	2024-05-08T01:10:00	""	""	13.2704	85.598	None	22.2994	32.1684	36.4138	20.7792	17.7698	7.4631	None	1.2461	""	""	81691000
1017	BET02050	2024-05-08T01:20:00	""	""	13.0895	86.5153	None	16.7007	22.2228	23.4324	19.459	17.8994	7.6589	None	1.23	""	""	81691000
1018	BET02050	2024-05-08T01:30:00	""	""	13.1219	87.6215	None	19.1738	25.64	26.8677	21.5655	16.1297	7.8536	None	1.2388	""	""	81691000
1019	BET02050	2024-05-08T01:40:00	""	""	12.8682	87.9844	None	18.2515	24.2053	25.3898	20.4356	16.1306	7.8403	None	1.1905	""	""	81691000
1020	BET02050	2024-05-08T01:50:00	""	""	12.9141	88.5199	None	16.0349	22.4262	23.6311	19.0727	18.5846	8.0296	None	1.2277	""	""	81691000
1021	BET02050	2024-05-08T02:00:00	""	""	12.7822	88.4714	None	16.9545	22.5892	23.3304	17.5626	19.1422	8.0341	None	1.2393	""	""	81691000
1022	BET02050	2024-05-08T02:10:00	""	""	12.757	88.5045	None	15.9075	21.8493	23.3252	17.9243	18.861	8.2636	None	1.2351	""	""	81691000
1023	BET02050	2024-05-08T02:20:00	""	""	12.7145	88.3816	None	14.8063	19.194	20.6323	18.8007	16.5273	8.286	None	1.2429	""	""	81691000
1024	BET02050	2024-05-08T02:30:00	""	""	12.5859	88.1316	None	13.5464	18.1342	20.0896	19.8346	16.1227	8.213	None	1.2029	""	""	81691000
1025	BET02050	2024-05-08T02:40:00	""	""	12.4749	88.3021	None	14.1958	19.6136	20.3775	21.093	13.7748	8.5073	None	1.2032	""	""	81691000
1026	BET02050	2024-05-08T02:50:00	""	""	12.4397	88.5284	None	13.3801	18.1502	19.9178	20.1832	13.0488	8.1516	None	1.1947	""	""	81691000
1027	BET02050	2024-05-08T03:00:00	""	""	12.4634	88.1939	None	12.8787	16.8287	18.353	19.1086	16.2435	8.3589	None	1.2054	""	""	81691000
1028	BET02050	2024-05-08T03:10:00	""	""	12.4748	87.3807	None	11.6041	15.7274	16.877	19.1716	14.5483	8.4242	None	1.1939	""	""	81691000
1029	BET02050	2024-05-08T03:20:00	""	""	12.3392	86.8605	None	12.5099	16.6862	17.895	18.2979	14.0046	8.1657	None	1.184	""	""	81691000
1030	BET02050	2024-05-08T03:30:00	""	""	12.2845	86.6675	None	13.2435	17.4987	18.8103	20.5343	13.8065	8.2827	None	1.1724	""	""	81691000
1031	BET02050	2024-05-08T03:40:00	""	""	12.5016	86.7963	None	13.0035	17.1228	17.9052	19.8632	15.755	8.9669	None	1.2188	""	""	81691000
1032	BET02050	2024-05-08T03:50:00	""	""	12.2614	86.5394	None	13.2111	18.0766	18.9838	18.3219	15.0969	8.6036	None	1.1885	""	""	81691000
1033	BET02050	2024-05-08T04:00:00	""	""	12.3145	84.9839	None	11.5817	15.4267	16.1945	16.1095	18.3855	8.4873	None	1.1933	""	""	81691000
1034	BET02050	2024-05-08T04:10:00	""	""	12.3671	84.191	None	9.0001	13.3981	14.8418	17.9318	15.4832	9.0403	None	1.1876	""	""	81691000
1035	BET02050	2024-05-08T04:20:00	""	""	12.2698	83.1466	None	10.9923	14.7017	15.0705	23.286	9.917	8.6648	None	1.16	""	""	81691000
1036	BET02050	2024-05-08T04:30:00	""	""	12.31	82.2939	None	10	13.7185	15.0707	25.7769	4.5618	9.8368	None	1.1744	""	""	81691000
1037	BET02050	2024-05-08T04:40:00	""	""	12.5954	81.096	None	9.6918	13.0629	14.0689	25.1754	8.4508	11.3624	None	1.1781	""	""	81691000
1038	BET02050	2024-05-08T04:50:00	""	""	12.8562	79.5943	None	8.2612	10.6857	10.8716	17.499	20.003	9.9014	None	1.2361	""	""	81691000
1039	BET02050	2024-05-08T05:00:00	""	""	13.0558	78.4107	None	7	9.15	9.6144	15.1045	22.4389	9.5054	None	1.2816	""	""	81691000
1040	BET02050	2024-05-08T05:10:00	""	""	13.0058	77.9788	None	7.3376	10.2142	10.8822	23.0115	15.9467	11.9713	None	1.178	""	""	81691000
1041	BET02050	2024-05-08T05:20:00	""	""	13.0823	77.7665	None	8.8122	11.607	12.0778	23.2526	16.093	11.6965	None	1.2023	""	""	81691000
1042	BET02050	2024-05-08T05:30:00	""	""	13.1578	77.8083	None	8.5494	11.2729	11.5379	24.675	14.7161	12.9763	None	1.2104	""	""	81691000
1043	BET02050	2024-05-08T05:40:00	""	""	13.3367	77.1634	None	8.6955	11.4779	12.2052	22.8512	16.4998	12.5202	None	1.201	""	""	81691000
1044	BET02050	2024-05-08T05:50:00	""	""	13.2893	76.8153	None	9.805	13.0533	13.4153	25.1057	12.2149	15.3032	None	1.1331	""	""	81691000
1045	BET02050	2024-05-08T06:00:00	""	""	13.5631	74.7923	None	8	10.5421	11.2437	15.0862	21.7665	11.3021	None	1.2121	""	""	81691000
1046	BET02050	2024-05-08T06:10:00	""	""	13.8246	72.6611	None	5.0001	8.6966	8.8455	12.0989	26.1341	10.544	None	1.3179	""	""	81691000
1047	BET02050	2024-05-08T06:20:00	""	""	13.9437	72.2529	None	7	9.0429	9.73	12.4832	27.8118	10.7513	None	1.2969	""	""	81691000
1048	BET02050	2024-05-08T06:30:00	""	""	14.2538	71.4305	None	6.9275	9.1438	9.3115	11.1586	30.275	10.8439	None	1.3562	""	""	81691000
1049	BET02050	2024-05-08T06:40:00	""	""	14.6246	70.2249	None	6.0803	8.4875	8.4012	12.3151	29.9806	10.6862	None	1.3427	""	""	81691000
1050	BET02050	2024-05-08T06:50:00	""	""	14.7424	69.2764	None	5.0002	8.5886	8.66	11.2473	29.7354	12.7651	None	1.392	""	""	81691000
1051	BET02050	2024-05-08T07:00:00	""	""	15.1062	67.6674	None	6	7.8628	8.6189	8.0493	35.1592	12.6465	None	1.4099	""	""	81691000
1052	BET02050	2024-05-08T07:10:00	""	""	15.4618	66.4983	None	6	7	7.4692	8.3483	33.5691	14.3218	None	1.3887	""	""	81691000
1053	BET02050	2024-05-08T07:20:00	""	""	15.9115	64.6622	None	6	7.0589	7.6064	6.0667	38.0631	14.7445	None	1.5409	""	""	81691000
1054	BET02050	2024-05-08T07:30:00	""	""	16.3289	62.8166	None	4.7661	6.096	6.2837	2.9246	39.0125	16.1588	None	1.5856	""	""	81691000
1055	BET02050	2024-05-08T07:40:00	""	""	16.5733	62.1338	None	6.3914	7.4078	8.1609	4.7772	41.5856	15.3832	None	1.5361	""	""	81691000
1056	BET02050	2024-05-08T07:50:00	""	""	16.928	60.5358	None	5.3692	7.19	7.1934	3.4531	41.261	15.119	None	1.5861	""	""	81691000
1057	BET02050	2024-05-08T08:00:00	""	""	17.3687	58.8648	None	4.8689	6.8504	7.0862	2.1546	41.462	15.2455	None	1.6213	""	""	81691000
1058	BET02050	2024-05-08T08:10:00	""	""	17.7381	56.8889	None	4.4169	5.5142	6.3627	0.2498	40.4436	15.0283	None	1.6975	""	""	81691000
1059	BET02050	2024-05-08T08:20:00	""	""	18.0597	55.5183	None	3.4265	4.868	5.1688	0.145	42.9364	13.7134	None	1.7141	""	""	81691000
1060	BET02050	2024-05-08T08:30:00	""	""	18.507	54.4704	None	4	4.422	4.6328	0.0796	41.7731	13.6676	None	1.749	""	""	81691000
1061	BET02050	2024-05-08T08:40:00	""	""	18.8699	53.323	None	4	4.5232	4.7999	1.8602	47.0706	11.9092	None	1.728	""	""	81691000
1062	BET02050	2024-05-08T08:50:00	""	""	19.2365	52.7342	None	3.7137	4.676	4.8511	4.3336	46.7752	10.7731	None	1.7955	""	""	81691000
1063	BET02050	2024-05-08T09:00:00	""	""	19.9204	50.5034	None	4	4.8754	5.4475	0.447	38.7153	12.573	None	2.1532	""	""	81691000
1064	BET02050	2024-05-08T09:10:00	""	""	20.3731	48.3428	None	3	3.9999	4.0223	0.7651	52.2277	8.1406	None	3.1108	""	""	81691000
1065	BET02050	2024-05-08T09:20:00	""	""	20.6574	46.0584	None	2.9999	4	4	0.1114	50.3449	9.2105	None	3.4577	""	""	81691000
1066	BET02050	2024-05-08T09:30:00	""	""	21.0864	44.0415	None	1.0001	3.0555	3.1734	0.0029	52.2459	10.3363	None	3.7456	""	""	81691000
1067	BET02050	2024-05-08T09:40:00	""	""	21.5092	45.9246	None	2	3.1125	3.0454	7.6007	46.923	9.4546	None	3.6077	""	""	81691000
1068	BET02050	2024-05-08T09:50:00	""	""	21.7754	43.348	None	2.1309	2.6985	2.7509	1.4626	58.6314	9.7141	None	3.7396	""	""	81691000
1069	BET02050	2024-05-08T10:00:00	""	""	21.2409	51.0799	None	2	2	2.0001	37.3028	52.8268	5.2093	None	1.8037	""	""	81691000
1070	BET02050	2024-05-08T10:10:00	""	""	20.7768	53.7472	None	3.5666	5.1042	5.4407	29.1695	50.5796	4.3923	None	1.6503	""	""	81691000
1071	BET02050	2024-05-08T10:20:00	""	""	21.4526	53.1972	None	4.0808	5.0962	5.4279	26.6626	32.1506	10.2478	None	1.9443	""	""	81691000
1072	BET02050	2024-05-08T10:30:00	""	""	22.1446	50.3704	None	3.2987	4.2143	4.4894	36.3917	21.8411	10.9803	None	2.6788	""	""	81691000
1073	BET02050	2024-05-08T10:40:00	""	""	22.9439	47.8144	None	3.2451	3.7265	4	27.3023	27.3899	10.8192	None	3.623	""	""	81691000
1074	BET02050	2024-05-08T10:50:00	""	""	22.9361	47.9866	None	3	4.7068	4.7649	37.0687	32.0951	12.4019	None	3.2136	""	""	81691000
1075	BET02050	2024-05-08T11:00:00	""	""	22.6939	47.5178	None	2.8596	4.1099	4.3098	17.2787	45.0233	10.2004	None	3.204	""	""	81691000
1076	BET02050	2024-05-08T11:10:00	""	""	21.905	50.0461	None	3.6388	4.6474	5.2319	15.8464	59.2079	8.841	None	2.1611	""	""	81691000
1077	BET02050	2024-05-08T11:20:00	""	""	22.4562	49.0862	None	4.0103	5.114	5.3506	17.7711	60.2201	9.2122	None	3.213	""	""	81691000
1078	BET02050	2024-05-08T11:30:00	""	""	22.4693	48.826	None	4	5.8028	6.0189	11.7368	73.128	8.7645	None	3.4052	""	""	81691000
1079	BET02050	2024-05-08T11:40:00	""	""	22.8082	46.8642	None	3.8375	5.2193	5.5977	10.935	61.0298	9.4272	None	3.6355	""	""	81691000
1080	BET02050	2024-05-08T11:50:00	""	""	22.876	45.7443	None	3.5	4.5856	4.7271	9.9901	71.4635	9.0577	None	3.6423	""	""	81691000
1081	BET02050	2024-05-08T12:00:00	""	""	23.3543	43.5522	None	3.4428	3.9195	4.4797	7.3746	66.7038	8.9789	None	3.828	""	""	81691000
1082	BET02050	2024-05-08T12:10:00	""	""	23.6277	42.5282	None	3.6659	4.3432	4.4555	6.999	70.8694	9.1108	None	3.8575	""	""	81691000
1083	BET02050	2024-05-08T12:20:00	""	""	23.539	41.4628	None	4.721	5.5242	5.8006	6.1374	71.1942	8.7173	None	3.889	""	""	81691000
1084	BET02050	2024-05-08T12:30:00	""	""	23.9291	40.0671	None	2.9111	3	4.7989	5.9588	70.1287	9.3783	None	3.9957	""	""	81691000
1085	BET02050	2024-05-08T12:40:00	""	""	23.3687	39.3061	None	2.4375	3.4901	4.2161	4.7744	75.9767	8.4752	None	3.9096	""	""	81691000
1086	BET02050	2024-05-08T12:50:00	""	""	22.6916	41.9009	None	2	2.9268	3.0118	6.8915	75.4281	7.9937	None	3.7356	""	""	81691000
1087	BET02050	2024-05-08T13:00:00	""	""	22.4652	41.4276	None	1.9204	2	2	5.8579	76.7457	7.7926	None	3.7381	""	""	81691000
1088	BET02050	2024-05-08T13:10:00	""	""	23.225	41.5113	None	2.1088	2.858	3.2869	9.446	77.0085	7.6463	None	3.879	""	""	81691000
1089	BET02050	2024-05-08T13:20:00	""	""	22.3707	42.6667	None	2.2067	3.1994	3.6078	6.8314	78.7703	7.2048	None	3.714	""	""	81691000
1090	BET02050	2024-05-08T13:30:00	""	""	23.4199	41.901	None	1.5056	2.2157	2.4565	9.7573	65.4733	7.6011	None	3.9112	""	""	81691000
1091	BET02050	2024-05-08T13:40:00	""	""	22.8059	38.4962	None	1.1584	1.8426	2.0747	3.1088	77.2857	7.5731	None	3.9605	""	""	81691000
1092	BET02050	2024-05-08T13:50:00	""	""	22.8679	40.2398	None	1.0885	1	1.7765	12.2272	66.0047	7.3678	None	3.8679	""	""	81691000
1093	BET02050	2024-05-08T14:00:00	""	""	23.0545	39.5533	None	1	1.9409	2.0008	8.5976	66.7783	7.446	None	3.9254	""	""	81691000
1094	BET02050	2024-05-08T14:10:00	""	""	22.8781	40.2592	None	1	2.4028	2	6.9076	83.3448	7.3169	None	3.8833	""	""	81691000
1095	BET02050	2024-05-08T14:20:00	""	""	22.727	39.2466	None	2.9997	3	3.1222	6.3865	69.2064	7.2292	None	3.8907	""	""	81691000
1096	BET02050	2024-05-08T14:30:00	""	""	22.858	40.4623	None	2.235	2	2	10.9271	70.108	7.4411	None	3.8451	""	""	81691000
1097	BET02050	2024-05-08T14:40:00	""	""	22.7585	40.9487	None	2.263	2.968	3.1856	10.6052	79.3588	6.7411	None	3.8173	""	""	81691000
1098	BET02050	2024-05-08T14:50:00	""	""	22.9951	40.6021	None	2.2181	2.9602	3.1888	9.7937	72.1206	7.0079	None	3.824	""	""	81691000
1099	BET02050	2024-05-08T15:00:00	""	""	22.7346	40.6617	None	2.5664	3.118	3.2051	11.4636	80.0538	6.8627	None	3.7691	""	""	81691000
1100	BET02050	2024-05-08T15:10:00	""	""	23.5654	39.0977	None	2.1604	3.0651	3.7318	7.5458	73.972	7.1365	None	3.9491	""	""	81691000
1101	BET02050	2024-05-08T15:20:00	""	""	23.4782	39.4124	None	2.0752	2.7906	2.8012	5.948	68.6193	7.9042	None	3.9491	""	""	81691000
1102	BET02050	2024-05-08T15:30:00	""	""	23.2879	40.4904	None	1.9167	2.4162	2.7256	10.4621	70.3874	7.724	None	3.8885	""	""	81691000
1103	BET02050	2024-05-08T15:40:00	""	""	22.928	39.7524	None	1.5468	2.3536	2.3401	11.9836	71.275	7.3107	None	3.8851	""	""	81691000
1104	BET02050	2024-05-08T15:50:00	""	""	23.223	39.895	None	2	2.7663	2.8945	8.6012	79.8035	6.9679	None	3.9441	""	""	81691000
1105	BET02050	2024-05-08T16:00:00	""	""	23.2607	39.8067	None	2	2.3732	2.9288	11.3142	77.568	7.003	None	3.9517	""	""	81691000
1106	BET02050	2024-05-08T16:10:00	""	""	23.0159	38.2309	None	2.4055	2.7679	2.6562	10.5899	68.8572	7.5627	None	3.9307	""	""	81691000
1107	BET02050	2024-05-08T16:20:00	""	""	22.785	39.8474	None	2.1822	3.253	3.3137	15.9756	61.5574	7.2132	None	3.7214	""	""	81691000
1108	BET02050	2024-05-08T16:30:00	""	""	23.0178	39.5967	None	2.195	2.5169	2.8117	16.9492	60.5209	6.9722	None	3.735	""	""	81691000
1109	BET02050	2024-05-08T16:40:00	""	""	22.9385	40.418	None	2.4393	2.6955	2.9876	15.8219	66.0672	6.8296	None	3.6139	""	""	81691000
1110	BET02050	2024-05-08T16:50:00	""	""	23.2741	40.0354	None	2	2.5737	3	15.553	62.624	7.5163	None	3.8682	""	""	81691000
1111	BET02050	2024-05-08T17:00:00	""	""	20.9308	43.4693	None	2	2.2604	2.8102	22.2555	76.8676	1.4708	None	2.7851	""	""	81691000
1112	BET02050	2024-05-08T17:10:00	""	""	20.7344	48.7694	None	2.333	3.0722	3.2053	28.8576	73.1419	0.1115	None	2.141	""	""	81691000
1113	BET02050	2024-05-08T17:20:00	""	""	20.1046	54.2474	None	2.5926	3.4013	3.4038	33.3267	78.8396	0.0089	None	2.0459	""	""	81691000
1114	BET02050	2024-05-08T17:30:00	""	""	19.9826	55.7448	None	2.658	3.6439	3.8861	32.2552	61.9895	0.052	None	2.0014	""	""	81691000
1115	BET02050	2024-05-08T17:40:00	""	""	20.0429	55.5631	None	3.0228	4.0046	4.0887	26.1627	70.951	0.2459	None	1.9153	""	""	81691000
1116	BET02050	2024-05-08T17:50:00	""	""	20.1443	55.5137	None	3	4.8708	4.6508	22.7986	71.7406	0.1163	None	2.0248	""	""	81691000
1117	BET02050	2024-05-08T18:00:00	""	""	20.0079	56.0397	None	3.1073	4.1974	4.8123	23.7055	71.7132	0.1363	None	2.028	""	""	81691000
1118	BET02050	2024-05-08T18:10:00	""	""	19.6061	58.9361	None	3.5865	4.6461	4.7136	24.3114	74.369	0.0135	None	1.9471	""	""	81691000
1119	BET02050	2024-05-08T18:20:00	""	""	19.6611	60.0948	None	4.0528	5.635	5.6595	28.9453	70.9596	0.1093	None	1.9831	""	""	81691000
1120	BET02050	2024-05-08T18:30:00	""	""	19.4463	62.0565	None	4.3481	5.8772	6.0228	30.899	70.9578	0.1936	None	1.9814	""	""	81691000
1121	BET02050	2024-05-08T18:40:00	""	""	19.2165	64.017	None	4.6652	6.1215	6.45	31.3739	67.6256	0.1636	None	1.972	""	""	81691000
1122	BET02050	2024-05-08T18:50:00	""	""	19.1828	62.6844	None	5.0709	6.7867	7.0319	24.8301	55.8099	0.5258	None	1.9954	""	""	81691000
1123	BET02050	2024-05-08T19:00:00	""	""	18.9778	62.681	None	5	6.9733	7.3032	19.4835	59.2738	0.6549	None	1.9788	""	""	81691000
1124	BET02050	2024-05-08T19:10:00	""	""	18.8942	58.8898	None	5.006	6.1883	6.6194	10.2638	56.2688	2.0427	None	1.976	""	""	81691000
1125	BET02050	2024-05-08T19:20:00	""	""	19.0991	56.3183	None	4.7035	6.5228	6.6879	13.5223	55.8101	2.4829	None	1.9693	""	""	81691000
1126	BET02050	2024-05-08T19:30:00	""	""	19.115	55.3835	None	4.6267	6	7.0528	9.9416	54.5415	2.472	None	1.9933	""	""	81691000
1127	BET02050	2024-05-08T19:40:00	""	""	19.1379	53.2288	None	5.7681	7.8059	7.9137	8.1784	54.5403	2.8048	None	1.9804	""	""	81691000
1128	BET02050	2024-05-08T19:50:00	""	""	19.0614	51.1083	None	5.8529	8	8.3796	1.8076	52.7944	4.9316	None	1.797	""	""	81691000
1129	BET02050	2024-05-08T20:00:00	""	""	19.2316	48.018	None	4.8089	6.096	6.2763	1.2393	54.9905	4.8703	None	2.0953	""	""	81691000
1130	BET02050	2024-05-08T20:10:00	""	""	19.2395	46.548	None	4.5304	5.6302	5.8766	2.3386	57.7498	5.1439	None	1.9081	""	""	81691000
1131	BET02050	2024-05-08T20:20:00	""	""	19.1773	46.498	None	4.4807	5.7721	5.9193	7.3276	46.8891	4.094	None	1.548	""	""	81691000
1132	BET02050	2024-05-08T20:30:00	""	""	19.192	46.6902	None	3.9539	5.1638	5.4549	11.0649	43.9018	3.8663	None	1.4591	""	""	81691000
1133	BET02050	2024-05-08T20:40:00	""	""	19.1224	45.7904	None	2.9731	4.1672	4.203	3.9056	55.7081	2.7993	None	1.7276	""	""	81691000
1134	BET02050	2024-05-08T20:50:00	""	""	19.1061	45.5265	None	2.4775	3.6591	3.3867	3.6976	55.1915	2.6277	None	1.6199	""	""	81691000
1135	BET02050	2024-05-08T21:00:00	""	""	19.0589	44.9385	None	2.1855	3.9999	3.2389	7.4189	54.368	2.4311	None	1.725	""	""	81691000
1136	BET02050	2024-05-08T21:10:00	""	""	19.0391	45.4847	None	2	3.03	3.2818	15.7985	46.8014	2.0429	None	1.5371	""	""	81691000
1137	BET02050	2024-05-08T21:20:00	""	""	18.7319	46.3769	None	2.4489	3.617	3.9515	17.9708	41.3977	1.8672	None	1.3423	""	""	81691000
1138	BET02050	2024-05-08T21:30:00	""	""	18.7381	46.1032	None	2.8333	3.6477	4.1517	21.0575	38.0887	1.9315	None	1.3894	""	""	81691000
1139	BET02050	2024-05-08T21:40:00	""	""	18.7695	46.3573	None	3.5539	4.331	4.6637	29.4758	29.9678	1.7378	None	1.3796	""	""	81691000
1140	BET02050	2024-05-08T21:50:00	""	""	18.4259	47.1537	None	3.2521	4.027	4.3251	32.3424	28.7254	1.3307	None	1.2504	""	""	81691000
1141	BET02050	2024-05-08T22:00:00	""	""	18.258	47.5968	None	3.7674	4.4491	4.7128	28.5582	30.8913	1.6513	None	1.2576	""	""	81691000
1142	BET02050	2024-05-08T22:10:00	""	""	18.1992	48.2173	None	3.0001	4.7694	4.9041	25.6235	32.8115	1.1066	None	1.3446	""	""	81691000
1143	BET02050	2024-05-08T22:20:00	""	""	17.7986	48.969	None	4	4.7186	4.9752	29.6198	33.6362	0.6879	None	1.2004	""	""	81691000
1144	BET02050	2024-05-08T22:30:00	""	""	17.5665	50.2593	None	3.9368	4.8724	5.1591	25.2874	36.4182	0.6943	None	1.1938	""	""	81691000
1145	BET02050	2024-05-08T22:40:00	""	""	17.1076	51.9129	None	4	5.4442	5.6438	27.6753	34.9037	0.4433	None	1.1728	""	""	81691000
1146	BET02050	2024-05-08T22:50:00	""	""	16.9743	53.1601	None	4.5574	6	6.3877	31.9359	32.1553	0.0954	None	1.1733	""	""	81691000
1147	BET02050	2024-05-08T23:00:00	""	""	16.9539	54.8619	None	5.1884	6.9459	7.8614	32.4332	36.8399	0.0831	None	1.2828	""	""	81691000
1148	BET02050	2024-05-08T23:10:00	""	""	16.6822	56.383	None	5.8244	7.0439	7.3158	30.3794	35.4991	1.0332	None	1.3011	""	""	81691000
1149	BET02050	2024-05-08T23:20:00	""	""	16.4607	56.7127	None	5.8306	7.511	7.6311	30.895	36.1261	1.0347	None	1.2384	""	""	81691000
1150	BET02050	2024-05-08T23:30:00	""	""	16.5074	57.5687	None	5.6635	7.1599	7.7283	28.0587	33.4658	1.7999	None	1.3212	""	""	81691000
1151	BET02050	2024-05-08T23:40:00	""	""	16.4931	57.8208	None	5.2276	7.4245	7.0289	28.5041	34.5027	2.3224	None	1.3801	""	""	81691000
1152	BET02050	2024-05-08T23:50:00	""	""	16.3566	57.8137	None	5.2764	7.1132	7.2005	26.8964	34.8892	3.2151	None	1.2943	""	""	81691000
1153	BET02050	2024-05-09T00:00:00	""	""	16.1541	57.9408	None	5.3742	6.7172	6.7153	24.7036	32.0171	4.22	None	1.2934	""	""	81691000
1154	BET02050	2024-05-09T00:10:00	""	""	16.406	56.7442	None	4.8851	6.1061	6.3177	16.1326	39.3294	4.8829	None	1.4737	""	""	81691000
1155	BET02050	2024-05-09T00:20:00	""	""	16.3756	56.6556	None	4.4011	5.9719	6.1912	21.2339	34.5937	4.931	None	1.3065	""	""	81691000
1156	BET02050	2024-05-09T00:30:00	""	""	16.2787	56.2568	None	5	5.9402	6.2609	24.1055	28.7684	6.25	None	1.2748	""	""	81691000
1157	BET02050	2024-05-09T00:40:00	""	""	16.3213	55.6602	None	4.9204	6.9999	6.2671	19.1545	31.4164	5.7265	None	1.2441	""	""	81691000
1158	BET02050	2024-05-09T00:50:00	""	""	16.2919	55.2287	None	4.1133	6	5.9517	16.478	33.7526	5.8669	None	1.2398	""	""	81691000
1159	BET02050	2024-05-09T01:00:00	""	""	16.1235	54.8903	None	None	None	None	15.4247	38.4353	5.5519	None	1.2422	""	""	81691000
1160	BET02050	2024-05-09T01:10:00	""	""	15.8279	55.5283	None	4	5.6215	6.1758	16.4766	33.8004	5.7772	None	1.1339	""	""	81691000
1161	BET02050	2024-05-09T01:20:00	""	""	15.6786	55.7036	None	4.9997	6.1125	6.6683	18.5093	32.5083	5.8022	None	1.156	""	""	81691000
1162	BET02050	2024-05-09T01:30:00	""	""	15.5635	55.9813	None	4.36	5.8872	6.0078	18.6493	29.9497	6.1782	None	1.1249	""	""	81691000
1163	BET02050	2024-05-09T01:40:00	""	""	15.3048	56.2507	None	4	5.1105	5.5984	19.5095	30.7803	5.8744	None	1.1066	""	""	81691000
1164	BET02050	2024-05-09T01:50:00	""	""	15.0283	56.9115	None	4.0526	5.6698	5.6968	20.3194	29.881	5.1771	None	1.0998	""	""	81691000
1165	BET02050	2024-05-09T02:00:00	""	""	15.0107	57.4982	None	4.3031	5.2457	5.3824	20.0334	31.4182	5.277	None	1.1173	""	""	81691000
1166	BET02050	2024-05-09T02:10:00	""	""	14.8097	58.0289	None	4.3618	6.229	6.5471	20.5906	30.1593	4.7107	None	1.1024	""	""	81691000
1167	BET02050	2024-05-09T02:20:00	""	""	14.7151	58.477	None	4.7342	6.3504	6.6325	21.8072	29.0022	4.7146	None	1.0953	""	""	81691000
1168	BET02050	2024-05-09T02:30:00	""	""	14.5831	59.0825	None	5.4482	7.2431	7.8597	22.0553	28.0877	4.6705	None	1.108	""	""	81691000
1169	BET02050	2024-05-09T02:40:00	""	""	14.3758	59.4469	None	5.0001	7.3935	7.6297	22.8756	26.7597	4.4149	None	1.0865	""	""	81691000
1170	BET02050	2024-05-09T02:50:00	""	""	14.2977	59.9345	None	5.8323	7.803	8.3817	19.7072	29.457	4.2519	None	1.0942	""	""	81691000
1171	BET02050	2024-05-09T03:00:00	""	""	14.1783	60.5235	None	6	8.3081	8.4081	20.6448	28.1132	4.208	None	1.0924	""	""	81691000
1172	BET02050	2024-05-09T03:10:00	""	""	14.0782	61.0298	None	6	7.4772	7.4018	23.7355	24.919	4.2143	None	1.0991	""	""	81691000
1173	BET02050	2024-05-09T03:20:00	""	""	13.991	61.4848	None	5.9999	6.7376	7.2974	23.4281	24.365	4.4112	None	1.1024	""	""	81691000
1174	BET02050	2024-05-09T03:30:00	""	""	13.8958	61.9051	None	5.7994	7.4661	7.662	33.2807	16.2395	4.316	None	1.0842	""	""	81691000
1175	BET02050	2024-05-09T03:40:00	""	""	13.7759	62.3891	None	6	8	8.2106	34.78	14.1427	4.093	None	1.0825	""	""	81691000
1176	BET02050	2024-05-09T03:50:00	""	""	13.7601	62.8296	None	6	7	7.7393	33.6021	15.342	4.608	None	1.1017	""	""	81691000
1177	BET02050	2024-05-09T04:00:00	""	""	13.7333	63.3073	None	5.7992	8.0473	8.2627	45.4561	8.4941	5.2498	None	1.084	""	""	81691000
1178	BET02050	2024-05-09T04:10:00	""	""	13.665	63.7296	None	6.9998	9.1056	9.1202	43.4884	7.1675	5.0772	None	1.0892	""	""	81691000
1179	BET02050	2024-05-09T04:20:00	""	""	13.6412	63.8933	None	6.0001	8.8302	9.1747	47.7402	9.2941	5.8415	None	1.0864	""	""	81691000
1180	BET02050	2024-05-09T04:30:00	""	""	13.6201	64.0757	None	7	8.9508	9.193	52.8612	4.7129	6.7525	None	1.0777	""	""	81691000
1181	BET02050	2024-05-09T04:40:00	""	""	13.6225	64.1665	None	7	9	9.0001	50.0344	6.8076	7.4132	None	1.0624	""	""	81691000
1182	BET02050	2024-05-09T04:50:00	""	""	13.4748	64.2829	None	7.6146	9.6135	10.7202	53.9773	2.9772	9.5795	None	1.0525	""	""	81691000
1183	BET02050	2024-05-09T05:00:00	""	""	13.4455	64.2463	None	7	9.0001	10	53.0553	3.7766	10.6002	None	1.0492	""	""	81691000
1184	BET02050	2024-05-09T05:10:00	""	""	13.5682	64.3072	None	7	9.503	9.8992	50.741	5.7834	11.9273	None	1.0534	""	""	81691000
1185	BET02050	2024-05-09T05:20:00	""	""	13.6253	64.3421	None	6.242	8.1532	8.8419	49.9961	5.5275	12.9527	None	1.0553	""	""	81691000
1186	BET02050	2024-05-09T05:30:00	""	""	13.6764	64.3904	None	6.7828	8.6751	8.9908	51.7397	5.3082	15.5846	None	1.0523	""	""	81691000
1187	BET02050	2024-05-09T05:40:00	""	""	13.8351	64.4876	None	7	9.8306	10.928	56.6706	2.4116	22.7254	None	1.0552	""	""	81691000
1188	BET02050	2024-05-09T05:50:00	""	""	14.1015	64.4015	None	8	10.6981	10.7921	54.9766	3.2047	24.5156	None	1.0621	""	""	81691000
1189	BET02050	2024-05-09T06:00:00	""	""	14.1721	64.2934	None	9.2642	12.455	13.4124	54.2899	3.7054	27.8362	None	1.069	""	""	81691000
1190	BET02050	2024-05-09T06:10:00	""	""	14.4652	63.6282	None	9.1834	12.3785	13.0507	48.0719	5.0175	26.3531	None	1.0703	""	""	81691000
1191	BET02050	2024-05-09T06:20:00	""	""	14.6252	62.9101	None	8.9283	11.5645	12.5176	44.2307	7.3995	23.0145	None	1.0765	""	""	81691000
1192	BET02050	2024-05-09T06:30:00	""	""	15.0222	62.3141	None	9	13.5441	14.6356	46.5324	6.5129	33.4412	None	1.0936	""	""	81691000
1193	BET02050	2024-05-09T06:40:00	""	""	15.3896	61.5214	None	8.7281	11.4513	11.7906	39.0713	11.1055	25.0097	None	1.1124	""	""	81691000
1194	BET02050	2024-05-09T06:50:00	""	""	15.8985	60.1125	None	8.9999	11.4258	12.2158	34.2041	14.9838	23.3899	None	1.1338	""	""	81691000
1195	BET02050	2024-05-09T07:00:00	""	""	16.4005	58.9805	None	8.3866	11.2187	11.9326	31.9471	15.0891	24.4655	None	1.1601	""	""	81691000
1196	BET02050	2024-05-09T07:10:00	""	""	16.9005	56.7875	None	6.8752	9.3845	9.469	26.2728	19.8027	20.1859	None	1.2229	""	""	81691000
1197	BET02050	2024-05-09T07:20:00	""	""	17.4603	56.2914	None	7.3237	9	9	37.6543	10.626	22.6546	None	1.2697	""	""	81691000
1198	BET02050	2024-05-09T07:30:00	""	""	17.8023	55.7488	None	8.1228	10.4211	11.5397	63.0073	0.0063	38.7636	None	1.2587	""	""	81691000
1199	BET02050	2024-05-09T07:40:00	""	""	18.2399	54.9912	None	8.7065	11.4683	12.4056	54.1278	0.6846	29.6753	None	1.2774	""	""	81691000
1200	BET02050	2024-05-09T07:50:00	""	""	18.8387	54.4513	None	9.8377	13.577	14.297	77.5692	0.2402	53.4047	None	1.3673	""	""	81691000
1201	BET02050	2024-05-09T08:00:00	""	""	19.4198	53.6698	None	13.5328	18.478	19.347	80.8837	0.0781	62.5275	None	1.6754	""	""	81691000
1202	BET02050	2024-05-09T08:10:00	""	""	19.7644	52.2252	None	8.0001	11.8274	13.0746	66.4168	0.2327	41.7813	None	1.8871	""	""	81691000
1203	BET02050	2024-05-09T08:20:00	""	""	20.2369	51.9036	None	8.3589	10.7176	11.5099	75.6161	0.0111	44.5523	None	2.066	""	""	81691000
1204	BET02050	2024-05-09T08:30:00	""	""	20.4948	50.431	None	11.8893	14.1533	16.0905	87.1888	0.1519	50.8515	None	2.4319	""	""	81691000
1205	BET02050	2024-05-09T08:40:00	""	""	20.9635	52.5774	None	11.896	15.1673	17.1341	78.0843	0.2016	41.5941	None	2.1148	""	""	81691000
1206	BET02050	2024-05-09T08:50:00	""	""	20.8638	52.3613	None	10.7552	13.7148	14.208	63.5389	0.1303	28.8994	None	1.962	""	""	81691000
1207	BET02050	2024-05-09T09:00:00	""	""	20.7487	50.0628	None	8.6464	11.4541	11.6189	28.9438	9.2199	23.3851	None	2.5697	""	""	81691000
1208	BET02050	2024-05-09T09:10:00	""	""	20.8486	51.9899	None	5	6.9296	7.0835	35.7925	51.607	9.5336	None	2.3987	""	""	81691000
1209	BET02050	2024-05-09T09:20:00	""	""	20.8046	50.8119	None	5.0798	6.2079	6.7213	22.3808	40.3978	11.8426	None	2.5976	""	""	81691000
1210	BET02050	2024-05-09T09:30:00	""	""	20.688	47.6562	None	4.2605	5.6566	5.8563	11.9287	60.413	8.6606	None	3.0049	""	""	81691000
1211	BET02050	2024-05-09T09:40:00	""	""	21.1219	48.3497	None	4	5.3119	5.4938	18.7736	52.9009	9.974	None	3.2859	""	""	81691000
1212	BET02050	2024-05-09T09:50:00	""	""	21.7816	46.6008	None	4.648	6.5299	6.6631	44.3705	14.3027	13.4123	None	3.698	""	""	81691000
1213	BET02050	2024-05-09T10:00:00	""	""	21.2083	45.6966	None	4.0017	5.223	5.8297	19.7745	47.5524	11.0043	None	3.5636	""	""	81691000
1214	BET02050	2024-05-09T10:10:00	""	""	21.4275	47.0051	None	3.1505	4.0109	4.2153	17.6688	58.5217	9.5395	None	3.5876	""	""	81691000
1215	BET02050	2024-05-09T10:20:00	""	""	21.0995	46.4582	None	2.925	4.7761	4.6806	19.6073	64.386	8.1138	None	3.4719	""	""	81691000
1216	BET02050	2024-05-09T10:30:00	""	""	21.3811	46.8425	None	2.0001	3.9099	3.9298	20.954	58.8317	9.3909	None	3.5244	""	""	81691000
1217	BET02050	2024-05-09T10:40:00	""	""	21.7464	46.9337	None	2.7315	3.5511	3.8139	26.3116	53.9536	10.2703	None	3.5782	""	""	81691000
1218	BET02050	2024-05-09T10:50:00	""	""	21.6966	45.7246	None	4.4322	6.4725	7.3241	18.37	57.7638	9.655	None	3.6738	""	""	81691000
1219	BET02050	2024-05-09T11:00:00	""	""	21.4949	43.7864	None	2.5559	3.2345	3.4162	9.6108	71.5183	9.3761	None	3.7965	""	""	81691000
1220	BET02050	2024-05-09T11:10:00	""	""	21.794	45.3518	None	2.4052	2.8455	2.8809	16.5877	74.192	8.9778	None	3.6757	""	""	81691000
1221	BET02050	2024-05-09T11:20:00	""	""	22.4697	44.2504	None	1.4487	1.8658	1.9224	16.9254	77.7458	8.4916	None	3.8404	""	""	81691000
1222	BET02050	2024-05-09T11:30:00	""	""	23.1029	44.8129	None	1	1.919	2.0984	14.925	79.7197	8.2658	None	3.8646	""	""	81691000
1223	BET02050	2024-05-09T11:40:00	""	""	22.9819	43.989	None	1	1	1	15.7088	82.579	8.4548	None	3.8606	""	""	81691000
1224	BET02050	2024-05-09T11:50:00	""	""	23.696	44.8311	None	1.0001	2.8159	2.8314	14.2498	95.6329	7.5748	None	3.8495	""	""	81691000
1225	BET02050	2024-05-09T12:00:00	""	""	23.5278	45.8614	None	1	1.9502	2.2631	19.5876	91.3782	7.6383	None	3.7604	""	""	81691000
1226	BET02050	2024-05-09T12:10:00	""	""	23.8372	44.1891	None	2.0851	2.4855	2.4848	20.1143	81.1396	8.192	None	3.795	""	""	81691000
1227	BET02050	2024-05-09T12:20:00	""	""	24.6029	43.5457	None	1.0891	2	2	19.7107	76.8734	7.9992	None	3.9335	""	""	81691000
1228	BET02050	2024-05-09T12:30:00	""	""	24.0435	43.0747	None	1.61	2.2506	2.781	20.3771	77.7726	8.085	None	3.864	""	""	81691000
1229	BET02050	2024-05-09T12:40:00	""	""	22.9868	44.5789	None	1.3617	1.9365	1.9412	12.2642	102.2319	7.6882	None	3.6208	""	""	81691000
1230	BET02050	2024-05-09T12:50:00	""	""	22.7638	47.167	None	2.2711	2.6169	2.7089	14.3863	92.9018	7.464	None	3.5195	""	""	81691000
1231	BET02050	2024-05-09T13:00:00	""	""	23.185	46.1066	None	1.9327	2.0001	2.0001	19.1552	84.4188	7.8429	None	3.6254	""	""	81691000
1232	BET02050	2024-05-09T13:10:00	""	""	22.0016	47.7625	None	1.7512	2.322	2.451	17.6521	93.0357	6.3139	None	3.4326	""	""	81691000
1233	BET02050	2024-05-09T13:20:00	""	""	22.2169	49.9331	None	1.9887	2.1776	2.17	19.7954	79.9534	7.1551	None	3.4185	""	""	81691000
1234	BET02050	2024-05-09T13:30:00	""	""	22.37	50.3874	None	1.0001	2.3652	2.4104	18.3192	94.676	6.5508	None	3.4322	""	""	81691000
1235	BET02050	2024-05-09T13:40:00	""	""	22.2528	50.0656	None	2	3.583	3.5954	18.7902	79.2336	6.9037	None	3.378	""	""	81691000
1236	BET02050	2024-05-09T13:50:00	""	""	22.1388	49.3187	None	1.8688	3	2.9561	14.5183	94.5389	6.8413	None	3.4333	""	""	81691000
1237	BET02050	2024-05-09T14:00:00	""	""	21.9455	50.3936	None	1.3842	2.3077	2.7145	16.7553	84.1294	6.5289	None	3.3331	""	""	81691000
1238	BET02050	2024-05-09T14:10:00	""	""	23.0163	49.3311	None	2.647	3.1106	2.9955	15.4166	86.2272	7.618	None	3.5434	""	""	81691000
1239	BET02050	2024-05-09T14:20:00	""	""	22.746	47.9321	None	1.7908	2.5568	3	17.4048	79.6239	7.209	None	3.4769	""	""	81691000
1240	BET02050	2024-05-09T14:30:00	""	""	22.1576	49.6293	None	2	2.545	2.6962	15.8295	84.3771	7.577	None	3.3257	""	""	81691000
1241	BET02050	2024-05-09T14:40:00	""	""	22.2317	48.5735	None	1.7133	2.6554	2.7845	17.0067	92.1039	7.3546	None	3.3191	""	""	81691000
1242	BET02050	2024-05-09T14:50:00	""	""	22.0132	49.6083	None	2.1776	2.8352	3.0398	18.1602	84.0302	7.4495	None	3.2666	""	""	81691000
1243	BET02050	2024-05-09T15:00:00	""	""	22.621	50.7703	None	2.1382	2.9591	2.958	25.8037	81.9209	7.0333	None	3.284	""	""	81691000
1244	BET02050	2024-05-09T15:10:00	""	""	22.6765	51.9348	None	2.5315	3.2541	3.2671	29.5962	79.6127	6.976	None	3.2589	""	""	81691000
1245	BET02050	2024-05-09T15:20:00	""	""	22.7781	51.5762	None	2.0001	3.3718	3	22.2697	74.6731	7.5657	None	3.299	""	""	81691000
1246	BET02050	2024-05-09T15:30:00	""	""	21.9714	55.1449	None	3.0541	3.1562	3.1751	25.8629	85.6017	7.1283	None	2.8673	""	""	81691000
1247	BET02050	2024-05-09T15:40:00	""	""	21.736	52.4583	None	2.7902	3.3514	3.9409	11.7657	70.2415	6.3128	None	3.1559	""	""	81691000
1248	BET02050	2024-05-09T15:50:00	""	""	22.4424	51.8787	None	2.1212	2	2	19.5794	87.1318	7.5136	None	3.3515	""	""	81691000
1249	BET02050	2024-05-09T16:00:00	""	""	22.188	54.1204	None	2.5634	3.6743	3.9151	19.6161	86.4479	7.5958	None	3.1397	""	""	81691000
1250	BET02050	2024-05-09T16:10:00	""	""	21.8197	53.5565	None	2.3662	3.5404	3.7138	16.126	82.1817	7.7826	None	3.0099	""	""	81691000
1251	BET02050	2024-05-09T16:20:00	""	""	21.6096	54.5907	None	2.5	2.8868	3.0047	15.9583	87.1213	7.3474	None	2.9042	""	""	81691000
1252	BET02050	2024-05-09T16:30:00	""	""	22.0237	55.5772	None	2	3.1874	3.1106	27.8499	73.572	7.6221	None	2.9188	""	""	81691000
1253	BET02050	2024-05-09T16:40:00	""	""	22.0838	50.3935	None	2.5878	3.1332	3.4652	16.4931	74.3047	8.1614	None	3.2644	""	""	81691000
1254	BET02050	2024-05-09T16:50:00	""	""	22.3581	51.5526	None	2.2357	2.9445	3.0631	16.9471	81.4201	8.2156	None	3.3114	""	""	81691000
1255	BET02050	2024-05-09T17:00:00	""	""	20.9175	52.1336	None	2.6256	3.3838	3.37	14.0443	79.8879	2.5582	None	2.689	""	""	81691000
1256	BET02050	2024-05-09T17:10:00	""	""	20.7889	54.4526	None	2	2.7111	2.8544	20.6895	74.0953	1.8737	None	2.3419	""	""	81691000
1257	BET02050	2024-05-09T17:20:00	""	""	20.4212	54.4447	None	2.8013	3.9144	4.0414	22.3428	67.3775	2.3595	None	2.2286	""	""	81691000
1258	BET02050	2024-05-09T17:30:00	""	""	20.2519	54.476	None	2	3.0377	3.0532	19.6277	64.3546	2.6166	None	2.279	""	""	81691000
1259	BET02050	2024-05-09T17:40:00	""	""	20.3877	55.3664	None	2.5271	2.8957	3.0458	19.8454	70.6608	1.5846	None	2.2813	""	""	81691000
1260	BET02050	2024-05-09T17:50:00	""	""	20.0537	54.8079	None	2.5791	3.0554	3	15.3756	72.9812	1.6512	None	2.1354	""	""	81691000
1261	BET02050	2024-05-09T18:00:00	""	""	20.1068	55.4306	None	3.095	4.0725	4.9529	19.58	61.1207	1.7216	None	2.201	""	""	81691000
1262	BET02050	2024-05-09T18:10:00	""	""	19.9866	55.2211	None	2.7189	3.4108	3.4953	16.5513	75.5514	1.5781	None	2.156	""	""	81691000
1263	BET02050	2024-05-09T18:20:00	""	""	19.7195	56.5706	None	2.8763	3.7736	3.9672	18.1784	71.4117	1.2068	None	2.0423	""	""	81691000
1264	BET02050	2024-05-09T18:30:00	""	""	19.31	58.1266	None	2.7121	3.5787	3.5961	17.0182	76.6348	0.728	None	2.0118	""	""	81691000
1265	BET02050	2024-05-09T18:40:00	""	""	19.22	58.2579	None	2.5434	4	4	17.0978	70.989	0.94	None	2.0059	""	""	81691000
1266	BET02050	2024-05-09T18:50:00	""	""	19.2437	59.5098	None	3	3.6303	3.7311	24.6533	61.0147	0.6909	None	1.9797	""	""	81691000
1267	BET02050	2024-05-09T19:00:00	""	""	19.0061	59.4184	None	3.6116	5.3752	5.316	21.6499	66.7014	0.6297	None	1.9936	""	""	81691000
1268	BET02050	2024-05-09T19:10:00	""	""	18.9443	60.1185	None	2	3	3.0001	19.0926	71.4099	0.7191	None	1.9961	""	""	81691000
1269	BET02050	2024-05-09T19:20:00	""	""	18.7438	60.697	None	3.3004	4.7909	4.8098	20.6997	71.8083	0.3819	None	1.9973	""	""	81691000
1270	BET02050	2024-05-09T19:30:00	""	""	18.7605	61.1279	None	3.5131	5	5	20.3521	66.8003	1.4247	None	1.9856	""	""	81691000
1271	BET02050	2024-05-09T19:40:00	""	""	18.7104	60.2711	None	4.377	5.3205	5.7211	15.767	66.3885	1.4869	None	1.9871	""	""	81691000
1272	BET02050	2024-05-09T19:50:00	""	""	18.6889	59.7399	None	3.2177	4.2273	4.4694	16.0126	64.8686	1.8597	None	1.9861	""	""	81691000
1273	BET02050	2024-05-09T20:00:00	""	""	18.5832	60.1942	None	3.9448	4.9549	5.0504	18.5548	67.5586	1.5682	None	1.9902	""	""	81691000
1274	BET02050	2024-05-09T20:10:00	""	""	18.3504	60.8597	None	4	5.331	5.7241	15.0379	75.2457	1.6506	None	1.9955	""	""	81691000
1275	BET02050	2024-05-09T20:20:00	""	""	18.3263	60.8541	None	3.3996	4.6197	5.0582	16.5017	67.8386	2.5747	None	1.9869	""	""	81691000
1276	BET02050	2024-05-09T20:30:00	""	""	18.3768	60.82	None	3.9608	5.25	5.3938	15.5004	69.7472	2.4648	None	1.9924	""	""	81691000
1277	BET02050	2024-05-09T20:40:00	""	""	18.3312	61.1592	None	4	5.0001	5.9697	14.6388	70.9798	2.285	None	1.985	""	""	81691000
1278	BET02050	2024-05-09T20:50:00	""	""	18.336	60.9688	None	4.8251	5.6983	5.9055	14.9349	64.6852	2.4808	None	1.9795	""	""	81691000
1279	BET02050	2024-05-09T21:00:00	""	""	18.3624	60.8232	None	4.4527	5.9371	6.0365	18.6421	57.1491	2.7918	None	1.9712	""	""	81691000
1280	BET02050	2024-05-09T21:10:00	""	""	18.2715	60.9213	None	4.852	6.1898	6.8012	14.6944	62.6913	3.0355	None	1.9589	""	""	81691000
1281	BET02050	2024-05-09T21:20:00	""	""	18.0178	61.1165	None	5.5049	7.8481	8.4619	21.7012	44.6446	3.0713	None	1.8143	""	""	81691000
1282	BET02050	2024-05-09T21:30:00	""	""	18.0051	61.3156	None	6.5114	8.6686	9.7131	25.0683	39.0702	3.423	None	1.7742	""	""	81691000
1283	BET02050	2024-05-09T21:40:00	""	""	18.1183	61.137	None	7.6496	9.7051	10.3126	18.2627	45.8315	3.8253	None	1.8332	""	""	81691000
1284	BET02050	2024-05-09T21:50:00	""	""	18.0988	61.1944	None	8.1422	10.9797	11.477	41.5026	20.8096	4.1375	None	1.608	""	""	81691000
1285	BET02050	2024-05-09T22:00:00	""	""	17.5369	61.6566	None	10.0407	12.4136	12.6785	50.7616	11.7831	4.9309	None	1.4435	""	""	81691000
1286	BET02050	2024-05-09T22:10:00	""	""	17.4579	61.5466	None	8	11	11.7594	48.5303	8.5865	5.2385	None	1.3722	""	""	81691000
1287	BET02050	2024-05-09T22:20:00	""	""	17.2831	60.9804	None	7.8047	10.9999	10.4376	46.9429	5.7516	6.0247	None	1.3201	""	""	81691000
1288	BET02050	2024-05-09T22:30:00	""	""	17.162	60.9319	None	8.2188	10.5951	11.2619	44.3287	8.7155	6.4213	None	1.3023	""	""	81691000
1289	BET02050	2024-05-09T22:40:00	""	""	16.9861	60.8933	None	9.1123	12.8231	12.9514	38.1426	13.2728	6.3244	None	1.3443	""	""	81691000
1290	BET02050	2024-05-09T22:50:00	""	""	16.7981	61.1932	None	9.0425	12.2925	12.2967	29.1376	20.2524	6.6363	None	1.3491	""	""	81691000
1291	BET02050	2024-05-09T23:00:00	""	""	16.7553	61.3108	None	8.6195	11.4663	12.3207	29.1314	21.3102	6.0785	None	1.3396	""	""	81691000
1292	BET02050	2024-05-09T23:10:00	""	""	16.6242	61.7071	None	9.1315	11.89	12.5431	37.9475	16.3692	6.1377	None	1.3217	""	""	81691000
1293	BET02050	2024-05-09T23:20:00	""	""	16.7042	62.3224	None	9.1634	11.7558	12.601	39.5101	16.3367	5.2572	None	1.4552	""	""	81691000
1294	BET02050	2024-05-09T23:30:00	""	""	16.2661	62.9858	None	8.7744	11.9281	12.5855	40.5699	15.8763	6.0505	None	1.3237	""	""	81691000
1295	BET02050	2024-05-09T23:40:00	""	""	16.1613	63.6084	None	9	12.2825	13.1896	46.3331	11.6733	7.2815	None	1.3013	""	""	81691000
1296	BET02050	2024-05-09T23:50:00	""	""	16.0766	64.1411	None	9	13.4905	14.9692	33.8663	18.8891	5.6226	None	1.3392	""	""	81691000
1297	BET02050	2024-05-10T00:00:00	""	""	15.8535	64.6592	None	12.13	15.7927	17.1142	28.817	22.2276	6.1933	None	1.3107	""	""	81691000
1298	BET02050	2024-05-10T00:10:00	""	""	15.7251	65.0508	None	13.9062	18.1178	19.2062	27.8884	22.3168	6.2138	None	1.2915	""	""	81691000
1299	BET02050	2024-05-10T00:20:00	""	""	15.4799	65.7028	None	16.3744	22.536	22.1288	25.3754	23.2165	6.1055	None	1.2677	""	""	81691000
1300	BET02050	2024-05-10T00:30:00	""	""	15.4152	66.7882	None	17.2821	22.47	24.0292	27.643	24.5583	7.3023	None	1.3352	""	""	81691000
1301	BET02050	2024-05-10T00:40:00	""	""	15.2855	68.0028	None	15.786	21.5158	22.7517	31.5627	19.2373	6.3979	None	1.3133	""	""	81691000
1302	BET02050	2024-05-10T00:50:00	""	""	15.1748	69.3151	None	14.582	19.4984	20.95	25.7668	24.6904	5.8777	None	1.3753	""	""	81691000
1303	BET02050	2024-05-10T01:00:00	""	""	14.9665	70.3884	None	None	None	None	33.6847	17.3742	6.6166	None	1.3833	""	""	81691000
1304	BET02050	2024-05-10T01:10:00	""	""	14.7448	71.2403	None	15.5827	21.2512	21.9027	43.9403	11.2928	6.6283	None	1.2767	""	""	81691000
1305	BET02050	2024-05-10T01:20:00	""	""	14.6728	72.164	None	15.5041	20.5943	22.8582	34.4495	15.7657	6.5112	None	1.3212	""	""	81691000
1306	BET02050	2024-05-10T01:30:00	""	""	14.5153	72.2381	None	13.9504	18.753	20.411	30.657	17.629	7.7202	None	1.2793	""	""	81691000
1307	BET02050	2024-05-10T01:40:00	""	""	14.5212	72.4673	None	13.0293	17.836	18.8312	23.2799	21.9651	7.2842	None	1.3208	""	""	81691000
1308	BET02050	2024-05-10T01:50:00	""	""	14.4208	72.8158	None	13	18.3183	19.432	30.695	14.3148	7.442	None	1.2423	""	""	81691000
1309	BET02050	2024-05-10T02:00:00	""	""	14.3379	73.4426	None	14.1206	18.8221	20.2087	38.9849	7.7851	7.667	None	1.2705	""	""	81691000
1310	BET02050	2024-05-10T02:10:00	""	""	14.1708	73.6214	None	14.5797	19.2181	20.6809	35.2289	11.041	6.9288	None	1.2437	""	""	81691000
1311	BET02050	2024-05-10T02:20:00	""	""	14.1742	74.0026	None	13.9773	18.8583	19.7225	35.8658	9.2294	7.1614	None	1.231	""	""	81691000
1312	BET02050	2024-05-10T02:30:00	""	""	14.041	74.45	None	14.9028	19.8438	21.9191	39.6487	6.4532	7.4153	None	1.2085	""	""	81691000
1313	BET02050	2024-05-10T02:40:00	""	""	13.9809	74.7903	None	16.8259	23.2327	24.0714	32.2095	8.8449	7.6061	None	1.225	""	""	81691000
1314	BET02050	2024-05-10T02:50:00	""	""	13.9296	74.7802	None	17.3885	23.6829	26.5144	26.5666	12.9685	7.208	None	1.2263	""	""	81691000
1315	BET02050	2024-05-10T03:00:00	""	""	13.8501	74.5361	None	17	21.8688	24.1386	26.3834	15.3136	7.1497	None	1.2036	""	""	81691000
1316	BET02050	2024-05-10T03:10:00	""	""	13.8658	74.6191	None	16.1763	21.0254	23.2924	33.4884	9.3309	7.4762	None	1.2615	""	""	81691000
1317	BET02050	2024-05-10T03:20:00	""	""	13.8616	74.4015	None	16.7494	22.5516	24.6117	34.3091	7.1696	7.9186	None	1.2124	""	""	81691000
1318	BET02050	2024-05-10T03:30:00	""	""	13.8425	74.0178	None	18.4512	24.8876	27.1675	40.7441	1.7737	9.0089	None	1.2213	""	""	81691000
1319	BET02050	2024-05-10T03:40:00	""	""	13.8112	73.9418	None	20	25.7938	27.3464	42.8279	1.3274	9.5956	None	1.1867	""	""	81691000
1320	BET02050	2024-05-10T03:50:00	""	""	13.7802	73.8749	None	18.1444	23.957	26.5379	40.1133	3.2502	9.5071	None	1.179	""	""	81691000
1321	BET02050	2024-05-10T04:00:00	""	""	13.6242	73.6532	None	17.2952	22.8345	24.7369	42.9987	1.3216	9.3381	None	1.1741	""	""	81691000
1322	BET02050	2024-05-10T04:10:00	""	""	13.618	73.5198	None	16.468	21.1034	22.2626	42.1578	1.9779	9.5231	None	1.153	""	""	81691000
1323	BET02050	2024-05-10T04:20:00	""	""	13.7118	73.1293	None	15.0873	20.4212	21.3682	41.7893	1.1178	9.9373	None	1.1572	""	""	81691000
1324	BET02050	2024-05-10T04:30:00	""	""	13.7749	72.5124	None	13.6564	18.4807	18.7853	43.443	0.0266	11.1562	None	1.16	""	""	81691000
1325	BET02050	2024-05-10T04:40:00	""	""	13.8239	71.7999	None	12.5857	17.0062	17.876	46.5695	0.2449	13.1496	None	1.1127	""	""	81691000
1326	BET02050	2024-05-10T04:50:00	""	""	13.8117	71.5831	None	12	16.2355	17.611	48.4884	0.2229	15.2362	None	1.1149	""	""	81691000
1327	BET02050	2024-05-10T05:00:00	""	""	13.895	71.2687	None	14.4249	18.5789	19.6456	47.8457	0.0209	16.3209	None	1.1241	""	""	81691000
1328	BET02050	2024-05-10T05:10:00	""	""	13.995	70.9065	None	14.1752	18.7397	20.1291	43.8694	1.063	15.832	None	1.1169	""	""	81691000
1329	BET02050	2024-05-10T05:20:00	""	""	14.0575	70.8909	None	14.9999	18.4836	19.2529	45.0634	0.8449	18.201	None	1.1186	""	""	81691000
1330	BET02050	2024-05-10T05:30:00	""	""	14.1591	70.8024	None	13.9269	17.0601	18.8749	48.3912	0.1378	20.7944	None	1.1159	""	""	81691000
1331	BET02050	2024-05-10T05:40:00	""	""	14.3814	70.5874	None	13.8817	18.2848	19.3647	45.7184	1.0811	20.5114	None	1.129	""	""	81691000
1332	BET02050	2024-05-10T05:50:00	""	""	14.5679	70.1472	None	12.273	18.0354	18.9859	38.6251	6.9326	18.5851	None	1.1493	""	""	81691000
1333	BET02050	2024-05-10T06:00:00	""	""	14.7911	69.7266	None	13.8654	18.3484	19.6338	39.7238	6.597	21.8451	None	1.168	""	""	81691000
1334	BET02050	2024-05-10T06:10:00	""	""	15.0057	69.4956	None	14.4079	18.5046	19.3792	44.278	2.2368	25.7967	None	1.1808	""	""	81691000
1335	BET02050	2024-05-10T06:20:00	""	""	15.4394	68.782	None	12.2579	15.5113	16.8316	33.1289	9.1226	22.7606	None	1.2407	""	""	81691000
1336	BET02050	2024-05-10T06:30:00	""	""	15.6942	67.9362	None	12.0895	15.5548	16.8174	32.5626	10.813	23.7413	None	1.2396	""	""	81691000
1337	BET02050	2024-05-10T06:40:00	""	""	16.0559	67.026	None	12.0283	14.9945	15.3875	34.3127	7.5088	28.1633	None	1.2699	""	""	81691000
1338	BET02050	2024-05-10T06:50:00	""	""	16.3707	66.1485	None	11.9014	14.9603	16.2918	36.2718	5.61	30.8394	None	1.2942	""	""	81691000
1339	BET02050	2024-05-10T07:00:00	""	""	16.8157	66.2448	None	11.9656	15.2181	15.5195	42.0616	0.353	38.2159	None	1.3608	""	""	81691000
1340	BET02050	2024-05-10T07:10:00	""	""	17.1162	66.0312	None	11.7778	15.8766	16.5859	41.3482	2.7983	38.3672	None	1.4037	""	""	81691000
1341	BET02050	2024-05-10T07:20:00	""	""	17.5267	64.8906	None	12.0447	15.6747	17.4011	39.9953	3.4776	33.5176	None	1.4344	""	""	81691000
1342	BET02050	2024-05-10T07:30:00	""	""	18.0376	63.7037	None	11.0071	14.8086	15.3491	47.0078	0.0848	40.8139	None	1.5046	""	""	81691000
1343	BET02050	2024-05-10T07:40:00	""	""	18.5259	62.5707	None	10.6427	13.8351	14.5571	38.8908	5.3747	28.512	None	1.6394	""	""	81691000
1344	BET02050	2024-05-10T07:50:00	""	""	19.0674	61.9238	None	10.7001	13.2214	14.1331	35.4485	14.1629	17.9999	None	1.6462	""	""	81691000
1345	BET02050	2024-05-10T08:00:00	""	""	19.2814	61.1513	None	12.2778	15.3641	16.6519	27.8067	21.0254	19.5468	None	1.7515	""	""	81691000
1346	BET02050	2024-05-10T08:10:00	""	""	19.608	60.4849	None	12.1287	15.8603	17.0108	26.7851	24.6499	14.9586	None	1.8412	""	""	81691000
1347	BET02050	2024-05-10T08:20:00	""	""	20.2428	60.6658	None	10.3334	13.3039	14.3587	16.09	48.4306	6.4446	None	2.0392	""	""	81691000
1348	BET02050	2024-05-10T08:30:00	""	""	20.7032	60.3874	None	8.2234	10.3306	10.7957	16.4382	53.4052	8.1116	None	2.1564	""	""	81691000
1349	BET02050	2024-05-10T08:40:00	""	""	20.6342	59.7764	None	7.4866	9.6199	10.16	17.6203	67.5024	5.2398	None	2.1081	""	""	81691000
1350	BET02050	2024-05-10T08:50:00	""	""	20.8274	61.0109	None	8.1472	10.6216	10.7984	33.4219	53.4244	14.3226	None	2.0484	""	""	81691000
1351	BET02050	2024-05-10T09:00:00	""	""	21.3963	59.651	None	7.4873	10.8722	10.5813	15.4459	61.51	10.5382	None	2.3104	""	""	81691000
1352	BET02050	2024-05-10T09:10:00	""	""	21.3486	56.2116	None	5.8335	7.1353	7.3387	3.0503	76.0954	9.721	None	3.0517	""	""	81691000
1353	BET02050	2024-05-10T09:20:00	""	""	21.6604	56.6498	None	5.306	6.6783	7.3472	7.994	75.2709	9.6736	None	3.1295	""	""	81691000
1354	BET02050	2024-05-10T09:30:00	""	""	21.6928	55.7469	None	5	6	6	6.714	81.3389	9.5423	None	3.1598	""	""	81691000
1355	BET02050	2024-05-10T09:40:00	""	""	21.6669	55.6453	None	4.3677	5.7983	5.8151	7.2475	74.3498	9.9474	None	3.1321	""	""	81691000
1356	BET02050	2024-05-10T09:50:00	""	""	21.9365	54.5139	None	4.3395	5.6858	5.8651	3.7619	81.5628	9.5727	None	3.2849	""	""	81691000
1357	BET02050	2024-05-10T10:00:00	""	""	22.4883	53.0535	None	4	5.185	5.3998	6.9979	70.4652	9.8011	None	3.3726	""	""	81691000
1358	BET02050	2024-05-10T10:10:00	""	""	22.3459	52.3997	None	4.5529	5.8757	6.091	5.8264	84.0109	9.0789	None	3.3804	""	""	81691000
1359	BET02050	2024-05-10T10:20:00	""	""	22.6292	51.4976	None	4	5.7372	6.0708	1.3296	77.2496	9.4752	None	3.486	""	""	81691000
1360	BET02050	2024-05-10T10:30:00	""	""	23.0341	49.9263	None	4.465	5.593	6	3.4887	71.3812	9.5481	None	3.6024	""	""	81691000
1361	BET02050	2024-05-10T10:40:00	""	""	23.0664	49.3183	None	4.0161	5.0658	5.9351	0.4426	77.6423	9.4987	None	3.5856	""	""	81691000
1362	BET02050	2024-05-10T10:50:00	""	""	22.8239	48.6261	None	4.3963	5.4919	5.759	5.8383	83.3768	8.9973	None	3.6197	""	""	81691000
1363	BET02050	2024-05-10T11:00:00	""	""	22.9888	47.7245	None	4.2228	5.1681	5.5442	2.9928	80.8746	9.091	None	3.6565	""	""	81691000
1364	BET02050	2024-05-10T11:10:00	""	""	23.5252	47.6367	None	4	5	5	3.0748	79.4902	9.0959	None	3.7065	""	""	81691000
1365	BET02050	2024-05-10T11:20:00	""	""	23.9232	47.7834	None	4.0572	5.2042	5.7196	10.563	66.2468	9.0296	None	3.7183	""	""	81691000
1366	BET02050	2024-05-10T11:30:00	""	""	23.6785	46.6564	None	4.6344	5.4693	5.6514	7.2523	77.2831	8.4689	None	3.7212	""	""	81691000
1367	BET02050	2024-05-10T11:40:00	""	""	25.2754	44.8994	None	4	5.4082	5.753	4.3778	70.9484	8.8427	None	3.9966	""	""	81691000
1368	BET02050	2024-05-10T11:50:00	""	""	25.2583	42.862	None	5	5.7043	5.8345	3.3268	73.0684	8.6137	None	4.0794	""	""	81691000
1369	BET02050	2024-05-10T12:00:00	""	""	25.298	41.4656	None	4.0835	4.9351	5.1113	0.2237	67.1638	9.5496	None	4.0687	""	""	81691000
1370	BET02050	2024-05-10T12:10:00	""	""	24.7591	40.6223	None	3	4	4	4.0476	78.863	7.9854	None	4.0277	""	""	81691000
1371	BET02050	2024-05-10T12:20:00	""	""	25.3734	40.0091	None	3	4	4.5396	5.2616	75.7898	7.7374	None	4.0624	""	""	81691000
1372	BET02050	2024-05-10T12:30:00	""	""	25.5327	40.2919	None	4.7093	5.9033	6.296	10.3404	74.3823	7.4054	None	4.0628	""	""	81691000
1373	BET02050	2024-05-10T12:40:00	""	""	25.0618	41.1179	None	4.242	5.4055	5.5604	11.7287	79.1607	6.9356	None	3.9717	""	""	81691000
1374	BET02050	2024-05-10T12:50:00	""	""	24.8352	42.4479	None	4.1353	5.1661	5.2799	14.654	77.4334	7.007	None	3.8255	""	""	81691000
1375	BET02050	2024-05-10T13:00:00	""	""	25.4396	42.9015	None	4	5.3736	5.3917	18.1242	82.1343	6.2586	None	3.954	""	""	81691000
1376	BET02050	2024-05-10T13:10:00	""	""	25.1336	43.4593	None	4.586	5.0001	5.6132	16.9124	74.4508	7.0654	None	3.8358	""	""	81691000
1377	BET02050	2024-05-10T13:20:00	""	""	24.7877	42.4431	None	3.7806	4.0001	4.0001	12.3588	76.6274	7.1349	None	3.8577	""	""	81691000
1378	BET02050	2024-05-10T13:30:00	""	""	24.3368	43.3522	None	3.345	4.3362	4.7425	15.158	84.6971	6.5808	None	3.7842	""	""	81691000
1379	BET02050	2024-05-10T13:40:00	""	""	24.335	43.4141	None	3.9013	5.0206	5.1581	14.3019	81.0736	6.4061	None	3.7775	""	""	81691000
1380	BET02050	2024-05-10T13:50:00	""	""	24.7447	44.9204	None	3.2285	4.8533	5.1753	17.2694	79.5265	6.2268	None	3.8036	""	""	81691000
1381	BET02050	2024-05-10T14:00:00	""	""	24.162	43.9572	None	4.8658	6.0934	6.7753	11.3634	79.7562	6.8559	None	3.7421	""	""	81691000
1382	BET02050	2024-05-10T14:10:00	""	""	25.3601	44.7767	None	4.1258	5.3558	5.8859	21.4339	73.6305	6.0992	None	3.8758	""	""	81691000
1383	BET02050	2024-05-10T14:20:00	""	""	24.8029	43.6006	None	4	4.2606	4.9094	18.4974	78.6132	5.9496	None	3.8325	""	""	81691000
1384	BET02050	2024-05-10T14:30:00	""	""	24.1916	43.8574	None	4	5.3967	5.6158	12.3134	93.1547	6.6242	None	3.7841	""	""	81691000
1385	BET02050	2024-05-10T14:40:00	""	""	24.5438	44.4854	None	4.0018	5.1032	5.2995	16.401	79.3306	6.5878	None	3.7446	""	""	81691000
1386	BET02050	2024-05-10T14:50:00	""	""	24.1563	44.8753	None	3.5313	4.8157	5.2323	16.0413	77.9062	6.4259	None	3.697	""	""	81691000
1387	BET02050	2024-05-10T15:00:00	""	""	24.719	42.8329	None	3.8754	5	5.0584	11.7548	76.8987	6.6293	None	3.8043	""	""	81691000
1388	BET02050	2024-05-10T15:10:00	""	""	25.104	42.9984	None	3.481	4.5236	4.892	15.068	79.6186	6.4619	None	3.8456	""	""	81691000
1389	BET02050	2024-05-10T15:20:00	""	""	24.8059	44.258	None	3.5132	4.3489	4.6174	15.4145	72.7218	6.5454	None	3.7885	""	""	81691000
1390	BET02050	2024-05-10T15:30:00	""	""	23.5627	45.1569	None	3.6068	4.6025	4.6285	11.1242	83.0189	6.641	None	3.5821	""	""	81691000
1391	BET02050	2024-05-10T15:40:00	""	""	23.7304	46.9023	None	3.0001	4.1163	4.5164	15.3832	76.5768	6.4125	None	3.5701	""	""	81691000
1392	BET02050	2024-05-10T15:50:00	""	""	24.5788	46.3716	None	4.0108	4.9975	5.053	15.1907	78.7079	6.2007	None	3.7318	""	""	81691000
1393	BET02050	2024-05-10T16:00:00	""	""	23.7063	46.035	None	4.1388	4.4355	5.5304	11.7009	81.2817	6.8094	None	3.6007	""	""	81691000
1394	BET02050	2024-05-10T16:10:00	""	""	23.3702	46.9235	None	3.6044	4.5109	4.7429	12.9137	83.8991	6.4599	None	3.5292	""	""	81691000
1395	BET02050	2024-05-10T16:20:00	""	""	23.1316	49.4154	None	3.0003	4.5707	4.3163	16.0957	85.0506	6.1069	None	3.4509	""	""	81691000
1396	BET02050	2024-05-10T16:30:00	""	""	24.4158	49.1821	None	4.1619	5.1439	5.46	22.6111	81.5439	5.7715	None	3.6186	""	""	81691000
1397	BET02050	2024-05-10T16:40:00	""	""	23.4785	47.2012	None	3.5595	4.8128	5.0636	16.1238	82.5285	6.2026	None	3.4984	""	""	81691000
1398	BET02050	2024-05-10T16:50:00	""	""	23.482	47.3288	None	3.9771	4.8292	5.2518	17.8083	80.6434	6.3957	None	3.5167	""	""	81691000
1399	BET02050	2024-05-10T17:00:00	""	""	22.0057	50.3585	None	3.8222	4.7244	5.1361	15.7653	79.3496	6.5369	None	2.8721	""	""	81691000
1400	BET02050	2024-05-10T17:10:00	""	""	21.8728	52.4155	None	3.0001	4.8614	4.9837	19.679	74.951	6.7086	None	2.7392	""	""	81691000
1401	BET02050	2024-05-10T17:20:00	""	""	21.3026	55.1415	None	4.6732	6.4995	7.2807	21.2997	84.991	5.0762	None	2.3822	""	""	81691000
1402	BET02050	2024-05-10T17:30:00	""	""	21.3602	56.4301	None	3.9797	4.7765	5.142	21.1842	80.1857	5.8276	None	2.3042	""	""	81691000
1403	BET02050	2024-05-10T17:40:00	""	""	21.1218	55.8583	None	3.7446	5.1588	5.2019	16.0901	68.7924	3.7603	None	2.3222	""	""	81691000
1404	BET02050	2024-05-10T17:50:00	""	""	21.1565	55.202	None	4.291	5	5.2047	16.6568	65.4717	4.2661	None	2.3479	""	""	81691000
1405	BET02050	2024-05-10T18:00:00	""	""	20.7197	53.5916	None	3.9712	4.8614	4.9062	12.7917	72.8751	1.7234	None	2.3645	""	""	81691000
1406	BET02050	2024-05-10T18:10:00	""	""	20.7061	54.0002	None	3.0001	4.9362	5.154	12.6554	68.5823	1.7087	None	2.3292	""	""	81691000
1407	BET02050	2024-05-10T18:20:00	""	""	20.3722	53.9524	None	4.9304	6	6.6138	15.1579	73.9011	1.7394	None	2.2519	""	""	81691000
1408	BET02050	2024-05-10T18:30:00	""	""	20.018	55.139	None	4.6685	6.2228	6.2169	15.0491	71.743	1.2714	None	2.103	""	""	81691000
1409	BET02050	2024-05-10T18:40:00	""	""	20.0244	56.2216	None	5.235	6.4847	6.4494	17.2522	66.6849	1.1878	None	2.0369	""	""	81691000
1410	BET02050	2024-05-10T18:50:00	""	""	19.8816	56.3471	None	5.0048	6.0001	7.0525	15.6125	72.7447	1.1622	None	2.0655	""	""	81691000
1411	BET02050	2024-05-10T19:00:00	""	""	19.4772	57.5758	None	4.8071	5.7638	5.8038	18.4781	67.9727	1.0706	None	1.998	""	""	81691000
1412	BET02050	2024-05-10T19:10:00	""	""	19.3437	57.7825	None	4.4813	5	5.0001	15.6049	71.8222	0.9452	None	2.0142	""	""	81691000
1413	BET02050	2024-05-10T19:20:00	""	""	19.3367	57.9961	None	5.7384	6.1096	6.9903	18.545	64.9597	1.0888	None	1.9879	""	""	81691000
1414	BET02050	2024-05-10T19:30:00	""	""	19.3702	57.1911	None	5.6757	7.0147	7	15.9796	62.8507	1.2419	None	1.9728	""	""	81691000
1415	BET02050	2024-05-10T19:40:00	""	""	19.3541	56.7336	None	5.487	6.5146	6.7832	19.2494	56.7031	1.3486	None	1.9804	""	""	81691000
1416	BET02050	2024-05-10T19:50:00	""	""	19.3236	55.9383	None	5.1019	6.6274	7.0529	14.0261	57.5319	1.5304	None	1.9832	""	""	81691000
1417	BET02050	2024-05-10T20:00:00	""	""	19.4098	54.5818	None	6.3848	8.0763	8.0434	13.9915	52.7727	2.4031	None	1.9896	""	""	81691000
1418	BET02050	2024-05-10T20:10:00	""	""	19.3537	53.685	None	6.5686	8.0313	8.3567	12.0575	54.8307	1.9847	None	1.9949	""	""	81691000
1419	BET02050	2024-05-10T20:20:00	""	""	19.311	53.3055	None	6.3058	8.0179	8.1833	14.8843	50.5033	2.1406	None	1.9541	""	""	81691000
1420	BET02050	2024-05-10T20:30:00	""	""	19.3889	53.4492	None	6.57	8.4585	8.8422	22.7044	41.3192	1.9134	None	1.9383	""	""	81691000
1421	BET02050	2024-05-10T20:40:00	""	""	19.0409	53.676	None	6	8.1859	8.677	16.2367	52.0095	1.844	None	1.9103	""	""	81691000
1422	BET02050	2024-05-10T20:50:00	""	""	19.052	53.9755	None	7.0013	8.8321	8.9698	16.6975	52.7367	1.6859	None	1.9097	""	""	81691000
1423	BET02050	2024-05-10T21:00:00	""	""	19.0161	54.2069	None	7.4607	9.4644	9.6823	16.4946	50.8583	1.5832	None	1.8046	""	""	81691000
1424	BET02050	2024-05-10T21:10:00	""	""	18.9031	54.3893	None	7.941	9.6878	10.5647	15.9076	50.6246	1.6363	None	1.7264	""	""	81691000
1425	BET02050	2024-05-10T21:20:00	""	""	18.8598	54.5533	None	7.7442	9.0325	9.1483	18.4652	46.5193	1.6595	None	1.7313	""	""	81691000
1426	BET02050	2024-05-10T21:30:00	""	""	18.8753	54.6215	None	7.6341	9.6055	10.1698	21.4102	39.3461	1.7064	None	1.6137	""	""	81691000
1427	BET02050	2024-05-10T21:40:00	""	""	19.0161	53.9516	None	8.3318	10.9807	11.3145	10.0483	44.4236	2.5092	None	1.711	""	""	81691000
1428	BET02050	2024-05-10T21:50:00	""	""	19.0633	52.4184	None	8.8949	11.3862	11.7748	13.5694	37.9539	2.3384	None	1.6038	""	""	81691000
1429	BET02050	2024-05-10T22:00:00	""	""	18.9863	51.5511	None	8.2479	10.4815	11.2145	8.7288	45.6802	2.5263	None	1.6384	""	""	81691000
1430	BET02050	2024-05-10T22:10:00	""	""	18.7901	50.5487	None	7	9.2536	9.615	8.452	45.8682	3.157	None	1.5299	""	""	81691000
1431	BET02050	2024-05-10T22:20:00	""	""	18.8259	50.3985	None	7.186	9.4608	10.1716	9.9091	45.29	2.1138	None	1.5571	""	""	81691000
1432	BET02050	2024-05-10T22:30:00	""	""	18.7715	50.5961	None	8.1725	10.2932	10.4643	13.5184	41.451	2.5751	None	1.4994	""	""	81691000
1433	BET02050	2024-05-10T22:40:00	""	""	18.5165	51.1059	None	8.3995	11	11.2599	29.7151	28.282	1.561	None	1.3519	""	""	81691000
1434	BET02050	2024-05-10T22:50:00	""	""	18.3016	52.7586	None	12.8001	16.0933	16.9226	50.0764	13.3533	1.5791	None	1.2542	""	""	81691000
1435	BET02050	2024-05-10T23:00:00	""	""	17.7464	53.4285	None	11.9145	14.6587	15.3312	56.8679	0.1127	2.5716	None	1.1574	""	""	81691000
1436	BET02050	2024-05-10T23:10:00	""	""	17.3557	54.0336	None	10.7747	13.6436	14.5198	55.7531	0.1099	2.8053	None	1.1279	""	""	81691000
1437	BET02050	2024-05-10T23:20:00	""	""	17.0843	54.7641	None	11.5037	13.2393	13.9192	49.7336	2.0571	3.7193	None	1.1203	""	""	81691000
1438	BET02050	2024-05-10T23:30:00	""	""	16.8782	55.2364	None	10.2292	13.182	13.8122	46.4554	5.4757	3.3914	None	1.1144	""	""	81691000
1439	BET02050	2024-05-10T23:40:00	""	""	16.7253	55.4994	None	9.0319	11.2342	11.4737	40.0669	12.3606	3.4102	None	1.1162	""	""	81691000
1440	BET02050	2024-05-10T23:50:00	""	""	16.4141	56.0722	None	9.0226	11.2878	11.6438	41.173	12.4651	3.4595	None	1.1131	""	""	81691000
1441	BET02050	2024-05-11T00:00:00	""	""	16.2006	56.5945	None	9.0026	11.3751	11.9648	41.324	12.1843	3.9378	None	1.0993	""	""	81691000
1442	BET02050	2024-05-11T00:10:00	""	""	16.0652	56.9812	None	10	12.132	12.9266	35.8131	15.5843	4.0557	None	1.1046	""	""	81691000
1443	BET02050	2024-05-11T00:20:00	""	""	16.0109	57.3592	None	9.8553	12.8897	13.1792	31.9147	21.5886	4.0077	None	1.132	""	""	81691000
1444	BET02050	2024-05-11T00:30:00	""	""	15.902	58.0261	None	11.3342	14.4886	15.1084	35.5751	16.031	5.5019	None	1.123	""	""	81691000
1445	BET02050	2024-05-11T00:40:00	""	""	15.7916	58.5659	None	11.7596	15.2458	16.7317	38.1708	13.1824	4.8684	None	1.1026	""	""	81691000
1446	BET02050	2024-05-11T00:50:00	""	""	15.6707	58.9297	None	13.014	16.7466	17.8176	36.7468	15.2984	4.4624	None	1.1012	""	""	81691000
1447	BET02050	2024-05-11T01:00:00	""	""	15.63	59.2356	None	None	None	None	35.452	15.5797	4.6724	None	1.1137	""	""	81691000
1448	BET02050	2024-05-11T01:10:00	""	""	15.4094	59.7858	None	14.468	18.9154	20.3788	37.3552	14.607	4.9794	None	1.101	""	""	81691000
1449	BET02050	2024-05-11T01:20:00	""	""	15.169	60.7159	None	15	19.4065	20.7456	36.6709	12.106	5.4003	None	1.1031	""	""	81691000
1450	BET02050	2024-05-11T01:30:00	""	""	15.0018	61.5643	None	14.3277	18.9328	20.4687	43.0297	7.7193	5.7209	None	1.0923	""	""	81691000
1451	BET02050	2024-05-11T01:40:00	""	""	14.8638	62.3786	None	13.3054	18.4026	19.4519	43.2258	7.7196	5.2159	None	1.1062	""	""	81691000
1452	BET02050	2024-05-11T01:50:00	""	""	14.8237	63.2555	None	13.767	17.9072	18.2968	41.9028	8.4249	5.5035	None	1.1321	""	""	81691000
1453	BET02050	2024-05-11T02:00:00	""	""	14.8424	63.7696	None	13.6596	18.6495	19.3389	38.3868	7.7435	5.9128	None	1.138	""	""	81691000
1454	BET02050	2024-05-11T02:10:00	""	""	14.8393	63.8621	None	12.1607	16.066	17.1089	35.03	12.5023	5.5668	None	1.1451	""	""	81691000
1455	BET02050	2024-05-11T02:20:00	""	""	14.7667	64.1799	None	12	16.1921	16.504	37.3639	11.1703	5.964	None	1.1373	""	""	81691000
1456	BET02050	2024-05-11T02:30:00	""	""	14.7534	64.6355	None	13.1585	16.9276	17.6476	37.093	11.0778	6.4629	None	1.168	""	""	81691000
1457	BET02050	2024-05-11T02:40:00	""	""	14.6572	64.8924	None	12.7349	17.1515	17.8536	33.8575	11.961	6.208	None	1.1408	""	""	81691000
1458	BET02050	2024-05-11T02:50:00	""	""	14.5257	65.2117	None	14.0525	18	18.3736	36.6016	9.8884	6.1474	None	1.1471	""	""	81691000
1459	BET02050	2024-05-11T03:00:00	""	""	14.3268	65.374	None	15.1405	19.1548	20.4746	42.407	6.1429	6.2101	None	1.112	""	""	81691000
1460	BET02050	2024-05-11T03:10:00	""	""	14.2895	65.6248	None	16.0529	20.6688	21.475	44.0245	5.5165	6.465	None	1.1287	""	""	81691000
1461	BET02050	2024-05-11T03:20:00	""	""	14.2483	65.8137	None	14.4306	19.517	21.4459	39.9133	9.0849	6.4902	None	1.1426	""	""	81691000
1462	BET02050	2024-05-11T03:30:00	""	""	14.1457	65.8929	None	15.6393	20.1452	21.3111	40.3765	7.9229	5.8772	None	1.1215	""	""	81691000
1463	BET02050	2024-05-11T03:40:00	""	""	14.1465	65.8418	None	16.0701	20.944	22.821	39.1023	6.7554	6.4599	None	1.1264	""	""	81691000
1464	BET02050	2024-05-11T03:50:00	""	""	14.1901	65.5776	None	15.0391	19.5274	20.5333	38.7396	8.2219	6.5024	None	1.1475	""	""	81691000
1465	BET02050	2024-05-11T04:00:00	""	""	14.1871	65.4172	None	15	19.5533	20.3438	37.5616	8.638	6.8002	None	1.1394	""	""	81691000
1466	BET02050	2024-05-11T04:10:00	""	""	14.1803	65.2159	None	14.1748	18.5875	19.569	39.0149	6.7781	7.0034	None	1.1546	""	""	81691000
1467	BET02050	2024-05-11T04:20:00	""	""	14.0524	65.1526	None	13.7588	18.826	19.8387	39.4785	5.4026	6.8732	None	1.1078	""	""	81691000
1468	BET02050	2024-05-11T04:30:00	""	""	14.0251	64.9379	None	12.6368	16.8622	18.4322	36.9384	8.5508	6.8774	None	1.1111	""	""	81691000
1469	BET02050	2024-05-11T04:40:00	""	""	13.9719	64.8799	None	12	15.7569	17.4442	33.7833	11.8571	6.8408	None	1.0915	""	""	81691000
1470	BET02050	2024-05-11T04:50:00	""	""	14.1073	64.7316	None	12.9998	15.9582	16.5665	32.109	13.1604	7.4523	None	1.1019	""	""	81691000
1471	BET02050	2024-05-11T05:00:00	""	""	14.1359	64.6467	None	12	16.7533	17.4493	31.7387	14.8497	7.6882	None	1.1064	""	""	81691000
1472	BET02050	2024-05-11T05:10:00	""	""	14.2904	64.2193	None	12.0467	15.6497	16.4236	27.0707	19.1765	7.9514	None	1.1316	""	""	81691000
1473	BET02050	2024-05-11T05:20:00	""	""	14.5134	63.8315	None	11.5882	16.1385	17.2796	22.5701	22.3901	8.9588	None	1.1541	""	""	81691000
1474	BET02050	2024-05-11T05:30:00	""	""	14.676	63.5574	None	11.676	15.7618	16.2812	22.3285	22.2078	9.2211	None	1.1835	""	""	81691000
1475	BET02050	2024-05-11T05:40:00	""	""	14.7649	63.4179	None	11.0972	15.4	15.8894	25.0574	20.8009	9.9237	None	1.1452	""	""	81691000
1476	BET02050	2024-05-11T05:50:00	""	""	14.9665	63.0199	None	11.2297	14.8098	15.5042	22.3833	21.5425	11.1078	None	1.2071	""	""	81691000
1477	BET02050	2024-05-11T06:00:00	""	""	15.2998	62.7145	None	11	13.896	14.6964	24.2859	21.1572	13.0793	None	1.2001	""	""	81691000
1478	BET02050	2024-05-11T06:10:00	""	""	15.5959	62.3315	None	11.2083	14.7116	15.5627	18.982	22.4792	12.6503	None	1.2587	""	""	81691000
1479	BET02050	2024-05-11T06:20:00	""	""	15.7957	60.9317	None	11.0324	14.6205	16.1425	16.301	26.54	13.957	None	1.2847	""	""	81691000
1480	BET02050	2024-05-11T06:30:00	""	""	16.113	60.24	None	10.8873	14.2093	15.1555	13.7668	28.6617	14.1912	None	1.3027	""	""	81691000
1481	BET02050	2024-05-11T06:40:00	""	""	16.3573	59.6054	None	10.2263	13.2063	13.7427	13.9284	28.0661	14.9926	None	1.2751	""	""	81691000
1482	BET02050	2024-05-11T06:50:00	""	""	16.6937	58.8483	None	10.0313	13.4329	14.3285	12.5505	30.3998	13.2232	None	1.3991	""	""	81691000
1483	BET02050	2024-05-11T07:00:00	""	""	17.2053	58.5908	None	9.713	12.5342	12.9884	16.7654	27.1178	13.7532	None	1.4288	""	""	81691000
1484	BET02050	2024-05-11T07:10:00	""	""	17.5302	57.7128	None	9.3462	11.8793	12.5928	12.4319	31.5931	12.517	None	1.4867	""	""	81691000
1485	BET02050	2024-05-11T07:20:00	""	""	17.9979	56.7291	None	8.0001	11.745	12.4694	14.9532	30.517	12.8474	None	1.6074	""	""	81691000
1486	BET02050	2024-05-11T07:30:00	""	""	18.534	55.6714	None	8.6329	11.2302	11.7626	16.4863	28.9136	14.7032	None	1.7253	""	""	81691000
1487	BET02050	2024-05-11T07:40:00	""	""	18.9347	54.7419	None	7.8578	9.9092	10.3847	16.0815	31.7335	12.3523	None	1.7871	""	""	81691000
1488	BET02050	2024-05-11T07:50:00	""	""	19.3914	54.0176	None	8.6702	10.7629	11.3118	15.003	38.108	10.593	None	2.014	""	""	81691000
1489	BET02050	2024-05-11T08:00:00	""	""	19.9567	53.7455	None	9.0681	11.4617	12.227	21.8458	38.5473	9.2224	None	2.1701	""	""	81691000
1490	BET02050	2024-05-11T08:10:00	""	""	20.0313	53.5461	None	6.2392	7.5128	7.295	19.3941	48.6666	6.5558	None	2.1801	""	""	81691000
1491	BET02050	2024-05-11T08:20:00	""	""	20.0642	55.5346	None	6.9008	9.1668	9.403	27.9489	47.5863	3.8525	None	1.9423	""	""	81691000
1492	BET02050	2024-05-11T08:30:00	""	""	20.3434	55.2687	None	7.7001	9.3666	10.4818	26.9164	42.6318	4.4689	None	2.1473	""	""	81691000
1493	BET02050	2024-05-11T08:40:00	""	""	20.7621	54.9527	None	7.3612	9.2227	9.8702	23.9421	52.6608	5.2263	None	2.6125	""	""	81691000
1494	BET02050	2024-05-11T08:50:00	""	""	21.1287	52.4217	None	6.8397	8.7784	9.0082	19.051	46.9354	10.5842	None	3.1532	""	""	81691000
1495	BET02050	2024-05-11T09:00:00	""	""	21.5876	49.5348	None	5.3088	6.6888	7.0953	9.6055	57.3674	10.6073	None	3.5912	""	""	81691000
1496	BET02050	2024-05-11T09:10:00	""	""	22.0701	44.3791	None	3.3737	4.359	4.5159	4.8854	56.0638	10.9799	None	3.9269	""	""	81691000
1497	BET02050	2024-05-11T09:20:00	""	""	22.0894	42.6508	None	3	4	4.2009	0.2256	77.1259	10.3097	None	3.9496	""	""	81691000
1498	BET02050	2024-05-11T09:30:00	""	""	22.0205	41.97	None	3	3.9792	3.9792	1.2259	79.1871	9.8926	None	3.9642	""	""	81691000
1499	BET02050	2024-05-11T09:40:00	""	""	22.4966	42.4899	None	3.2649	4.3358	4.5563	3.4059	72.8167	9.2932	None	3.9887	""	""	81691000
1500	BET02050	2024-05-11T09:50:00	""	""	22.2386	42.7787	None	3.692	4.7271	4.8208	6.1724	81.7078	9.1921	None	3.927	""	""	81691000
1501	BET02050	2024-05-11T10:00:00	""	""	22.1282	42.8756	None	3.4363	3.9089	4	5.4773	75.6678	8.9819	None	3.8872	""	""	81691000
1502	BET02050	2024-05-11T10:10:00	""	""	22.4279	43.3437	None	3.6237	4.2894	4.2974	9.2257	82.8834	8.1689	None	3.9087	""	""	81691000
1503	BET02050	2024-05-11T10:20:00	""	""	22.6737	43.8683	None	4	5.3008	5.3814	13.0693	70.2026	8.7433	None	3.8942	""	""	81691000
1504	BET02050	2024-05-11T10:30:00	""	""	22.3692	43.1502	None	3.7571	4.6913	4.8476	10.446	76.6009	8.4091	None	3.8606	""	""	81691000
1505	BET02050	2024-05-11T10:40:00	""	""	22.8783	41.3704	None	3.5064	4.5692	4.8865	7.7039	75.8883	8.4643	None	4.0219	""	""	81691000
1506	BET02050	2024-05-11T10:50:00	""	""	22.862	43.321	None	3.774	4.0001	4.0001	11.3362	90.3899	7.6251	None	3.8936	""	""	81691000
1507	BET02050	2024-05-11T11:00:00	""	""	23.5271	42.8635	None	3.0001	4.0001	5.2333	8.6169	79.2852	8.0302	None	3.9895	""	""	81691000
1508	BET02050	2024-05-11T11:10:00	""	""	23.5609	42.1207	None	3.1842	3.9741	4.0239	10.4737	73.7912	7.9066	None	4.0355	""	""	81691000
1509	BET02050	2024-05-11T11:20:00	""	""	24.4304	41.6124	None	3	4.4483	4.5454	15.4783	65.6194	8.1583	None	4.1424	""	""	81691000
1510	BET02050	2024-05-11T11:30:00	""	""	24.1736	39.7183	None	3	4.134	4.2461	4.4947	82.5351	7.9073	None	4.141	""	""	81691000
1511	BET02050	2024-05-11T11:40:00	""	""	24.6957	39.0748	None	2.8415	3.7697	3.9424	7.5729	69.8728	8.1831	None	4.2009	""	""	81691000
1512	BET02050	2024-05-11T11:50:00	""	""	24.0103	38.6027	None	2.0001	3.5604	3.5223	10.7208	70.761	8.5444	None	4.0855	""	""	81691000
1513	BET02050	2024-05-11T12:00:00	""	""	24.4898	38.294	None	2.6804	2.918	3.1872	6.2421	77.6988	7.6741	None	4.193	""	""	81691000
1514	BET02050	2024-05-11T12:10:00	""	""	24.5615	38.2369	None	2.995	4.1091	4.7891	7.581	75.5068	7.6473	None	4.1484	""	""	81691000
1515	BET02050	2024-05-11T12:20:00	""	""	24.496	38.1508	None	2.8308	3.5617	3.5634	9.4507	76.5788	7.4261	None	4.1089	""	""	81691000
1516	BET02050	2024-05-11T12:30:00	""	""	24.0075	39.0461	None	2.7388	3.0001	3.909	13.6182	72.8714	7.4039	None	4.0063	""	""	81691000
1517	BET02050	2024-05-11T12:40:00	""	""	23.8233	38.6337	None	4.1439	5.3516	5.5445	12.6625	69.107	7.3311	None	4.0134	""	""	81691000
1518	BET02050	2024-05-11T12:50:00	""	""	23.748	39.6023	None	3	4	4.44	12.5042	68.3431	7.3684	None	3.9493	""	""	81691000
1519	BET02050	2024-05-11T13:00:00	""	""	24.5129	40.5137	None	2	3	3	16.6762	67.5961	6.7643	None	4.0396	""	""	81691000
1520	BET02050	2024-05-11T13:10:00	""	""	24.3035	40.9097	None	2	3	3.4855	17.3647	71.9024	6.7105	None	3.9555	""	""	81691000
1521	BET02050	2024-05-11T13:20:00	""	""	23.808	40.8274	None	3.5406	4.6934	5.0205	11.6256	78.0686	6.7133	None	3.9217	""	""	81691000
1522	BET02050	2024-05-11T13:30:00	""	""	24.5748	41.4288	None	3	3.6021	3.6012	15.2071	68.1963	6.5861	None	3.9583	""	""	81691000
1523	BET02050	2024-05-11T13:40:00	""	""	24.539	40.5067	None	3.0277	4.0281	4.0698	12.7687	78.6571	6.3953	None	4.0063	""	""	81691000
1524	BET02050	2024-05-11T13:50:00	""	""	24.4071	41.3984	None	2.0001	3.6511	3.2561	22.2933	70.8506	6.5951	None	3.9451	""	""	81691000
1525	BET02050	2024-05-11T14:00:00	""	""	24.3527	41.5177	None	3	3.5492	3.6513	19.695	64.5929	6.6643	None	3.9217	""	""	81691000
1526	BET02050	2024-05-11T14:10:00	""	""	24.525	41.9228	None	2	3	3.7403	15.4509	73.1418	6.5523	None	3.9323	""	""	81691000
1527	BET02050	2024-05-11T14:20:00	""	""	24.2852	42.313	None	3	3.3527	3.2892	16.8998	79.4973	6.1317	None	3.8942	""	""	81691000
1528	BET02050	2024-05-11T14:30:00	""	""	24.04	43.5621	None	2.5314	3.5108	3.5744	19.6054	78.0235	5.9479	None	3.7896	""	""	81691000
1529	BET02050	2024-05-11T14:40:00	""	""	25.023	43.7318	None	2.9265	3	3	20.7779	75.3806	5.9648	None	3.9049	""	""	81691000
1530	BET02050	2024-05-11T14:50:00	""	""	24.8498	43.4276	None	2.8464	3	3	20.7265	77.6901	5.9205	None	3.8537	""	""	81691000
1531	BET02050	2024-05-11T15:00:00	""	""	25.5398	42.1471	None	2.6276	3	3	19.4945	81.1341	5.7889	None	3.9436	""	""	81691000
1532	BET02050	2024-05-11T15:10:00	""	""	25.0121	43.7979	None	2.8711	3.0001	3.0001	23.7269	72.9845	5.8691	None	3.8581	""	""	81691000
1533	BET02050	2024-05-11T15:20:00	""	""	23.5486	44.6791	None	3.212	4.0644	4.1339	19.8371	75.1671	6.2868	None	3.593	""	""	81691000
1534	BET02050	2024-05-11T15:30:00	""	""	23.3691	45.5061	None	3	4	4	12.6093	83.4091	6.3958	None	3.5364	""	""	81691000
1535	BET02050	2024-05-11T15:40:00	""	""	22.8037	47.4168	None	2	3	3.5307	14.6414	84.4733	6.3699	None	3.3982	""	""	81691000
1536	BET02050	2024-05-11T15:50:00	""	""	23.8629	47.8505	None	2.7765	4.2364	4.2573	18.5101	80.7241	5.9418	None	3.595	""	""	81691000
1537	BET02050	2024-05-11T16:00:00	""	""	23.7866	46.8611	None	3.4249	4.0637	4.4744	17.6615	75.816	6.3143	None	3.595	""	""	81691000
1538	BET02050	2024-05-11T16:10:00	""	""	24.1336	47.4075	None	3	4	3.9602	18.2258	81.0734	6.1775	None	3.6101	""	""	81691000
1539	BET02050	2024-05-11T16:20:00	""	""	23.4935	48.2356	None	3	4.3235	4.48	18.8743	82.7609	6.3852	None	3.4741	""	""	81691000
1540	BET02050	2024-05-11T16:30:00	""	""	24.1678	49.8739	None	4.0846	5.1313	5.4004	24.0843	81.7675	5.9087	None	3.5785	""	""	81691000
1541	BET02050	2024-05-11T16:40:00	""	""	23.6192	49.8724	None	3.6913	4.4043	4.8109	25.1395	83.3231	5.9665	None	3.4259	""	""	81691000
1542	BET02050	2024-05-11T16:50:00	""	""	22.6269	51.8729	None	4.4951	6.0303	6.0576	24.5325	86.2493	6.09	None	3.1713	""	""	81691000
1543	BET02050	2024-05-11T17:00:00	""	""	22.0517	53.5364	None	3.714	4.5195	4.9873	28.5297	79.3468	6.202	None	2.8394	""	""	81691000
1544	BET02050	2024-05-11T17:10:00	""	""	21.5891	55.4978	None	4.28	5.1934	5	25.8613	86.996	5.9412	None	2.5283	""	""	81691000
1545	BET02050	2024-05-11T17:20:00	""	""	21.0885	58.6171	None	4.2043	5.3066	5.3331	24.364	89.4265	4.3399	None	2.2517	""	""	81691000
1546	BET02050	2024-05-11T17:30:00	""	""	21.0989	59.3947	None	4.9245	5.9901	6.0774	32.7254	83.0925	5.205	None	2.209	""	""	81691000
1547	BET02050	2024-05-11T17:40:00	""	""	21.0171	61.6185	None	5.2853	6.8637	7.0324	28.6548	87.9631	4.8374	None	2.1328	""	""	81691000
1548	BET02050	2024-05-11T17:50:00	""	""	20.7428	63.2033	None	6	7.9456	8.4738	36.4519	84.9947	2.1725	None	2.0647	""	""	81691000
1549	BET02050	2024-05-11T18:00:00	""	""	20.5265	64.9031	None	5.9709	7.5531	7.7719	33.9182	83.1883	0.1101	None	2.0348	""	""	81691000
1550	BET02050	2024-05-11T18:10:00	""	""	20.0727	66.6604	None	6.6643	8.2119	8.6773	24.9436	97.3766	0.086	None	2.0189	""	""	81691000
1551	BET02050	2024-05-11T18:20:00	""	""	20.0923	67.5212	None	7	8.4305	9.1202	28.7246	80.9933	0.2091	None	2.0188	""	""	81691000
1552	BET02050	2024-05-11T18:30:00	""	""	20.1093	68.2533	None	7.3232	9.8318	9.9136	29.4768	86.643	0.1778	None	2.0153	""	""	81691000
1553	BET02050	2024-05-11T18:40:00	""	""	19.8592	69.9779	None	8.4356	10.6433	11.3792	30.4223	84.4436	0.1776	None	2.008	""	""	81691000
1554	BET02050	2024-05-11T18:50:00	""	""	19.8792	71.1319	None	9.0158	11.4559	11.5205	30.0603	75.8739	0.1585	None	2.0034	""	""	81691000
1555	BET02050	2024-05-11T19:00:00	""	""	19.7889	71.7409	None	10.2501	13.3393	14.7474	25.4679	74.9324	0.1759	None	2.0012	""	""	81691000
1556	BET02050	2024-05-11T19:10:00	""	""	19.719	72.6386	None	10.4083	13.4947	14.006	27.7839	78.2825	0.148	None	2.0018	""	""	81691000
1557	BET02050	2024-05-11T19:20:00	""	""	19.4794	74.7357	None	9.903	12.8404	12.5553	23.5159	82.6633	0.1226	None	2.0003	""	""	81691000
1558	BET02050	2024-05-11T19:30:00	""	""	19.5256	74.6995	None	10.2117	14.6195	14.9953	23.2367	76.9051	1.0997	None	1.9991	""	""	81691000
1559	BET02050	2024-05-11T19:40:00	""	""	19.4681	73.6567	None	11.1812	14.6052	14.9462	24.1935	65.0971	1.1855	None	2.0002	""	""	81691000
1560	BET02050	2024-05-11T19:50:00	""	""	19.5285	72.3515	None	10.9294	14.747	14.7709	18.1423	66.0517	1.8327	None	1.9993	""	""	81691000
1561	BET02050	2024-05-11T20:00:00	""	""	19.3125	72.0147	None	9.4869	12.7147	14.1454	21.2679	63.1307	2.2676	None	1.9965	""	""	81691000
1562	BET02050	2024-05-11T20:10:00	""	""	19.3908	71.3786	None	10.4623	14.0921	14.7961	15.0444	64.965	2.31	None	1.9969	""	""	81691000
1563	BET02050	2024-05-11T20:20:00	""	""	19.4347	71.7626	None	10	12.9017	13.4684	14.6091	70.8019	2.3158	None	1.996	""	""	81691000
1564	BET02050	2024-05-11T20:30:00	""	""	19.3423	71.3966	None	11.1913	14.3992	14.9956	11.4458	73.9455	2.4495	None	1.9981	""	""	81691000
1565	BET02050	2024-05-11T20:40:00	""	""	19.2294	71.3972	None	11.8714	16.1804	16.5967	9.8937	68.7	3.041	None	1.9983	""	""	81691000
1566	BET02050	2024-05-11T20:50:00	""	""	19.3607	70.6154	None	12.9327	17.8846	18.231	13.0189	63.3504	2.8266	None	1.9966	""	""	81691000
1567	BET02050	2024-05-11T21:00:00	""	""	19.3548	69.7839	None	14.2205	19.3173	20.1061	6.9672	70.0734	2.8583	None	1.9999	""	""	81691000
1568	BET02050	2024-05-11T21:10:00	""	""	19.3201	69.4827	None	12.7462	16.8932	17.7621	6.5751	77.7691	2.4261	None	2.0018	""	""	81691000
1569	BET02050	2024-05-11T21:20:00	""	""	19.3579	69.5736	None	14.7356	20.1909	20.6817	10.2839	64.0554	2.7314	None	1.9981	""	""	81691000
1570	BET02050	2024-05-11T21:30:00	""	""	19.3362	69.1347	None	14.1259	18.979	19.9094	5.8754	70.7067	2.8427	None	1.9988	""	""	81691000
1571	BET02050	2024-05-11T21:40:00	""	""	19.218	68.8483	None	15.4855	20.1151	20.3253	7.6348	60.7131	3.0676	None	1.9875	""	""	81691000
1572	BET02050	2024-05-11T21:50:00	""	""	19.1221	68.509	None	17.7185	23.5485	24.9012	12.0152	53.4722	3.0513	None	1.9763	""	""	81691000
1573	BET02050	2024-05-11T22:00:00	""	""	19.1199	68.4578	None	20	29.0884	29.9032	11.8175	51.136	3.1817	None	1.9548	""	""	81691000
1574	BET02050	2024-05-11T22:10:00	""	""	19.0925	68.3467	None	19	27.1715	28.8836	9.5435	46.5935	3.3982	None	1.9483	""	""	81691000
1575	BET02050	2024-05-11T22:20:00	""	""	19.1262	68.1463	None	18.5892	25.9669	26.9547	9.553	51.2658	3.3625	None	1.9561	""	""	81691000
1576	BET02050	2024-05-11T22:30:00	""	""	19.0262	68.0018	None	21.1312	29.2897	31.8696	23.136	40.9853	2.8782	None	1.916	""	""	81691000
1577	BET02050	2024-05-11T22:40:00	""	""	18.1553	67.3818	None	21.1642	29.3048	30.7369	54.873	0.1363	9.0843	None	1.6263	""	""	81691000
1578	BET02050	2024-05-11T22:50:00	""	""	17.8233	66.5338	None	13.0922	18.0189	18.7651	24.312	9.8701	9.7072	None	1.4542	""	""	81691000
1579	BET02050	2024-05-11T23:00:00	""	""	17.5502	66.0399	None	11.0057	14.5622	15.1685	20.9833	12.4073	9.057	None	1.415	""	""	81691000
1580	BET02050	2024-05-11T23:10:00	""	""	17.444	66.2657	None	10.7434	13.2201	13.8817	23.5493	11.0487	8.211	None	1.3779	""	""	81691000
1581	BET02050	2024-05-11T23:20:00	""	""	17.4353	66.6946	None	11.2219	14.2029	15.3099	23.9408	18.1092	6.6933	None	1.4753	""	""	81691000
1582	BET02050	2024-05-11T23:30:00	""	""	17.2944	67.3675	None	10.847	13	14.2701	23.8887	20.7412	6.7017	None	1.4928	""	""	81691000
1583	BET02050	2024-05-11T23:40:00	""	""	17.1348	68.1452	None	10.9579	14.2512	14.3464	24.0601	22.4415	6.275	None	1.5218	""	""	81691000
1584	BET02050	2024-05-11T23:50:00	""	""	17.1371	68.7846	None	11.5095	13.9217	14.635	22.965	24.9047	5.8374	None	1.5337	""	""	81691000
1585	BET02050	2024-05-12T00:00:00	""	""	17.2614	69.6205	None	12.217	15.3995	16.5076	22.1014	27.0163	6.1164	None	1.589	""	""	81691000
1586	BET02050	2024-05-12T00:10:00	""	""	17.1755	69.7489	None	12.2602	15.5505	16.6164	19.1776	26.6184	6.4693	None	1.6366	""	""	81691000
1587	BET02050	2024-05-12T00:20:00	""	""	17.1454	69.4572	None	13	16.4606	17.5965	17.9018	25.5852	7.34	None	1.6145	""	""	81691000
1588	BET02050	2024-05-12T00:30:00	""	""	17.129	69.3264	None	13.7094	17.5922	19.143	16.0759	23.2258	7.7498	None	1.5863	""	""	81691000
1589	BET02050	2024-05-12T00:40:00	""	""	16.8196	69.4886	None	14.7881	19.4486	21.2489	16.0375	16.6484	8.6062	None	1.5018	""	""	81691000
1590	BET02050	2024-05-12T00:50:00	""	""	16.6658	69.9809	None	15.8993	20.4669	22.0146	16.848	15.5064	8.584	None	1.4732	""	""	81691000
1591	BET02050	2024-05-12T01:00:00	""	""	16.675	70.2906	None	None	None	None	16.8321	18.8186	8.2665	None	1.4904	""	""	81691000
1592	BET02050	2024-05-12T01:10:00	""	""	16.6049	71.1571	None	16.1128	20.1627	21.6955	17.4409	14.6944	8.3716	None	1.4758	""	""	81691000
1593	BET02050	2024-05-12T01:20:00	""	""	16.5534	71.3442	None	15.2991	20.6699	21.7199	17.6146	15.6781	8.9854	None	1.465	""	""	81691000
1594	BET02050	2024-05-12T01:30:00	""	""	16.4647	71.4551	None	15.7915	20.9009	21.8817	15.6406	16.7739	9.7646	None	1.4153	""	""	81691000
1595	BET02050	2024-05-12T01:40:00	""	""	16.2828	71.62	None	15.7498	21.6035	22.6468	14.77	15.3872	9.938	None	1.4163	""	""	81691000
1596	BET02050	2024-05-12T01:50:00	""	""	16.0613	71.6938	None	16.137	19.8923	22.0025	15.5595	12.8655	10.3284	None	1.3105	""	""	81691000
1597	BET02050	2024-05-12T02:00:00	""	""	15.9953	72.2726	None	15.1456	21.4746	22.276	16.3342	10.3245	10.4967	None	1.3348	""	""	81691000
1598	BET02050	2024-05-12T02:10:00	""	""	15.8969	72.4568	None	16.708	21.3873	22.0877	16.1852	13.3199	10.4919	None	1.3351	""	""	81691000
1599	BET02050	2024-05-12T02:20:00	""	""	15.795	72.6713	None	15.522	20.0655	21.7195	16.2465	18.7227	9.959	None	1.359	""	""	81691000
1600	BET02050	2024-05-12T02:30:00	""	""	15.7966	72.7408	None	15.5636	20.3462	20.7623	16.0604	17.2771	9.8568	None	1.3729	""	""	81691000
1601	BET02050	2024-05-12T02:40:00	""	""	15.8346	72.778	None	15.1168	19.8386	20.5341	15.0622	21.0573	9.8577	None	1.374	""	""	81691000
1602	BET02050	2024-05-12T02:50:00	""	""	15.7947	72.8983	None	14.5898	18.7186	19.9666	15.2551	19.801	9.5873	None	1.4161	""	""	81691000
1603	BET02050	2024-05-12T03:00:00	""	""	15.7496	72.868	None	14.0001	18.7832	19.9417	14.9021	22.3482	10.1849	None	1.3897	""	""	81691000
1604	BET02050	2024-05-12T03:10:00	""	""	15.6217	72.9794	None	15.0635	19.386	20.3355	14.6207	18.9921	10.0037	None	1.3866	""	""	81691000
1605	BET02050	2024-05-12T03:20:00	""	""	15.4097	73.2038	None	14.2449	18.5072	19.1567	15.2669	15.6572	11.0241	None	1.3054	""	""	81691000
1606	BET02050	2024-05-12T03:30:00	""	""	15.3644	73.253	None	14	18.2878	18.964	15.6253	16.2786	10.2258	None	1.3377	""	""	81691000
1607	BET02050	2024-05-12T03:40:00	""	""	15.3542	73.3232	None	13.7714	19.1795	20.0831	16.1162	14.5199	10.7966	None	1.3493	""	""	81691000
1608	BET02050	2024-05-12T03:50:00	""	""	15.3472	72.9454	None	13.8616	17.8086	18.8593	17.849	10.6913	11.0298	None	1.3442	""	""	81691000
1609	BET02050	2024-05-12T04:00:00	""	""	15.2344	72.776	None	13.4085	17.1359	18.5194	20.9255	7.7027	10.8595	None	1.3062	""	""	81691000
1610	BET02050	2024-05-12T04:10:00	""	""	15.0808	72.7564	None	13.4182	17.1178	18.6025	19.4151	15.774	10.3305	None	1.29	""	""	81691000
1611	BET02050	2024-05-12T04:20:00	""	""	15.0381	73.0222	None	12.0265	16.3788	16.9368	19.8832	13.1818	9.7855	None	1.3004	""	""	81691000
1612	BET02050	2024-05-12T04:30:00	""	""	15.1121	72.857	None	11.1436	15.0079	16.0204	16.5436	18.7962	9.1899	None	1.2803	""	""	81691000
1613	BET02050	2024-05-12T04:40:00	""	""	15.1132	72.8899	None	11.6101	14.6162	16.1637	15.8757	19.1054	9.3334	None	1.2501	""	""	81691000
1614	BET02050	2024-05-12T04:50:00	""	""	15.2279	72.9425	None	11.1121	14.2956	15.6907	15.5038	17.6174	9.8885	None	1.2329	""	""	81691000
1615	BET02050	2024-05-12T05:00:00	""	""	15.1287	73.1827	None	12.3994	16.0212	16.6021	15.2598	17.1234	10.1762	None	1.2395	""	""	81691000
1616	BET02050	2024-05-12T05:10:00	""	""	15.1703	73.4599	None	12.5636	16.3019	16.7108	14.9011	17.0069	10.3938	None	1.2251	""	""	81691000
1617	BET02050	2024-05-12T05:20:00	""	""	15.3288	73.8518	None	13.2445	16.7939	17.649	15.6	19.6883	11.1227	None	1.285	""	""	81691000
1618	BET02050	2024-05-12T05:30:00	""	""	15.6096	73.6539	None	13.9908	18.6582	19.4976	15.3007	20.8464	11.7393	None	1.3206	""	""	81691000
1619	BET02050	2024-05-12T05:40:00	""	""	15.9815	73.2246	None	14.2838	18.8383	19.6791	14.0035	19.3556	12.8283	None	1.3447	""	""	81691000
1620	BET02050	2024-05-12T05:50:00	""	""	16.3859	72.234	None	13.9271	18.2001	19.7635	11.6004	20.1047	13.6401	None	1.3875	""	""	81691000
1621	BET02050	2024-05-12T06:00:00	""	""	16.7133	70.5011	None	12.7403	16.0229	16.8345	11.6486	22.5525	13.6434	None	1.4546	""	""	81691000
1622	BET02050	2024-05-12T06:10:00	""	""	17.0631	69.6758	None	13.5927	17.4473	18.4765	13.0468	19.3141	13.3743	None	1.4242	""	""	81691000
1623	BET02050	2024-05-12T06:20:00	""	""	17.1361	68.3677	None	12.8884	15.83	16.8562	11.0792	20.5612	12.9366	None	1.4015	""	""	81691000
1624	BET02050	2024-05-12T06:30:00	""	""	17.1703	67.5492	None	12.0187	16.1276	17.1783	11.3437	20.9525	12.8447	None	1.4261	""	""	81691000
1625	BET02050	2024-05-12T06:40:00	""	""	17.3349	65.5664	None	10.7101	14.087	15.0797	7.7006	21.7494	13.1127	None	1.4842	""	""	81691000
1626	BET02050	2024-05-12T06:50:00	""	""	17.4603	65.0015	None	11.386	15.489	16.7481	9.3538	21.8176	12.6856	None	1.4564	""	""	81691000
1627	BET02050	2024-05-12T07:00:00	""	""	17.9091	64.0285	None	12.0782	16.2254	16.9698	11.7196	19.6598	13.3708	None	1.4891	""	""	81691000
1628	BET02050	2024-05-12T07:10:00	""	""	18.283	63.2153	None	12	16.3972	17.5711	13.6653	20.3883	12.2837	None	1.4808	""	""	81691000
1629	BET02050	2024-05-12T07:20:00	""	""	18.3402	62.5074	None	11.3832	14.5563	15.2508	11.4466	20.0735	12.8436	None	1.465	""	""	81691000
1630	BET02050	2024-05-12T07:30:00	""	""	18.4999	61.9227	None	10.468	14.2719	15.4331	11.2789	21.0108	12.6587	None	1.4876	""	""	81691000
1631	BET02050	2024-05-12T07:40:00	""	""	18.9928	60.9422	None	10.9279	15.5825	16.5694	7.8613	27.1132	10.7778	None	1.6218	""	""	81691000
1632	BET02050	2024-05-12T07:50:00	""	""	19.2724	59.3261	None	9.0254	11.8967	13.1298	11.0248	23.5301	9.912	None	1.6314	""	""	81691000
1633	BET02050	2024-05-12T08:00:00	""	""	19.1986	59.3958	None	9.3785	12.0958	12.5632	13.7982	17.5044	9.5827	None	1.533	""	""	81691000
1634	BET02050	2024-05-12T08:10:00	""	""	19.2686	58.8073	None	9	12.4617	12.9192	12.8468	19.545	9.2673	None	1.4862	""	""	81691000
1635	BET02050	2024-05-12T08:20:00	""	""	19.3236	58.5718	None	7.949	10.5716	11.9531	16.7131	17.1414	9.6776	None	1.3961	""	""	81691000
1636	BET02050	2024-05-12T08:30:00	""	""	19.5593	58.4041	None	10.206	12.9585	13.5087	15.7512	19.9279	6.8788	None	1.5567	""	""	81691000
1637	BET02050	2024-05-12T08:40:00	""	""	19.8449	58.1274	None	7.4254	10.0442	10.74	11.6284	24.9744	3.7156	None	1.7139	""	""	81691000
1638	BET02050	2024-05-12T08:50:00	""	""	20.1238	57.6169	None	7.4567	10.2538	10.7721	15.057	31.0985	3.6431	None	1.8042	""	""	81691000
1639	BET02050	2024-05-12T09:00:00	""	""	20.5156	58.45	None	7.8529	10.7082	11.2126	24.5598	19.1093	4.1955	None	1.6853	""	""	81691000
1640	BET02050	2024-05-12T09:10:00	""	""	20.5769	58.359	None	8.2217	10.445	10.9528	24.4318	16.3782	5.605	None	1.6861	""	""	81691000
1641	BET02050	2024-05-12T09:20:00	""	""	21.3283	57.9369	None	9.2694	11.9874	12.4092	24.4716	17.9933	10.0155	None	1.8258	""	""	81691000
1642	BET02050	2024-05-12T09:30:00	""	""	21.5945	58.6124	None	12.1329	15.9983	16.4482	28.707	20.6823	10.0123	None	1.9574	""	""	81691000
1643	BET02050	2024-05-12T09:40:00	""	""	21.9905	56.7865	None	7.4607	9.9319	10.3481	19.8924	31.3646	10.3807	None	2.3777	""	""	81691000
1644	BET02050	2024-05-12T09:50:00	""	""	22.8188	56.7082	None	8.0872	10.5441	10.6999	22.6499	38.6377	9.1304	None	2.5945	""	""	81691000
1645	BET02050	2024-05-12T10:00:00	""	""	22.2756	54.84	None	7.7492	8.7135	10.492	8.5306	64.9448	9.6728	None	3.0085	""	""	81691000
1646	BET02050	2024-05-12T10:10:00	""	""	23.2258	55.5077	None	5.1064	6.0985	6.2634	26.1304	50.464	8.8971	None	3.2729	""	""	81691000
1647	BET02050	2024-05-12T10:20:00	""	""	23.4127	53.1477	None	4.8893	6.5515	6.7977	14.1264	35.8176	9.9001	None	3.3352	""	""	81691000
1648	BET02050	2024-05-12T10:30:00	""	""	23.2492	51.941	None	3.6172	4.4228	4.8851	22.9794	43.2984	9.5899	None	3.3485	""	""	81691000
1649	BET02050	2024-05-12T10:40:00	""	""	23.8966	49.0106	None	4	5.8377	5.9726	4.2246	38.8215	10.0392	None	3.6509	""	""	81691000
1650	BET02050	2024-05-12T10:50:00	""	""	24.5358	46.5724	None	2	3.3079	3.7416	14.2475	36.5996	10.1165	None	3.7882	""	""	81691000
1651	BET02050	2024-05-12T11:00:00	""	""	24.2545	45.3441	None	2.243	2.9451	3.0752	10.5262	38.1145	9.5443	None	3.7809	""	""	81691000
1652	BET02050	2024-05-12T11:10:00	""	""	24.4913	45.7541	None	3.126	4.4954	3.0001	13.7039	48.4075	9.4916	None	3.74	""	""	81691000
1653	BET02050	2024-05-12T11:20:00	""	""	24.6811	44.0676	None	2.538	3.4332	3.4825	11.5632	35.199	9.2385	None	3.8691	""	""	81691000
1654	BET02050	2024-05-12T11:30:00	""	""	24.8839	45.7574	None	2.0001	4.2816	5.7695	25.9208	43.5774	9.6824	None	3.8258	""	""	81691000
1655	BET02050	2024-05-12T11:40:00	""	""	25.9023	45.0411	None	4.7781	6.0751	6.3142	15.3384	57.3215	7.9233	None	3.9749	""	""	81691000
1656	BET02050	2024-05-12T11:50:00	""	""	24.2719	45.4453	None	4.2614	5.7964	6	15.2641	63.9274	8.0208	None	3.6677	""	""	81691000
1657	BET02050	2024-05-12T12:00:00	""	""	24.4745	49.5174	None	5.0001	8.6717	9.2881	24.3593	55.3947	7.3024	None	3.453	""	""	81691000
1658	BET02050	2024-05-12T12:10:00	""	""	23.8159	48.6783	None	6.87	9.3187	9.988	18.5477	63.937	7.4521	None	3.418	""	""	81691000
1659	BET02050	2024-05-12T12:20:00	""	""	24.6899	46.9056	None	6.4556	8.0226	8	17.335	51.947	7.5915	None	3.6557	""	""	81691000
1660	BET02050	2024-05-12T12:30:00	""	""	25.1525	46.6224	None	4.313	5.1433	5.7286	18.8267	60.7403	7.2373	None	3.6797	""	""	81691000
1661	BET02050	2024-05-12T12:40:00	""	""	25.4903	45.1353	None	3.9721	4.8791	4.9961	17.9321	51.4271	7.8653	None	3.7865	""	""	81691000
1662	BET02050	2024-05-12T12:50:00	""	""	24.1928	44.8376	None	3.6255	5.2091	5.5829	11.9443	57.6854	8.8291	None	3.4554	""	""	81691000
1663	BET02050	2024-05-12T13:00:00	""	""	24.1468	47.1921	None	5.1419	6.1869	6.232	18.6022	62.6919	7.7295	None	3.4562	""	""	81691000
1664	BET02050	2024-05-12T13:10:00	""	""	24.3838	48.5648	None	4.2181	5.3109	5.8014	21.3037	54.0639	7.3745	None	3.5489	""	""	81691000
1665	BET02050	2024-05-12T13:20:00	""	""	25.0741	47.0009	None	3.7434	4.7673	4.9778	20.3719	55.8453	7.2438	None	3.7449	""	""	81691000
1666	BET02050	2024-05-12T13:30:00	""	""	24.679	45.5764	None	3.8467	4.9391	5.0894	9.9381	64.179	7.5489	None	3.6675	""	""	81691000
1667	BET02050	2024-05-12T13:40:00	""	""	24.8747	45.8325	None	2.2403	3.6214	3.7037	11.9292	61.9985	7.3536	None	3.7288	""	""	81691000
1668	BET02050	2024-05-12T13:50:00	""	""	24.9202	45.1146	None	2.5068	4.1427	4.3118	12.6815	62.5381	7.4231	None	3.686	""	""	81691000
1669	BET02050	2024-05-12T14:00:00	""	""	24.5374	45.4085	None	3.4124	4.9199	4.5781	10.8927	65.6389	7.2886	None	3.6576	""	""	81691000
1670	BET02050	2024-05-12T14:10:00	""	""	24.8719	44.7278	None	3.1179	3.8932	3.824	11.6113	71.7321	7.2533	None	3.7593	""	""	81691000
1671	BET02050	2024-05-12T14:20:00	""	""	25.746	47.1018	None	2.3782	3.2896	3.4316	24.3402	69.0509	6.3022	None	3.8152	""	""	81691000
1672	BET02050	2024-05-12T14:30:00	""	""	23.946	49.697	None	2.0001	3	3	24.8997	75.8678	6.4768	None	3.3658	""	""	81691000
1673	BET02050	2024-05-12T14:40:00	""	""	24.5376	50.3521	None	3.0001	4.4878	4.5617	22.2494	63.8569	6.5658	None	3.5021	""	""	81691000
1674	BET02050	2024-05-12T14:50:00	""	""	24.9358	49.4075	None	3	3.6033	4	26.0949	69.234	6.0099	None	3.5799	""	""	81691000
1675	BET02050	2024-05-12T15:00:00	""	""	23.8895	49.7554	None	4.2018	5.2174	5.3774	18.7485	80.9822	6.2358	None	3.3774	""	""	81691000
1676	BET02050	2024-05-12T15:10:00	""	""	24.5024	50.0469	None	4.1635	5.2414	5.4602	21.251	66.082	6.5159	None	3.509	""	""	81691000
1677	BET02050	2024-05-12T15:20:00	""	""	23.8233	49.2388	None	3.4247	4.4634	4.5208	19.6434	74.5176	6.5281	None	3.3436	""	""	81691000
1678	BET02050	2024-05-12T15:30:00	""	""	23.3299	50.387	None	3	4.6281	4.7848	11.7702	74.998	6.9671	None	3.2806	""	""	81691000
1679	BET02050	2024-05-12T15:40:00	""	""	23.5681	51.5562	None	3	3.8281	4.9999	16.0001	75.5996	6.7055	None	3.3224	""	""	81691000
1680	BET02050	2024-05-12T15:50:00	""	""	22.4848	52.7471	None	4.0921	5.0845	5.2574	15.5872	77.9597	6.9956	None	2.9108	""	""	81691000
1681	BET02050	2024-05-12T16:00:00	""	""	22.6626	53.6323	None	3.5491	4.3455	4.4074	19.9164	64.468	6.8203	None	2.9437	""	""	81691000
1682	BET02050	2024-05-12T16:10:00	""	""	23.0879	54.1646	None	3	4.2804	4.3092	17.5704	69.6711	6.9125	None	3.1554	""	""	81691000
1683	BET02050	2024-05-12T16:20:00	""	""	23.1833	53.4714	None	3	4.0218	4.1592	18.6384	72.3785	6.9581	None	3.1874	""	""	81691000
1684	BET02050	2024-05-12T16:30:00	""	""	23.1372	54.5757	None	3.1166	4.2785	4.2661	22.1006	74.6332	7.0274	None	3.1074	""	""	81691000
1685	BET02050	2024-05-12T16:40:00	""	""	23.2304	55.9751	None	4.0435	4.6125	4.6836	27.6742	70.5812	6.7647	None	3.0164	""	""	81691000
1686	BET02050	2024-05-12T16:50:00	""	""	22.5955	57.7514	None	4.3781	5.3422	5	44.3671	51.0319	6.7583	None	2.3919	""	""	81691000
1687	BET02050	2024-05-12T17:00:00	""	""	22.4271	58.5934	None	4.684	5.5365	5.6411	43.0005	47.1965	7.3644	None	2.2805	""	""	81691000
1688	BET02050	2024-05-12T17:10:00	""	""	21.9952	56.6869	None	4.2876	5.1496	5.4191	32.7677	46.2097	8.0141	None	2.3077	""	""	81691000
1689	BET02050	2024-05-12T17:20:00	""	""	22.0483	55.4315	None	3	4.2926	4.3632	32.1596	28.6849	8.4649	None	2.3312	""	""	81691000
1690	BET02050	2024-05-12T17:30:00	""	""	22.2722	55.0002	None	3	3.5094	4.1968	34.8019	36.3363	8.0922	None	2.4659	""	""	81691000
1691	BET02050	2024-05-12T17:40:00	""	""	22.1081	56.0012	None	3.9514	5.4438	6.3407	47.0471	29.8803	7.9132	None	2.2518	""	""	81691000
1692	BET02050	2024-05-12T17:50:00	""	""	21.4362	59.3062	None	3.4675	4.8218	5.0437	45.6016	58.4655	6.5023	None	2.0446	""	""	81691000
1693	BET02050	2024-05-12T18:00:00	""	""	21.9614	62.2987	None	6.7946	8.6891	8.8746	35.6027	66.0117	6.6567	None	2.0399	""	""	81691000
1694	BET02050	2024-05-12T18:10:00	""	""	21.7346	64.0336	None	5.7691	7.2191	8.1271	34.7865	79.2334	6.58	None	2.0312	""	""	81691000
1695	BET02050	2024-05-12T18:20:00	""	""	21.5642	67.0361	None	6.4625	8.6943	9.0892	29.9419	67.188	6.7957	None	2.0199	""	""	81691000
1696	BET02050	2024-05-12T18:30:00	""	""	21.1006	66.9888	None	6.8484	8.6797	8.717	25.5663	65.2586	6.904	None	2.0112	""	""	81691000
1697	BET02050	2024-05-12T18:40:00	""	""	20.9248	66.1379	None	5.1663	6.2353	6.3931	16.4359	64.4911	5.2822	None	1.995	""	""	81691000
1698	BET02050	2024-05-12T18:50:00	""	""	20.8535	67.1198	None	5.19	6.7252	6.7326	30.625	62.581	5.5353	None	1.9885	""	""	81691000
1699	BET02050	2024-05-12T19:00:00	""	""	20.8995	69.3031	None	6.7058	8.6516	8.7334	24.2987	64.6131	6.4774	None	1.9967	""	""	81691000
1700	BET02050	2024-05-12T19:10:00	""	""	20.8953	70.6302	None	6.8921	8.2167	8.7278	32.7375	49.5612	6.7725	None	1.9831	""	""	81691000
1701	BET02050	2024-05-12T19:20:00	""	""	20.5863	70.7358	None	6.1225	7.7124	8.1737	36.4921	40.4655	3.2274	None	1.9932	""	""	81691000
1702	BET02050	2024-05-12T19:30:00	""	""	20.6121	70.8009	None	10.1732	12.5109	13.2639	39.6487	34.1946	4.8092	None	1.9905	""	""	81691000
1703	BET02050	2024-05-12T19:40:00	""	""	20.6956	70.4414	None	7.0001	11.3917	11.8437	40.9234	34.224	4.9813	None	1.9767	""	""	81691000
1704	BET02050	2024-05-12T19:50:00	""	""	20.5993	70.1017	None	10.3056	13.2927	13.8955	40.0988	26.056	4.7907	None	1.9209	""	""	81691000
1705	BET02050	2024-05-12T20:00:00	""	""	20.6	69.5255	None	12.183	15.721	16.4151	41.978	33.0804	5.1526	None	1.9713	""	""	81691000
1706	BET02050	2024-05-12T20:10:00	""	""	20.4294	69.5356	None	7.8771	10.0239	10.7524	36.316	36.5017	2.8567	None	1.946	""	""	81691000
1707	BET02050	2024-05-12T20:20:00	""	""	20.3836	69.9781	None	11.6166	14.1294	15.0255	30.3242	40.5062	3.3274	None	1.9448	""	""	81691000
1708	BET02050	2024-05-12T20:30:00	""	""	20.3701	69.9635	None	10.9937	14.7763	14.8534	26.6932	41.5318	2.4921	None	1.9367	""	""	81691000
1709	BET02050	2024-05-12T20:40:00	""	""	20.3034	69.5971	None	8.934	11.69	11.8356	18.0587	44.3881	2.2917	None	1.9523	""	""	81691000
1710	BET02050	2024-05-12T20:50:00	""	""	20.1829	69.7446	None	9.0568	10.9942	12.164	33.1911	36.9849	2.0941	None	1.9263	""	""	81691000
1711	BET02050	2024-05-12T21:00:00	""	""	20.1225	70.2832	None	10.083	12.9808	13.8444	51.3854	12.2692	1.9804	None	1.7916	""	""	81691000
1712	BET02050	2024-05-12T21:10:00	""	""	20.0729	70.5102	None	14.742	17.3712	17.1579	53.3332	17.5981	1.9566	None	1.7968	""	""	81691000
1713	BET02050	2024-05-12T21:20:00	""	""	20.0078	71.2403	None	12.8843	16.3601	17.2177	67.5178	10.5424	1.8159	None	1.8884	""	""	81691000
1714	BET02050	2024-05-12T21:30:00	""	""	19.948	72.7073	None	10.828	13.9106	14.1259	77.637	7.7159	1.9494	None	1.9166	""	""	81691000
1715	BET02050	2024-05-12T21:40:00	""	""	19.7918	74.5342	None	11	14.7663	15.6323	67.192	16.8622	1.7917	None	1.9582	""	""	81691000
1716	BET02050	2024-05-12T21:50:00	""	""	19.6349	75.5215	None	13.163	17.0654	18.2032	80.2028	0.1623	2.4992	None	1.94	""	""	81691000
1717	BET02050	2024-05-12T22:00:00	""	""	19.5911	75.86	None	15.3407	19.451	20.0775	59.3624	14.6707	3.9558	None	1.9455	""	""	81691000
1718	BET02050	2024-05-12T22:10:00	""	""	19.585	76.49	None	14.2929	19.9441	21.165	36.8215	39.558	2.7995	None	1.9674	""	""	81691000
1719	BET02050	2024-05-12T22:20:00	""	""	19.5424	77.2721	None	15.9824	21.6169	23.3988	20.7501	41.9418	4.0827	None	1.973	""	""	81691000
1720	BET02050	2024-05-12T22:30:00	""	""	19.5593	76.9553	None	14.4383	19.823	20.1114	17.3117	52.5484	4.0865	None	1.9784	""	""	81691000
1721	BET02050	2024-05-12T22:40:00	""	""	19.5785	76.7896	None	15.583	20.5758	21.3333	19.2126	42.3976	5.0241	None	1.9811	""	""	81691000
1722	BET02050	2024-05-12T22:50:00	""	""	19.6173	76.5007	None	13.3642	18.0044	18.8636	19.576	30.1689	5.4062	None	1.9534	""	""	81691000
1723	BET02050	2024-05-12T23:00:00	""	""	19.685	76.3301	None	13.7632	17.6047	18.9256	100.1892	0.1736	17.8023	None	1.8743	""	""	81691000
1724	BET02050	2024-05-12T23:10:00	""	""	19.5524	76.211	None	17.2084	22.3069	23.567	53.6503	9.0305	4.83	None	1.9486	""	""	81691000
1725	BET02050	2024-05-12T23:20:00	""	""	19.2111	75.8713	None	17.6567	23.615	24.0427	47.2186	0.0278	9.1026	None	1.6332	""	""	81691000
1726	BET02050	2024-05-12T23:30:00	""	""	18.8782	74.4831	None	13.7338	18	18.4266	39.263	0.0138	10.9393	None	1.5328	""	""	81691000
1727	BET02050	2024-05-12T23:40:00	""	""	18.78	73.9185	None	13.4715	17.0951	17.7958	41.8002	0.9491	8.7859	None	1.6522	""	""	81691000
1728	BET02050	2024-05-12T23:50:00	""	""	18.7909	74.6915	None	14.6034	18.9367	20.1765	33.9226	5.8113	8.1549	None	1.6502	""	""	81691000
1729	BET02050	2024-05-13T00:00:00	""	""	18.8181	74.3377	None	14.3728	18.8225	19.9894	23.9365	10.2029	8.6827	None	1.6668	""	""	81691000
1730	BET02050	2024-05-13T00:10:00	""	""	18.7757	73.785	None	14.1023	18.9933	19.3876	12.2002	17.6486	8.79	None	1.6747	""	""	81691000
1731	BET02050	2024-05-13T00:20:00	""	""	18.4794	73.239	None	12.742	16.9259	17.295	12.987	18.4123	8.6372	None	1.6139	""	""	81691000
1732	BET02050	2024-05-13T00:30:00	""	""	18.6275	73.131	None	12.1849	16.2775	17.1245	16.2409	19.1556	8.1684	None	1.6304	""	""	81691000
1733	BET02050	2024-05-13T00:40:00	""	""	18.6469	73.282	None	12.6308	16.855	17.3249	13.8172	22.3415	6.9905	None	1.6773	""	""	81691000
1734	BET02050	2024-05-13T00:50:00	""	""	18.6675	73.3853	None	12.6258	16.9282	17.6108	14.2873	22.1669	6.7353	None	1.5784	""	""	81691000
1735	BET02050	2024-05-13T01:00:00	""	""	18.5665	72.9283	None	None	None	None	23.5727	9.3096	8.1518	None	1.5864	""	""	81691000
1736	BET02050	2024-05-13T01:10:00	""	""	18.5301	73.2371	None	13.5539	17.9243	18.9331	21.0339	11.453	7.4891	None	1.4917	""	""	81691000
1737	BET02050	2024-05-13T01:20:00	""	""	18.52	73.3371	None	14.2193	18.037	20.2013	19.7045	14.8891	7.0794	None	1.5103	""	""	81691000
1738	BET02050	2024-05-13T01:30:00	""	""	18.4259	73.3716	None	14.47	18.9451	19.8575	20.7519	12.0411	7.9665	None	1.486	""	""	81691000
1739	BET02050	2024-05-13T01:40:00	""	""	18.2324	73.5142	None	13.2897	17.4666	18.7503	19.9962	9.8147	7.554	None	1.4873	""	""	81691000
1740	BET02050	2024-05-13T01:50:00	""	""	17.9898	73.6714	None	12.7901	17.1218	17.2368	23.1513	7.9195	7.6458	None	1.4774	""	""	81691000
1741	BET02050	2024-05-13T02:00:00	""	""	17.8186	74.1246	None	13.5079	17.2869	17.5482	27.4816	2.3493	7.8051	None	1.4145	""	""	81691000
1742	BET02050	2024-05-13T02:10:00	""	""	17.6071	74.8334	None	13.3401	17.884	19.1873	23.61	5.3196	7.9857	None	1.402	""	""	81691000
1743	BET02050	2024-05-13T02:20:00	""	""	17.5282	75.8242	None	14.57	19.0474	19.5572	21.3255	9.3603	7.5339	None	1.4247	""	""	81691000
1744	BET02050	2024-05-13T02:30:00	""	""	17.5194	76.7964	None	14.2851	18.8055	19.7281	20.3843	8.1827	7.2313	None	1.4178	""	""	81691000
1745	BET02050	2024-05-13T02:40:00	""	""	17.3213	77.2291	None	15.5721	21.2716	21.9595	19.6901	12.0152	7.9504	None	1.387	""	""	81691000
1746	BET02050	2024-05-13T02:50:00	""	""	17.1654	77.4394	None	17.1172	23.3642	24.6988	17.9982	14.2711	8.0479	None	1.4221	""	""	81691000
1747	BET02050	2024-05-13T03:00:00	""	""	16.9057	78.0023	None	18.2534	25.3895	26.5632	23.4959	7.7421	8.9772	None	1.3409	""	""	81691000
1748	BET02050	2024-05-13T03:10:00	""	""	16.698	78.4638	None	18.5825	25.4086	26.5162	20.5361	8.3068	8.7595	None	1.3565	""	""	81691000
1749	BET02050	2024-05-13T03:20:00	""	""	16.7235	78.7117	None	17.835	24.1151	25.573	18.9383	8.0353	9.6907	None	1.3554	""	""	81691000
1750	BET02050	2024-05-13T03:30:00	""	""	16.7337	79.172	None	18.3201	24.9409	25.8733	24.2584	1.8956	11.2063	None	1.3788	""	""	81691000
1751	BET02050	2024-05-13T03:40:00	""	""	16.7322	79.5898	None	18.8459	25.4043	27.1858	28.8331	0.009	11.294	None	1.3979	""	""	81691000
1752	BET02050	2024-05-13T03:50:00	""	""	16.565	80.0499	None	19.41	26.8168	27.3806	32.8196	0.2118	13.2861	None	1.376	""	""	81691000
1753	BET02050	2024-05-13T04:00:00	""	""	16.4435	79.9598	None	19.5978	27.8427	29.7953	33.644	0.1431	13.4626	None	1.3679	""	""	81691000
1754	BET02050	2024-05-13T04:10:00	""	""	16.4484	80.3285	None	19.917	29.0484	31.1129	34.333	0.1726	15.7115	None	1.3853	""	""	81691000
1755	BET02050	2024-05-13T04:20:00	""	""	16.3545	80.5521	None	20.2932	29.1109	31.2039	36.9059	0.1272	19.5024	None	1.5085	""	""	81691000
1756	BET02050	2024-05-13T04:30:00	""	""	16.3991	80.921	None	20.2989	29.8042	32.6861	34.7914	0.206	19.8755	None	1.4546	""	""	81691000
1757	BET02050	2024-05-13T04:40:00	""	""	16.3986	81.7055	None	20.9025	30.6169	33.2711	36.6169	0.1353	19.5014	None	1.3633	""	""	81691000
1758	BET02050	2024-05-13T04:50:00	""	""	16.5603	82.1119	None	20.9685	30.4568	34.0582	40.1815	0.199	22.3116	None	1.4521	""	""	81691000
1759	BET02050	2024-05-13T05:00:00	""	""	16.6297	81.8159	None	20.8412	30.1223	33.4495	38.6495	0.1043	25.3969	None	1.5225	""	""	81691000
1760	BET02050	2024-05-13T05:10:00	""	""	16.7861	81.8998	None	21.4559	31.342	35.0839	38.8979	0.0911	27.2299	None	1.5205	""	""	81691000
1761	BET02050	2024-05-13T05:20:00	""	""	16.9907	81.6685	None	22.0033	31.5812	35.4754	40.0539	0.2337	35.2141	None	2.0478	""	""	81691000
1762	BET02050	2024-05-13T05:30:00	""	""	17.1272	80.6733	None	21.2408	30.0656	34.2772	38.4208	0.0635	42.9585	None	2.4494	""	""	81691000
1763	BET02050	2024-05-13T05:40:00	""	""	17.1253	79.8626	None	20.3368	29.4324	31.6308	40.1079	0.012	45.3822	None	2.8493	""	""	81691000
1764	BET02050	2024-05-13T05:50:00	""	""	17.1956	79.3003	None	19.8662	28.3937	30.8895	40.692	0.1093	49.7218	None	2.8765	""	""	81691000
1765	BET02050	2024-05-13T06:00:00	""	""	17.4223	78.643	None	19.8318	28.6103	30.597	39.0647	0.0328	43.9844	None	2.3139	""	""	81691000
1766	BET02050	2024-05-13T06:10:00	""	""	17.6472	78.2056	None	19.6426	28.3872	29.4393	40.2493	0.1667	43.6851	None	2.1756	""	""	81691000
1767	BET02050	2024-05-13T06:20:00	""	""	17.888	77.4637	None	19.8262	28.0696	30.0637	43.9841	0.0979	50.3596	None	2.9578	""	""	81691000
1768	BET02050	2024-05-13T06:30:00	""	""	18.263	76.5694	None	20.445	29.0119	30.8259	40.5141	0.0771	40.9853	None	1.9609	""	""	81691000
1769	BET02050	2024-05-13T06:40:00	""	""	18.5885	76.0271	None	20.8882	29.3743	30.7753	44.9649	0.2318	41.1089	None	1.7739	""	""	81691000
1770	BET02050	2024-05-13T06:50:00	""	""	19.5344	76.4061	None	21.615	30.8521	34.6704	58.7836	0.0801	34.9629	None	1.6944	""	""	81691000
1771	BET02050	2024-05-13T07:00:00	""	""	19.5175	75.4217	None	18.2373	28.9999	26.777	70.9514	0.1857	34.83	None	1.6558	""	""	81691000
1772	BET02050	2024-05-13T07:10:00	""	""	19.5467	75.2549	None	19.5094	26.6765	28.6247	69.3174	0.0571	24.8639	None	1.6245	""	""	81691000
1773	BET02050	2024-05-13T07:20:00	""	""	19.4636	76.4222	None	15.6265	20.4086	21.9672	48.9089	17.0266	12.2789	None	1.8833	""	""	81691000
1774	BET02050	2024-05-13T07:30:00	""	""	19.4252	76.9219	None	14.034	19.6928	19.6938	31.9499	36.0761	9.6194	None	1.963	""	""	81691000
1775	BET02050	2024-05-13T07:40:00	""	""	19.4338	76.1415	None	13.6901	17.7615	18.9616	25.7648	39.9241	12.1402	None	1.9638	""	""	81691000
1776	BET02050	2024-05-13T07:50:00	""	""	19.6639	74.0782	None	10.6444	17.3853	18.3354	22.8937	31.4182	9.876	None	1.9624	""	""	81691000
1777	BET02050	2024-05-13T08:00:00	""	""	20.3387	74.2243	None	14.0079	18.2148	19.0562	47.5175	7.9458	18.2763	None	1.9248	""	""	81691000
1778	BET02050	2024-05-13T08:10:00	""	""	20.6478	72.0196	None	12.6382	15.9567	16.8729	56.6083	2.3439	24.5906	None	1.9647	""	""	81691000
1779	BET02050	2024-05-13T08:20:00	""	""	20.8261	66.6814	None	8.1393	12.5065	13.2479	21.5411	16.3625	19.5748	None	1.9813	""	""	81691000
1780	BET02050	2024-05-13T08:30:00	""	""	21.2662	62.3888	None	7.2603	9.6853	10.6653	34.0555	9.5179	15.5022	None	2.0203	""	""	81691000
1781	BET02050	2024-05-13T08:40:00	""	""	21.8193	58.186	None	6.522	7.8732	8.0589	11.2401	31.9654	12.1965	None	2.3901	""	""	81691000
1782	BET02050	2024-05-13T08:50:00	""	""	21.9339	57.9249	None	6	6.9126	6.9462	18.5434	44.4034	11.3294	None	2.7614	""	""	81691000
1783	BET02050	2024-05-13T09:00:00	""	""	21.8184	56.3303	None	6.4275	7.4812	8.1925	15.9825	40.6125	11.2446	None	2.8197	""	""	81691000
1784	BET02050	2024-05-13T09:10:00	""	""	22.2611	56.4762	None	7.0633	8.956	9.5916	10.6632	52.7772	10.6277	None	3.0419	""	""	81691000
1785	BET02050	2024-05-13T09:20:00	""	""	21.958	58.0265	None	7.2606	9.8078	10.2285	24.3027	56.701	10.2672	None	2.8497	""	""	81691000
1786	BET02050	2024-05-13T09:30:00	""	""	22.3532	58.1604	None	9.3499	11.8891	12.4912	42.6098	26.0129	10.8213	None	2.8405	""	""	81691000
1787	BET02050	2024-05-13T09:40:00	""	""	22.1983	56.4525	None	8.0416	10.5893	10.8979	20.9493	51.0077	9.936	None	2.8497	""	""	81691000
1788	BET02050	2024-05-13T09:50:00	""	""	23.0198	59.2952	None	10.88	13.8481	15.4008	32.0632	51.6539	9.2842	None	2.735	""	""	81691000
1789	BET02050	2024-05-13T10:00:00	""	""	23.0305	59.2861	None	10.3127	13.095	14.0847	38.6631	28.544	9.6167	None	2.5264	""	""	81691000
1790	BET02050	2024-05-13T10:10:00	""	""	22.948	57.0128	None	8.6629	11.0574	11.2399	36.9325	27.8589	10.3477	None	2.9822	""	""	81691000
1791	BET02050	2024-05-13T10:20:00	""	""	23.0911	57.4054	None	7.7229	10.374	11.6465	30.4344	55.5778	9.0778	None	2.9231	""	""	81691000
1792	BET02050	2024-05-13T10:30:00	""	""	23.2643	56.3984	None	8.6121	11.4005	10.8748	37.2599	22.1962	11.7266	None	3.1685	""	""	81691000
1793	BET02050	2024-05-13T10:40:00	""	""	23.5731	54.9256	None	8.8396	10.5935	10.7068	26.661	37.5242	12.8545	None	3.3486	""	""	81691000
1794	BET02050	2024-05-13T10:50:00	""	""	24.1344	53.3331	None	8.1304	11.4403	12.9862	32.1996	50.1981	10.3399	None	3.4864	""	""	81691000
1795	BET02050	2024-05-13T11:00:00	""	""	24.7208	53.5668	None	8.7098	11.1248	12.3561	63.8002	9.1522	39.6263	None	3.2421	""	""	81691000
1796	BET02050	2024-05-13T11:10:00	""	""	24.7049	50.3709	None	8.6276	10.0549	10.1615	25.6916	28.7867	13.5123	None	3.661	""	""	81691000
1797	BET02050	2024-05-13T11:20:00	""	""	25.5028	47.9317	None	6.4683	7.9279	8.2601	11.8706	51.3494	9.5873	None	3.8468	""	""	81691000
1798	BET02050	2024-05-13T11:30:00	""	""	26.1211	47.0384	None	7.7586	9.42	10.4751	15.9758	53.3761	9.25	None	3.9879	""	""	81691000
1799	BET02050	2024-05-13T11:40:00	""	""	27.0169	47.6165	None	6.677	8.2115	8.9907	21.5338	51.7318	8.0343	None	4.0831	""	""	81691000
1800	BET02050	2024-05-13T11:50:00	""	""	26.9029	46.987	None	7.3461	8.8679	9.0298	24.1152	43.4289	8.8273	None	4.0114	""	""	81691000
1801	BET02050	2024-05-13T12:00:00	""	""	26.3112	43.8019	None	3.9991	5.434	5.7031	12.7988	58.1933	8.2998	None	4.0602	""	""	81691000
1802	BET02050	2024-05-13T12:10:00	""	""	25.9946	47.5334	None	6	7.1021	7.3495	24.3481	79.4786	6.0776	None	3.7253	""	""	81691000
1803	BET02050	2024-05-13T12:20:00	""	""	26.4001	47.8585	None	6.4662	7.8978	7.9789	20.5194	63.765	6.7777	None	3.767	""	""	81691000
1804	BET02050	2024-05-13T12:30:00	""	""	27.1366	49.2975	None	7.5591	9.4457	9.1432	30.8831	50.9854	6.1066	None	3.8195	""	""	81691000
1805	BET02050	2024-05-13T12:40:00	""	""	27.1318	49.3471	None	7.9761	9.7803	10.2056	25.444	57.8561	6.5066	None	3.7333	""	""	81691000
1806	BET02050	2024-05-13T12:50:00	""	""	26.2693	49.6701	None	7.9999	9.9669	10.1342	12.0974	54.3636	7.507	None	3.5731	""	""	81691000
1807	BET02050	2024-05-13T13:00:00	""	""	26.4537	49.6616	None	7.4273	9.3206	10.0397	12.0385	54.8652	7.5443	None	3.6615	""	""	81691000
1808	BET02050	2024-05-13T13:10:00	""	""	25.0789	46.5596	None	6.0106	7.311	7.8637	9.8991	65.7005	6.908	None	3.5557	""	""	81691000
1809	BET02050	2024-05-13T13:20:00	""	""	24.7097	50.2632	None	5.873	6.8516	6.8245	18.0172	70.5769	6.8004	None	3.3441	""	""	81691000
1810	BET02050	2024-05-13T13:30:00	""	""	26.7825	48.855	None	5.814	7.1972	7.4412	17.8747	50.6906	6.7828	None	3.8067	""	""	81691000
1811	BET02050	2024-05-13T13:40:00	""	""	27.1624	47.1659	None	5.3012	6.124	6.695	17.1237	55.074	6.4705	None	3.8998	""	""	81691000
1812	BET02050	2024-05-13T13:50:00	""	""	27.0002	46.1123	None	5	6.4008	6.5891	21.3035	52.2641	6.4664	None	3.8862	""	""	81691000
1813	BET02050	2024-05-13T14:00:00	""	""	25.7407	47.9952	None	4.9105	6.4167	6.6912	25.7851	66.4191	6.4838	None	3.5161	""	""	81691000
1814	BET02050	2024-05-13T14:10:00	""	""	26.5476	51.3008	None	6.2386	7.913	8.2578	30.7512	56.9434	5.6029	None	3.5971	""	""	81691000
1815	BET02050	2024-05-13T14:20:00	""	""	26.3175	52.177	None	7.3951	9.0969	9.273	26.3006	64.5907	5.3208	None	3.5531	""	""	81691000
1816	BET02050	2024-05-13T14:30:00	""	""	25.9901	51.6907	None	5.3252	6.4371	6.9231	25.1374	62.4891	6.0492	None	3.5232	""	""	81691000
1817	BET02050	2024-05-13T14:40:00	""	""	26.3949	52.6467	None	6.4055	8.3788	8.5482	23.9518	62.8874	5.6827	None	3.5551	""	""	81691000
1818	BET02050	2024-05-13T14:50:00	""	""	25.7146	51.2678	None	6.0647	7.4142	7.8023	26.9908	63.086	6.0702	None	3.5126	""	""	81691000
1819	BET02050	2024-05-13T15:00:00	""	""	26.815	52.9621	None	7.1183	9.1056	9.3747	31.6364	63.1582	5.2341	None	3.5818	""	""	81691000
1820	BET02050	2024-05-13T15:10:00	""	""	25.5143	53.0355	None	7.7851	9.1167	9.0718	24.5377	56.4212	6.3174	None	3.3663	""	""	81691000
1821	BET02050	2024-05-13T15:20:00	""	""	25.8141	52.4979	None	7.4678	8.6346	9.0484	22.9894	56.4418	6.5522	None	3.4989	""	""	81691000
1822	BET02050	2024-05-13T15:30:00	""	""	25.1931	53.1308	None	6.95	9.0656	9.1705	26.4007	54.7412	6.8995	None	3.3367	""	""	81691000
1823	BET02050	2024-05-13T15:40:00	""	""	25.1439	53.1155	None	7.6654	9.511	9.7628	25.6581	35.2878	7.2241	None	3.3937	""	""	81691000
1824	BET02050	2024-05-13T15:50:00	""	""	23.7685	51.0623	None	6.9377	9.1753	9.5361	12.7104	51.7925	7.9091	None	2.9274	""	""	81691000
1825	BET02050	2024-05-13T16:00:00	""	""	23.6777	49.9727	None	5.7295	7.2678	7.7309	15.2383	53.3086	8.028	None	3.055	""	""	81691000
1826	BET02050	2024-05-13T16:10:00	""	""	23.1419	49.5258	None	5.4581	7.4571	7.7403	8.7577	47.4332	8.4588	None	3.0607	""	""	81691000
1827	BET02050	2024-05-13T16:20:00	""	""	23.6117	52.6717	None	6.5834	8.3656	8.5248	33.7202	50.5422	6.8704	None	3.2035	""	""	81691000
1828	BET02050	2024-05-13T16:30:00	""	""	23.3225	51.8056	None	8.1698	10.4003	10.8975	17.1792	38.5486	8.2258	None	3.0868	""	""	81691000
1829	BET02050	2024-05-13T16:40:00	""	""	23.696	50.0402	None	6.9937	8.7178	8.8554	41.2317	21.8828	8.7147	None	3.2709	""	""	81691000
1830	BET02050	2024-05-13T16:50:00	""	""	23.4674	53.9062	None	9.6073	11.8466	12.0649	49.608	35.4066	7.296	None	3.1195	""	""	81691000
1831	BET02050	2024-05-13T17:00:00	""	""	23.1	53.6269	None	8.9166	11.2069	12.2188	32.1429	49.5672	7.3912	None	3.0304	""	""	81691000
1832	BET02050	2024-05-13T17:10:00	""	""	23.1741	54.5697	None	9.8496	12.5544	13.0308	49.9145	35.1192	7.0394	None	3.0067	""	""	81691000
1833	BET02050	2024-05-13T17:20:00	""	""	22.8691	55.5547	None	9.4994	11.8417	12.4928	43.9777	48.6959	6.8719	None	2.9249	""	""	81691000
1834	BET02050	2024-05-13T17:30:00	""	""	22.3659	57.3443	None	10.8133	13.8611	14.2967	58.4424	36.6252	6.7505	None	2.3006	""	""	81691000
1835	BET02050	2024-05-13T17:40:00	""	""	22.1398	60.0484	None	11.4061	14.0258	14.6853	59.9762	51.9896	6.2168	None	2.1912	""	""	81691000
1836	BET02050	2024-05-13T17:50:00	""	""	21.7689	63.1706	None	13.0199	15.7573	16.4173	56.0253	64.1432	6.3134	None	2.0739	""	""	81691000
1837	BET02050	2024-05-13T18:00:00	""	""	21.5181	66.2982	None	10.4976	13.3871	13.879	47.7066	76.5239	6.0974	None	2.043	""	""	81691000
1838	BET02050	2024-05-13T18:10:00	""	""	21.2186	68.3231	None	10.7331	12.1932	13.6727	47.45	74.9791	5.9891	None	2.0264	""	""	81691000
1839	BET02050	2024-05-13T18:20:00	""	""	20.9993	70.8043	None	10.8052	13.2022	13.7803	74.8675	42.1268	4.9352	None	2.0027	""	""	81691000
1840	BET02050	2024-05-13T18:30:00	""	""	20.8453	72.3653	None	16.9843	21.1736	21.3628	61.1083	38.9008	2.9877	None	2.0015	""	""	81691000
1841	BET02050	2024-05-13T18:40:00	""	""	20.7239	73.7885	None	15.2077	18.5819	18.228	61.2577	44.0808	3.1114	None	1.9891	""	""	81691000
1842	BET02050	2024-05-13T18:50:00	""	""	20.7852	74.7009	None	12.3031	16.5284	17.0806	44.777	47.7385	2.8184	None	1.9949	""	""	81691000
1843	BET02050	2024-05-13T19:00:00	""	""	20.7751	75.8638	None	13.0435	16.8621	17.5425	34.8148	63.9508	4.4024	None	2.0022	""	""	81691000
1844	BET02050	2024-05-13T19:10:00	""	""	20.5249	76.4435	None	12.5898	16.7834	17.2192	34.1911	52.6182	1.4346	None	1.9967	""	""	81691000
1845	BET02050	2024-05-13T19:20:00	""	""	20.564	77.2027	None	12.5964	16.0027	16.9826	26.4331	51.1643	2.0994	None	1.9951	""	""	81691000
1846	BET02050	2024-05-13T19:30:00	""	""	20.4273	77.3041	None	11	15.0915	16.2399	22.6489	67.1563	1.2534	None	1.9961	""	""	81691000
1847	BET02050	2024-05-13T19:40:00	""	""	20.3632	77.8334	None	12.4837	16.2464	16.8075	22.0338	69.3106	1.2057	None	1.9967	""	""	81691000
1848	BET02050	2024-05-13T19:50:00	""	""	20.3227	78.353	None	11.7393	15.4567	16.1238	17.7084	71.6861	1.8945	None	1.9969	""	""	81691000
1849	BET02050	2024-05-13T20:00:00	""	""	20.3079	78.3313	None	11.4553	15.5712	15.7325	20.0432	57.7193	2.4177	None	1.9896	""	""	81691000
1850	BET02050	2024-05-13T20:10:00	""	""	20.4242	78.1035	None	12.9671	16.0817	16.24	19.8682	59.9267	3.4139	None	1.9833	""	""	81691000
1851	BET02050	2024-05-13T20:20:00	""	""	20.3301	77.6279	None	11.5688	15.8	16.5969	34.1864	47.5232	2.7144	None	1.9818	""	""	81691000
1852	BET02050	2024-05-13T20:30:00	""	""	20.2958	78.0639	None	15.2684	19.0624	19.8799	74.4966	1.7364	3.1293	None	1.9579	""	""	81691000
1853	BET02050	2024-05-13T20:40:00	""	""	20.2255	78.8555	None	15.1067	18.2651	18.9048	65.5052	18.185	3.217	None	1.968	""	""	81691000
1854	BET02050	2024-05-13T20:50:00	""	""	20.1057	79.783	None	15.7397	19.848	20.826	47.2048	30.2699	3.0734	None	1.9784	""	""	81691000
1855	BET02050	2024-05-13T21:00:00	""	""	20.0528	80.2606	None	13.5552	17.7751	18.7493	24.5879	49.6392	3.2503	None	1.986	""	""	81691000
1856	BET02050	2024-05-13T21:10:00	""	""	19.9969	80.4843	None	14.3836	18.8979	19.5995	22.2083	60.4152	3.6897	None	1.9919	""	""	81691000
1857	BET02050	2024-05-13T21:20:00	""	""	19.9268	81.5647	None	16.9729	22.2473	23.5349	27.9744	44.3929	5.856	None	1.981	""	""	81691000
1858	BET02050	2024-05-13T21:30:00	""	""	19.9264	82.1566	None	15.3362	19.8875	21.0836	31.6067	42.1558	4.484	None	1.9771	""	""	81691000
1859	BET02050	2024-05-13T21:40:00	""	""	19.9579	82.6515	None	16.1593	21.4001	22.2822	30.4285	52.4831	3.8121	None	1.9903	""	""	81691000
1860	BET02050	2024-05-13T21:50:00	""	""	19.8337	83.599	None	14.6503	18.3493	19.6994	30.1509	47.8838	4.816	None	1.9907	""	""	81691000
1861	BET02050	2024-05-13T22:00:00	""	""	19.7338	83.8562	None	12.3316	15.5279	16.9979	24.442	49.9299	6.0287	None	1.9864	""	""	81691000
1862	BET02050	2024-05-13T22:10:00	""	""	19.669	84.2215	None	13.9928	18.2438	18.7327	17.0315	59.6655	5.1727	None	1.9869	""	""	81691000
1863	BET02050	2024-05-13T22:20:00	""	""	19.6394	85.3098	None	14.5808	19.4413	20.3904	10.2069	60.7044	5.835	None	1.9109	""	""	81691000
1864	BET02050	2024-05-13T22:30:00	""	""	19.6454	86.0386	None	13.3264	17.6873	19.2443	6.8111	71.5159	5.7471	None	1.931	""	""	81691000
1865	BET02050	2024-05-13T22:40:00	""	""	19.7186	86.7756	None	13.6435	17.2825	18.4121	5.7989	54.4531	7.0196	None	1.8446	""	""	81691000
1866	BET02050	2024-05-13T22:50:00	""	""	19.6671	86.5693	None	13.4186	17.5419	17.8612	16.8589	51.5761	6.4372	None	1.8419	""	""	81691000
1867	BET02050	2024-05-13T23:00:00	""	""	19.7016	87.1856	None	15.4317	20.1752	22.3608	23.7372	44.7414	6.5672	None	1.8194	""	""	81691000
1868	BET02050	2024-05-13T23:10:00	""	""	19.6704	87.5543	None	16.4109	22.1231	23.158	18.0413	35.1988	7.6247	None	1.7912	""	""	81691000
1869	BET02050	2024-05-13T23:20:00	""	""	19.5984	87.9532	None	13.8847	18.0157	18.6291	7.4467	60.5047	7.6202	None	1.859	""	""	81691000
1870	BET02050	2024-05-13T23:30:00	""	""	19.6184	88.9513	None	13.4426	16.7285	17.8079	9.1206	64.7441	5.8728	None	1.907	""	""	81691000
1871	BET02050	2024-05-13T23:40:00	""	""	19.4112	89.8091	None	13.0323	16.5903	17.8453	9.0733	63.8475	7.5122	None	1.8958	""	""	81691000
1872	BET02050	2024-05-13T23:50:00	""	""	19.4425	90.7838	None	13.1389	16.6556	17.4943	12.9886	51.7589	7.7069	None	1.8067	""	""	81691000
1873	BET02050	2024-05-14T00:00:00	""	""	19.4208	91.3496	None	15.2603	19.3302	20.1892	18.6482	44.6193	8.293	None	1.7791	""	""	81691000
1874	BET02050	2024-05-14T00:10:00	""	""	19.3803	92.2406	None	16.5602	21.2912	23.0962	17.4876	62.7588	6.9687	None	1.7922	""	""	81691000
1875	BET02050	2024-05-14T00:20:00	""	""	19.3404	93.2813	None	14.8504	18.9168	19.2186	20.3335	34.9664	9.5013	None	1.7057	""	""	81691000
1876	BET02050	2024-05-14T00:30:00	""	""	19.3161	93.9086	None	15.7997	20.9213	21.2899	23.4024	41.4242	8.3033	None	1.6907	""	""	81691000
1877	BET02050	2024-05-14T00:40:00	""	""	19.3365	94.7264	None	15	19.704	20.6618	20.1586	52.7419	8.2208	None	1.7385	""	""	81691000
1878	BET02050	2024-05-14T00:50:00	""	""	19.2996	94.9508	None	14.9453	18.9535	19.7721	15.2772	43.1737	9.4839	None	1.6726	""	""	81691000
1879	BET02050	2024-05-14T01:00:00	""	""	19.291	95.2704	None	None	None	None	21.8047	48.6251	8.8651	None	1.6984	""	""	81691000
1880	BET02050	2024-05-14T01:10:00	""	""	19.3203	96.0767	None	17.8568	23.1948	23.9113	20.4252	43.6828	8.8683	None	1.6339	""	""	81691000
1881	BET02050	2024-05-14T01:20:00	""	""	19.272	96.2525	None	16.621	20.7811	22.5121	17.7641	46.3187	9.2016	None	1.6882	""	""	81691000
1882	BET02050	2024-05-14T01:30:00	""	""	19.1849	96.6321	None	14.8871	18.7046	19.4435	18.2573	48.9074	10.3789	None	1.605	""	""	81691000
1883	BET02050	2024-05-14T01:40:00	""	""	19.1801	97.7374	None	13.0364	17.3303	18.3693	12.2874	57.6126	9.9413	None	1.6899	""	""	81691000
1884	BET02050	2024-05-14T01:50:00	""	""	19.1703	98.9997	None	13.5717	16.995	17.2828	10.5691	60.1924	9.5813	None	1.6624	""	""	81691000
1885	BET02050	2024-05-14T02:00:00	""	""	19.152	99.7199	None	13.6511	17.3263	18.7323	11.6061	63.5479	9.8126	None	1.5568	""	""	81691000
1886	BET02050	2024-05-14T02:10:00	""	""	19.1141	100	None	13.0672	17.0766	18.2767	12.9647	53.7438	10.4707	None	1.5241	""	""	81691000
1887	BET02050	2024-05-14T02:20:00	""	""	19.1067	100	None	14.1905	18.5501	19.2904	12.3821	47.1165	10.7625	None	1.415	""	""	81691000
1888	BET02050	2024-05-14T02:30:00	""	""	19.1197	100	None	14.8008	19.0964	20.1023	14.3789	42.595	11.0412	None	1.4651	""	""	81691000
1889	BET02050	2024-05-14T02:40:00	""	""	19.1207	100	None	16.9567	22.1909	23.5545	23.2572	43.9994	10.846	None	1.3916	""	""	81691000
1890	BET02050	2024-05-14T02:50:00	""	""	19.0379	100	None	19	26.2103	27.3833	19.8487	35.3197	12.4548	None	1.2709	""	""	81691000
1891	BET02050	2024-05-14T03:00:00	""	""	19.0491	100	None	19.0792	26.3126	27.4598	16.0766	54.5185	10.2686	None	1.5059	""	""	81691000
1892	BET02050	2024-05-14T03:10:00	""	""	18.9734	100	None	19.9452	28.4959	30.7789	17.4727	50.2715	9.9264	None	1.3654	""	""	81691000
1893	BET02050	2024-05-14T03:20:00	""	""	19.0068	100	None	18.9958	25.9335	25.9597	19.6481	34.0493	10.0085	None	1.3164	""	""	81691000
1894	BET02050	2024-05-14T03:30:00	""	""	19.0431	100	None	17.2921	23.8342	26.6203	21.7424	44.5723	11.8515	None	1.3854	""	""	81691000
1895	BET02050	2024-05-14T03:40:00	""	""	18.9066	100	None	18.3081	25.0654	26.7929	17.2702	39.9215	11.4152	None	1.318	""	""	81691000
1896	BET02050	2024-05-14T03:50:00	""	""	18.9182	100	None	19.2541	27.19	27.981	14.9678	51.045	10.7293	None	1.3898	""	""	81691000
1897	BET02050	2024-05-14T04:00:00	""	""	18.8136	100	None	19.0882	26.6191	28.3193	16.1723	46.7064	10.2022	None	1.4035	""	""	81691000
1898	BET02050	2024-05-14T04:10:00	""	""	18.887	100	None	19.9424	28.7976	30.2878	16.329	52.8855	10.5911	None	1.3609	""	""	81691000
1899	BET02050	2024-05-14T04:20:00	""	""	18.8601	100	None	18.5252	28.2475	28.1632	14.5839	39.4798	12.0657	None	1.3007	""	""	81691000
1900	BET02050	2024-05-14T04:30:00	""	""	18.8714	100	None	19.4757	28.1833	29.4876	20.948	30.2488	14.195	None	1.1932	""	""	81691000
1901	BET02050	2024-05-14T04:40:00	""	""	18.9998	100	None	19.0288	25.6421	28.2027	50.2628	0.0332	23.6972	None	1.1042	""	""	81691000
1902	BET02050	2024-05-14T04:50:00	""	""	18.98	100	None	17.6967	24.1169	24.8072	29.4241	23.7654	13.542	None	1.1803	""	""	81691000
1903	BET02050	2024-05-14T05:00:00	""	""	18.8877	100	None	18.3705	25.9982	26.0209	24.8836	28.6713	11.8774	None	1.2576	""	""	81691000
1904	BET02050	2024-05-14T05:10:00	""	""	18.8623	100	None	19.5945	28.1871	28.9863	31.2072	10.4849	12.8151	None	1.1174	""	""	81691000
1905	BET02050	2024-05-14T05:20:00	""	""	18.797	None	None	20.409	27.5877	28.7539	None	None	None	None	None	""	""	81691000
1906	BET02050	2024-05-14T05:30:00	""	""	18.8656	2.2364	None	20.8074	29.4853	32.2165	50.839	38.4365	0.1513	None	1	""	""	81691000
1907	BET02050	2024-05-14T05:40:00	""	""	18.9282	5.7339	None	25.0001	36.9636	45.1678	119.8419	9.6532	7.0683	None	1	""	""	81691000
1908	BET02050	2024-05-14T05:50:00	""	""	18.9094	6.1652	None	27.7513	39.7538	46.9575	133.9194	7.8332	18.9609	None	1	""	""	81691000
1909	BET02050	2024-05-14T06:00:00	""	""	19.02	7.7165	None	33.8793	48	60.5699	141.7656	0.0097	33.4599	None	1.0001	""	""	81691000
1910	BET02050	2024-05-14T06:10:00	""	""	19.1847	7.1483	None	29.0442	41.5277	50.5934	55.4833	33.655	2.1384	None	1.0001	""	""	81691000
1911	BET02050	2024-05-14T06:20:00	""	""	19.3287	8.1336	None	22.5099	32.5096	35.121	50.784	36.2322	6.6624	None	1.0002	""	""	81691000
1912	BET02050	2024-05-14T06:30:00	""	""	19.2596	4.9371	None	22.6064	31.983	35.4976	61.3581	28.0827	4.8013	None	1	""	""	81691000
1913	BET02050	2024-05-14T06:40:00	""	""	19.3667	5.6123	None	23.2854	34.1664	38.5769	100.1549	26.7865	12.2216	None	1	""	""	81691000
1914	BET02050	2024-05-14T06:50:00	""	""	19.6302	6.5058	None	21.9834	30.6755	33.9031	104.3251	16.3178	8.8732	None	1.0001	""	""	81691000
1915	BET02050	2024-05-14T07:00:00	""	""	19.6147	4.7426	None	21.8351	31.1319	31.996	57.075	27.5599	13.9525	None	1.0001	""	""	81691000
1916	BET02050	2024-05-14T07:10:00	""	""	19.7528	3.2028	None	21.9699	31.4228	34.745	54.1	17.8306	1.3454	None	1	""	""	81691000
1917	BET02050	2024-05-14T07:20:00	""	""	19.9359	3.1008	None	21	30.7955	33.2028	52.5818	26.3988	6.2666	None	1.0001	""	""	81691000
1918	BET02050	2024-05-14T07:30:00	""	""	20.0125	0.8781	None	20.0045	26.9493	29.0562	30.2154	69.3598	0.2105	None	1.0003	""	""	81691000
1919	BET02050	2024-05-14T07:40:00	""	""	19.9546	None	None	19.4397	26.9491	28.1257	None	None	None	None	None	""	""	81691000
1920	BET02050	2024-05-14T07:50:00	""	""	19.6994	0.8649	None	18.859	25.8349	26.3715	40.8171	69.2408	0.1315	None	1.0004	""	""	81691000
1921	BET02050	2024-05-14T08:00:00	""	""	19.474	4.7635	None	19.9345	28.7292	30.6146	44.8021	54.4229	0.0341	None	1.0001	""	""	81691000
1922	BET02050	2024-05-14T08:10:00	""	""	19.3105	7.4266	None	20.9683	29.8313	31.5496	43.5919	50.1053	0.2152	None	1.0003	""	""	81691000
1923	BET02050	2024-05-14T08:20:00	""	""	19.3136	10.0387	None	22.3663	32.4016	37.9242	39.1032	68.9024	0.154	None	1.0019	""	""	81691000
1924	BET02050	2024-05-14T08:30:00	""	""	18.9786	11.4461	None	21.6666	31.0134	35.0383	60.1923	41.4331	0.1699	None	1.0005	""	""	81691000
1925	BET02050	2024-05-14T08:40:00	""	""	18.8407	12.3392	None	22.0128	32.1854	35.5108	35.3624	57.084	0.1177	None	1.0023	""	""	81691000
1926	BET02050	2024-05-14T08:50:00	""	""	18.5782	11.049	None	17.4808	23.6555	25.2718	44.7868	47.6978	1.1886	None	1.0005	""	""	81691000
1927	BET02050	2024-05-14T09:00:00	""	""	18.3185	9.9877	None	17.062	23.3482	24.1615	42.4153	41.674	0.2397	None	1.0002	""	""	81691000
1928	BET02050	2024-05-14T09:10:00	""	""	18.3454	10.9147	None	17.6871	21.7864	23.7878	41.4986	47.2771	0.2328	None	1.0005	""	""	81691000
1929	BET02050	2024-05-14T09:20:00	""	""	18.5648	12.4177	None	18.004	25.2089	26.7187	49.8444	50.194	1.475	None	1.0005	""	""	81691000
1930	BET02050	2024-05-14T09:30:00	""	""	18.8808	13.1114	None	20.9258	30.2904	34.7815	46.0855	44.027	0.0408	None	1.0028	""	""	81691000
1931	BET02050	2024-05-14T09:40:00	""	""	18.8003	13.5733	None	22.9999	32.0726	38.3806	41.8834	45.6818	0.2266	None	1.0024	""	""	81691000
1932	BET02050	2024-05-14T09:50:00	""	""	18.8791	13.9552	None	22.4503	32.6645	37.2105	50.6739	35.6404	0.2018	None	1.0013	""	""	81691000
1933	BET02050	2024-05-14T10:00:00	""	""	18.9897	14.0631	None	23.5948	34.0062	40.0089	50.7248	34.5501	1.7726	None	1.0033	""	""	81691000
1934	BET02050	2024-05-14T10:10:00	""	""	19.0911	14.2801	None	22.7814	32.8293	37.5114	63.9367	36.6838	0.0948	None	1.0021	""	""	81691000
1935	BET02050	2024-05-14T10:20:00	""	""	18.9571	13.8506	None	22.9968	33.2545	37.9735	36.3749	59.8673	0.1071	None	1.0066	""	""	81691000
1936	BET02050	2024-05-14T10:30:00	""	""	19.0708	13.8058	None	21.8365	29.6728	33.9977	31.1868	65.2779	0.2236	None	1.0033	""	""	81691000
1937	BET02050	2024-05-14T10:40:00	""	""	18.8048	13.0258	None	21.275	30.3373	33.6041	24.9973	70.4812	0.2149	None	1.0036	""	""	81691000
1938	BET02050	2024-05-14T10:50:00	""	""	18.86	13.2813	None	19.1524	26.2456	26.8234	45.0067	35.0732	7.2133	None	1.0005	""	""	81691000
1939	BET02050	2024-05-14T11:00:00	""	""	18.8542	13.0585	None	19.9631	29.0663	31.3772	30.5522	52.5106	0.1931	None	1.0038	""	""	81691000
1940	BET02050	2024-05-14T11:10:00	""	""	18.3374	12.5312	None	19.7102	27.4292	28.9471	24.3862	61.3387	0.0034	None	1.0014	""	""	81691000
1941	BET02050	2024-05-14T11:20:00	""	""	16.7342	10.8384	None	11.6062	15.7623	15.7731	23.6672	50.6806	2.574	None	1	""	""	81691000
1942	BET02050	2024-05-14T11:30:00	""	""	16.3813	12.0851	None	10	13.1669	13.8016	23.7655	56.0394	0.0135	None	1	""	""	81691000
1943	BET02050	2024-05-14T11:40:00	""	""	16.2331	13.5594	None	9.1086	11.9022	13.2017	37.0069	44.3165	0.0359	None	1	""	""	81691000
1944	BET02050	2024-05-14T11:50:00	""	""	16.3097	14.6393	None	8.3701	11.5953	12.7053	31.9642	54.5334	0.0033	None	1	""	""	81691000
1945	BET02050	2024-05-14T12:00:00	""	""	16.1911	14.6977	None	6.312	8.8733	9.1338	29.1141	58.2433	0.1917	None	1	""	""	81691000
1946	BET02050	2024-05-14T12:10:00	""	""	16.1175	15.318	None	7.9545	10.1396	11.0005	32.5088	48.0259	0.0569	None	1	""	""	81691000
1947	BET02050	2024-05-14T12:20:00	""	""	16.2971	15.5088	None	7.2203	9.7644	10.3269	35.2924	57.8443	0.2079	None	1	""	""	81691000
1948	BET02050	2024-05-14T12:30:00	""	""	16.6463	15.4716	None	10.0786	13.586	14.1874	35.4598	51.0114	0.0862	None	1	""	""	81691000
1949	BET02050	2024-05-14T12:40:00	""	""	17.0962	15.1465	None	9.0985	12.0987	12.8287	29.1072	62.5889	1.2623	None	1.0001	""	""	81691000
1950	BET02050	2024-05-14T12:50:00	""	""	17.4925	13.9278	None	7.8369	10.1908	11.0602	26.1654	63.3349	1.4416	None	1.0002	""	""	81691000
1951	BET02050	2024-05-14T13:00:00	""	""	17.7858	12.0096	None	10.4649	13.6982	14.1737	22.1986	71.4437	0.1266	None	1.0002	""	""	81691000
1952	BET02050	2024-05-14T13:10:00	""	""	18.3243	11.6019	None	11.2021	15.2858	16.7553	21.7227	66.7496	0.2101	None	1.0003	""	""	81691000
1953	BET02050	2024-05-14T13:20:00	""	""	18.732	6.2233	None	12.3212	15.9803	16.2642	15.2176	72.3292	0.1051	None	1.0001	""	""	81691000
1954	BET02050	2024-05-14T13:30:00	""	""	19.6596	3.3623	None	13.6427	18.8757	20.0953	17.7614	65.4843	0.1549	None	1.0003	""	""	81691000
1955	BET02050	2024-05-14T13:40:00	""	""	20.4209	100	None	14.9868	19.8576	21.2403	0.069	39.5904	17.6976	None	1.3095	""	""	81691000
1956	BET02050	2024-05-14T13:50:00	""	""	21.9138	100	None	14.5126	19.6746	19.7319	0.2405	33.2486	20.1827	None	1.3976	""	""	81691000
1957	BET02050	2024-05-14T14:00:00	""	""	22.1893	100	None	13.0081	16.5654	17.0282	0.2002	31.8033	21.4625	None	1.2267	""	""	81691000
1958	BET02050	2024-05-14T14:10:00	""	""	23.0628	87.4617	None	10.6748	13.3697	13.6033	0.135	37.2812	13.1465	None	1.7711	""	""	81691000
1959	BET02050	2024-05-14T14:20:00	""	""	22.2389	82.4196	None	10.9296	13.287	13.578	0.0785	41.2738	12.6176	None	1.7015	""	""	81691000
1960	BET02050	2024-05-14T14:30:00	""	""	22.555	82.2165	None	10.6319	13.9027	14.3305	0.0301	26.9409	12.7858	None	1.6578	""	""	81691000
1961	BET02050	2024-05-14T14:40:00	""	""	22.5172	78.1052	None	10.8631	14.1303	14.3946	0.0992	31.5375	12.596	None	1.7789	""	""	81691000
1962	BET02050	2024-05-14T14:50:00	""	""	22.8353	73.3486	None	9.9205	12.1835	12.1254	0.0011	64.9086	10.3991	None	1.9944	""	""	81691000
1963	BET02050	2024-05-14T15:00:00	""	""	23.6258	89.8439	None	11.7697	16.0551	17.3691	31.4308	16.6668	12.2478	None	1.2532	""	""	81691000
1964	BET02050	2024-05-14T15:10:00	""	""	23.0262	92.0194	None	11.0193	14.2859	15.3196	23.5921	30.597	11.8875	None	1.2278	""	""	81691000
1965	BET02050	2024-05-14T15:20:00	""	""	22.8535	90.4667	None	10.9992	14.3281	15.0832	13.7388	60.5345	10.1318	None	1.5337	""	""	81691000
1966	BET02050	2024-05-14T15:30:00	""	""	21.6346	97.2568	None	9.0001	14.0474	14.8238	21.597	35.8401	12.7699	None	1.1079	""	""	81691000
1967	BET02050	2024-05-14T15:40:00	""	""	21.6798	97.6741	None	6.3791	8.5299	9.1636	20.4248	25.7707	16.3636	None	1.1011	""	""	81691000
1968	BET02050	2024-05-14T15:50:00	""	""	21.1158	98.5421	None	4.1434	5.8431	6.5976	16.0512	35.6321	13.4985	None	1.1249	""	""	81691000
1969	BET02050	2024-05-14T16:00:00	""	""	21.7666	99.9993	None	1.6429	2.5838	2.5474	14.4925	31.3733	11.1823	None	1.1384	""	""	81691000
1970	BET02050	2024-05-14T16:10:00	""	""	20.8952	93.7873	None	1.5731	2.1831	3.0496	16.9623	38.0816	10.3274	None	1.21	""	""	81691000
1971	BET02050	2024-05-14T16:20:00	""	""	20.8432	97.7113	None	1.8162	2	2.9068	19.3733	33.1626	11.8468	None	1.1582	""	""	81691000
1972	BET02050	2024-05-14T16:30:00	""	""	21.0646	97.0178	None	5	5.9984	6.3487	26.5815	17.6414	15.7959	None	1.2187	""	""	81691000
1973	BET02050	2024-05-14T16:40:00	""	""	20.6563	97.4764	None	1.7765	2.827	3.3917	19.9717	25.7648	12.0565	None	1.1645	""	""	81691000
1974	BET02050	2024-05-14T16:50:00	""	""	20.1408	99.9997	None	1.5183	2.1564	2.3282	12.7343	52.545	10.28	None	1.1297	""	""	81691000
1975	BET02050	2024-05-14T17:00:00	""	""	20.3226	100	None	3.6924	4.9364	4.8387	15.3967	54.7037	8.6833	None	1.1503	""	""	81691000
1976	BET02050	2024-05-14T17:10:00	""	""	20.0915	100	None	3.2885	6	7.0548	18.1209	40.5231	11.9559	None	1.1013	""	""	81691000
1977	BET02050	2024-05-14T17:20:00	""	""	19.3661	100	None	1.4752	2.6553	2.8742	19.2472	36.7133	11.6938	None	1.1452	""	""	81691000
1978	BET02050	2024-05-14T17:30:00	""	""	19.1437	100	None	2.2932	3.4946	3.6304	11.6516	50.4887	9.1502	None	1.1971	""	""	81691000
1979	BET02050	2024-05-14T17:40:00	""	""	18.7791	100	None	1.2954	1.6969	2.1977	15.6414	44.5816	11.418	None	1.2253	""	""	81691000
1980	BET02050	2024-05-14T17:50:00	""	""	18.579	100	None	1.1525	3.1203	3.1731	18.1785	31.8154	12.6754	None	1.1292	""	""	81691000
1981	BET02050	2024-05-14T18:00:00	""	""	18.5632	100	None	1.9461	2.9626	3.0682	17.2239	37.8161	11.6922	None	1.2189	""	""	81691000
1982	BET02050	2024-05-14T18:10:00	""	""	18.3442	100	None	0.91	1.7188	1.7194	11.3381	47.8295	10.5106	None	1.2397	""	""	81691000
1983	BET02050	2024-05-14T18:20:00	""	""	18.2312	100	None	0	1.0526	1.1275	18.0244	32.5478	11.8013	None	1.2091	""	""	81691000
1984	BET02050	2024-05-14T18:30:00	""	""	18.1753	100	None	0.0001	0.0001	1.7589	13.9822	45.0526	10.2228	None	1.2702	""	""	81691000
1985	BET02050	2024-05-14T18:40:00	""	""	18.0807	100	None	0.0002	1	1	16.2176	41.6448	10.6721	None	1.1645	""	""	81691000
1986	BET02050	2024-05-14T18:50:00	""	""	17.8829	100	None	0.9999	1.2812	1.4841	12.3327	45.7176	11.6178	None	1.2707	""	""	81691000
1987	BET02050	2024-05-14T19:00:00	""	""	17.9637	100	None	0	0.7753	1.0172	13.9711	46.7597	10.9099	None	1.3819	""	""	81691000
1988	BET02050	2024-05-14T19:10:00	""	""	17.8934	100	None	0.5	1.6711	1.5775	13.9691	47.9543	10.5609	None	1.3765	""	""	81691000
1989	BET02050	2024-05-14T19:20:00	""	""	17.7881	100	None	0.8214	1.7835	2	14.0508	39.5994	10.485	None	1.343	""	""	81691000
1990	BET02050	2024-05-14T19:30:00	""	""	17.9151	100	None	1.3333	2.4469	2.8887	17.0119	36.7733	11.3643	None	1.222	""	""	81691000
1991	BET02050	2024-05-14T19:40:00	""	""	17.9427	100	None	1	1.7567	2.6643	12.7053	44.549	11.0948	None	1.2911	""	""	81691000
1992	BET02050	2024-05-14T19:50:00	""	""	17.9084	100	None	1.2578	2.1374	2.9049	10.8974	39.3045	11.2915	None	1.1927	""	""	81691000
1993	BET02050	2024-05-14T20:00:00	""	""	17.9786	100	None	2.3218	3.4202	3.8151	11.4366	37.0008	11.8014	None	1.1685	""	""	81691000
1994	BET02050	2024-05-14T20:10:00	""	""	18.0228	100	None	1.997	2.0547	2.8903	10.3123	40.5221	11.7311	None	1.1722	""	""	81691000
1995	BET02050	2024-05-14T20:20:00	""	""	18.1298	100	None	1.9999	2.1369	2.6084	11.7822	31.0213	12.8531	None	1.1504	""	""	81691000
1996	BET02050	2024-05-14T20:30:00	""	""	18.0449	100	None	1.3307	1.6882	1.9657	15.8757	28.5295	12.4128	None	1.1767	""	""	81691000
1997	BET02050	2024-05-14T20:40:00	""	""	18.057	100	None	1.7384	2.2881	2	16.888	25.0751	13.4381	None	1.1225	""	""	81691000
1998	BET02050	2024-05-14T20:50:00	""	""	18.1912	100	None	3.0001	4.7336	4.7919	16.49	21.3196	12.4213	None	1.1265	""	""	81691000
1999	BET02050	2024-05-14T21:00:00	""	""	18.2112	100	None	1	3.0291	3.5861	9.7455	36.1854	12.6073	None	1.1368	""	""	81691000
2000	BET02050	2024-05-14T21:10:00	""	""	18.185	100	None	1	2.9774	3.1517	12.9237	21.5289	12.3838	None	1.1016	""	""	81691000
2001	BET02050	2024-05-14T21:20:00	""	""	18.3199	100	None	3.2536	4.441	4.6776	15.7352	16.4713	12.9513	None	1.0835	""	""	81691000
2002	BET02050	2024-05-14T21:30:00	""	""	18.2824	100	None	1.9999	2.2602	2.3381	15.2726	22.1112	12.5515	None	1.0998	""	""	81691000
2003	BET02050	2024-05-14T21:40:00	""	""	18.268	100	None	2.5638	3.3833	3.5559	23.2685	5.207	12.1772	None	1.0891	""	""	81691000
2004	BET02050	2024-05-14T21:50:00	""	""	18.2509	100	None	3	3.9125	4.0139	28.9768	0.0321	12.2541	None	1.1004	""	""	81691000
2005	BET02050	2024-05-14T22:00:00	""	""	18.2261	100	None	2.6769	3.5914	3.7111	14.0145	23.1562	11.6605	None	1.1021	""	""	81691000
2006	BET02050	2024-05-14T22:10:00	""	""	18.1089	100	None	1	1.4917	1.5887	13.2804	21.9438	11.6831	None	1.1042	""	""	81691000
2007	BET02050	2024-05-14T22:20:00	""	""	18.1233	100	None	1.1335	1.8185	2.0492	14.0681	20.4796	11.3191	None	1.1101	""	""	81691000
2008	BET02050	2024-05-14T22:30:00	""	""	18.1197	100	None	2.2495	3.0739	3.4862	12.7026	22.7662	11.413	None	1.1118	""	""	81691000
2009	BET02050	2024-05-14T22:40:00	""	""	17.9696	100	None	1.8157	2.663	2.6304	11.5871	24.0946	11.4784	None	1.1067	""	""	81691000
2010	BET02050	2024-05-14T22:50:00	""	""	17.9684	100	None	1	2	2	14.3797	16.1408	10.9017	None	1.1073	""	""	81691000
2011	BET02050	2024-05-14T23:00:00	""	""	18.0296	100	None	1.7227	2.1279	2.0601	15.4239	19.5159	10.4036	None	1.1242	""	""	81691000
2012	BET02050	2024-05-14T23:10:00	""	""	17.9873	100	None	1.2379	1.5589	1.7553	24.3481	3.5272	11.2759	None	1.0968	""	""	81691000
2013	BET02050	2024-05-14T23:20:00	""	""	17.9427	100	None	5	5.8422	6	25.883	0.2058	10.8861	None	1.1042	""	""	81691000
2014	BET02050	2024-05-14T23:30:00	""	""	18.0186	100	None	2.0414	3.0371	3.3864	17.0774	24.2548	9.5614	None	1.0954	""	""	81691000
2015	BET02050	2024-05-14T23:40:00	""	""	17.6891	100	None	0.9655	1.6128	1.6522	9.683	35.1103	9.0489	None	1.1435	""	""	81691000
2016	BET02050	2024-05-14T23:50:00	""	""	17.4941	100	None	1.4378	1.0001	2.2168	17.121	22.0212	9.2064	None	1.1338	""	""	81691000
2017	BET02050	2024-05-15T00:00:00	""	""	17.4728	100	None	1.9661	3	3.5505	19.0456	19.6138	9.1338	None	1.1084	""	""	81691000
2018	BET02050	2024-05-15T00:10:00	""	""	17.4169	100	None	1.7069	2.3386	2.4257	17.2423	21.9601	9.1253	None	1.131	""	""	81691000
2019	BET02050	2024-05-15T00:20:00	""	""	17.3822	100	None	3.2978	5	5	16.0184	22.6111	9.7227	None	1.1491	""	""	81691000
2020	BET02050	2024-05-15T00:30:00	""	""	17.3661	100	None	3.9999	3.3437	3.7729	17.2583	20.6499	9.4373	None	1.1413	""	""	81691000
2021	BET02050	2024-05-15T00:40:00	""	""	17.364	100	None	2.3333	3.0801	3.1345	21.2383	12.2512	9.6768	None	1.1406	""	""	81691000
2022	BET02050	2024-05-15T00:50:00	""	""	17.3634	100	None	3.5	3.6132	3.7156	9.631	35.9803	9.4981	None	1.2374	""	""	81691000
2023	BET02050	2024-05-15T01:00:00	""	""	17.3264	100	None	None	None	None	8.5074	38.9508	9.5318	None	1.2054	""	""	81691000
2024	BET02050	2024-05-15T01:10:00	""	""	17.3753	100	None	1	1.5105	1.677	15.883	25.153	9.5288	None	1.178	""	""	81691000
2025	BET02050	2024-05-15T01:20:00	""	""	17.3196	100	None	3.6219	3.0001	3.0001	26.2279	8.5312	9.7196	None	1.1798	""	""	81691000
2026	BET02050	2024-05-15T01:30:00	""	""	17.3088	None	None	4.498	5.9999	5.3742	None	None	None	None	None	""	""	81691000
2027	BET02050	2024-05-15T01:40:00	""	""	17.363	100	None	2.5	2.0001	2.0001	14.5466	25.4034	9.2475	None	1.1887	""	""	81691000
2028	BET02050	2024-05-15T01:50:00	""	""	17.5005	100	None	1.5	2.0534	2.3157	13.5251	28.5257	10.0308	None	1.1684	""	""	81691000
2029	BET02050	2024-05-15T02:00:00	""	""	17.3228	None	None	0.3333	1	1.2819	None	None	None	None	None	""	""	81691000
2030	BET02050	2024-05-15T02:10:00	""	""	17.2674	None	None	0.2608	0.3007	0.273	None	None	None	None	None	""	""	81691000
2031	BET02050	2024-05-15T02:20:00	""	""	17.2843	None	None	1	0.8243	1.0238	None	None	None	None	None	""	""	81691000
2032	BET02050	2024-05-15T02:30:00	""	""	17.1929	100	None	0.5	1	0.8357	7.9613	36.4436	9.7892	None	1.1746	""	""	81691000
2033	BET02050	2024-05-15T02:40:00	""	""	17.1566	None	None	0.5	0.9998	0.9998	None	None	None	None	None	""	""	81691000
2034	BET02050	2024-05-15T02:50:00	""	""	17.0651	100	None	0.3605	1	1	5.3284	42.0709	9.6381	None	1.2461	""	""	81691000
2035	BET02050	2024-05-15T03:00:00	""	""	17.1473	100	None	0	0.4211	0.4211	5.5397	39.7756	9.824	None	1.2195	""	""	81691000
2036	BET02050	2024-05-15T03:10:00	""	""	17.0607	100	None	0	0	0	7.2397	37.8574	9.7685	None	1.2064	""	""	81691000
2037	BET02050	2024-05-15T03:20:00	""	""	17.103	100	None	1.4168	2	2.2254	13.6563	23.5087	9.7596	None	1.1562	""	""	81691000
2038	BET02050	2024-05-15T03:30:00	""	""	17.0204	100	None	1	2.1131	2.7002	8.5188	33.3621	9.6397	None	1.1544	""	""	81691000
2039	BET02050	2024-05-15T03:40:00	""	""	17.0519	100	None	0.6796	1.5	1	6.7902	30.2952	9.7003	None	1.1568	""	""	81691000
2040	BET02050	2024-05-15T03:50:00	""	""	17.3637	100	None	1.0001	2.6278	2.5379	6.8171	35.8856	11.0088	None	1.1807	""	""	81691000
2041	BET02050	2024-05-15T04:00:00	""	""	17.3299	100	None	0.8041	1.0857	1.1029	8.2706	27.4222	11.7289	None	1.1681	""	""	81691000
2042	BET02050	2024-05-15T04:10:00	""	""	17.1179	100	None	0.6175	1.0001	1.0001	16.9149	15.0263	12.5212	None	1.1865	""	""	81691000
2043	BET02050	2024-05-15T04:20:00	""	""	17.0142	100	None	1	1.218	1.2723	12.0261	16.9034	10.8275	None	1.1356	""	""	81691000
2044	BET02050	2024-05-15T04:30:00	""	""	17.0468	100	None	2	3	3	16.0783	12.0063	11.625	None	1.1208	""	""	81691000
2045	BET02050	2024-05-15T04:40:00	""	""	17.1443	100	None	2.3521	2.6794	2.8793	16.2525	16.2436	10.851	None	1.114	""	""	81691000
2046	BET02050	2024-05-15T04:50:00	""	""	17.0721	100	None	2.0906	3	3	27.305	5.8438	10.997	None	1.1222	""	""	81691000
2047	BET02050	2024-05-15T05:00:00	""	""	17.0315	100	None	3	3	3	27.7131	0.0419	9.699	None	1.0964	""	""	81691000
2048	BET02050	2024-05-15T05:10:00	""	""	17.0211	100	None	3.9999	4.7603	4.8709	24.2203	8.0224	9.9576	None	1.0996	""	""	81691000
2049	BET02050	2024-05-15T05:20:00	""	""	17.1216	1.2081	None	3.0001	4.5936	5.9999	40.8227	37.3935	0.1677	None	1	""	""	81691000
2050	BET02050	2024-05-15T05:30:00	""	""	16.0121	100	None	3.0001	4.9367	5.0996	10.9336	13.7185	10.463	None	1.1539	""	""	81691000
2051	BET02050	2024-05-15T05:40:00	""	""	14.8923	100	None	4.1757	5	5.5225	14.4666	9.1718	10.3513	None	1.1401	""	""	81691000
2052	BET02050	2024-05-15T05:50:00	""	""	14.2689	2.1472	None	3	4.9019	4.0001	29.9517	57.6664	0.2337	None	1	""	""	81691000
2053	BET02050	2024-05-15T06:00:00	""	""	14.2653	6.2035	None	4.593	5.5571	6.2855	62.803	42.2677	0.1849	None	1	""	""	81691000
2054	BET02050	2024-05-15T06:10:00	""	""	13.9847	8.8903	None	5.228	7	6.881	47.0246	46.4895	0.1357	None	1	""	""	81691000
2055	BET02050	2024-05-15T06:20:00	""	""	13.8772	10.2682	None	4	4.8317	5	39.2495	48.5325	0.2152	None	1	""	""	81691000
2056	BET02050	2024-05-15T06:30:00	""	""	14.1764	11.4753	None	3	4.5462	5.0068	32.5437	42.3491	0.1722	None	1	""	""	81691000
2057	BET02050	2024-05-15T06:40:00	""	""	14.5177	12.3445	None	4	4.3334	5	37.573	46.5326	1.2417	None	1	""	""	81691000
2058	BET02050	2024-05-15T06:50:00	""	""	15.0025	12.1133	None	6	6.8575	7.3482	35.2159	46.7716	4.5607	None	1	""	""	81691000
2059	BET02050	2024-05-15T07:00:00	""	""	15.2951	11.12	None	5.5	6.1855	6.3992	30.6115	49.4618	3.0245	None	1	""	""	81691000
2060	BET02050	2024-05-15T07:10:00	""	""	15.4563	7.5141	None	4.4752	5.7036	5.9668	37.444	40.8201	5.895	None	1	""	""	81691000
2061	BET02050	2024-05-15T07:20:00	""	""	15.6237	7.4517	None	7.923	10.2165	10.956	47.1572	24.1305	10.7205	None	1.0001	""	""	81691000
2062	BET02050	2024-05-15T07:30:00	""	""	15.5485	5.1479	None	6.6597	9.0193	9.2178	41.2425	28.4829	8.6743	None	1	""	""	81691000
2063	BET02050	2024-05-15T07:40:00	""	""	15.9782	2.6112	None	5.8648	7.5547	7.6036	33.7334	39.8561	9.6461	None	1	""	""	81691000
2064	BET02050	2024-05-15T07:50:00	""	""	16.3011	100	None	5.9999	6.4328	6.8971	16.6675	5.6396	22.0796	None	1.1948	""	""	81691000
2065	BET02050	2024-05-15T08:00:00	""	""	16.4784	100	None	5.1038	7.017	7.3004	17.8988	1.412	18.6959	None	1.192	""	""	81691000
2066	BET02050	2024-05-15T08:10:00	""	""	16.4462	100	None	3.9995	3.7682	4.2805	9.6166	10.041	15.0187	None	1.1885	""	""	81691000
2067	BET02050	2024-05-15T08:20:00	""	""	16.4139	96.6864	None	2.7264	3.3814	3.476	10.4287	13.581	14.5413	None	1.2275	""	""	81691000
2068	BET02050	2024-05-15T08:30:00	""	""	16.4109	92.9196	None	3	3.6021	3.666	10.3474	11.6449	14.7691	None	1.2672	""	""	81691000
2069	BET02050	2024-05-15T08:40:00	""	""	16.3107	92.9008	None	3.0979	4.9999	5	13.2255	11.1415	13.6428	None	1.2458	""	""	81691000
2070	BET02050	2024-05-15T08:50:00	""	""	16.0467	100	None	2.5366	3	3	25.259	15.0409	11.8501	None	1.146	""	""	81691000
2071	BET02050	2024-05-15T09:00:00	""	""	15.4813	0.1795	None	3.244	4.2276	4.4578	35.0873	57.4557	0.0314	None	1	""	""	81691000
2072	BET02050	2024-05-15T09:10:00	""	""	15.3979	0.9303	None	3.4321	4	4.5563	29.7258	47.6976	0.0682	None	1	""	""	81691000
2073	BET02050	2024-05-15T09:20:00	""	""	15.4227	2.7254	None	4.5352	6.9999	5.2933	31.2414	57.6259	0.1105	None	1	""	""	81691000
2074	BET02050	2024-05-15T09:30:00	""	""	15.8053	3.3804	None	3.5	4	4	26.1792	47.2978	0.2247	None	1	""	""	81691000
2075	BET02050	2024-05-15T09:40:00	""	""	16.3242	1.996	None	3	4	3.6783	33.4354	53.8908	0.7671	None	1	""	""	81691000
2076	BET02050	2024-05-15T09:50:00	""	""	16.6079	100	None	3	3.8595	3.9039	7.6873	42.5033	11.2195	None	1.3864	""	""	81691000
2077	BET02050	2024-05-15T10:00:00	""	""	17.8468	None	None	2	2.9314	2.9337	None	None	None	None	None	""	""	81691000
2078	BET02050	2024-05-15T10:10:00	""	""	18.3941	100	None	1.6738	3.0447	3.1036	0.0305	33.8215	21.754	None	1.4417	""	""	81691000
2079	BET02050	2024-05-15T10:20:00	""	""	18.9222	88.77	None	1	1.4468	1.6248	0.1956	49.1279	22.7255	None	1.7809	""	""	81691000
2080	BET02050	2024-05-15T10:30:00	""	""	18.6894	82.1985	None	1	1.3867	1.9999	0.1048	42.0109	19.6753	None	1.6972	""	""	81691000
2081	BET02050	2024-05-15T10:40:00	""	""	19.2802	90.5044	None	1.6479	2.1339	2.4507	13.6238	43.0201	16.6293	None	1.5439	""	""	81691000
2082	BET02050	2024-05-15T10:50:00	""	""	18.8732	87.1801	None	1.8861	2.9999	3	10.5602	22.1736	19.3869	None	1.4677	""	""	81691000
2083	BET02050	2024-05-15T11:00:00	""	""	18.5882	78.8102	None	2.4368	2.7294	2.8286	0.2453	32.88	16.9501	None	1.6513	""	""	81691000
2084	BET02050	2024-05-15T11:10:00	""	""	18.4071	82.5138	None	1.5986	2	2.447	6.094	45.8674	12.7885	None	1.6056	""	""	81691000
2085	BET02050	2024-05-15T11:20:00	""	""	17.8609	87.4206	None	1.5	2	2	5.518	49.609	11.0882	None	1.5485	""	""	81691000
2086	BET02050	2024-05-15T11:30:00	""	""	17.9523	88.7651	None	2.1089	3	3	6.0457	46.602	11.0274	None	1.497	""	""	81691000
2087	BET02050	2024-05-15T11:40:00	""	""	17.6924	91.5201	None	1.5854	2.4907	3.0156	7.7513	48.5827	10.3741	None	1.446	""	""	81691000
2088	BET02050	2024-05-15T11:50:00	""	""	17.4271	91.8382	None	2.4111	3	3	6.2443	53.1458	9.3924	None	1.4657	""	""	81691000
2089	BET02050	2024-05-15T12:00:00	""	""	17.8025	96.8607	None	2.6642	3.5268	3.7394	9.5267	44.9786	11.1928	None	1.3357	""	""	81691000
2090	BET02050	2024-05-15T12:10:00	""	""	17.7077	95.605	None	2.5236	3.0503	3.4394	9.0126	43.9193	9.9666	None	1.3072	""	""	81691000
2091	BET02050	2024-05-15T12:20:00	""	""	17.5104	99.9998	None	3	3.6768	3.6768	19.938	29.4696	10.4069	None	1.1466	""	""	81691000
2092	BET02050	2024-05-15T12:30:00	""	""	18.057	100	None	2.6924	3.2302	3.6462	12.2091	49.6107	9.786	None	1.209	""	""	81691000
2093	BET02050	2024-05-15T12:40:00	""	""	17.7001	100	None	3.4501	4.4181	4.4096	11.7513	41.4544	11.4928	None	1.2295	""	""	81691000
2094	BET02050	2024-05-15T12:50:00	""	""	17.5299	100	None	2.8445	4.3839	4.8863	8.2421	50.0358	10.402	None	1.2999	""	""	81691000
2095	BET02050	2024-05-15T13:00:00	""	""	17.54	100	None	2	2.9772	3.0492	9.086	46.4644	10.7832	None	1.2741	""	""	81691000
2096	BET02050	2024-05-15T13:10:00	""	""	17.143	100	None	2.2922	2.5572	2.593	5.4451	55.0061	9.0377	None	1.3133	""	""	81691000
2097	BET02050	2024-05-15T13:20:00	""	""	16.6402	100	None	3	4	4	8.2417	60.9665	7.0446	None	1.3425	""	""	81691000
2098	BET02050	2024-05-15T13:30:00	""	""	16.7142	100	None	3	3.9981	3.9873	12.394	44.021	7.8024	None	1.2517	""	""	81691000
2099	BET02050	2024-05-15T13:40:00	""	""	16.9624	100	None	3.7426	4.4531	4.5315	14.994	36.9495	8.5583	None	1.2366	""	""	81691000
2100	BET02050	2024-05-15T13:50:00	""	""	16.7835	100	None	3.4749	4.0958	4.2021	11.8189	44.7619	8.2879	None	1.3203	""	""	81691000
2101	BET02050	2024-05-15T14:00:00	""	""	16.9089	100	None	3.7142	4.8104	4.9611	11.5721	43.2896	9.4758	None	1.2413	""	""	81691000
2102	BET02050	2024-05-15T14:10:00	""	""	16.8763	100	None	4.2755	5.2935	5.7359	10.9767	45.3194	8.5409	None	1.2472	""	""	81691000
2103	BET02050	2024-05-15T14:20:00	""	""	16.7595	100	None	4	6.1003	6.6009	13.1808	30.6605	11.0548	None	1.2767	""	""	81691000
2104	BET02050	2024-05-15T14:30:00	""	""	17.1219	100	None	3.8795	4.7097	4.8948	9.5742	36.9376	12.073	None	1.2951	""	""	81691000
2105	BET02050	2024-05-15T14:40:00	""	""	17.028	100	None	3	4	5	10.9831	44.987	10.7992	None	1.2908	""	""	81691000
2106	BET02050	2024-05-15T14:50:00	""	""	16.738	100	None	2.6016	3.5892	3.6848	6.8055	43.3632	11.2058	None	1.3051	""	""	81691000
2107	BET02050	2024-05-15T15:00:00	""	""	17.2656	100	None	2.6806	3.938	3.9447	12.1453	32.298	13.563	None	1.2381	""	""	81691000
2108	BET02050	2024-05-15T15:10:00	""	""	18.6921	100	None	3.9317	4.5565	4.9947	16.9803	33.3019	16.8598	None	1.247	""	""	81691000
2109	BET02050	2024-05-15T15:20:00	""	""	19.9615	94.1783	None	2.9999	2.352	2.5588	0.0072	40.3696	15.9801	None	1.5895	""	""	81691000
2110	BET02050	2024-05-15T15:30:00	""	""	19.058	82.6632	None	1	3	3	0.2191	44.1812	19.7466	None	1.6197	""	""	81691000
2111	BET02050	2024-05-15T15:40:00	""	""	21.098	75.0926	None	1.6019	2	2	0.0154	40.784	16.6854	None	1.932	""	""	81691000
2112	BET02050	2024-05-15T15:50:00	""	""	20.9381	65.2419	None	1	1.8013	1.8013	0.1801	49.2899	15.6755	None	1.9854	""	""	81691000
2113	BET02050	2024-05-15T16:00:00	""	""	21.0799	62.0319	None	1.0623	1.4036	1.5508	0.2283	36.1115	17.9651	None	1.9491	""	""	81691000
2114	BET02050	2024-05-15T16:10:00	""	""	21.5148	66.8159	None	1.7942	2.6959	2.9077	12.2872	50.0851	10.0651	None	1.9439	""	""	81691000
2115	BET02050	2024-05-15T16:20:00	""	""	21.5271	68.1378	None	1	1.5496	1.592	0.0985	46.6059	9.606	None	1.9911	""	""	81691000
2116	BET02050	2024-05-15T16:30:00	""	""	21.5363	66.5551	None	0.5365	1.5974	1.5974	3.481	42.568	10.0295	None	1.9854	""	""	81691000
2117	BET02050	2024-05-15T16:40:00	""	""	19.348	64.4172	None	1.0001	1.0001	1.0001	1.0795	56.4162	6.2477	None	1.8339	""	""	81691000
2118	BET02050	2024-05-15T16:50:00	""	""	20.4156	68.1589	None	1.4507	1.8234	1.8975	14.0926	38.3665	2.8145	None	1.9087	""	""	81691000
2119	BET02050	2024-05-15T17:00:00	""	""	19.819	71.1635	None	3.9274	4.8431	5.1853	11.2769	49.0837	2.9646	None	1.8731	""	""	81691000
2120	BET02050	2024-05-15T17:10:00	""	""	19.0545	68.9338	None	4.6442	5.4325	5.627	5.915	35.6615	11.5667	None	1.7903	""	""	81691000
2121	BET02050	2024-05-15T17:20:00	""	""	18.9152	71.4848	None	3.2928	3.2619	3.592	13.7556	40.7049	7.0891	None	1.8481	""	""	81691000
2122	BET02050	2024-05-15T17:30:00	""	""	18.8069	73.8161	None	1.4241	2.6854	2.6775	9.9109	49.0043	6.7082	None	1.8623	""	""	81691000
2123	BET02050	2024-05-15T17:40:00	""	""	19.1828	74.0054	None	2.0001	2.9257	3.6291	6.142	52.3311	5.0741	None	1.9093	""	""	81691000
2124	BET02050	2024-05-15T17:50:00	""	""	18.3471	74.9977	None	2.0077	2.2978	2.6647	9.5283	53.3474	5.1547	None	1.903	""	""	81691000
2125	BET02050	2024-05-15T18:00:00	""	""	18.4951	79.0919	None	1.0001	2.9999	2.9999	31.9389	19.1245	11.385	None	1.7362	""	""	81691000
2126	BET02050	2024-05-15T18:10:00	""	""	18.0067	80.4208	None	3	3.8677	3.8023	22.3838	31.2498	6.9697	None	1.75	""	""	81691000
2127	BET02050	2024-05-15T18:20:00	""	""	17.9558	82.2475	None	3.0632	3.0001	3.9816	25.3499	23.799	7.1597	None	1.501	""	""	81691000
2128	BET02050	2024-05-15T18:30:00	""	""	17.7012	83.3512	None	2.3845	2.8018	2.772	20.1099	31.0337	7.1091	None	1.4303	""	""	81691000
2129	BET02050	2024-05-15T18:40:00	""	""	17.3159	85.7232	None	2	2.9434	2.9463	12.5295	48.3959	6.5691	None	1.5367	""	""	81691000
2130	BET02050	2024-05-15T18:50:00	""	""	17.1502	87.4765	None	1.6947	2.0531	2.2589	12.8477	46.7872	8.2901	None	1.5199	""	""	81691000
2131	BET02050	2024-05-15T19:00:00	""	""	17.0571	88.306	None	2	2.3277	2.4652	14.8929	40.9748	7.1362	None	1.4818	""	""	81691000
2132	BET02050	2024-05-15T19:10:00	""	""	16.97	90.1063	None	2	3	2.7095	19.277	32.3245	8.5316	None	1.4618	""	""	81691000
2133	BET02050	2024-05-15T19:20:00	""	""	16.9762	91.0946	None	1.7532	3	2.4705	25.307	24.1493	8.0514	None	1.4392	""	""	81691000
2134	BET02050	2024-05-15T19:30:00	""	""	16.9959	91.7001	None	2.5848	3.2606	3.6756	22.1188	28.5602	7.8895	None	1.3606	""	""	81691000
2135	BET02050	2024-05-15T19:40:00	""	""	16.9124	91.1071	None	2.1699	3.9999	4	15.3124	36.4116	7.6	None	1.3988	""	""	81691000
2136	BET02050	2024-05-15T19:50:00	""	""	16.7784	91.0877	None	3	4.1055	4.1098	14.6135	37.0632	7.5281	None	1.3623	""	""	81691000
2137	BET02050	2024-05-15T20:00:00	""	""	16.9066	91.2077	None	3	4	5.6393	12.9113	37.0825	8.3752	None	1.4105	""	""	81691000
2138	BET02050	2024-05-15T20:10:00	""	""	16.9161	89.6358	None	4.065	5.6848	6.2801	11.9525	36.9899	8.9599	None	1.4077	""	""	81691000
2139	BET02050	2024-05-15T20:20:00	""	""	16.9771	88.4748	None	4	5.3331	5.4178	14.5354	30.9261	8.9914	None	1.3327	""	""	81691000
2140	BET02050	2024-05-15T20:30:00	""	""	16.9018	88.4897	None	5.9203	8.5283	8.6691	19.1223	19.4605	8.9805	None	1.2827	""	""	81691000
2141	BET02050	2024-05-15T20:40:00	""	""	16.9438	87.7347	None	6.7174	9.2816	9.9317	19.1155	20.7289	9.7379	None	1.2758	""	""	81691000
2142	BET02050	2024-05-15T20:50:00	""	""	16.9522	87.3593	None	7	8.875	9.1238	18.1671	21.0531	10.5511	None	1.2852	""	""	81691000
2143	BET02050	2024-05-15T21:00:00	""	""	17.0494	87.2484	None	8.7876	11.0777	12.466	22.8012	15.5829	9.9439	None	1.2595	""	""	81691000
2144	BET02050	2024-05-15T21:10:00	""	""	17.0348	87.0117	None	8.2743	11.3994	11.8733	13.1785	26.2906	9.5795	None	1.2622	""	""	81691000
2145	BET02050	2024-05-15T21:20:00	""	""	16.9745	86.9056	None	6.4069	8.9855	9.3732	13.5218	27.3937	9.7349	None	1.2992	""	""	81691000
2146	BET02050	2024-05-15T21:30:00	""	""	16.5458	86.6817	None	6.5	8.0488	8.8338	27.1393	2.9483	9.8325	None	1.2334	""	""	81691000
2147	BET02050	2024-05-15T21:40:00	""	""	16.2858	86.4812	None	6	8.524	8.1621	24.8132	4.7294	9.2287	None	1.1997	""	""	81691000
2148	BET02050	2024-05-15T21:50:00	""	""	16.1829	87.1257	None	6.1537	8.1322	8.9542	24.2814	5.2677	8.5842	None	1.2024	""	""	81691000
2149	BET02050	2024-05-15T22:00:00	""	""	16.2761	88.2219	None	6.2074	7.9612	8.5659	24.3307	5.8392	8.5294	None	1.2053	""	""	81691000
2150	BET02050	2024-05-15T22:10:00	""	""	16.2722	89.094	None	6	7.4888	7.6897	23.936	7.4088	8.8032	None	1.2264	""	""	81691000
2151	BET02050	2024-05-15T22:20:00	""	""	16.3342	89.8597	None	6.0106	8	8	23.4057	6.2357	8.5785	None	1.2029	""	""	81691000
2152	BET02050	2024-05-15T22:30:00	""	""	16.1211	91.0308	None	6.1588	8.2972	8.207	31.9849	0.0092	9.2966	None	1.1895	""	""	81691000
2153	BET02050	2024-05-15T22:40:00	""	""	15.9542	91.9653	None	6.0001	8.8624	9.5105	33.4916	0.2328	10.4816	None	1.2225	""	""	81691000
2154	BET02050	2024-05-15T22:50:00	""	""	15.6526	92.6461	None	6.4754	7.9726	8.2112	28.7098	0.0013	9.082	None	1.1743	""	""	81691000
2155	BET02050	2024-05-15T23:00:00	""	""	15.4803	94.0177	None	5.9027	7.8087	8.5248	27.8183	0.1071	8.532	None	1.1713	""	""	81691000
2156	BET02050	2024-05-15T23:10:00	""	""	15.163	95.7821	None	6.5013	7	7.6508	25.6184	0.0873	8.5603	None	1.1782	""	""	81691000
2157	BET02050	2024-05-15T23:20:00	""	""	15.1642	97.0127	None	6.4779	8	8.5959	23.7346	0.0294	8.6739	None	1.175	""	""	81691000
2158	BET02050	2024-05-15T23:30:00	""	""	15.1933	97.8953	None	6.5707	8.3838	8.9289	22.8286	0.0607	8.8565	None	1.1646	""	""	81691000
2159	BET02050	2024-05-15T23:40:00	""	""	15.255	98.5989	None	6.7419	9.2329	9.7353	23.3356	0.0874	8.7657	None	1.1918	""	""	81691000
2160	BET02050	2024-05-15T23:50:00	""	""	15.073	99.3768	None	7.5136	9.7841	10.7174	23.3732	0.1644	9.6177	None	1.2244	""	""	81691000
2161	BET02050	2024-05-16T00:00:00	""	""	14.6234	100	None	8.0242	11.2191	12.1683	21.7203	0.2381	9.251	None	1.1399	""	""	81691000
2162	BET02050	2024-05-16T00:10:00	""	""	14.5964	100	None	8.4856	11.7322	12.8313	20.089	2.1362	8.6913	None	1.1425	""	""	81691000
2163	BET02050	2024-05-16T00:20:00	""	""	14.5517	100	None	19.4199	28.7257	30.5693	19.6178	4.3483	8.7741	None	1.1384	""	""	81691000
2164	BET02050	2024-05-16T00:30:00	""	""	14.4562	100	None	19.5455	25.0463	26.5944	19.1528	2.8583	8.7805	None	1.1377	""	""	81691000
2165	BET02050	2024-05-16T00:40:00	""	""	14.5847	100	None	16.6499	20.6727	21.8664	19.7915	5.6032	8.5523	None	1.1627	""	""	81691000
2166	BET02050	2024-05-16T00:50:00	""	""	14.5199	100	None	14.1929	19.2015	19.9592	19.2407	5.4519	8.8421	None	1.1776	""	""	81691000
2167	BET02050	2024-05-16T01:00:00	""	""	14.489	100	None	None	None	None	17.4874	4.7363	8.8809	None	1.1702	""	""	81691000
2168	BET02050	2024-05-16T01:10:00	""	""	14.3601	100	None	12.4754	17.0514	17.9068	17.7197	8.0479	8.9148	None	1.1983	""	""	81691000
2169	BET02050	2024-05-16T01:20:00	""	""	14.5172	100	None	11.4035	15.5601	16.8948	18.0905	5.6766	9.0094	None	1.2527	""	""	81691000
2170	BET02050	2024-05-16T01:30:00	""	""	14.5822	100	None	11	14.7382	15.6347	19.0559	5.7899	9.6846	None	1.222	""	""	81691000
2171	BET02050	2024-05-16T01:40:00	""	""	14.3671	100	None	10.828	14.3459	15.692	19.2964	3.6097	9.2307	None	1.2119	""	""	81691000
2172	BET02050	2024-05-16T01:50:00	""	""	14.236	100	None	11.5309	15.8271	16.4374	22.7565	0.2406	9.6811	None	1.197	""	""	81691000
2173	BET02050	2024-05-16T02:00:00	""	""	14.0398	100	None	14.884	20.0382	20.2927	23.7377	0.1705	10.0425	None	1.1834	""	""	81691000
2174	BET02050	2024-05-16T02:10:00	""	""	14.1039	100	None	16.4983	23.8116	25.418	21.2106	3.3396	9.4308	None	1.1969	""	""	81691000
2175	BET02050	2024-05-16T02:20:00	""	""	14.18	100	None	14.848	20.1246	21.636	19.3869	7.7199	8.8844	None	1.1861	""	""	81691000
2176	BET02050	2024-05-16T02:30:00	""	""	14.2137	100	None	14.1092	19.1211	20.6638	19.2907	7.2156	9.0942	None	1.2035	""	""	81691000
2177	BET02050	2024-05-16T02:40:00	""	""	14.2298	100	None	14.5087	19.2905	20.7891	19.9453	5.0756	9.9113	None	1.2278	""	""	81691000
2178	BET02050	2024-05-16T02:50:00	""	""	14.1939	100	None	14.7609	20.107	20.7972	20.5795	4.7163	9.4421	None	1.2213	""	""	81691000
2179	BET02050	2024-05-16T03:00:00	""	""	14.2644	100	None	14.2356	19.5129	21.1978	20.9614	2.7046	9.739	None	1.2303	""	""	81691000
2180	BET02050	2024-05-16T03:10:00	""	""	14.16	100	None	15.3868	20.0232	21.5131	21.3411	2.6728	9.9297	None	1.2378	""	""	81691000
2181	BET02050	2024-05-16T03:20:00	""	""	14.0069	100	None	15.1187	21.3975	23.3386	19.9475	4.8508	9.5301	None	1.2047	""	""	81691000
2182	BET02050	2024-05-16T03:30:00	""	""	14.0065	100	None	15	19.3227	21.0776	19.9585	7.0607	9.4918	None	1.1757	""	""	81691000
2183	BET02050	2024-05-16T03:40:00	""	""	14.0522	100	None	15.018	20.0704	21.6778	21.2999	6.0067	9.4405	None	1.1898	""	""	81691000
2184	BET02050	2024-05-16T03:50:00	""	""	14.0724	100	None	17.2364	24.9054	25.9879	23.1317	1.518	10.3794	None	1.2013	""	""	81691000
2185	BET02050	2024-05-16T04:00:00	""	""	14.0698	100	None	17.1807	23.9459	26.6617	24.0993	0.0198	11.1032	None	1.2181	""	""	81691000
2186	BET02050	2024-05-16T04:10:00	""	""	14.0702	100	None	18.454	25.3682	27.3714	23.2796	0.1202	11.3666	None	1.2184	""	""	81691000
2187	BET02050	2024-05-16T04:20:00	""	""	14.1037	100	None	19.132	26.224	27.2554	25.4435	0.1669	12.607	None	1.2434	""	""	81691000
2188	BET02050	2024-05-16T04:30:00	""	""	13.9501	100	None	18.0502	25.3751	26.1565	25.9389	0.2471	13.4879	None	1.2531	""	""	81691000
2189	BET02050	2024-05-16T04:40:00	""	""	13.8949	100	None	17.8566	24.0686	24.5195	25.5028	0.2035	14.19	None	1.3653	""	""	81691000
2190	BET02050	2024-05-16T04:50:00	""	""	13.8463	100	None	16.9508	22.529	23.9971	27.6102	0.0132	20.6029	None	2.1762	""	""	81691000
2191	BET02050	2024-05-16T05:00:00	""	""	13.8676	100	None	17.8293	23.4485	24.7844	27.5932	0.1596	22.7664	None	2.7422	""	""	81691000
2192	BET02050	2024-05-16T05:10:00	""	""	13.9832	100	None	17.3671	24.8206	27.2483	27.9072	0.1292	22.7761	None	2.1432	""	""	81691000
2193	BET02050	2024-05-16T05:20:00	""	""	14.0481	None	None	16.9714	23.8403	25.0143	None	None	None	None	None	""	""	81691000
2194	BET02050	2024-05-16T05:30:00	""	""	14.1137	None	None	16.785	22.0236	23.9241	None	None	None	None	None	""	""	81691000
2195	BET02050	2024-05-16T05:40:00	""	""	14.1022	None	None	18.6203	26.2363	28.0986	None	None	None	None	None	""	""	81691000
2196	BET02050	2024-05-16T05:50:00	""	""	14.1559	None	None	21.3255	30	33.2191	None	None	None	None	None	""	""	81691000
2197	BET02050	2024-05-16T06:00:00	""	""	14.3712	None	None	22.1018	32.2733	36.0594	None	None	None	None	None	""	""	81691000
2198	BET02050	2024-05-16T06:10:00	""	""	14.6046	None	None	23.5083	34.0874	39.7481	None	None	None	None	None	""	""	81691000
2199	BET02050	2024-05-16T06:20:00	""	""	14.7262	None	None	23.8429	34.7729	39.2125	None	None	None	None	None	""	""	81691000
2200	BET02050	2024-05-16T06:30:00	""	""	14.962	None	None	23.2268	32.2119	35.7976	None	None	None	None	None	""	""	81691000
2201	BET02050	2024-05-16T06:40:00	""	""	15.2845	100	None	19.3238	26.5008	28.3068	30.7714	0.185	31.3621	None	3.7714	""	""	81691000
2202	BET02050	2024-05-16T06:50:00	""	""	15.6963	100	None	19.2901	26.3075	28.0498	28.5411	0.1178	33.9534	None	3.9311	""	""	81691000
2203	BET02050	2024-05-16T07:00:00	""	""	15.9904	100	None	18.9698	26.3615	28.6231	30.312	0.0588	35.5139	None	3.594	""	""	81691000
2204	BET02050	2024-05-16T07:10:00	""	""	16.478	100	None	20.3642	28.5762	30.5946	27.0571	0.2304	25.1657	None	1.5611	""	""	81691000
2205	BET02050	2024-05-16T07:20:00	""	""	16.8153	100	None	16.3294	23.0857	24.6002	28.5113	11.0072	17.7124	None	1.2153	""	""	81691000
2206	BET02050	2024-05-16T07:30:00	""	""	17.0878	100	None	16.5246	23.4761	24.872	29.891	1.1299	22.5813	None	1.2236	""	""	81691000
2207	BET02050	2024-05-16T07:40:00	""	""	17.4618	100	None	16.905	23.6467	26.2338	26.133	12.1413	20.3824	None	1.2006	""	""	81691000
2208	BET02050	2024-05-16T07:50:00	""	""	17.5032	100	None	12.2251	16.0471	17.1476	23.83	13.1267	17.7595	None	1.1855	""	""	81691000
2209	BET02050	2024-05-16T08:00:00	""	""	17.729	100	None	11.263	16.0314	17.1258	19.6448	21.8875	17.0079	None	1.1998	""	""	81691000
2210	BET02050	2024-05-16T08:10:00	""	""	18.2851	100	None	7.0001	10.2519	10.7879	14.2625	32.5316	18.2117	None	1.2668	""	""	81691000
2211	BET02050	2024-05-16T08:20:00	""	""	18.4602	100	None	8.7973	11.2766	12.2798	15.8211	23.6412	20.3144	None	1.1954	""	""	81691000
2212	BET02050	2024-05-16T08:30:00	""	""	19.334	100	None	7.2233	10.2303	11.0409	12.8605	25.4668	19.9407	None	1.2146	""	""	81691000
2213	BET02050	2024-05-16T08:40:00	""	""	18.8743	100	None	6.6853	9.1228	9.7115	8.628	35.7269	18.3465	None	1.1528	""	""	81691000
2214	BET02050	2024-05-16T08:50:00	""	""	19.7878	100	None	6	8.6602	9.1257	10.6684	30.84	21.3004	None	1.1874	""	""	81691000
2215	BET02050	2024-05-16T09:00:00	""	""	18.959	99.9998	None	5.7326	7.6849	8.8173	0.0525	41.8027	18.9545	None	1.1377	""	""	81691000
2216	BET02050	2024-05-16T09:10:00	""	""	19.602	100	None	4.0025	5.1002	5.8129	9.7583	36.581	19.9954	None	1.1779	""	""	81691000
2217	BET02050	2024-05-16T09:20:00	""	""	20.0918	94.9116	None	4.1944	5.1298	5.581	4.4211	37.0806	21.4105	None	1.3178	""	""	81691000
2218	BET02050	2024-05-16T09:30:00	""	""	19.0176	95.7641	None	3.1116	3.9728	4.1466	5.9715	50.8422	14.9717	None	1.2624	""	""	81691000
2219	BET02050	2024-05-16T09:40:00	""	""	19.2927	97.5418	None	5.1887	6.5797	7.638	8.7513	42.6177	15.1739	None	1.1951	""	""	81691000
2220	BET02050	2024-05-16T09:50:00	""	""	18.2658	99.9964	None	3.2704	4.5051	4.7066	7.503	42.9099	14.2629	None	1.1413	""	""	81691000
2221	BET02050	2024-05-16T10:00:00	""	""	18.0632	100	None	3.0001	5.1945	5.9165	16.4164	50.5956	8.7996	None	1.1582	""	""	81691000
2222	BET02050	2024-05-16T10:10:00	""	""	17.2783	100	None	5	7.8453	8.0043	19.4476	42.7828	8.0217	None	1.1866	""	""	81691000
2223	BET02050	2024-05-16T10:20:00	""	""	16.3566	100	None	5.0454	4.7836	6.6038	13.3567	37.1265	8.3274	None	1.1924	""	""	81691000
2224	BET02050	2024-05-16T10:30:00	""	""	16.5706	0.4375	None	5	7.9481	8.1298	31.484	69.0447	0.1475	None	1	""	""	81691000
2225	BET02050	2024-05-16T10:40:00	""	""	16.1814	1.08	None	6.3608	8.1058	8.3471	21.1951	67.3162	0.0452	None	1	""	""	81691000
2226	BET02050	2024-05-16T10:50:00	""	""	17.4771	6.093	None	6.495	8.042	8.168	33.8247	67.064	0.2274	None	1	""	""	81691000
2227	BET02050	2024-05-16T11:00:00	""	""	18.6287	6.9909	None	6.1274	7.991	8.5135	28.8723	76.3667	0.2202	None	1.0009	""	""	81691000
2228	BET02050	2024-05-16T11:10:00	""	""	18.6982	1.9782	None	6.7986	8.4383	8.5039	31.4258	69.3911	0.2202	None	1.0001	""	""	81691000
2229	BET02050	2024-05-16T11:20:00	""	""	19.1334	0.092	None	8.85	11.3307	11.3734	33.0952	75.5463	0.1729	None	1	""	""	81691000
2230	BET02050	2024-05-16T11:30:00	""	""	19.646	100	None	5.4141	6.9564	7.0052	8.4904	53.7996	15.1865	None	1.4115	""	""	81691000
2231	BET02050	2024-05-16T11:40:00	""	""	19.9079	100	None	4.0818	5.1514	5.9698	0.8626	57.5919	15.1344	None	1.4307	""	""	81691000
2232	BET02050	2024-05-16T11:50:00	""	""	20.1351	99.4259	None	3.4363	4.8934	5.2511	0.0582	52.6278	17.8421	None	1.3376	""	""	81691000
2233	BET02050	2024-05-16T12:00:00	""	""	19.2123	93.1798	None	3.7214	4.7236	5.3881	0.0186	53.4334	16.2929	None	1.4551	""	""	81691000
2234	BET02050	2024-05-16T12:10:00	""	""	20.0904	100	None	4.4239	5.5108	5.8399	8.2944	50.4099	16.2688	None	1.2174	""	""	81691000
2235	BET02050	2024-05-16T12:20:00	""	""	20.9459	91.1101	None	3.9261	4.5395	4.8221	0.0181	41.4727	17.6727	None	1.6833	""	""	81691000
2236	BET02050	2024-05-16T12:30:00	""	""	20.7758	72.8966	None	3.4947	4.4919	4.6092	0.1128	34.8904	18.9289	None	1.9639	""	""	81691000
2237	BET02050	2024-05-16T12:40:00	""	""	19.7811	65.3462	None	4.0518	5.1298	5.2529	0.126	37.7784	18.0884	None	1.9554	""	""	81691000
2238	BET02050	2024-05-16T12:50:00	""	""	19.2987	61.6538	None	3.4002	4.5424	4.706	0.1132	49.3638	12.4866	None	1.9708	""	""	81691000
2239	BET02050	2024-05-16T13:00:00	""	""	19.56	60.3134	None	3.215	4.453	4.5139	0.0821	47.6978	11.6997	None	1.9857	""	""	81691000
2240	BET02050	2024-05-16T13:10:00	""	""	20.089	57.6221	None	2.6939	3.158	3.4053	0.1411	51.4557	6.9247	None	2.054	""	""	81691000
2241	BET02050	2024-05-16T13:20:00	""	""	21.1676	58.1134	None	3.9999	3.8515	3.9658	0.064	54.0885	4.9362	None	2.1174	""	""	81691000
2242	BET02050	2024-05-16T13:30:00	""	""	21.173	56.2467	None	2.7904	3	3	0.1359	54.848	5.8001	None	2.2562	""	""	81691000
2243	BET02050	2024-05-16T13:40:00	""	""	22.4902	53.5818	None	2.0001	3	3	3.126	45.1755	10.2164	None	3.1294	""	""	81691000
2244	BET02050	2024-05-16T13:50:00	""	""	22.396	52.4756	None	2.4605	3.3831	3.4317	1.4626	51.5502	9.7289	None	3.2664	""	""	81691000
2245	BET02050	2024-05-16T14:00:00	""	""	22.4712	53.0675	None	3.3172	4.2251	4.5937	3.8902	48.588	10.2466	None	3.0207	""	""	81691000
2246	BET02050	2024-05-16T14:10:00	""	""	22.2132	53.0882	None	2.5418	3.637	3.9487	6.5559	48.2243	9.401	None	2.7468	""	""	81691000
2247	BET02050	2024-05-16T14:20:00	""	""	21.4961	55.6129	None	3.1734	3.5194	3.5125	11.5866	47.619	4.9954	None	2.1021	""	""	81691000
2248	BET02050	2024-05-16T14:30:00	""	""	21.4134	55.9937	None	3.0001	3.7758	4.2617	11.9033	52.0191	3.5255	None	2.0632	""	""	81691000
2249	BET02050	2024-05-16T14:40:00	""	""	21.5652	55.6895	None	3	3.9874	3.9761	19.9093	39.1738	3.2281	None	1.9821	""	""	81691000
2250	BET02050	2024-05-16T14:50:00	""	""	21.0948	60.5903	None	6.1154	7.2323	7.5771	30.6943	32.7765	1.7759	None	1.9069	""	""	81691000
2251	BET02050	2024-05-16T15:00:00	""	""	21.2626	63.6768	None	7.8335	10.4501	9.7815	34.3951	23.3604	2.143	None	1.8825	""	""	81691000
2252	BET02050	2024-05-16T15:10:00	""	""	21.4829	65.6144	None	6.3881	7	8.2439	19.5096	46.3402	3.0576	None	1.9806	""	""	81691000
2253	BET02050	2024-05-16T15:20:00	""	""	21.564	66.6351	None	6.0578	7.3503	7.6398	23.4589	50.5058	6.3006	None	2.0004	""	""	81691000
2254	BET02050	2024-05-16T15:30:00	""	""	22.0484	67.2679	None	5.6438	7.592	8.0413	15.1783	58.4279	8.0469	None	2.0421	""	""	81691000
2255	BET02050	2024-05-16T15:40:00	""	""	21.4216	67.7734	None	3.6087	3.7214	4.1384	14.6807	64.1714	3.0435	None	2.015	""	""	81691000
2256	BET02050	2024-05-16T15:50:00	""	""	21.5821	68.8276	None	3.815	4.8336	5.0625	12.8748	58.147	4.4226	None	1.9919	""	""	81691000
2257	BET02050	2024-05-16T16:00:00	""	""	22.9538	67.391	None	3.7546	4.7241	5.5318	21.7124	29.0136	11.0133	None	2.0011	""	""	81691000
2258	BET02050	2024-05-16T16:10:00	""	""	20.7616	66.2105	None	3.369	4.1173	4.5798	9.1385	69.5199	1.5156	None	1.9924	""	""	81691000
2259	BET02050	2024-05-16T16:20:00	""	""	21.5957	66.3848	None	3.0747	4	4.564	10.125	62.8094	6.0634	None	2.0357	""	""	81691000
2260	BET02050	2024-05-16T16:30:00	""	""	21.4782	68.9494	None	4.0097	5.0472	4.866	14.4362	60.187	5.3003	None	2.0221	""	""	81691000
2261	BET02050	2024-05-16T16:40:00	""	""	21.0979	65.6903	None	3.4558	4.8408	5.4029	12.3475	68.4368	2.1036	None	2.0221	""	""	81691000
2262	BET02050	2024-05-16T16:50:00	""	""	20.5971	69.387	None	4	5.9222	6.2338	16.5411	54.105	1.2235	None	1.9783	""	""	81691000
2263	BET02050	2024-05-16T17:00:00	""	""	19.8601	71.483	None	3.8897	4.9136	5.0891	13.3727	61.5619	0.6334	None	1.9692	""	""	81691000
2264	BET02050	2024-05-16T17:10:00	""	""	19.5819	73.6215	None	3.6931	4.8409	4.9706	14.0988	59.6391	1.5314	None	1.9712	""	""	81691000
2265	BET02050	2024-05-16T17:20:00	""	""	19.8464	77.4613	None	4.4321	4.6982	4.7592	16.1235	58.298	1.8808	None	1.9505	""	""	81691000
2266	BET02050	2024-05-16T17:30:00	""	""	19.4178	75.9181	None	3	4	4	10.1698	61.9864	4.1832	None	1.9747	""	""	81691000
2267	BET02050	2024-05-16T17:40:00	""	""	19.2496	77.3779	None	3	4.0827	4.1683	11.5536	61.056	4.2965	None	1.9761	""	""	81691000
2268	BET02050	2024-05-16T17:50:00	""	""	19.1482	80.0907	None	3.5056	4	4	11.5668	58.9448	4.6004	None	1.9673	""	""	81691000
2269	BET02050	2024-05-16T18:00:00	""	""	19.0978	78.728	None	3	3.7478	4.179	13.8979	50.0534	4.986	None	1.9573	""	""	81691000
2270	BET02050	2024-05-16T18:10:00	""	""	19.0394	80.9627	None	4	5	5	15.7478	49.1221	5.7263	None	1.9135	""	""	81691000
2271	BET02050	2024-05-16T18:20:00	""	""	18.8546	79.322	None	3.29	4.4688	4.566	15.4354	50.8935	4.5935	None	1.9312	""	""	81691000
2272	BET02050	2024-05-16T18:30:00	""	""	18.7302	83.9392	None	4	4.6097	5.2541	19.6061	44.8505	4.6103	None	1.5145	""	""	81691000
2273	BET02050	2024-05-16T18:40:00	""	""	18.5128	83.1086	None	3.865	4.812	4.8447	20.6689	43.6565	5.0378	None	1.6846	""	""	81691000
2274	BET02050	2024-05-16T18:50:00	""	""	18.3942	86.0274	None	4.6194	5.7556	5.8203	21.7373	41.5845	5.656	None	1.6122	""	""	81691000
2275	BET02050	2024-05-16T19:00:00	""	""	18.2611	89.6128	None	4.0475	5.8703	6.1373	23.5204	39.4365	7.1314	None	1.521	""	""	81691000
2276	BET02050	2024-05-16T19:10:00	""	""	18.2342	89.8188	None	5.5538	6.9207	7.3397	18.7879	43.1495	7.0283	None	1.6144	""	""	81691000
2277	BET02050	2024-05-16T19:20:00	""	""	18.1141	90.6528	None	4.8342	6.3079	6.4294	19.4649	40.4677	6.9662	None	1.5273	""	""	81691000
2278	BET02050	2024-05-16T19:30:00	""	""	18.1603	90.3383	None	5.5446	7.5766	7.5807	22.0355	33.4313	7.1742	None	1.4378	""	""	81691000
2279	BET02050	2024-05-16T19:40:00	""	""	18.2	89.6771	None	6.1995	8.4757	8.8634	17.9875	39.3003	7.1813	None	1.5038	""	""	81691000
2280	BET02050	2024-05-16T19:50:00	""	""	18.1199	89.5921	None	6	7.8941	8.384	16.2224	42.206	7.6043	None	1.4519	""	""	81691000
2281	BET02050	2024-05-16T20:00:00	""	""	18.0491	89.6209	None	6.1786	8.2178	9.337	15.8067	42.6828	8.3431	None	1.4372	""	""	81691000
2282	BET02050	2024-05-16T20:10:00	""	""	18.0049	89.7732	None	6.1929	8	8.0912	16.8462	40.2491	8.6165	None	1.41	""	""	81691000
2283	BET02050	2024-05-16T20:20:00	""	""	17.9891	90.3078	None	7.7808	10.4254	10.7349	15.0903	40.7099	8.1975	None	1.3406	""	""	81691000
2284	BET02050	2024-05-16T20:30:00	""	""	17.8846	90.46	None	7.6414	10.4884	11.1815	13.1498	41.8286	8.7777	None	1.3	""	""	81691000
2285	BET02050	2024-05-16T20:40:00	""	""	17.8591	90.3136	None	8.3026	10.8659	11.2523	18.2153	30.1849	10.1151	None	1.2779	""	""	81691000
2286	BET02050	2024-05-16T20:50:00	""	""	17.8188	89.591	None	9.964	12.889	13.7135	12.4473	30.9465	9.9122	None	1.2581	""	""	81691000
2287	BET02050	2024-05-16T21:00:00	""	""	17.8465	88.6876	None	8.6194	11.6976	12.1186	9.1608	35.1102	9.4031	None	1.2943	""	""	81691000
2288	BET02050	2024-05-16T21:10:00	""	""	17.7923	88.302	None	9.4449	12.4343	13.1196	8.0617	33.8978	9.8227	None	1.2963	""	""	81691000
2289	BET02050	2024-05-16T21:20:00	""	""	17.827	87.8164	None	8.0001	12.0936	12.9669	5.8204	36.1816	9.5627	None	1.301	""	""	81691000
2290	BET02050	2024-05-16T21:30:00	""	""	17.6683	87.2626	None	7.0001	9.9397	10.3492	13.7514	29.9772	9.8184	None	1.2787	""	""	81691000
2291	BET02050	2024-05-16T21:40:00	""	""	17.5595	88.0014	None	9.5933	13.607	14.2656	23.1434	16.1599	9.2677	None	1.267	""	""	81691000
2292	BET02050	2024-05-16T21:50:00	""	""	17.4175	88.6088	None	11.9404	15.7528	16.526	27.8619	7.9578	10.9826	None	1.2227	""	""	81691000
2293	BET02050	2024-05-16T22:00:00	""	""	17.3629	89.3063	None	10.2077	13.3251	14.2147	23.9332	12.9627	9.9561	None	1.2487	""	""	81691000
2294	BET02050	2024-05-16T22:10:00	""	""	17.3609	90.0183	None	10.2402	13.2704	12.7197	30.3893	5.6424	9.9861	None	1.2325	""	""	81691000
2295	BET02050	2024-05-16T22:20:00	""	""	17.0866	90.676	None	10.6902	13.7634	14.8346	41.1453	0.2154	11.6108	None	1.2012	""	""	81691000
2296	BET02050	2024-05-16T22:30:00	""	""	16.346	90.6582	None	11.4038	14.8453	15.6842	34.5244	0.0598	15.3954	None	1.2639	""	""	81691000
2297	BET02050	2024-05-16T22:40:00	""	""	15.8756	91.2491	None	11.3699	14.962	15.8454	29.4309	0.1748	10.2876	None	1.2746	""	""	81691000
2298	BET02050	2024-05-16T22:50:00	""	""	15.6067	92.3562	None	10.3493	13.6954	13.9844	29.1993	0.0106	10.6808	None	1.297	""	""	81691000
2299	BET02050	2024-05-16T23:00:00	""	""	15.6696	93.8602	None	10.4667	13.4509	14.155	28.4653	0.0417	10.3312	None	1.3262	""	""	81691000
2300	BET02050	2024-05-16T23:10:00	""	""	15.8025	95.8872	None	12.097	15.7989	16.8049	26.5412	0.2183	9.3446	None	1.1925	""	""	81691000
2301	BET02050	2024-05-16T23:20:00	""	""	15.6424	96.3438	None	13.7174	18.5501	19.9552	27.9115	0.1399	9.5306	None	1.1926	""	""	81691000
2302	BET02050	2024-05-16T23:30:00	""	""	15.4562	97.8882	None	16.2629	22.306	23.7199	24.9515	1.5297	9.258	None	1.1794	""	""	81691000
2303	BET02050	2024-05-16T23:40:00	""	""	15.4727	98.8611	None	22.2419	32	36.9402	27.4414	0.2491	9.5078	None	1.1646	""	""	81691000
2304	BET02050	2024-05-16T23:50:00	""	""	15.5351	99.9997	None	23.2225	34.635	40.3939	26.3211	1.6317	9.2307	None	1.1327	""	""	81691000
2305	BET02050	2024-05-17T00:00:00	""	""	15.6769	100	None	25.9593	39.0253	48.0884	25.5226	2.5459	9.4323	None	1.166	""	""	81691000
2306	BET02050	2024-05-17T00:10:00	""	""	15.7574	100	None	24	35.6373	44.1218	23.7662	4.6637	9.7076	None	1.1512	""	""	81691000
2307	BET02050	2024-05-17T00:20:00	""	""	15.8819	100	None	22.7033	34.0073	40.8272	23.0067	6.2042	10.2163	None	1.1569	""	""	81691000
2308	BET02050	2024-05-17T00:30:00	""	""	15.9115	100	None	24.5284	37.679	46.9481	22.645	6.5594	10.4353	None	1.1533	""	""	81691000
2309	BET02050	2024-05-17T00:40:00	""	""	15.9171	100	None	22.8815	33.6777	40.3866	21.4789	6.0312	10.3444	None	1.1587	""	""	81691000
2310	BET02050	2024-05-17T00:50:00	""	""	15.8456	100	None	21.7788	32.9056	37.6432	19.9216	9.0981	10.6676	None	1.1592	""	""	81691000
2311	BET02050	2024-05-17T01:00:00	""	""	15.8314	100	None	None	None	None	18.8834	10.4845	10.5531	None	1.1652	""	""	81691000
2312	BET02050	2024-05-17T01:10:00	""	""	15.7263	100	None	20.8772	28.9196	31.1528	16.8373	12.2115	10.1471	None	1.1695	""	""	81691000
2313	BET02050	2024-05-17T01:20:00	""	""	15.6359	100	None	17.773	24.9117	26.8267	16.3881	12.6787	10.134	None	1.1722	""	""	81691000
2314	BET02050	2024-05-17T01:30:00	""	""	15.6074	100	None	20.7337	29.5558	32.4434	19.0531	10.3345	9.9857	None	1.1745	""	""	81691000
2315	BET02050	2024-05-17T01:40:00	""	""	15.4497	100	None	22.3017	32.3554	37.1934	19.2184	9.7701	9.7413	None	1.1796	""	""	81691000
2316	BET02050	2024-05-17T01:50:00	""	""	15.3486	100	None	22.8808	33.6813	39.3624	19.9435	8.8081	9.7451	None	1.1757	""	""	81691000
2317	BET02050	2024-05-17T02:00:00	""	""	15.326	100	None	24.7836	36.1672	45.5946	21.3812	5.6056	9.9375	None	1.202	""	""	81691000
2318	BET02050	2024-05-17T02:10:00	""	""	15.1151	100	None	25.5	38.1431	46.876	22.2723	3.4651	9.8754	None	1.2305	""	""	81691000
2319	BET02050	2024-05-17T02:20:00	""	""	15.0248	100	None	26.1965	38.1192	45.9155	22.2321	2.7231	10.0234	None	1.2214	""	""	81691000
2320	BET02050	2024-05-17T02:30:00	""	""	14.9562	100	None	26.9723	39.0635	47.3633	23.6057	0.1703	10.5628	None	1.2389	""	""	81691000
2321	BET02050	2024-05-17T02:40:00	""	""	14.8757	100	None	27.0165	39.7539	47.9987	22.8679	0.6077	10.6619	None	1.2729	""	""	81691000
2322	BET02050	2024-05-17T02:50:00	""	""	14.7595	100	None	25.7485	37.8853	46.1249	22.8853	0.1176	10.3605	None	1.2759	""	""	81691000
2323	BET02050	2024-05-17T03:00:00	""	""	14.7111	100	None	23	34.9426	41.9917	22.9695	0.0283	10.4187	None	1.2436	""	""	81691000
2324	BET02050	2024-05-17T03:10:00	""	""	14.7032	100	None	25.1626	36.3265	43.6502	25.0232	0.0872	10.5655	None	1.2679	""	""	81691000
2325	BET02050	2024-05-17T03:20:00	""	""	14.5777	100	None	25.8369	37.0214	43.8746	26.5739	0.1831	12.7392	None	1.3616	""	""	81691000
2326	BET02050	2024-05-17T03:30:00	""	""	14.6097	100	None	26.355	38.0437	45.5707	27.7248	0.0972	13.3083	None	1.4119	""	""	81691000
2327	BET02050	2024-05-17T03:40:00	""	""	14.4661	100	None	25.6515	36.3278	45.3192	26.9568	0.0865	15.0031	None	1.7805	""	""	81691000
2328	BET02050	2024-05-17T03:50:00	""	""	14.3571	100	None	23.68	34.2802	39.5127	26.2639	0.0802	18.0149	None	2.7368	""	""	81691000
2329	BET02050	2024-05-17T04:00:00	""	""	14.1205	100	None	23.085	33.5707	39.3491	25.4722	0.1206	18.4864	None	2.8464	""	""	81691000
2330	BET02050	2024-05-17T04:10:00	""	""	14.0576	100	None	22.6429	32.3911	36.6554	25.5343	0.0939	19.6511	None	3.128	""	""	81691000
2331	BET02050	2024-05-17T04:20:00	""	""	14.0798	100	None	22.3854	32.0033	35.094	24.8236	0.0299	17.5747	None	1.834	""	""	81691000
2332	BET02050	2024-05-17T04:30:00	""	""	14.168	100	None	19.8421	27.5692	30.0009	25.5068	0.1547	18.0981	None	1.8963	""	""	81691000
2333	BET02050	2024-05-17T04:40:00	""	""	14.5004	100	None	19.1821	26.6976	28.229	26.3521	0.0869	19.6216	None	2.1274	""	""	81691000
2334	BET02050	2024-05-17T04:50:00	""	""	14.7039	100	None	19.0691	26.0303	27.07	26.8894	0.1775	20.9958	None	2.4487	""	""	81691000
2335	BET02050	2024-05-17T05:00:00	""	""	14.7971	100	None	18.5671	26.2031	29.849	28.53	0.1377	25.9235	None	3.5665	""	""	81691000
2336	BET02050	2024-05-17T05:10:00	""	""	14.9481	100	None	19.8886	28.4372	30.6393	30.0341	0.1091	32.5336	None	4.3409	""	""	81691000
2337	BET02050	2024-05-17T05:20:00	""	""	15.255	100	None	20.2044	29.568	32.1831	33.5416	0.1083	36.6181	None	4.3992	""	""	81691000
2338	BET02050	2024-05-17T05:30:00	""	""	16.1434	100	None	8	14.8421	14.0344	28.7118	13.6921	16.0938	None	1.1971	""	""	81691000
2339	BET02050	2024-05-17T05:40:00	""	""	16.4526	100	None	7.6919	9.8681	9.9043	22.3743	18.3434	16.602	None	1.2742	""	""	81691000
2340	BET02050	2024-05-17T05:50:00	""	""	16.7241	100	None	6.8322	9.4056	9.9354	21.2378	25.3463	19.3858	None	1.2316	""	""	81691000
2341	BET02050	2024-05-17T06:00:00	""	""	16.861	100	None	7	8.0064	9.0652	22.3777	24.5345	21.3486	None	1.2214	""	""	81691000
2342	BET02050	2024-05-17T06:10:00	""	""	17.1683	100	None	7.3092	9.1939	9.8247	22.6901	10.1517	21.9549	None	1.2177	""	""	81691000
2343	BET02050	2024-05-17T06:20:00	""	""	17.4001	100	None	6.1952	8.3333	8.8237	17.8031	17.3444	22.0098	None	1.2308	""	""	81691000
2344	BET02050	2024-05-17T06:30:00	""	""	17.3632	100	None	6.5792	8.6681	9.0487	30.9957	0.115	28.028	None	1.2497	""	""	81691000
2345	BET02050	2024-05-17T06:40:00	""	""	17.3879	98.0616	None	6.0001	9.6946	10.0643	16.4122	25.0494	22.8942	None	1.2711	""	""	81691000
2346	BET02050	2024-05-17T06:50:00	""	""	17.5789	97.5033	None	6.5292	7.8364	9.838	18.8271	16.5974	23.8671	None	1.312	""	""	81691000
2347	BET02050	2024-05-17T07:00:00	""	""	17.5889	94.3722	None	5.7163	7.633	8.4933	14.6354	26.7195	19.6289	None	1.3435	""	""	81691000
2348	BET02050	2024-05-17T07:10:00	""	""	18.0245	91.669	None	7.1829	8.3219	8.5639	13.9895	26.1834	19.7034	None	1.5065	""	""	81691000
2349	BET02050	2024-05-17T07:20:00	""	""	17.7951	87.6067	None	7.088	9.6777	10.9636	12.8422	23.9228	19.8818	None	1.5334	""	""	81691000
2350	BET02050	2024-05-17T07:30:00	""	""	17.8562	86.1171	None	6.8107	8.4918	9.4112	12.623	25.4251	17.4547	None	1.5667	""	""	81691000
2351	BET02050	2024-05-17T07:40:00	""	""	17.6255	86.7096	None	6.0546	7	8.9726	22.6501	16.6322	18.5787	None	1.4567	""	""	81691000
2352	BET02050	2024-05-17T07:50:00	""	""	17.9832	87.1397	None	6	7.6026	7.5814	21.7767	15.0443	24.3517	None	1.5079	""	""	81691000
2353	BET02050	2024-05-17T08:00:00	""	""	18.5035	83.445	None	5	8.3703	9.2589	17.1232	26.2291	23.112	None	1.6657	""	""	81691000
2354	BET02050	2024-05-17T08:10:00	""	""	18.7872	83.9599	None	7.9999	8.3561	8.6902	14.587	34.3639	16.2087	None	1.7286	""	""	81691000
2355	BET02050	2024-05-17T08:20:00	""	""	18.7474	84.1863	None	6.6539	9.0067	9.941	17.0726	24.9156	17.4464	None	1.6449	""	""	81691000
2356	BET02050	2024-05-17T08:30:00	""	""	19.474	83.7534	None	6.2715	8.2948	8.9666	22.8103	25.0682	19.0929	None	1.7758	""	""	81691000
2357	BET02050	2024-05-17T08:40:00	""	""	19.3627	82.7277	None	8.2848	10.199	10.3712	17.5238	40.4187	17.3032	None	1.7841	""	""	81691000
2358	BET02050	2024-05-17T08:50:00	""	""	19.4205	84.702	None	8.3532	10.861	11.1417	18.2544	34.83	14.4262	None	1.7189	""	""	81691000
2359	BET02050	2024-05-17T09:00:00	""	""	19.4856	85.0326	None	7.431	9.7151	10.0841	16.671	42.8257	12.7497	None	1.7674	""	""	81691000
2360	BET02050	2024-05-17T09:10:00	""	""	19.5932	85.1261	None	8.9232	11.9184	13.0712	19.8795	39.5159	16.1643	None	1.7252	""	""	81691000
2361	BET02050	2024-05-17T09:20:00	""	""	20.3634	86.0376	None	8.104	10.763	10.8144	25.6494	24.8249	18.1854	None	1.7945	""	""	81691000
2362	BET02050	2024-05-17T09:30:00	""	""	20.1614	83.2079	None	7.198	8.8288	9.3245	16.9953	42.9684	13.891	None	1.8047	""	""	81691000
2363	BET02050	2024-05-17T09:40:00	""	""	20.5739	82.844	None	6.96	9.0955	9.5827	19.914	47.7149	11.5662	None	1.8546	""	""	81691000
2364	BET02050	2024-05-17T09:50:00	""	""	20.8626	82.8482	None	7.5351	11.6434	12.7113	13.9138	51.8848	11.0838	None	1.8693	""	""	81691000
2365	BET02050	2024-05-17T10:00:00	""	""	20.6517	80.3355	None	7.6354	10.2105	10.576	22.7296	36.5287	18.6437	None	1.8287	""	""	81691000
2366	BET02050	2024-05-17T10:10:00	""	""	21.121	80.0656	None	6.7634	8.3596	9.0032	16.92	40.6106	13.5118	None	1.9096	""	""	81691000
2367	BET02050	2024-05-17T10:20:00	""	""	21.3149	77.2442	None	5.6484	7.7495	8.115	15.9158	44.3962	12.5646	None	1.9535	""	""	81691000
2368	BET02050	2024-05-17T10:30:00	""	""	21.4257	75.4293	None	6.4369	7.7947	9.6462	6.4748	62.613	11.7173	None	2.0012	""	""	81691000
2369	BET02050	2024-05-17T10:40:00	""	""	21.2871	76.0281	None	5.159	6.3988	7.4119	15.6058	57.2125	10.3141	None	1.9999	""	""	81691000
2370	BET02050	2024-05-17T10:50:00	""	""	21.4396	76.6972	None	6.6733	7.645	7.9981	14.8902	58.7125	10.4832	None	1.9978	""	""	81691000
2371	BET02050	2024-05-17T11:00:00	""	""	21.8978	76.9784	None	7.4506	10	10.5275	19.0788	53.4502	10.6123	None	2.0041	""	""	81691000
2372	BET02050	2024-05-17T11:10:00	""	""	22.5382	76.4435	None	7.6565	10.4982	10.7768	21.8651	47.6166	10.6393	None	1.9455	""	""	81691000
2373	BET02050	2024-05-17T11:20:00	""	""	23.1934	74.2036	None	7.0931	8.9643	9.3742	9.3909	63.2187	10.1508	None	2.0298	""	""	81691000
2374	BET02050	2024-05-17T11:30:00	""	""	24.5123	72.5766	None	6.2209	8.1129	8.6722	16.3089	46.698	10.678	None	1.9876	""	""	81691000
2375	BET02050	2024-05-17T11:40:00	""	""	24.264	69.9791	None	6.3979	8.8578	9.7317	12.086	56.3962	10.7801	None	2.079	""	""	81691000
2376	BET02050	2024-05-17T11:50:00	""	""	22.9749	69.7887	None	6.911	8.7637	9.2576	14.8203	56.069	9.9233	None	2.0269	""	""	81691000
2377	BET02050	2024-05-17T12:00:00	""	""	23.0399	70.9842	None	7.255	9.1417	9.4664	9.6984	70.1741	9.5296	None	2.1165	""	""	81691000
2378	BET02050	2024-05-17T12:10:00	""	""	23.0411	72.3796	None	6.8476	9.0629	9.525	17.5987	55.2781	9.9125	None	2.0724	""	""	81691000
2379	BET02050	2024-05-17T12:20:00	""	""	23.9997	73.7589	None	7.5602	9.4825	10.4663	47.4618	32.7691	9.7884	None	1.9899	""	""	81691000
2380	BET02050	2024-05-17T12:30:00	""	""	23.9549	69.8057	None	7.5635	9.5764	9.9871	21.0511	57.4258	9.7976	None	2.1069	""	""	81691000
2381	BET02050	2024-05-17T12:40:00	""	""	22.8359	70.3133	None	7.2359	9.4163	9.8898	15.7988	59.4856	9.9006	None	2.0291	""	""	81691000
2382	BET02050	2024-05-17T12:50:00	""	""	23.1543	71.2499	None	7.1174	9.295	9.871	22.1514	58.5843	9.3524	None	2.1014	""	""	81691000
2383	BET02050	2024-05-17T13:00:00	""	""	25.2931	70.2558	None	6.7217	8.526	9.6867	16.4066	56.1379	9.7337	None	2.4993	""	""	81691000
2384	BET02050	2024-05-17T13:10:00	""	""	24.2866	67.4597	None	7.6423	8.7429	9.6498	1.7589	65.6595	9.3033	None	2.1589	""	""	81691000
2385	BET02050	2024-05-17T13:20:00	""	""	23.5513	67.491	None	7.5584	10.1646	9.9859	6.9525	68.6008	9.3405	None	2.2801	""	""	81691000
2386	BET02050	2024-05-17T13:30:00	""	""	23.6058	65.8315	None	6.3441	8.5013	9.195	3.055	63.1992	9.3241	None	2.1934	""	""	81691000
2387	BET02050	2024-05-17T13:40:00	""	""	23.7059	64.5455	None	6.9999	8.5535	9.5368	0.2033	71.3009	9.041	None	2.6509	""	""	81691000
2388	BET02050	2024-05-17T13:50:00	""	""	23.5413	67.1236	None	7.1726	9.0689	10.406	8.4012	71.2989	9.1338	None	2.4143	""	""	81691000
2389	BET02050	2024-05-17T14:00:00	""	""	23.3821	66.6013	None	7.2408	9.8069	10.8143	7.5881	62.224	8.9616	None	2.1602	""	""	81691000
2390	BET02050	2024-05-17T14:10:00	""	""	23.6249	66.7902	None	6.2674	8.5006	9.2567	13.8331	56.4993	8.747	None	2.1562	""	""	81691000
2391	BET02050	2024-05-17T14:20:00	""	""	23.8067	67.585	None	6.6164	9.0078	9.9117	10.538	53.8759	9.1127	None	2.1689	""	""	81691000
2392	BET02050	2024-05-17T14:30:00	""	""	23.4777	66.9061	None	5.7184	7	8.5359	9.7924	63.2397	9.0298	None	2.2566	""	""	81691000
2393	BET02050	2024-05-17T14:40:00	""	""	22.7847	66.7517	None	5.0001	8.6286	9.1967	7.4862	68.251	8.6162	None	2.1063	""	""	81691000
2394	BET02050	2024-05-17T14:50:00	""	""	23.8774	66.5174	None	6.9133	8.7648	9.7527	9.4867	62.3644	8.5553	None	2.2814	""	""	81691000
2395	BET02050	2024-05-17T15:00:00	""	""	23.8755	64.3403	None	6	8.4585	8.6599	0.1679	61.5311	8.7125	None	2.3407	""	""	81691000
2396	BET02050	2024-05-17T15:10:00	""	""	24.4288	59.5076	None	4	6.3655	7.0811	0.1982	61.8401	8.2308	None	2.9842	""	""	81691000
2397	BET02050	2024-05-17T15:20:00	""	""	22.9251	64.4933	None	5.9845	7.7241	7.9845	16.1063	66.5049	7.8365	None	2.1105	""	""	81691000
2398	BET02050	2024-05-17T15:30:00	""	""	22.9611	67.3975	None	7.1314	9.4976	10.6725	16.917	61.5668	8.1053	None	2.0956	""	""	81691000
2399	BET02050	2024-05-17T15:40:00	""	""	23.056	68.9397	None	6.9999	8.9621	9.3416	20.2578	58.705	8.3779	None	2.0954	""	""	81691000
2400	BET02050	2024-05-17T15:50:00	""	""	24.6624	70.3265	None	6.8246	9.4402	10.1063	19.3307	46.0465	8.1959	None	2.1444	""	""	81691000
2401	BET02050	2024-05-17T16:00:00	""	""	24.241	66.3676	None	7.2715	9.4501	9.9272	10.6131	68.5812	8.0176	None	2.3416	""	""	81691000
2402	BET02050	2024-05-17T16:10:00	""	""	23.9053	66.3902	None	7.4376	9.382	10.6637	12.0314	58.2652	8.1478	None	2.27	""	""	81691000
2403	BET02050	2024-05-17T16:20:00	""	""	22.5217	67.4813	None	6.1747	8.7658	9.6436	7.8516	68.4649	8.303	None	2.0568	""	""	81691000
2404	BET02050	2024-05-17T16:30:00	""	""	24.1695	68.1969	None	7.3053	10.427	11.0088	8.8666	69.0034	8.1239	None	2.3117	""	""	81691000
2405	BET02050	2024-05-17T16:40:00	""	""	22.4672	68.5656	None	6.239	8.6888	8.7719	8.2728	66.1009	8.2448	None	2.048	""	""	81691000
2406	BET02050	2024-05-17T16:50:00	""	""	22.188	70.1973	None	6.2411	8.603	8.965	11.6521	67.7835	8.0432	None	2.0438	""	""	81691000
2407	BET02050	2024-05-17T17:00:00	""	""	22.1148	71.8656	None	6.3192	7.9799	8.6784	10.011	66.6448	8.2708	None	2.0502	""	""	81691000
2408	BET02050	2024-05-17T17:10:00	""	""	21.3794	73.4133	None	8.1636	11.2551	12.0468	20.1433	53.6324	3.6051	None	1.9773	""	""	81691000
2409	BET02050	2024-05-17T17:20:00	""	""	21.0352	74.9093	None	7.8945	10.4616	10.7938	22.2488	50.9744	1.9207	None	1.9551	""	""	81691000
2410	BET02050	2024-05-17T17:30:00	""	""	21.006	75.9111	None	7.175	9.786	10.6015	18.7822	52.6638	2.0138	None	1.9848	""	""	81691000
2411	BET02050	2024-05-17T17:40:00	""	""	20.7686	78.2166	None	7.8579	10.4421	11.3241	22.3523	55.3197	1.3811	None	1.9895	""	""	81691000
2412	BET02050	2024-05-17T17:50:00	""	""	20.3673	80.2093	None	6.6941	9.0436	9.2158	16.7748	62.5725	0.8532	None	1.9685	""	""	81691000
2413	BET02050	2024-05-17T18:00:00	""	""	20.8106	82.1287	None	7.9077	10.5996	11.3872	16.173	60.8996	2.4808	None	1.5308	""	""	81691000
2414	BET02050	2024-05-17T18:10:00	""	""	20.2626	84.5331	None	7.9138	10.116	11.0512	17.4412	65.9202	3.0854	None	1.6095	""	""	81691000
2415	BET02050	2024-05-17T18:20:00	""	""	20.5932	85.4678	None	8.0895	10.9536	11.6681	15.3361	58.4206	2.93	None	1.6286	""	""	81691000
2416	BET02050	2024-05-17T18:30:00	""	""	20.2317	85.7332	None	7.7682	10.7083	11.9112	17.6603	52.5143	3.6262	None	1.4869	""	""	81691000
2417	BET02050	2024-05-17T18:40:00	""	""	20.2199	87.9418	None	9.0426	11.4385	12.6603	23.4257	43.6955	4.5994	None	1.2668	""	""	81691000
2418	BET02050	2024-05-17T18:50:00	""	""	19.8153	89.7675	None	8.7426	11.1534	12.4148	22.466	49.8053	5.187	None	1.2939	""	""	81691000
2419	BET02050	2024-05-17T19:00:00	""	""	19.1586	91.1765	None	8.8475	12.0141	13.2272	17.7219	64.83	4.4956	None	1.5073	""	""	81691000
2420	BET02050	2024-05-17T19:10:00	""	""	19.1543	95.8707	None	10.4665	14.9681	15.6566	17.7931	52.3762	6.1611	None	1.347	""	""	81691000
2421	BET02050	2024-05-17T19:20:00	""	""	18.9151	97.9807	None	9.139	12.9466	14.7279	23.5253	40.8642	7.7683	None	1.2445	""	""	81691000
2422	BET02050	2024-05-17T19:30:00	""	""	19.1093	99.9999	None	11.1771	16.4625	18.7759	21.0864	42.2429	8.0247	None	1.1853	""	""	81691000
2423	BET02050	2024-05-17T19:40:00	""	""	19.0248	99.9999	None	9.4995	12.6892	13.4213	19.5365	44.0368	8.8232	None	1.1995	""	""	81691000
2424	BET02050	2024-05-17T19:50:00	""	""	19.1765	100	None	10.0656	13.8088	15.0084	19.5788	38.219	8.7905	None	1.1482	""	""	81691000
2425	BET02050	2024-05-17T20:00:00	""	""	19.2454	99.9941	None	10.5903	14.4154	16.2932	13.9107	50.585	9.4017	None	1.1458	""	""	81691000
2426	BET02050	2024-05-17T20:10:00	""	""	19.061	98.9771	None	11.2469	15.2026	15.8045	13.3104	48.736	9.898	None	1.16	""	""	81691000
2427	BET02050	2024-05-17T20:20:00	""	""	18.7397	99.8833	None	8.5109	12.4081	13.4323	15.1452	46.3863	9.7372	None	1.1199	""	""	81691000
2428	BET02050	2024-05-17T20:30:00	""	""	18.6463	99.9998	None	8.5154	11.3335	12.8496	17.125	37.1198	10.4062	None	1.1442	""	""	81691000
2429	BET02050	2024-05-17T20:40:00	""	""	18.6608	99.9996	None	8.8167	12.1003	12.9207	17.8711	37.2828	11.3053	None	1.1151	""	""	81691000
2430	BET02050	2024-05-17T20:50:00	""	""	18.6001	98.9719	None	11.1082	14.9294	15.8975	12.5766	49.5204	10.9273	None	1.2421	""	""	81691000
2431	BET02050	2024-05-17T21:00:00	""	""	18.6368	98.2265	None	10.2543	13.7364	14.5145	11.2684	43.444	12.1186	None	1.201	""	""	81691000
2432	BET02050	2024-05-17T21:10:00	""	""	18.7198	97.3397	None	11.5236	15.3712	16.0847	9.8618	46.9692	11.4143	None	1.2305	""	""	81691000
2433	BET02050	2024-05-17T21:20:00	""	""	18.5975	97.0853	None	11.1474	16.3322	17.1534	12.0399	46.1661	11.1612	None	1.2156	""	""	81691000
2434	BET02050	2024-05-17T21:30:00	""	""	18.5688	98.0353	None	11.4357	15.6026	16.6031	11.8783	39.2921	11.0071	None	1.1829	""	""	81691000
2435	BET02050	2024-05-17T21:40:00	""	""	18.6563	98.0928	None	11.0119	15.8737	15.3496	11.9692	37.1989	11.084	None	1.183	""	""	81691000
2436	BET02050	2024-05-17T21:50:00	""	""	18.6674	98.2264	None	15.8753	22.7283	23.2721	15.1822	35.5619	11.0541	None	1.1684	""	""	81691000
2437	BET02050	2024-05-17T22:00:00	""	""	18.5203	98.7852	None	14.8632	20.2478	20.5082	16.0634	39.7941	10.9211	None	1.1813	""	""	81691000
2438	BET02050	2024-05-17T22:10:00	""	""	18.4152	100	None	19	28.0832	29.1157	21.5572	22.4478	10.5705	None	1.1088	""	""	81691000
2439	BET02050	2024-05-17T22:20:00	""	""	18.2616	100	None	23.268	33.6871	38.064	18.5156	22.2531	11.1402	None	1.1017	""	""	81691000
2440	BET02050	2024-05-17T22:30:00	""	""	18.2815	100	None	17.8488	25.1951	25.6109	15.8687	29.2713	10.9866	None	1.1232	""	""	81691000
2441	BET02050	2024-05-17T22:40:00	""	""	18.2139	100	None	16.6535	22.6221	24.2461	25.3567	13.1307	11.4655	None	1.0995	""	""	81691000
2442	BET02050	2024-05-17T22:50:00	""	""	17.4918	100	None	16.1089	22.1579	24.4438	27.6339	0.1288	13.2611	None	1.0955	""	""	81691000
2443	BET02050	2024-05-17T23:00:00	""	""	17.4228	100	None	14.6765	20.4341	21.6073	27.8985	0.0145	13.5864	None	1.1113	""	""	81691000
2444	BET02050	2024-05-17T23:10:00	""	""	17.1701	100	None	14.8503	19.9277	22.1389	22.6073	0.2458	13.4882	None	1.1052	""	""	81691000
2445	BET02050	2024-05-17T23:20:00	""	""	16.9556	100	None	14.9069	19.7421	21.4534	22.1556	0.2443	13.9974	None	1.1566	""	""	81691000
2446	BET02050	2024-05-17T23:30:00	""	""	16.8464	100	None	14	18.7441	20.1628	17.875	0.7369	12.1922	None	1.1491	""	""	81691000
2447	BET02050	2024-05-17T23:40:00	""	""	16.6728	100	None	14.2797	17.7193	18.7869	17.4916	0.4591	12.3225	None	1.1329	""	""	81691000
2448	BET02050	2024-05-17T23:50:00	""	""	16.4696	100	None	13.6753	17.394	18.2806	14.3257	7.311	11.292	None	1.1553	""	""	81691000
2449	BET02050	2024-05-18T00:00:00	""	""	16.3999	100	None	13.4925	17.6882	18.5425	14.1288	5.7756	11.1233	None	1.1732	""	""	81691000
2450	BET02050	2024-05-18T00:10:00	""	""	16.1821	100	None	13.5861	18.1909	19.5662	18.0741	0.999	10.7228	None	1.1722	""	""	81691000
2451	BET02050	2024-05-18T00:20:00	""	""	16.0176	100	None	17.826	24.4442	25.8746	19.8305	0.2473	10.0997	None	1.2007	""	""	81691000
2452	BET02050	2024-05-18T00:30:00	""	""	15.8979	100	None	17.6188	23.9966	25.4524	19.2668	1.7209	10.0664	None	1.1811	""	""	81691000
2453	BET02050	2024-05-18T00:40:00	""	""	15.8519	100	None	18.5756	25.6335	27.0896	18.7638	3.2185	9.5607	None	1.2011	""	""	81691000
2454	BET02050	2024-05-18T00:50:00	""	""	15.9652	100	None	19.3975	27.6469	28.4696	17.6306	10.6182	10.0406	None	1.1866	""	""	81691000
2455	BET02050	2024-05-18T01:00:00	""	""	16.0268	100	None	None	None	None	17.1613	8.3377	10.334	None	1.2007	""	""	81691000
2456	BET02050	2024-05-18T01:10:00	""	""	16.0142	100	None	19.732	28.2706	29.8319	16.6624	9.6278	10.3467	None	1.1998	""	""	81691000
2457	BET02050	2024-05-18T01:20:00	""	""	16.0357	100	None	18.7175	25.5213	27.5976	15.867	10.848	10.7751	None	1.198	""	""	81691000
2458	BET02050	2024-05-18T01:30:00	""	""	15.9989	100	None	18.003	25.0869	27.3681	15.4074	10.5752	10.7257	None	1.1979	""	""	81691000
2459	BET02050	2024-05-18T01:40:00	""	""	15.9528	100	None	17.4666	24.1503	25.9552	15.4778	9.0359	10.8763	None	1.1913	""	""	81691000
2460	BET02050	2024-05-18T01:50:00	""	""	15.9233	100	None	17.8805	24.0172	25.7685	16.5999	8.304	10.7201	None	1.2146	""	""	81691000
2461	BET02050	2024-05-18T02:00:00	""	""	15.9546	100	None	20.2623	29.2828	31.4151	18.3878	6.3618	10.9215	None	1.2031	""	""	81691000
2462	BET02050	2024-05-18T02:10:00	""	""	15.8695	100	None	21.4905	31.2379	34.4978	18.1623	5.0607	10.6655	None	1.2823	""	""	81691000
2463	BET02050	2024-05-18T02:20:00	""	""	15.763	100	None	21.6608	30.8153	33.0207	17.0523	4.7666	10.3766	None	1.2929	""	""	81691000
2464	BET02050	2024-05-18T02:30:00	""	""	15.7253	100	None	20.2473	29.5074	30.8852	16.1225	6.5035	10.272	None	1.2962	""	""	81691000
2465	BET02050	2024-05-18T02:40:00	""	""	15.6238	100	None	19.7372	28.0784	29.7179	17.2136	2.3395	10.7096	None	1.421	""	""	81691000
2466	BET02050	2024-05-18T02:50:00	""	""	15.3265	100	None	19.5425	28.9188	31.3178	15.0606	0.6595	11.3186	None	1.7235	""	""	81691000
2467	BET02050	2024-05-18T03:00:00	""	""	15.0446	100	None	20.5553	29.865	33.3588	14.4841	6.9935	10.6212	None	1.2835	""	""	81691000
2468	BET02050	2024-05-18T03:10:00	""	""	14.9529	100	None	21.7116	32.7145	37.7633	16.8873	7.2041	9.9936	None	1.2248	""	""	81691000
2469	BET02050	2024-05-18T03:20:00	""	""	14.9281	100	None	22.4216	34.5329	42.2805	21.2641	2.3823	9.4883	None	1.2243	""	""	81691000
2470	BET02050	2024-05-18T03:30:00	""	""	15.1929	0.1907	None	23.4433	36.2329	44.7082	37.1468	41.7869	0.1076	None	1.0001	""	""	81691000
2471	BET02050	2024-05-18T03:40:00	""	""	15.3136	6.9297	None	23.9984	37.701	46.8725	35.1681	44.1884	0.1285	None	1	""	""	81691000
2472	BET02050	2024-05-18T03:50:00	""	""	15.5282	8.9374	None	24.4309	37.8	47.9098	33.4878	47.1598	0.0837	None	1	""	""	81691000
2473	BET02050	2024-05-18T04:00:00	""	""	15.5082	8.836	None	24.1706	37.96	47.8253	31.095	43.6018	0.1155	None	1	""	""	81691000
2474	BET02050	2024-05-18T04:10:00	""	""	15.5828	7.825	None	23.8904	37.6077	45.0236	31.3194	41.1449	0.0616	None	1	""	""	81691000
2475	BET02050	2024-05-18T04:20:00	""	""	15.4964	6.7636	None	23.5917	37.1047	44.5132	34.0513	33.4921	0.245	None	1	""	""	81691000
2476	BET02050	2024-05-18T04:30:00	""	""	15.6198	6.7375	None	23.0925	35.509	43.5976	31.5742	39.5023	0.2228	None	1	""	""	81691000
2477	BET02050	2024-05-18T04:40:00	""	""	15.6971	7.2493	None	22.9317	35.112	43.239	30.7771	49.9476	0.2181	None	1	""	""	81691000
2478	BET02050	2024-05-18T04:50:00	""	""	15.4356	10.5086	None	23.505	36.9691	45.8798	37.0787	38.2279	0.1863	None	1	""	""	81691000
2479	BET02050	2024-05-18T05:00:00	""	""	15.5892	12.6663	None	25.4259	40.313	49.7045	34.9418	42.738	0.1181	None	1	""	""	81691000
2480	BET02050	2024-05-18T05:10:00	""	""	15.7125	13.2322	None	27.3052	42.115	52.5038	40.4245	28.3416	5.22	None	1	""	""	81691000
2481	BET02050	2024-05-18T05:20:00	""	""	15.8721	13.4424	None	23.3562	36.5756	45.6589	34.1461	50.9371	0.9723	None	1	""	""	81691000
2482	BET02050	2024-05-18T05:30:00	""	""	16.0391	13.4833	None	24.4829	39.3699	47.0971	31.6381	45.2128	2.8674	None	1	""	""	81691000
2483	BET02050	2024-05-18T05:40:00	""	""	16.2684	13.6325	None	22.3812	34.8089	43.5333	29.7961	46.073	1.7019	None	1	""	""	81691000
2484	BET02050	2024-05-18T05:50:00	""	""	16.2329	11.8596	None	22.2995	33.5584	40.6342	23.6747	47.0234	2.8295	None	1	""	""	81691000
2485	BET02050	2024-05-18T06:00:00	""	""	16.0165	10.2543	None	21.4995	31.9996	36.3402	25.5115	43.5288	1.3976	None	1	""	""	81691000
2486	BET02050	2024-05-18T06:10:00	""	""	15.8716	9.8027	None	21.3875	31.6929	37.2737	25.9162	45.4058	0.1064	None	1	""	""	81691000
2487	BET02050	2024-05-18T06:20:00	""	""	15.6897	10.8448	None	22	32.4274	37.7166	27.1153	46.5403	0.0058	None	1	""	""	81691000
2488	BET02050	2024-05-18T06:30:00	""	""	15.5239	12.0644	None	22.8135	34.6475	40.8001	27.0998	48.7634	0.8089	None	1	""	""	81691000
2489	BET02050	2024-05-18T06:40:00	""	""	15.5912	13.1485	None	22	33.3708	38.4409	25.043	53.6686	0.6423	None	1	""	""	81691000
2490	BET02050	2024-05-18T06:50:00	""	""	15.6011	13.5622	None	21.519	32.7232	37.0869	31.0764	39.6351	1.3585	None	1	""	""	81691000
2491	BET02050	2024-05-18T07:00:00	""	""	15.6446	13.3644	None	22.2335	32.769	36.0649	32.6789	48.0815	1.7589	None	1	""	""	81691000
2492	BET02050	2024-05-18T07:10:00	""	""	15.727	13.6653	None	22.7474	34.0649	39.2631	36.2191	42.5	6.0547	None	1	""	""	81691000
2493	BET02050	2024-05-18T07:20:00	""	""	16.0676	14.4377	None	22.8842	34.5513	40.8877	35.2317	39.6663	2.8017	None	1	""	""	81691000
2494	BET02050	2024-05-18T07:30:00	""	""	16.3804	14.4469	None	22.8226	34.234	40.5207	40.2466	31.689	16.228	None	1	""	""	81691000
2495	BET02050	2024-05-18T07:40:00	""	""	16.3199	14.1552	None	19.3458	27.4785	29.966	27.2684	60.8659	1.9301	None	1	""	""	81691000
2496	BET02050	2024-05-18T07:50:00	""	""	16.2313	13.7819	None	19.2886	27.8976	29.6368	32.1743	54.0982	2.4434	None	1	""	""	81691000
2497	BET02050	2024-05-18T08:00:00	""	""	16.0092	12.5608	None	18.1348	26.7513	27.8194	89.7466	14.1511	31.1797	None	1.0001	""	""	81691000
2498	BET02050	2024-05-18T08:10:00	""	""	15.9705	11.6726	None	20.6956	27.8379	29.1909	89.4255	26.2322	19.0229	None	1	""	""	81691000
2499	BET02050	2024-05-18T08:20:00	""	""	16.597	11.4531	None	18.7864	25.6712	26.4535	43.441	44.931	13.0553	None	1	""	""	81691000
2500	BET02050	2024-05-18T08:30:00	""	""	16.9272	10.887	None	16.8745	22.8282	24.8974	31.5985	58.4956	4.9893	None	1	""	""	81691000
2501	BET02050	2024-05-18T08:40:00	""	""	16.9645	8.8679	None	13.6731	18.2528	19.383	20.8585	70.0846	2.2808	None	1	""	""	81691000
2502	BET02050	2024-05-18T08:50:00	""	""	17.2812	5.6464	None	12.9999	17.226	18.2723	20.7057	73.2623	3.5935	None	1	""	""	81691000
2503	BET02050	2024-05-18T09:00:00	""	""	18.0419	4.1968	None	12.3406	16.041	17.4279	22.3903	71.6881	4.3059	None	1	""	""	81691000
2504	BET02050	2024-05-18T09:10:00	""	""	17.9162	100	None	9	12.2776	12.3463	11.8377	30.1839	22.4743	None	1.3776	""	""	81691000
2505	BET02050	2024-05-18T09:20:00	""	""	18.1143	100	None	6.897	9.4661	10.0328	10.1004	22.5586	24.8528	None	1.1827	""	""	81691000
2506	BET02050	2024-05-18T09:30:00	""	""	18.1895	99.9999	None	6.3976	7.7966	8.0478	0.1762	50.3537	23.4382	None	1.5743	""	""	81691000
2507	BET02050	2024-05-18T09:40:00	""	""	18.8001	96.6213	None	4.4833	5.7386	5.8191	6.2715	48.6654	20.5861	None	1.6612	""	""	81691000
2508	BET02050	2024-05-18T09:50:00	""	""	19.3676	100	None	6.1943	7.7557	8.654	6.4447	53.7959	17.9362	None	1.4184	""	""	81691000
2509	BET02050	2024-05-18T10:00:00	""	""	19.2409	100	None	8.9232	11.9796	10.1605	28.3615	19.7348	26.1422	None	1.2119	""	""	81691000
2510	BET02050	2024-05-18T10:10:00	""	""	19.558	100	None	12.2149	15.5801	16.2821	23.5821	14.9237	25.1188	None	1.2064	""	""	81691000
2511	BET02050	2024-05-18T10:20:00	""	""	19.5371	100	None	9.3226	12.4665	12.7617	22.2411	16.4896	26.9294	None	1.1354	""	""	81691000
2512	BET02050	2024-05-18T10:30:00	""	""	20.2374	99.9993	None	10.5477	13.0493	13.9457	24.666	13.4431	23.0153	None	1.1985	""	""	81691000
2513	BET02050	2024-05-18T10:40:00	""	""	20.6008	99.9997	None	9.119	11.2597	11.5416	19.5983	25.491	22.1994	None	1.142	""	""	81691000
2514	BET02050	2024-05-18T10:50:00	""	""	20.5386	100	None	8.4227	11.3736	11.7467	14.5136	36.952	19.2594	None	1.153	""	""	81691000
2515	BET02050	2024-05-18T11:00:00	""	""	21.3112	100	None	9.3113	11.38	12.1444	18.093	23.8579	21.9982	None	1.1569	""	""	81691000
2516	BET02050	2024-05-18T11:10:00	""	""	21.0393	95.0072	None	8.9932	11.164	11.9835	12.8703	32.4761	19.3015	None	1.254	""	""	81691000
2517	BET02050	2024-05-18T11:20:00	""	""	21.6806	92.626	None	8.2357	10.9041	11.0741	8.3875	32.2954	18.3371	None	1.3374	""	""	81691000
2518	BET02050	2024-05-18T11:30:00	""	""	22.1404	89.9759	None	7.0319	8.8325	9.457	13.033	29.1075	14.6587	None	1.5294	""	""	81691000
2519	BET02050	2024-05-18T11:40:00	""	""	22.5294	89.1807	None	7.9726	11.3867	11.4176	8.2166	41.6458	12.3268	None	1.5703	""	""	81691000
2520	BET02050	2024-05-18T11:50:00	""	""	22.9111	85.7414	None	7.1017	9.0264	9.2459	3.7642	49.0077	11.8726	None	1.6755	""	""	81691000
2521	BET02050	2024-05-18T12:00:00	""	""	23.1143	80.6892	None	6.8257	8.8103	9.7672	0.1712	42.5768	11.2927	None	1.83	""	""	81691000
2522	BET02050	2024-05-18T12:10:00	""	""	23.6054	76.7773	None	4.0001	5.7845	6.3863	0.2237	48.4429	11.3159	None	1.8903	""	""	81691000
2523	BET02050	2024-05-18T12:20:00	""	""	23.2252	73.1384	None	3.9187	5.489	5.6316	0.2367	45.2985	11.0869	None	2.0203	""	""	81691000
2524	BET02050	2024-05-18T12:30:00	""	""	23.8639	69.9242	None	3.2816	4.3116	4.664	0.0039	35.2796	11.2154	None	2.0602	""	""	81691000
2525	BET02050	2024-05-18T12:40:00	""	""	23.4369	69.8312	None	3	4	4	0.0994	48.7387	10.3284	None	2.0475	""	""	81691000
2526	BET02050	2024-05-18T12:50:00	""	""	22.9237	69.2026	None	2.4719	3.1013	3.3503	0.1078	42.8487	10.5189	None	2.0419	""	""	81691000
2527	BET02050	2024-05-18T13:00:00	""	""	23.0923	69.063	None	2	3.4487	3.4761	1.6556	54.1342	10.0022	None	2.0632	""	""	81691000
2528	BET02050	2024-05-18T13:10:00	""	""	22.8231	70.9178	None	2.9598	4.2334	4.6489	4.1029	51.5322	10.2428	None	2.0582	""	""	81691000
2529	BET02050	2024-05-18T13:20:00	""	""	23.0724	72.9355	None	2.5183	3.4398	3.7427	6.9245	51.1231	10.0605	None	2.052	""	""	81691000
2530	BET02050	2024-05-18T13:30:00	""	""	23.2508	71.5667	None	2.559	3.3822	4.0793	1.2025	61.7893	9.4898	None	2.1041	""	""	81691000
2531	BET02050	2024-05-18T13:40:00	""	""	23.2454	72.2407	None	3.032	4.1342	4.1007	8.0948	46.0653	9.4874	None	2.0853	""	""	81691000
2532	BET02050	2024-05-18T13:50:00	""	""	23.3412	71.8247	None	2.7029	3.8785	4.5079	4.5358	61.6934	9.0791	None	2.0493	""	""	81691000
2533	BET02050	2024-05-18T14:00:00	""	""	22.9637	70.7223	None	2.5673	3.7235	3.8756	5.596	53.0973	9.5889	None	2.083	""	""	81691000
2534	BET02050	2024-05-18T14:10:00	""	""	23.282	72.4127	None	3.2152	4.5861	5.1025	10.3431	51.1344	9.6674	None	2.0908	""	""	81691000
2535	BET02050	2024-05-18T14:20:00	""	""	22.9367	73.2992	None	2.9122	4.2102	4.6116	9.1665	54.5455	9.8145	None	2.0526	""	""	81691000
2536	BET02050	2024-05-18T14:30:00	""	""	23.1303	74.4075	None	3.192	3.7832	4.0668	5.9432	55.7421	9.5192	None	2.0508	""	""	81691000
2537	BET02050	2024-05-18T14:40:00	""	""	23.4495	73.1808	None	2	3.8361	3.8942	8.7213	52.9453	9.3781	None	2.1006	""	""	81691000
2538	BET02050	2024-05-18T14:50:00	""	""	24.3456	72.8061	None	3.0993	4.37	4.5438	17.9838	32.3538	10.4452	None	1.9061	""	""	81691000
2539	BET02050	2024-05-18T15:00:00	""	""	24.6422	69.0471	None	3	4.2877	5.0945	14.7062	39.9335	9.4242	None	2.3011	""	""	81691000
2540	BET02050	2024-05-18T15:10:00	""	""	24.4232	67.4097	None	2.8733	4.0541	4	9.6887	52.4385	9.4807	None	2.2263	""	""	81691000
2541	BET02050	2024-05-18T15:20:00	""	""	23.5204	69.7771	None	2.9451	3.8305	4.4958	11.081	52.6409	9.153	None	2.1403	""	""	81691000
2542	BET02050	2024-05-18T15:30:00	""	""	22.9604	72.5346	None	2.7853	3.963	4.4255	9.8818	56.5578	9.2551	None	2.0669	""	""	81691000
2543	BET02050	2024-05-18T15:40:00	""	""	22.7787	73.3702	None	3.5838	4.5924	4.5384	9.8861	53.6266	9.4652	None	2.0534	""	""	81691000
2544	BET02050	2024-05-18T15:50:00	""	""	23.1942	74.6578	None	2.0001	3.7582	4.432	18.1149	40.3836	9.8733	None	1.7295	""	""	81691000
2545	BET02050	2024-05-18T16:00:00	""	""	22.9713	76.3289	None	4.8277	5.8349	6.4341	16.8073	47.3652	9.8889	None	1.6836	""	""	81691000
2546	BET02050	2024-05-18T16:10:00	""	""	23.3962	73.788	None	3.7214	4.2697	4.24	16.4555	45.893	10.177	None	2.0456	""	""	81691000
2547	BET02050	2024-05-18T16:20:00	""	""	22.7906	75.0427	None	4.1938	6.3014	6.5148	11.6375	58.2629	8.9434	None	2.0254	""	""	81691000
2548	BET02050	2024-05-18T16:30:00	""	""	23.3861	79.7222	None	3.7882	5.3367	5.2852	13.6822	53.8827	9.3413	None	1.7791	""	""	81691000
2549	BET02050	2024-05-18T16:40:00	""	""	22.3628	81.686	None	4.4932	6.0255	6.6701	13.3081	57.2688	9.3003	None	1.6144	""	""	81691000
2550	BET02050	2024-05-18T16:50:00	""	""	21.9588	84.5784	None	3.5421	4	4.7911	13.2393	50.919	8.6606	None	1.5156	""	""	81691000
2551	BET02050	2024-05-18T17:00:00	""	""	21.8924	86.167	None	4.2104	5.1964	6.3323	17.8111	48.9666	8.7062	None	1.4576	""	""	81691000
2552	BET02050	2024-05-18T17:10:00	""	""	21.1499	89.3376	None	3.9598	4.9557	5.4636	18.9963	44.5033	5.2903	None	1.3217	""	""	81691000
2553	BET02050	2024-05-18T17:20:00	""	""	20.972	92.5675	None	5	6.365	7.151	29.1008	28.2535	7.1698	None	1.1635	""	""	81691000
2554	BET02050	2024-05-18T17:30:00	""	""	20.7166	94.9148	None	4.4421	5.5652	6.3001	22.5283	40.9054	6.4794	None	1.1754	""	""	81691000
2555	BET02050	2024-05-18T17:40:00	""	""	20.4829	98.3623	None	4.4207	4.9452	5.8673	18.493	46.2477	7.8942	None	1.1153	""	""	81691000
2556	BET02050	2024-05-18T17:50:00	""	""	20.2244	100	None	5.5938	6.5415	7.6473	17.0002	49.9953	7.5683	None	1.1027	""	""	81691000
2557	BET02050	2024-05-18T18:00:00	""	""	20.0535	100	None	7.5714	9.1705	9.6846	26.0209	36.4846	8.54	None	1.0986	""	""	81691000
2558	BET02050	2024-05-18T18:10:00	""	""	19.9131	100	None	7.5343	9.837	10.3444	30.1231	25.7348	9.0549	None	1.0987	""	""	81691000
2559	BET02050	2024-05-18T18:20:00	""	""	19.5867	100	None	9.5671	12.2478	12.6785	38.1546	16.0201	13.2961	None	1.0732	""	""	81691000
2560	BET02050	2024-05-18T18:30:00	""	""	19.3788	100	None	8.4693	10.0468	10.6227	38.9884	7.1312	12.9821	None	1.0856	""	""	81691000
2561	BET02050	2024-05-18T18:40:00	""	""	19.1319	100	None	10.3835	14.8423	15.8152	31.6926	28.5013	16.8682	None	1.1004	""	""	81691000
2562	BET02050	2024-05-18T18:50:00	""	""	18.9129	100	None	8.6671	10.572	11.3677	30.8114	21.3075	11.405	None	1.0808	""	""	81691000
2563	BET02050	2024-05-18T19:00:00	""	""	18.8921	100	None	7.5644	9.4654	10.2879	17.3989	40.5423	10.2281	None	1.1354	""	""	81691000
2564	BET02050	2024-05-18T19:10:00	""	""	18.7073	100	None	6.9462	7.9985	7.9391	14.8077	58.0317	9.7473	None	1.2803	""	""	81691000
2565	BET02050	2024-05-18T19:20:00	""	""	18.5661	100	None	7.8	10.0323	10.6214	18.287	39.4662	11.0715	None	1.1727	""	""	81691000
2566	BET02050	2024-05-18T19:30:00	""	""	18.4064	100	None	8.2109	10.3935	10.2041	14.1324	60.7499	11.788	None	1.2348	""	""	81691000
2567	BET02050	2024-05-18T19:40:00	""	""	18.4357	None	None	8.6804	11.2559	11.9569	None	None	None	None	None	""	""	81691000
2568	BET02050	2024-05-18T19:50:00	""	""	18.4405	None	None	8.0561	10.8715	12.3831	None	None	None	None	None	""	""	81691000
2569	BET02050	2024-05-18T20:00:00	""	""	18.4684	100	None	7.5412	10.438	10.8305	16.7012	37.1472	12.5188	None	1.1482	""	""	81691000
2570	BET02050	2024-05-18T20:10:00	""	""	18.4072	100	None	6.8749	9.3105	9.8606	23.3461	24.2966	12.6544	None	1.1169	""	""	81691000
2571	BET02050	2024-05-18T20:20:00	""	""	18.3508	100	None	9.7022	12.2687	12.9562	27.2654	16.9177	13.6001	None	1.1171	""	""	81691000
2572	BET02050	2024-05-18T20:30:00	""	""	18.3916	None	None	8.9185	11.1741	11.9751	None	None	None	None	None	""	""	81691000
2573	BET02050	2024-05-18T20:40:00	""	""	18.3896	None	None	7.2386	9.5171	9.9851	None	None	None	None	None	""	""	81691000
2574	BET02050	2024-05-18T20:50:00	""	""	18.4235	None	None	7.6242	10.0233	10.5383	None	None	None	None	None	""	""	81691000
2575	BET02050	2024-05-18T21:00:00	""	""	18.3671	None	None	6.0723	7.8611	8.758	None	None	None	None	None	""	""	81691000
2576	BET02050	2024-05-18T21:10:00	""	""	18.4617	None	None	9.1402	13.1038	14.2964	None	None	None	None	None	""	""	81691000
2577	BET02050	2024-05-18T21:20:00	""	""	18.4795	100	None	6.6578	8.7138	9.0164	13.4315	40.8334	14.8369	None	1.1188	""	""	81691000
2578	BET02050	2024-05-18T21:30:00	""	""	18.6057	100	None	6.2658	8.2103	9.062	15.7357	33.0377	14.8637	None	1.1431	""	""	81691000
2579	BET02050	2024-05-18T21:40:00	""	""	18.5046	100	None	6.3132	8.5403	8.9446	11.0495	47.5672	15.4331	None	1.1847	""	""	81691000
2580	BET02050	2024-05-18T21:50:00	""	""	18.4372	100	None	8.3133	11.0622	12.7815	11.6292	34.1174	17.8553	None	1.126	""	""	81691000
2581	BET02050	2024-05-18T22:00:00	""	""	18.4509	100	None	6.2328	8.3766	8.5435	10.9661	43.5174	13.7565	None	1.1738	""	""	81691000
2582	BET02050	2024-05-18T22:10:00	""	""	18.4174	100	None	7.2557	9.7322	10.3052	11.0032	47.2682	13.7769	None	1.1714	""	""	81691000
2583	BET02050	2024-05-18T22:20:00	""	""	18.3606	None	None	6.0001	8.3399	9.0085	None	None	None	None	None	""	""	81691000
2584	BET02050	2024-05-18T22:30:00	""	""	18.3637	None	None	7.3213	9.7488	10.1768	None	None	None	None	None	""	""	81691000
2585	BET02050	2024-05-18T22:40:00	""	""	18.2223	None	None	7.1102	8.9573	9.9886	None	None	None	None	None	""	""	81691000
2586	BET02050	2024-05-18T22:50:00	""	""	18.001	None	None	8.6169	12.2478	13.3947	None	None	None	None	None	""	""	81691000
2587	BET02050	2024-05-18T23:00:00	""	""	17.9884	None	None	7.0049	9.4017	9.8344	None	None	None	None	None	""	""	81691000
2588	BET02050	2024-05-18T23:10:00	""	""	18.0536	None	None	7	9.7595	10.6905	None	None	None	None	None	""	""	81691000
2589	BET02050	2024-05-18T23:20:00	""	""	17.9734	None	None	8.0274	10.8666	12.0301	None	None	None	None	None	""	""	81691000
2590	BET02050	2024-05-18T23:30:00	""	""	17.1648	100	None	10.8924	13.7793	14.5166	10.3077	2.9114	16.9291	None	1.1397	""	""	81691000
2591	BET02050	2024-05-18T23:40:00	""	""	16.8089	100	None	12.9999	14.5374	15.5026	12.5875	1.8167	14.5491	None	1.1332	""	""	81691000
2592	BET02050	2024-05-18T23:50:00	""	""	16.3779	100	None	12.237	15.757	16.3385	15.1358	0.0504	12.3486	None	1.1516	""	""	81691000
2593	BET02050	2024-05-19T00:00:00	""	""	16.3859	100	None	12.4752	15.9768	16.8882	15.9695	2.7939	11.7751	None	1.1532	""	""	81691000
2594	BET02050	2024-05-19T00:10:00	""	""	16.2223	None	None	12.5041	15.9868	17.0667	None	None	None	None	None	""	""	81691000
2595	BET02050	2024-05-19T00:20:00	""	""	16.0502	None	None	13.4043	17.3737	17.9786	None	None	None	None	None	""	""	81691000
2596	BET02050	2024-05-19T00:30:00	""	""	15.8201	None	None	15.0459	19.786	20.4598	None	None	None	None	None	""	""	81691000
2597	BET02050	2024-05-19T00:40:00	""	""	15.8139	None	None	16.3514	21.3128	22.44	None	None	None	None	None	""	""	81691000
2598	BET02050	2024-05-19T00:50:00	""	""	15.673	None	None	16.5141	21.1605	22.4392	None	None	None	None	None	""	""	81691000
2599	BET02050	2024-05-19T01:00:00	""	""	15.6415	None	None	None	None	None	None	None	None	None	None	""	""	81691000
2600	BET02050	2024-05-19T01:10:00	""	""	15.6897	0.7898	None	16.3166	22.2459	23.3137	30.4021	36.669	0.18	None	1.0001	""	""	81691000
2601	BET02050	2024-05-19T01:20:00	""	""	15.7363	1.2698	None	16.3064	22.7735	23.7916	30.4719	38.2991	0.1387	None	1.0001	""	""	81691000
2602	BET02050	2024-05-19T01:30:00	""	""	15.5877	1.9873	None	16.7426	22.7481	24.2879	30.2111	35.9614	0.0358	None	1.0001	""	""	81691000
2603	BET02050	2024-05-19T01:40:00	""	""	15.4682	2.1381	None	16.9844	22.2715	23.503	29.2556	40.492	0.1662	None	1.0001	""	""	81691000
2604	BET02050	2024-05-19T01:50:00	""	""	15.4167	2.2792	None	15.3112	21.4661	22.579	28.842	40.0514	0.2403	None	1.0001	""	""	81691000
2605	BET02050	2024-05-19T02:00:00	""	""	15.432	2.9014	None	15.7202	21.5867	23.1765	27.568	39.7108	0.0784	None	1.0001	""	""	81691000
2606	BET02050	2024-05-19T02:10:00	""	""	15.3062	2.9008	None	15.9963	21.9783	22.6758	26.8239	43.2196	0.0697	None	1.0001	""	""	81691000
2607	BET02050	2024-05-19T02:20:00	""	""	15.2671	3.3266	None	15.9737	21.1271	22.5147	26.2816	41.0214	0.1194	None	1.0001	""	""	81691000
2608	BET02050	2024-05-19T02:30:00	""	""	15.1307	3.3296	None	16.2629	21.8444	22.7987	28.0705	37.9702	0.1915	None	1.0001	""	""	81691000
2609	BET02050	2024-05-19T02:40:00	""	""	15.0356	3.6967	None	17.8708	23.8222	25.085	30.2938	35.8472	0.0103	None	1.0001	""	""	81691000
2610	BET02050	2024-05-19T02:50:00	""	""	15.0044	3.922	None	17.1395	23.7602	25.647	31.0829	31.9783	0.208	None	1.0001	""	""	81691000
2611	BET02050	2024-05-19T03:00:00	""	""	14.9477	4.3604	None	17.5413	23.9713	25.4315	35.1148	26.5896	1.0213	None	1.0001	""	""	81691000
2612	BET02050	2024-05-19T03:10:00	""	""	14.7723	3.934	None	18.9192	24.7958	26.2973	32.2763	26.9955	1.9531	None	1.0001	""	""	81691000
2613	BET02050	2024-05-19T03:20:00	""	""	14.7356	3.8559	None	17.5125	24.2683	25.5491	31.4767	29.2683	1.4718	None	1.0001	""	""	81691000
2614	BET02050	2024-05-19T03:30:00	""	""	14.6304	3.5779	None	17.2189	23.3527	24.4746	30.4416	30.6543	0.8364	None	1.0001	""	""	81691000
2615	BET02050	2024-05-19T03:40:00	""	""	14.6142	3.7627	None	16.8979	22.9062	24.2099	30.1216	30.9575	1.3003	None	1.0001	""	""	81691000
2616	BET02050	2024-05-19T03:50:00	""	""	14.5951	3.8043	None	16.1623	21.6269	23.1845	28.7194	33.2228	0.0059	None	1.0001	""	""	81691000
2617	BET02050	2024-05-19T04:00:00	""	""	14.5805	4.0699	None	15.8892	20.8216	22.3349	28.365	34.6156	0.0537	None	1.0001	""	""	81691000
2618	BET02050	2024-05-19T04:10:00	""	""	14.6268	3.9387	None	15.0927	21.3188	22.3754	27.8283	35.4706	0.0025	None	1.0001	""	""	81691000
2619	BET02050	2024-05-19T04:20:00	""	""	14.685	3.889	None	15.4679	20.2859	20.5622	26.9437	37.4021	0.2045	None	1.0001	""	""	81691000
2620	BET02050	2024-05-19T04:30:00	""	""	14.6332	3.7189	None	15.2766	19.3061	21.3312	27.0606	36.08	0.2017	None	1.0001	""	""	81691000
2621	BET02050	2024-05-19T04:40:00	""	""	14.6148	3.4726	None	16.6112	22.4312	23.7426	26.7256	37.7185	0.2478	None	1.0001	""	""	81691000
2622	BET02050	2024-05-19T04:50:00	""	""	14.6283	3.907	None	16.6543	23.7503	25.8236	26.1885	36.403	0.3914	None	1.0001	""	""	81691000
2623	BET02050	2024-05-19T05:00:00	""	""	14.6893	3.8898	None	17.2688	23.2039	24.1038	26.3254	37.1163	0.8166	None	1.0001	""	""	81691000
2624	BET02050	2024-05-19T05:10:00	""	""	14.7673	4.2547	None	16.9595	23.4672	24.7524	27.2982	36.2205	1.9293	None	1.0001	""	""	81691000
2625	BET02050	2024-05-19T05:20:00	""	""	14.9472	4.517	None	18.5705	25.2898	27.4161	26.3648	38.435	1.5248	None	1.0001	""	""	81691000
2626	BET02050	2024-05-19T05:30:00	""	""	15.11	4.7473	None	17.663	24.519	25.5077	26.7982	37.0086	2.0119	None	1.0001	""	""	81691000
2627	BET02050	2024-05-19T05:40:00	""	""	15.2368	4.4171	None	17.1962	23.6174	24.6225	27.5718	40.3315	1.8659	None	1.0001	""	""	81691000
2628	BET02050	2024-05-19T05:50:00	""	""	15.6411	4.8231	None	16.176	22.5219	24.3855	27.9842	38.9232	2.1895	None	1.0001	""	""	81691000
2629	BET02050	2024-05-19T06:00:00	""	""	16.238	5.9078	None	16.0195	21.9248	23.65	31.1933	50.317	0.6018	None	1	""	""	81691000
2630	BET02050	2024-05-19T06:10:00	""	""	16.9796	7.0167	None	16.0108	21.6956	22.1596	27.2987	63.5491	0.1752	None	1	""	""	81691000
2631	BET02050	2024-05-19T06:20:00	""	""	17.1343	5.789	None	13.0276	17.6799	18.8375	23.2806	67.5876	0.1383	None	1	""	""	81691000
2632	BET02050	2024-05-19T06:30:00	""	""	17.4842	4.0097	None	11	16.3486	17.2183	23.0355	73.4272	0.058	None	1	""	""	81691000
2633	BET02050	2024-05-19T06:40:00	""	""	17.6843	2.586	None	12.9755	17.6152	18.6961	23.308	79.9173	0.0089	None	1	""	""	81691000
2634	BET02050	2024-05-19T06:50:00	""	""	17.9412	1.1021	None	11.8431	15.4715	16.2212	20.908	82.9308	0.204	None	1	""	""	81691000
2635	BET02050	2024-05-19T07:00:00	""	""	18.0284	0.2766	None	11.3922	15.5759	16.5208	20.7964	80.6402	0.0469	None	1	""	""	81691000
2636	BET02050	2024-05-19T07:10:00	""	""	18.279	None	None	11.5235	15.8248	17.1056	None	None	None	None	None	""	""	81691000
2637	BET02050	2024-05-19T07:20:00	""	""	18.7383	None	None	11.5113	14.9644	15.5549	None	None	None	None	None	""	""	81691000
2638	BET02050	2024-05-19T07:30:00	""	""	19.36	100	None	8	12.8207	12.9833	3.8828	41.1681	16.343	None	1.2308	""	""	81691000
2639	BET02050	2024-05-19T07:40:00	""	""	19.6798	100	None	9.2581	12.0917	12.5319	2.511	43.0965	17.5566	None	1.2225	""	""	81691000
2640	BET02050	2024-05-19T07:50:00	""	""	19.5393	100	None	9.2589	11.6186	12.2656	7.5137	35.3513	19.4654	None	1.1799	""	""	81691000
2641	BET02050	2024-05-19T08:00:00	""	""	19.3879	100	None	8.897	11.1402	12.1069	9.6459	33.0626	18.6564	None	1.176	""	""	81691000
2642	BET02050	2024-05-19T08:10:00	""	""	19.5694	100	None	8.4953	9.4807	10.3508	3.849	42.199	16.8651	None	1.2367	""	""	81691000
2643	BET02050	2024-05-19T08:20:00	""	""	19.3587	100	None	7.7377	9.3248	9.7102	12.6365	39.3753	18.7585	None	1.1881	""	""	81691000
2644	BET02050	2024-05-19T08:30:00	""	""	19.9739	100	None	9.7896	11.8033	12.6936	19.7877	17.0875	22.5148	None	1.1384	""	""	81691000
2645	BET02050	2024-05-19T08:40:00	""	""	20.2522	100	None	9	11.3847	11.7221	9.5873	31.2008	18.8796	None	1.1735	""	""	81691000
2646	BET02050	2024-05-19T08:50:00	""	""	20.3101	100	None	7.5987	9.6996	10.3948	10.2457	37.9006	17.8731	None	1.1682	""	""	81691000
2647	BET02050	2024-05-19T09:00:00	""	""	20.4967	100	None	7.2436	9.2755	10.1521	7.9528	40.5869	16.7883	None	1.1668	""	""	81691000
2648	BET02050	2024-05-19T09:10:00	""	""	20.399	99.9995	None	7.0754	9.3267	10.9575	6.1944	42.4618	17.0061	None	1.1288	""	""	81691000
2649	BET02050	2024-05-19T09:20:00	""	""	20.9251	99.9989	None	6.5882	8.8022	9.7284	4.6724	32.6954	17.6795	None	1.1601	""	""	81691000
2650	BET02050	2024-05-19T09:30:00	""	""	20.5326	94.1762	None	6.0637	8.2103	8.8132	8.0902	51.0448	13.2943	None	1.3119	""	""	81691000
2651	BET02050	2024-05-19T09:40:00	""	""	21.1428	98.8445	None	10.799	15.3605	16.7672	8.5717	34.5801	15.4396	None	1.1302	""	""	81691000
2652	BET02050	2024-05-19T09:50:00	""	""	20.7946	96.9794	None	9.2996	12.1768	12.9036	7.9345	43.7177	14.1287	None	1.1806	""	""	81691000
2653	BET02050	2024-05-19T10:00:00	""	""	21.1256	95.3654	None	8.0994	11.0527	12.1605	6.9037	42.0657	15.6512	None	1.2993	""	""	81691000
2654	BET02050	2024-05-19T10:10:00	""	""	20.954	94.827	None	8.6639	10.4739	11.8956	9.1739	40.0342	14.5024	None	1.256	""	""	81691000
2655	BET02050	2024-05-19T10:20:00	""	""	21.3408	94.3573	None	8.065	10.2965	10.5714	10.3543	34.9882	15.6595	None	1.266	""	""	81691000
2656	BET02050	2024-05-19T10:30:00	""	""	21.4738	91.9256	None	7.3347	9.3046	10.3471	7.0502	47.0861	11.7424	None	1.411	""	""	81691000
2657	BET02050	2024-05-19T10:40:00	""	""	21.9271	90.9353	None	6.8846	9.4125	9.4447	2.7409	49.6779	11.8957	None	1.3608	""	""	81691000
2658	BET02050	2024-05-19T10:50:00	""	""	22.8262	87.887	None	5.8509	7.9335	8.2509	0.2474	41.0105	11.3224	None	1.6083	""	""	81691000
2659	BET02050	2024-05-19T11:00:00	""	""	22.6943	85.2462	None	6.3069	8.2046	8.991	0.2416	55.983	10.9711	None	1.6364	""	""	81691000
2660	BET02050	2024-05-19T11:10:00	""	""	22.9026	84.4799	None	9.8137	11.607	11.8777	0.198	43.211	11.1327	None	1.5587	""	""	81691000
2661	BET02050	2024-05-19T11:20:00	""	""	24.2504	82.4619	None	6.4184	8.585	9.2078	0.1888	36.9835	11.0956	None	1.7341	""	""	81691000
2662	BET02050	2024-05-19T11:30:00	""	""	24.769	79.8133	None	7.5036	8.8227	9.8227	0.235	44.6577	10.338	None	1.8108	""	""	81691000
2663	BET02050	2024-05-19T11:40:00	""	""	25.137	75.115	None	6.8313	8.5027	9.0975	0.1044	40.7555	10.6244	None	1.8459	""	""	81691000
2664	BET02050	2024-05-19T11:50:00	""	""	24.2811	77.0297	None	8.0523	10.1714	11.0195	7.7391	40.2554	10.8049	None	1.7478	""	""	81691000
2665	BET02050	2024-05-19T12:00:00	""	""	25.1379	75.0391	None	8.4985	10.9893	11.3695	4.9374	42.1611	10.0046	None	1.8203	""	""	81691000
2666	BET02050	2024-05-19T12:10:00	""	""	24.2611	72.5927	None	6.1386	7.995	8.1753	0.1026	47.4356	10.4555	None	1.7609	""	""	81691000
2667	BET02050	2024-05-19T12:20:00	""	""	25.1461	71.4516	None	5.6623	7.581	8.0621	0.0093	44.6237	9.4587	None	1.8861	""	""	81691000
2668	BET02050	2024-05-19T12:30:00	""	""	24.6697	69.8994	None	6.3779	7.7356	8.2909	1.5157	37.086	10.0166	None	2.0924	""	""	81691000
2669	BET02050	2024-05-19T12:40:00	""	""	24.4205	71.2636	None	6.361	8.489	8.7111	5.1455	48.269	9.3729	None	1.9778	""	""	81691000
2670	BET02050	2024-05-19T12:50:00	""	""	24.8616	70.3282	None	6.2882	8.2663	8.3055	0.8769	48.7458	9.3164	None	2.1423	""	""	81691000
2671	BET02050	2024-05-19T13:00:00	""	""	25.2812	71.9918	None	7.5631	9.3549	9.9658	5.8436	48.9479	9.023	None	1.7316	""	""	81691000
2672	BET02050	2024-05-19T13:10:00	""	""	24.8892	70.0465	None	6.932	8.3696	9.0414	0.1673	51.6988	9.3554	None	2.0141	""	""	81691000
2673	BET02050	2024-05-19T13:20:00	""	""	23.3167	69.039	None	5.9857	7.9831	7.9494	0.6624	51.8282	9.614	None	1.8746	""	""	81691000
2674	BET02050	2024-05-19T13:30:00	""	""	24.533	70.3421	None	6.0538	6.4874	7.3807	4.5219	47.6457	9.003	None	2.1109	""	""	81691000
2675	BET02050	2024-05-19T13:40:00	""	""	23.5135	73.5719	None	4.883	7.0262	7.1518	10.295	48.6397	8.8391	None	1.586	""	""	81691000
2676	BET02050	2024-05-19T13:50:00	""	""	23.5497	75.7457	None	5.3609	6.9326	7.3266	6.03	49.8319	9.1934	None	1.5271	""	""	81691000
2677	BET02050	2024-05-19T14:00:00	""	""	24.1242	74.7635	None	5.285	7.4321	7.7642	6.0439	53.6165	9.043	None	1.6837	""	""	81691000
2678	BET02050	2024-05-19T14:10:00	""	""	24.6041	74.5282	None	4.3874	5.6113	6.6023	4.1222	49.8858	9.079	None	1.7096	""	""	81691000
2679	BET02050	2024-05-19T14:20:00	""	""	24.4784	72.7022	None	4.6621	6.1506	6.6483	2.0032	50.4959	8.8319	None	1.7936	""	""	81691000
2680	BET02050	2024-05-19T14:30:00	""	""	24.7803	70.6084	None	4.4777	6.2301	6.939	1.3325	50.1687	8.8104	None	2.0074	""	""	81691000
2681	BET02050	2024-05-19T14:40:00	""	""	25.3901	68.1539	None	4.5001	5.9872	6.5438	2.8237	48.9466	8.5644	None	2.4024	""	""	81691000
2682	BET02050	2024-05-19T14:50:00	""	""	24.4712	70.8948	None	4.6897	6.6427	7.1062	9.4137	42.5323	8.8133	None	2.008	""	""	81691000
2683	BET02050	2024-05-19T15:00:00	""	""	25.6027	66.9296	None	4.9563	6.5164	6.6991	3.1245	56.9079	8.0887	None	2.3869	""	""	81691000
2684	BET02050	2024-05-19T15:10:00	""	""	23.7958	68.54	None	3.4898	5.4234	5.8967	8.7461	43.4357	8.6406	None	1.8862	""	""	81691000
2685	BET02050	2024-05-19T15:20:00	""	""	24.3058	69.9953	None	3.4743	4.5195	4.9629	16.2999	30.9524	9.2939	None	2.0269	""	""	81691000
2686	BET02050	2024-05-19T15:30:00	""	""	23.9227	72.3736	None	5.1847	6.1563	7.111	11.6682	54.2509	8.3781	None	1.7681	""	""	81691000
2687	BET02050	2024-05-19T15:40:00	""	""	22.4954	74.6806	None	5.1072	6.3032	6.7929	9.9718	45.7448	8.5438	None	1.4479	""	""	81691000
2688	BET02050	2024-05-19T15:50:00	""	""	23.7003	77.4681	None	4.8248	6.8804	7.2088	9.8165	56.1776	8.4036	None	1.6362	""	""	81691000
2689	BET02050	2024-05-19T16:00:00	""	""	23.5362	81.7738	None	4.8802	6	6.5771	9.2966	55.6942	8.7371	None	1.4369	""	""	81691000
2690	BET02050	2024-05-19T16:10:00	""	""	23.6592	82.7451	None	5.3434	7.2706	7.719	19.9301	36.4987	9.3576	None	1.3394	""	""	81691000
2691	BET02050	2024-05-19T16:20:00	""	""	23.0551	82.3442	None	6.7575	9.2976	9.3061	10.2196	55.7647	8.887	None	1.4268	""	""	81691000
2692	BET02050	2024-05-19T16:30:00	""	""	22.9596	85.5075	None	6.5285	8.6559	9.4957	25.3559	28.5072	9.3328	None	1.2421	""	""	81691000
2693	BET02050	2024-05-19T16:40:00	""	""	22.6114	88.3283	None	6.8989	8.5769	9.716	13.184	50.0611	8.6977	None	1.2245	""	""	81691000
2694	BET02050	2024-05-19T16:50:00	""	""	22.3431	90.8452	None	5.4298	6.925	7.5415	13.699	43.8236	8.2102	None	1.1109	""	""	81691000
2695	BET02050	2024-05-19T17:00:00	""	""	21.5572	93.3597	None	7.6409	9.1492	9.3668	13.6011	45.7305	4.8093	None	1.0788	""	""	81691000
2696	BET02050	2024-05-19T17:10:00	""	""	21.7834	95.8109	None	7.4224	9.4677	9.9217	12.2362	42.6145	5.9588	None	1.0634	""	""	81691000
2697	BET02050	2024-05-19T17:20:00	""	""	21.502	97.5472	None	6	8.4044	8.5484	14.8432	40.9221	6.7823	None	1.0467	""	""	81691000
2698	BET02050	2024-05-19T17:30:00	""	""	21.2166	98.4795	None	7.0677	8.9471	9.7699	11.2395	45.4955	7.5522	None	1.049	""	""	81691000
2699	BET02050	2024-05-19T17:40:00	""	""	21.2815	100	None	6.4141	7.8692	8.1589	15.8996	38.2935	7.783	None	1.0376	""	""	81691000
2700	BET02050	2024-05-19T17:50:00	""	""	21.2732	100	None	6.8993	8.3483	9.2746	14.6465	35.9871	7.572	None	1.0369	""	""	81691000
2701	BET02050	2024-05-19T18:00:00	""	""	20.9985	100	None	7	9.1169	9.5915	14.9147	36.8278	7.447	None	1.0411	""	""	81691000
2702	BET02050	2024-05-19T18:10:00	""	""	20.9202	100	None	6.7309	8.8475	9.8049	13.5088	39.9789	8.5453	None	1.0399	""	""	81691000
2703	BET02050	2024-05-19T18:20:00	""	""	20.388	100	None	5.786	7.7025	7.8535	16.9516	34.5682	9.1452	None	1.0461	""	""	81691000
2704	BET02050	2024-05-19T18:30:00	""	""	20.1873	100	None	6	8.2093	8.5423	13.8312	38.7009	9.0747	None	1.0433	""	""	81691000
2705	BET02050	2024-05-19T18:40:00	""	""	19.9707	100	None	8.3758	13.1834	10.8878	9.9477	43.2652	7.815	None	1.0585	""	""	81691000
2706	BET02050	2024-05-19T18:50:00	""	""	19.9194	100	None	6.7951	9.4222	9.6597	10.2424	41.0173	8.8262	None	1.0583	""	""	81691000
2707	BET02050	2024-05-19T19:00:00	""	""	20.1172	100	None	7.5465	10.5904	11.1982	12.2615	37.1967	10.4154	None	1.0607	""	""	81691000
2708	BET02050	2024-05-19T19:10:00	""	""	20.0427	100	None	7.3068	9.4914	10.0994	18.085	29.916	9.8953	None	1.0646	""	""	81691000
2709	BET02050	2024-05-19T19:20:00	""	""	20.1208	100	None	14.717	18.8658	20.3586	17.1302	29.9396	10.4762	None	1.0793	""	""	81691000
2710	BET02050	2024-05-19T19:30:00	""	""	20.1717	100	None	10.4643	14.0811	14.8433	21.6244	22.1024	10.3427	None	1.0663	""	""	81691000
2711	BET02050	2024-05-19T19:40:00	""	""	20.0634	100	None	12.6685	14.6385	15.0064	18.4996	24.4233	10.6929	None	1.0643	""	""	81691000
2712	BET02050	2024-05-19T19:50:00	""	""	19.6099	100	None	8.6413	11.6253	12.7451	14.4157	33.8908	9.9007	None	1.0667	""	""	81691000
2713	BET02050	2024-05-19T20:00:00	""	""	19.4541	100	None	8.0387	10.739	11.8865	18.0332	27.3852	10.5165	None	1.0548	""	""	81691000
2714	BET02050	2024-05-19T20:10:00	""	""	19.6603	100	None	10.382	12.9926	13.2226	23.0088	19.6349	10.2284	None	1.075	""	""	81691000
2715	BET02050	2024-05-19T20:20:00	""	""	19.711	100	None	10.8142	13.694	14.6882	20.9733	17.4856	10.9653	None	1.057	""	""	81691000
2716	BET02050	2024-05-19T20:30:00	""	""	19.7137	100	None	12.679	16.8012	17.9678	20.0859	19.9666	10.8473	None	1.0409	""	""	81691000
2717	BET02050	2024-05-19T20:40:00	""	""	19.6825	100	None	11.9968	15.5747	16.8909	16.0725	23.1938	11.0106	None	1.0573	""	""	81691000
2718	BET02050	2024-05-19T20:50:00	""	""	19.4754	100	None	9.1011	12.2341	12.4626	22.9371	12.3393	12.2216	None	1.0565	""	""	81691000
2719	BET02050	2024-05-19T21:00:00	""	""	19.642	100	None	10.876	14.5217	15.139	23.8567	9.1857	12.227	None	1.0515	""	""	81691000
2720	BET02050	2024-05-19T21:10:00	""	""	19.4883	100	None	15.3641	18.7579	19.695	28.8603	1.2319	12.4222	None	1.0599	""	""	81691000
2721	BET02050	2024-05-19T21:20:00	""	""	19.5613	100	None	12.8518	16.3179	17.4654	24.7956	9.1865	11.4665	None	1.0458	""	""	81691000
2722	BET02050	2024-05-19T21:30:00	""	""	19.3996	100	None	13.037	16.6695	17.1173	22.1481	15.4631	11.6721	None	1.0647	""	""	81691000
2723	BET02050	2024-05-19T21:40:00	""	""	19.2636	100	None	12	15.3334	15.8961	30.3933	3.2685	11.6417	None	1.0646	""	""	81691000
2724	BET02050	2024-05-19T21:50:00	""	""	19.2946	100	None	13.9592	17.8525	18.7746	25.373	7.6091	11.9225	None	1.069	""	""	81691000
2725	BET02050	2024-05-19T22:00:00	""	""	19.3341	100	None	11.7	14.7688	15.9626	17.912	22.576	11.8873	None	1.0673	""	""	81691000
2726	BET02050	2024-05-19T22:10:00	""	""	19.2029	100	None	10.4323	13.2893	14.7124	15.8768	27.9168	11.5909	None	1.0881	""	""	81691000
2727	BET02050	2024-05-19T22:20:00	""	""	19.2144	100	None	10.9317	14.066	15.0204	15.7751	22.6793	11.8621	None	1.0659	""	""	81691000
2728	BET02050	2024-05-19T22:30:00	""	""	19.0853	100	None	11.1303	14.1505	15.3895	21.3959	15.3953	12.3366	None	1.0668	""	""	81691000
2729	BET02050	2024-05-19T22:40:00	""	""	19.0822	None	None	10.2193	12.9842	13.2566	None	None	None	None	None	""	""	81691000
2730	BET02050	2024-05-19T22:50:00	""	""	19.077	None	None	9.3556	12.313	12.9204	None	None	None	None	None	""	""	81691000
2731	BET02050	2024-05-19T23:00:00	""	""	19.0218	None	None	10	12.9704	13.5628	None	None	None	None	None	""	""	81691000
2732	BET02050	2024-05-19T23:10:00	""	""	18.9248	None	None	10.71	13.3303	13.4723	None	None	None	None	None	""	""	81691000
2733	BET02050	2024-05-19T23:20:00	""	""	18.6035	None	None	15.4284	20.6905	21.6201	None	None	None	None	None	""	""	81691000
2734	BET02050	2024-05-19T23:30:00	""	""	18.4798	None	None	14.6434	19.0785	21.0504	None	None	None	None	None	""	""	81691000
2735	BET02050	2024-05-19T23:40:00	""	""	18.3681	None	None	15.1749	19.817	20.9877	None	None	None	None	None	""	""	81691000
2736	BET02050	2024-05-19T23:50:00	""	""	18.3311	None	None	14.8642	20.294	21.6692	None	None	None	None	None	""	""	81691000
2737	BET02050	2024-05-20T00:00:00	""	""	18.2723	None	None	15.0218	19.624	19.929	None	None	None	None	None	""	""	81691000
2738	BET02050	2024-05-20T00:10:00	""	""	17.8822	None	None	13.4825	17.3086	19.0772	None	None	None	None	None	""	""	81691000
2739	BET02050	2024-05-20T00:20:00	""	""	17.7909	None	None	13.809	18.3708	20.0693	None	None	None	None	None	""	""	81691000
2740	BET02050	2024-05-20T00:30:00	""	""	17.7861	None	None	13	18.7713	19.9042	None	None	None	None	None	""	""	81691000
2741	BET02050	2024-05-20T00:40:00	""	""	17.5996	None	None	13.7279	18.2766	19.1743	None	None	None	None	None	""	""	81691000
2742	BET02050	2024-05-20T00:50:00	""	""	17.6378	None	None	13.6077	17.815	18.7035	None	None	None	None	None	""	""	81691000
2743	BET02050	2024-05-20T01:00:00	""	""	17.8232	None	None	None	None	None	None	None	None	None	None	""	""	81691000
2744	BET02050	2024-05-20T01:10:00	""	""	18.1241	None	None	14.0818	18.381	19.8376	None	None	None	None	None	""	""	81691000
2745	BET02050	2024-05-20T01:20:00	""	""	18.104	None	None	13.6096	19.5012	20.9685	None	None	None	None	None	""	""	81691000
2746	BET02050	2024-05-20T01:30:00	""	""	17.9653	0.324	None	15.345	21.0385	22.3895	27.3155	44.5537	0.1742	None	1	""	""	81691000
2747	BET02050	2024-05-20T01:40:00	""	""	17.7386	0.5781	None	16.3743	23.0985	25.0064	29.0356	49.7348	0.0684	None	1	""	""	81691000
2748	BET02050	2024-05-20T01:50:00	""	""	17.8126	2.0465	None	16.9875	23.6906	25.3491	29.9149	51.9251	0.1922	None	1	""	""	81691000
2749	BET02050	2024-05-20T02:00:00	""	""	17.9346	3.2817	None	17.5533	24.316	25.5268	28.6719	31.8618	0.116	None	1	""	""	81691000
2750	BET02050	2024-05-20T02:10:00	""	""	17.7063	2.139	None	16.2029	22.2637	23.643	27.6002	36.7055	0.1394	None	1.0001	""	""	81691000
2751	BET02050	2024-05-20T02:20:00	""	""	17.7249	1.5787	None	15.8668	22.477	23.1735	28.5049	37.1323	0.1171	None	1.0001	""	""	81691000
2752	BET02050	2024-05-20T02:30:00	""	""	17.8128	1.2663	None	15.4233	20.4097	21.3727	28.4294	35.6433	0.1474	None	1.0001	""	""	81691000
2753	BET02050	2024-05-20T02:40:00	""	""	18.0086	0.642	None	15.9638	21.0494	21.4316	29.7831	40.5248	0.1196	None	1.0001	""	""	81691000
2754	BET02050	2024-05-20T02:50:00	""	""	18.1166	1.6876	None	15.173	20.5038	21.641	29.1836	43.4444	0.0152	None	1	""	""	81691000
2755	BET02050	2024-05-20T03:00:00	""	""	18.1359	0.7268	None	16.3351	22.4731	23.24	27.876	39.0271	0.185	None	1.0001	""	""	81691000
2756	BET02050	2024-05-20T03:10:00	""	""	17.9383	0.2478	None	14.4522	19.6348	20.7413	26.1139	36.7198	0.2062	None	1.0001	""	""	81691000
2757	BET02050	2024-05-20T03:20:00	""	""	17.588	None	None	15.749	20.9012	22.1071	None	None	None	None	None	""	""	81691000
2758	BET02050	2024-05-20T03:30:00	""	""	17.3064	0.3681	None	12.8724	16.4792	17.1401	26.9555	45.1583	0.0505	None	1.0001	""	""	81691000
2759	BET02050	2024-05-20T03:40:00	""	""	17.0229	5.6039	None	13.9881	17.8166	19.1468	29.812	45.6682	0.2337	None	1	""	""	81691000
2760	BET02050	2024-05-20T03:50:00	""	""	16.4949	7.2627	None	14.5451	20.8543	21.511	31.6416	38.8068	0.2082	None	1	""	""	81691000
2761	BET02050	2024-05-20T04:00:00	""	""	16.5976	9.5256	None	14.7232	19.5966	20.0604	29.6456	42.7521	0.0105	None	1	""	""	81691000
2762	BET02050	2024-05-20T04:10:00	""	""	16.7267	9.8219	None	14.2203	18.2552	18.6494	28.7311	42.7643	0.0876	None	1	""	""	81691000
2763	BET02050	2024-05-20T04:20:00	""	""	16.8401	9.9993	None	14.6634	19.4766	20.0305	29.8063	44.6229	0.1741	None	1	""	""	81691000
2764	BET02050	2024-05-20T04:30:00	""	""	16.8707	9.8088	None	14.5284	20.0034	21.0985	33.1739	50.201	0.0245	None	1	""	""	81691000
2765	BET02050	2024-05-20T04:40:00	""	""	16.9344	10.6677	None	16.4803	21.8527	24.0729	39.7737	34.0278	0.087	None	1	""	""	81691000
2766	BET02050	2024-05-20T04:50:00	""	""	16.9649	10.4111	None	14.1916	19.4205	20.5049	33.5639	41.9781	0.0608	None	1	""	""	81691000
2767	BET02050	2024-05-20T05:00:00	""	""	16.5816	10.2759	None	15.9132	20.9132	22.714	34.1014	28.8906	3.2844	None	1.0001	""	""	81691000
2768	BET02050	2024-05-20T05:10:00	""	""	16.3038	10.0198	None	15.7109	21.1339	23.0563	33.5553	28.891	5.2883	None	1.0001	""	""	81691000
2769	BET02050	2024-05-20T05:20:00	""	""	16.4116	9.4889	None	15.6012	21.2893	21.9501	30.1294	37.9109	2.666	None	1	""	""	81691000
2770	BET02050	2024-05-20T05:30:00	""	""	16.6583	9.5542	None	14.1248	18.5525	19.9856	30.4606	37.7293	2.3908	None	1	""	""	81691000
2771	BET02050	2024-05-20T05:40:00	""	""	16.8025	9.3138	None	12.7865	17.8049	18.473	31.1067	34.4648	3.6007	None	1	""	""	81691000
2772	BET02050	2024-05-20T05:50:00	""	""	16.9022	9.4293	None	13.423	16.5683	18.0529	26.1209	44.2136	1.8747	None	1	""	""	81691000
2773	BET02050	2024-05-20T06:00:00	""	""	16.9219	8.8245	None	11.8655	15.4771	16.1689	24.6642	46.5285	1.2913	None	1	""	""	81691000
2774	BET02050	2024-05-20T06:10:00	""	""	16.894	8.1991	None	12	15.3326	15.6514	27.1173	45.2807	1.2046	None	1	""	""	81691000
2775	BET02050	2024-05-20T06:20:00	""	""	16.9346	7.8282	None	12.3444	16.5457	17.2165	32.5031	34.9703	3.7319	None	1	""	""	81691000
2776	BET02050	2024-05-20T06:30:00	""	""	17.0896	7.7465	None	15.9534	21.0868	22.1794	38.043	27.8133	15.0152	None	1.0001	""	""	81691000
2777	BET02050	2024-05-20T06:40:00	""	""	17.0926	6.8253	None	16.9675	22.4985	23.7579	36.6215	30.8132	12.0609	None	1.0001	""	""	81691000
2778	BET02050	2024-05-20T06:50:00	""	""	17.3224	6.4108	None	16.6363	21.3272	23.6221	35.8631	32.214	8.5958	None	1.0001	""	""	81691000
2779	BET02050	2024-05-20T07:00:00	""	""	17.7391	1.1128	None	13.6354	18.7445	19.2074	25.9985	49.6626	1.9632	None	1	""	""	81691000
2780	BET02050	2024-05-20T07:10:00	""	""	17.9214	None	None	10.8734	14.5011	15.467	None	None	None	None	None	""	""	81691000
2781	BET02050	2024-05-20T07:20:00	""	""	18.0126	100	None	9.7255	13.3123	13.6197	11.5933	14.9734	20.2003	None	1.1564	""	""	81691000
2782	BET02050	2024-05-20T07:30:00	""	""	18.2489	100	None	9.0371	12.1944	12.6535	11.2653	16.3055	21.2847	None	1.1643	""	""	81691000
2783	BET02050	2024-05-20T07:40:00	""	""	18.6078	100	None	9	10.044	10.5838	0.1853	33.3037	19.237	None	1.2176	""	""	81691000
2784	BET02050	2024-05-20T07:50:00	""	""	19.1645	100	None	7.9091	10.5535	10.8658	0.0113	32.5994	19.9156	None	1.2487	""	""	81691000
2785	BET02050	2024-05-20T08:00:00	""	""	19.4951	100	None	7	10.4365	10.9813	1.2536	33.7768	18.7592	None	1.1573	""	""	81691000
2786	BET02050	2024-05-20T08:10:00	""	""	19.7289	96.829	None	7.9175	9.6022	10.0999	0.1116	33.3377	19.1684	None	1.3429	""	""	81691000
2787	BET02050	2024-05-20T08:20:00	""	""	20.0912	93.6454	None	7.0001	9.2984	10.065	0.238	41.937	16.4443	None	1.4218	""	""	81691000
2788	BET02050	2024-05-20T08:30:00	""	""	20.2908	89.7027	None	6.6769	8.4982	8.6575	0.1058	39.4344	16.1931	None	1.5187	""	""	81691000
2789	BET02050	2024-05-20T08:40:00	""	""	20.515	86.6911	None	5.9235	7.474	7.9567	0.0017	45.5658	14.2982	None	1.7124	""	""	81691000
2790	BET02050	2024-05-20T08:50:00	""	""	20.54	83.8362	None	5.8045	7.2099	7.5546	0.0312	46.3659	12.9619	None	1.7439	""	""	81691000
2791	BET02050	2024-05-20T09:00:00	""	""	20.6325	77.709	None	5	6.4214	7.0138	0.206	52.0468	12.4058	None	1.9885	""	""	81691000
2792	BET02050	2024-05-20T09:10:00	""	""	21.161	79.4871	None	5.2338	6.8039	7.1267	0.0175	44.9934	12.5709	None	1.8774	""	""	81691000
2793	BET02050	2024-05-20T09:20:00	""	""	21.7842	73.2108	None	4.6285	5.8251	6.0671	0.0624	47.4098	11.1546	None	2.0023	""	""	81691000
2794	BET02050	2024-05-20T09:30:00	""	""	21.7877	72.2005	None	4	5.5399	6.004	0.1794	48.4652	11.1248	None	2.0065	""	""	81691000
2795	BET02050	2024-05-20T09:40:00	""	""	22.6189	71.7195	None	4.6478	5.9445	7.0519	0.1323	45.9337	11.0979	None	2.0285	""	""	81691000
2796	BET02050	2024-05-20T09:50:00	""	""	22.9183	69.8453	None	4.4189	5.8079	5.8655	0.0718	47.838	10.8894	None	2.0489	""	""	81691000
2797	BET02050	2024-05-20T10:00:00	""	""	22.4931	63.9623	None	4.0927	4.8921	5.2302	0.1368	53.2699	11.0823	None	2.0548	""	""	81691000
2798	BET02050	2024-05-20T10:10:00	""	""	23.1181	65.0612	None	3.6383	5.5491	5.4034	0.0207	54.8212	9.9854	None	2.091	""	""	81691000
2799	BET02050	2024-05-20T10:20:00	""	""	23.8239	71.1171	None	6.1127	8.0462	8.4099	2.6082	37.2779	10.3617	None	2.1951	""	""	81691000
2800	BET02050	2024-05-20T10:30:00	""	""	23.2657	71.6415	None	6.4788	8.6131	9.7731	12.68	46.0271	10.1516	None	2.0498	""	""	81691000
2801	BET02050	2024-05-20T10:40:00	""	""	22.7521	69.6652	None	8.3236	10.0573	10.6858	8.3693	45.3785	10.0501	None	2.0254	""	""	81691000
2802	BET02050	2024-05-20T10:50:00	""	""	23.6722	70.4163	None	7.8041	9.6278	10.2511	2.7811	46.8662	10.1546	None	2.1516	""	""	81691000
2803	BET02050	2024-05-20T11:00:00	""	""	23.7499	68.8897	None	7.0658	9.144	9.6296	0.0317	50.2533	9.757	None	2.1736	""	""	81691000
2804	BET02050	2024-05-20T11:10:00	""	""	23.8246	66.0688	None	6.507	7.833	8.377	0.0239	54.5115	9.5437	None	2.2495	""	""	81691000
2805	BET02050	2024-05-20T11:20:00	""	""	24.5455	63.857	None	6.7365	8.1204	8.5039	0.2419	54.7025	9.6162	None	2.6043	""	""	81691000
2806	BET02050	2024-05-20T11:30:00	""	""	24.9355	62.1157	None	5.6306	7.0591	7.3243	0.045	56.8391	9.1971	None	2.6926	""	""	81691000
2807	BET02050	2024-05-20T11:40:00	""	""	25.5781	58.5062	None	5.5969	7.4794	7.6054	0.1455	56.3529	9.3295	None	3.2091	""	""	81691000
2808	BET02050	2024-05-20T11:50:00	""	""	24.5966	59.2319	None	5.8441	7.6559	8.0573	4.4949	66.2203	8.6872	None	3.0548	""	""	81691000
2809	BET02050	2024-05-20T12:00:00	""	""	25.3382	58.5439	None	6	7.4786	7.9523	2.9725	64.0655	8.6789	None	3.1588	""	""	81691000
2810	BET02050	2024-05-20T12:10:00	""	""	24.8527	57.9071	None	5.9666	7.438	7.528	0.8805	66.6116	8.578	None	3.2378	""	""	81691000
2811	BET02050	2024-05-20T12:20:00	""	""	23.9202	57.5657	None	5.5801	6.6061	7.0593	4.1323	64.9211	8.3793	None	2.6745	""	""	81691000
2812	BET02050	2024-05-20T12:30:00	""	""	24.0115	60.6506	None	5.6461	7.0629	7.2163	9.7319	66.5465	7.9063	None	2.8451	""	""	81691000
2813	BET02050	2024-05-20T12:40:00	""	""	23.4062	59.759	None	5	6.2537	6.2708	5.4822	71.2771	8.1193	None	2.5545	""	""	81691000
2814	BET02050	2024-05-20T12:50:00	""	""	24.2205	61.8003	None	4.0001	6.293	6.454	7.3414	63.6806	8.2676	None	3.2399	""	""	81691000
2815	BET02050	2024-05-20T13:00:00	""	""	23.8221	60.4486	None	4.125	5	5.5227	7.1948	71.965	8.332	None	3.0222	""	""	81691000
2816	BET02050	2024-05-20T13:10:00	""	""	23.4259	61.8111	None	4	5.1037	5.31	7.7916	72.2971	8.1694	None	2.8175	""	""	81691000
2817	BET02050	2024-05-20T13:20:00	""	""	23.1857	65.3752	None	4	5.4563	6.1199	9.882	84.4587	7.6612	None	2.9752	""	""	81691000
2818	BET02050	2024-05-20T13:30:00	""	""	23.2788	69.4533	None	4.8711	6.0678	6.4107	16.0017	81.3853	7.759	None	3.2486	""	""	81691000
2819	BET02050	2024-05-20T13:40:00	""	""	23.3528	69.075	None	5.349	6.624	6.8991	12.1813	83.623	7.7845	None	3.3828	""	""	81691000
2820	BET02050	2024-05-20T13:50:00	""	""	22.6822	70.2117	None	4.4793	5.6664	5.9615	10.4639	86.6447	7.8204	None	2.3821	""	""	81691000
2821	BET02050	2024-05-20T14:00:00	""	""	22.8835	71.8901	None	4.5	5.8361	5.6688	9.8707	82.5036	8.0346	None	2.418	""	""	81691000
2822	BET02050	2024-05-20T14:10:00	""	""	22.8439	72.7206	None	3.2707	4.3266	4.4657	9.7206	79.3364	8.4713	None	2.329	""	""	81691000
2823	BET02050	2024-05-20T14:20:00	""	""	22.7354	73.8565	None	4.076	5.1355	5.2571	8.1038	77.8997	8.4201	None	2.2637	""	""	81691000
2824	BET02050	2024-05-20T14:30:00	""	""	23.129	64.1752	None	3.5972	4.4016	4.0682	0.034	67.7695	9.1355	None	2.4906	""	""	81691000
2825	BET02050	2024-05-20T14:40:00	""	""	23.5735	59.8664	None	2.3353	3	3	0.0779	72.7161	8.8531	None	3.0626	""	""	81691000
2826	BET02050	2024-05-20T14:50:00	""	""	24.5007	57.7608	None	2.769	3.6716	3.7229	0.0473	75.809	8.5608	None	3.1823	""	""	81691000
2827	BET02050	2024-05-20T15:00:00	""	""	24.2871	53.4653	None	3.1389	4	4.117	0.2289	70.9935	8.5095	None	3.2985	""	""	81691000
2828	BET02050	2024-05-20T15:10:00	""	""	24.9171	55.8915	None	3	3.737	3.737	4.3558	68.8409	8.1529	None	3.2617	""	""	81691000
2829	BET02050	2024-05-20T15:20:00	""	""	24.2452	57.8986	None	3.1946	4	4	4.6492	79.2523	8.0299	None	3.2526	""	""	81691000
2830	BET02050	2024-05-20T15:30:00	""	""	24.1177	54.379	None	3	3.8637	3.9909	0.0485	69.2046	8.5974	None	3.2113	""	""	81691000
2831	BET02050	2024-05-20T15:40:00	""	""	24.6683	55.6299	None	3.2012	3	3	4.6013	66.9273	8.2126	None	3.2204	""	""	81691000
2832	BET02050	2024-05-20T15:50:00	""	""	24.3526	54.2095	None	3.0467	4.2219	4.3676	2.297	65.9296	8.4107	None	3.2325	""	""	81691000
2833	BET02050	2024-05-20T16:00:00	""	""	24.049	56.892	None	3	3.8582	3.9841	5.1032	64.0727	7.9697	None	2.8932	""	""	81691000
2834	BET02050	2024-05-20T16:10:00	""	""	23.7468	56.6171	None	3.0703	3.344	3.3935	6.3868	72.8962	7.7129	None	2.9112	""	""	81691000
2835	BET02050	2024-05-20T16:20:00	""	""	23.9248	57.8207	None	2	3.3338	3.398	7.5736	68.0945	7.6996	None	2.9	""	""	81691000
2836	BET02050	2024-05-20T16:30:00	""	""	24.4022	59.4809	None	2.0001	3.8714	4	9.0241	65.783	7.5317	None	2.9602	""	""	81691000
2837	BET02050	2024-05-20T16:40:00	""	""	23.3873	58.1209	None	2	3.2427	3	6.2639	66.9799	7.7951	None	2.6904	""	""	81691000
2838	BET02050	2024-05-20T16:50:00	""	""	23.1925	60.8543	None	2.3309	2.6724	3.1621	10.0599	71.7347	7.5325	None	2.5395	""	""	81691000
2839	BET02050	2024-05-20T17:00:00	""	""	22.9437	60.2135	None	1.6417	2.4191	2.4844	5.5565	68.1759	8.0465	None	2.4978	""	""	81691000
2840	BET02050	2024-05-20T17:10:00	""	""	22.1442	60.8012	None	1	1.9965	2.5155	10.6786	75.4352	7.5735	None	2.3444	""	""	81691000
2841	BET02050	2024-05-20T17:20:00	""	""	22.3375	62.995	None	1.8748	2.4583	2.7774	11.0082	69.605	7.8142	None	2.2582	""	""	81691000
2842	BET02050	2024-05-20T17:30:00	""	""	22.1631	66.982	None	2.4355	2.6034	3.0555	13.2155	69.9076	7.8833	None	2.1412	""	""	81691000
2843	BET02050	2024-05-20T17:40:00	""	""	22.1796	61.8774	None	1	2.0488	1.9652	1.418	61.2388	8.6225	None	2.2508	""	""	81691000
2844	BET02050	2024-05-20T17:50:00	""	""	22.154	61.2321	None	1.3164	1.6854	1.8598	6.594	69.4039	8.3404	None	2.2666	""	""	81691000
2845	BET02050	2024-05-20T18:00:00	""	""	21.9582	62.1193	None	0.8456	1.5839	1.8076	10.0983	71.2743	8.2011	None	2.2224	""	""	81691000
2846	BET02050	2024-05-20T18:10:00	""	""	21.877	63.0707	None	1	2.4848	2.6312	9.7236	68.4985	8.1691	None	2.1886	""	""	81691000
2847	BET02050	2024-05-20T18:20:00	""	""	22.0197	63.0337	None	1.5634	2.4457	3.0603	11.9732	60.3192	8.4526	None	2.1313	""	""	81691000
2848	BET02050	2024-05-20T18:30:00	""	""	22.1978	57.0718	None	1.2319	2.0694	2.3078	0.1557	52.2587	8.936	None	2.3742	""	""	81691000
2849	BET02050	2024-05-20T18:40:00	""	""	21.8265	54.1786	None	1.18	1.7158	1.6681	0.1166	59.2877	8.9363	None	2.5925	""	""	81691000
2850	BET02050	2024-05-20T18:50:00	""	""	21.5949	54.1759	None	1	1.8958	1.8896	3.5147	63.6182	8.3719	None	2.488	""	""	81691000
2851	BET02050	2024-05-20T19:00:00	""	""	21.3484	54.8868	None	0.727	1.5742	1.4006	7.7757	58.8993	6.6558	None	2.3071	""	""	81691000
2852	BET02050	2024-05-20T19:10:00	""	""	21.3202	54.6608	None	1	2	2	7.1468	57.807	6.7041	None	2.3753	""	""	81691000
2853	BET02050	2024-05-20T19:20:00	""	""	21.0711	56.2549	None	2.0038	2.0001	2.6555	13.2816	60.4616	3.9892	None	2.1482	""	""	81691000
2854	BET02050	2024-05-20T19:30:00	""	""	20.8642	57.7498	None	2.8301	3.8685	4.1943	14.7042	54.6367	2.4362	None	1.9916	""	""	81691000
2855	BET02050	2024-05-20T19:40:00	""	""	20.7995	57.5514	None	3	3.7205	3.6853	15.5317	47.7848	2.3427	None	2.0366	""	""	81691000
2856	BET02050	2024-05-20T19:50:00	""	""	20.9629	56.9408	None	2.5966	3.0001	4.0755	13.8616	71.3493	3.9508	None	2.0962	""	""	81691000
2857	BET02050	2024-05-20T20:00:00	""	""	20.9473	61.0365	None	3.2312	4.2028	4.6596	21.8396	62.1823	4.5862	None	2.0898	""	""	81691000
2858	BET02050	2024-05-20T20:10:00	""	""	20.7535	63.0534	None	3.0054	4.3438	4.7122	17.2176	65.5343	2.355	None	2.0235	""	""	81691000
2859	BET02050	2024-05-20T20:20:00	""	""	20.6504	63.8584	None	2	3.0049	3.1178	16.2573	62.1629	1.5974	None	2.0175	""	""	81691000
2860	BET02050	2024-05-20T20:30:00	""	""	20.6464	65.2914	None	3	3.6405	4.4026	38.7015	40.5007	1.199	None	1.9463	""	""	81691000
2861	BET02050	2024-05-20T20:40:00	""	""	20.3565	78.3853	None	8.2193	10.9644	10.9342	33.8537	83.1436	0.0171	None	1.9562	""	""	81691000
2862	BET02050	2024-05-20T20:50:00	""	""	19.832	86.4194	None	10.4805	13.9573	14.3174	29.4132	78.1719	0.2004	None	1.5717	""	""	81691000
2863	BET02050	2024-05-20T21:00:00	""	""	19.664	91.6503	None	9.9901	12.9325	14.0202	31.7013	55.3062	0.1309	None	1.2989	""	""	81691000
2864	BET02050	2024-05-20T21:10:00	""	""	19.5667	97.3923	None	11.0898	14.0101	15.2858	27.5768	59.5423	0.0779	None	1.2031	""	""	81691000
2865	BET02050	2024-05-20T21:20:00	""	""	19.641	100	None	11.483	14.6184	15.4729	26.4911	53.9938	2.7265	None	1.1309	""	""	81691000
2866	BET02050	2024-05-20T21:30:00	""	""	19.5478	100	None	12.7451	16.8386	17.9711	24.2511	42.5057	4.9007	None	1.1087	""	""	81691000
2867	BET02050	2024-05-20T21:40:00	""	""	19.541	100	None	12.4638	16.3537	17.3139	25.4448	38.556	7.3854	None	1.0922	""	""	81691000
2868	BET02050	2024-05-20T21:50:00	""	""	19.5538	98.8675	None	12.0136	15.6232	16.3841	20.1177	31.0474	8.0646	None	1.0985	""	""	81691000
2869	BET02050	2024-05-20T22:00:00	""	""	19.6157	98.774	None	11.8546	15.4948	15.5714	20.0199	45.8457	8.1687	None	1.1035	""	""	81691000
2870	BET02050	2024-05-20T22:10:00	""	""	19.4376	99.0904	None	12.0498	16.4517	16.5065	17.8895	31.9005	8.8961	None	1.1069	""	""	81691000
2871	BET02050	2024-05-20T22:20:00	""	""	19.4473	98.7835	None	12.1474	16.1633	17.7543	18.8922	32.0016	9.3796	None	1.1198	""	""	81691000
2872	BET02050	2024-05-20T22:30:00	""	""	19.2502	99.3601	None	13.0794	17.5554	18.1439	19.7007	29.3112	9.6827	None	1.118	""	""	81691000
2873	BET02050	2024-05-20T22:40:00	""	""	19.202	100	None	14.4859	19.6971	21.0651	17.1128	31.4198	10.2278	None	1.0877	""	""	81691000
2874	BET02050	2024-05-20T22:50:00	""	""	19.1035	100	None	14.0768	19.0967	20.529	16.1047	41.1346	9.8457	None	1.1027	""	""	81691000
2875	BET02050	2024-05-20T23:00:00	""	""	19.0148	100	None	14.6121	20.1746	21.3229	17.1352	39.5298	10.4102	None	1.1152	""	""	81691000
2876	BET02050	2024-05-20T23:10:00	""	""	18.8611	100	None	14.8983	19.5716	20.4486	16.1221	34.0911	11.2486	None	1.1101	""	""	81691000
2877	BET02050	2024-05-20T23:20:00	""	""	18.8425	100	None	14.3427	18.3661	20.1024	16.7335	35.6281	12.5339	None	1.1076	""	""	81691000
2878	BET02050	2024-05-20T23:30:00	""	""	18.7853	100	None	14.6824	21.0559	22.5984	16.4701	31.7332	20.02	None	1.1014	""	""	81691000
2879	BET02050	2024-05-20T23:40:00	""	""	18.6911	100	None	15.5851	21.3325	21.8717	13.9857	9.2419	18.245	None	1.1024	""	""	81691000
2880	BET02050	2024-05-20T23:50:00	""	""	17.9497	95.8249	None	11.2707	14.4498	15.1928	12.6526	10.4676	17.5459	None	1.185	""	""	81691000
2881	BET02050	2024-05-21T00:00:00	""	""	17.6712	94.077	None	11.1231	14.6876	15.8517	13.8487	10.4047	16.6301	None	1.2146	""	""	81691000
2882	BET02050	2024-05-21T00:10:00	""	""	17.4569	92.4941	None	12.2833	15.542	16.5765	15.6677	10.0568	15.293	None	1.222	""	""	81691000
2883	BET02050	2024-05-21T00:20:00	""	""	17.4475	93.1358	None	12.063	15.7856	16.5279	16.417	11.2958	14.5204	None	1.2382	""	""	81691000
2884	BET02050	2024-05-21T00:30:00	""	""	17.4274	94.8377	None	12.7828	16.8193	17.8668	13.5156	21.5825	12.96	None	1.1879	""	""	81691000
2885	BET02050	2024-05-21T00:40:00	""	""	17.3227	97.2495	None	13.8219	17.9664	19.0447	14.4359	19.3077	12.9284	None	1.1719	""	""	81691000
2886	BET02050	2024-05-21T00:50:00	""	""	17.1799	97.9399	None	13.1533	17.476	19.1606	14.7578	16.8726	13.354	None	1.1736	""	""	81691000
2887	BET02050	2024-05-21T01:00:00	""	""	16.9739	97.1743	None	None	None	None	16.0436	14.6628	13.5055	None	1.157	""	""	81691000
2888	BET02050	2024-05-21T01:10:00	""	""	16.882	100	None	14.9517	19.9845	21.6522	15.166	18.9341	13.0886	None	1.1293	""	""	81691000
2889	BET02050	2024-05-21T01:20:00	""	""	16.749	100	None	16.6964	22.6643	24.259	15.6196	17.4064	12.9688	None	1.1389	""	""	81691000
2890	BET02050	2024-05-21T01:30:00	""	""	16.6575	100	None	16.6036	21.8744	24.1805	15.5938	20.3664	12.9092	None	1.1676	""	""	81691000
2891	BET02050	2024-05-21T01:40:00	""	""	16.6645	100	None	17.1969	24.1118	24.749	16.1934	18.3313	12.7369	None	1.1485	""	""	81691000
2892	BET02050	2024-05-21T01:50:00	""	""	16.6222	100	None	18.6159	26.8913	28.3918	16.813	18.3992	12.7268	None	1.1516	""	""	81691000
2893	BET02050	2024-05-21T02:00:00	""	""	16.5393	100	None	19.058	26.7246	29.2157	16.2331	15.6932	13.2886	None	1.1642	""	""	81691000
2894	BET02050	2024-05-21T02:10:00	""	""	16.4163	100	None	18.3845	26.3451	27.6988	16.1353	13.5312	13.4911	None	1.1676	""	""	81691000
2895	BET02050	2024-05-21T02:20:00	""	""	16.1045	100	None	18.7707	26.6512	27.9854	15.1594	13.4151	13.1262	None	1.1362	""	""	81691000
2896	BET02050	2024-05-21T02:30:00	""	""	15.9317	100	None	17.9408	25.0256	27.1037	15.2696	9.8189	12.712	None	1.1737	""	""	81691000
2897	BET02050	2024-05-21T02:40:00	""	""	15.6863	100	None	19.1837	28.2747	29.6832	18.2297	3.3989	12.0957	None	1.2121	""	""	81691000
2898	BET02050	2024-05-21T02:50:00	""	""	15.5603	100	None	20	29.7777	33.2328	18.5551	3.9403	11.7859	None	1.2149	""	""	81691000
2899	BET02050	2024-05-21T03:00:00	""	""	15.4978	100	None	21.9999	30.7324	33.4164	18.9835	3.4163	12.2069	None	1.2465	""	""	81691000
2900	BET02050	2024-05-21T03:10:00	""	""	15.494	100	None	21	30.6811	33.1041	19.4665	4.5549	11.2996	None	1.1881	""	""	81691000
2901	BET02050	2024-05-21T03:20:00	""	""	15.7781	100	None	20.6493	29.2069	32.0177	16.7429	11.4971	12.2685	None	1.1723	""	""	81691000
2902	BET02050	2024-05-21T03:30:00	""	""	16.04	100	None	19.2194	27.5174	28.8064	22.3142	2.8985	14.3697	None	1.2155	""	""	81691000
2903	BET02050	2024-05-21T03:40:00	""	""	15.9674	100	None	19.7956	26.1448	28.187	18.3606	4.504	14.3186	None	1.1875	""	""	81691000
2904	BET02050	2024-05-21T03:50:00	""	""	15.9735	100	None	17.0395	23.8678	27.7872	14.383	6.2296	14.9385	None	1.1802	""	""	81691000
2905	BET02050	2024-05-21T04:00:00	""	""	15.8664	96.8924	None	15.7509	22.2148	23.2955	16.585	4.4192	15.3133	None	1.2053	""	""	81691000
2906	BET02050	2024-05-21T04:10:00	""	""	15.9588	88.026	None	13.6245	17.9164	18.5067	3.3571	9.663	18.1531	None	1.3529	""	""	81691000
2907	BET02050	2024-05-21T04:20:00	""	""	16.0483	79.8718	None	10.0632	13.0715	13.9932	2.1343	12.6579	18.7463	None	1.4418	""	""	81691000
2908	BET02050	2024-05-21T04:30:00	""	""	16.2572	73.6661	None	6	8.9999	8.8932	1.928	20.8926	17.8018	None	1.4769	""	""	81691000
2909	BET02050	2024-05-21T04:40:00	""	""	16.2866	71.5756	None	4.0001	7	6.3153	0.8208	24.9982	17.1156	None	1.5822	""	""	81691000
2910	BET02050	2024-05-21T04:50:00	""	""	16.4041	69.8537	None	4	5.3882	5.4123	8.6369	25.4574	17.1701	None	1.3942	""	""	81691000
2911	BET02050	2024-05-21T05:00:00	""	""	16.3605	69.9897	None	5	5.6543	6.2106	17.8779	13.9206	18.1565	None	1.3841	""	""	81691000
2912	BET02050	2024-05-21T05:10:00	""	""	16.4486	69.4264	None	4.5695	6.0746	6.1891	14.4995	18.226	16.5535	None	1.447	""	""	81691000
2913	BET02050	2024-05-21T05:20:00	""	""	16.5179	68.6924	None	4	4.9521	5.3476	13.6538	20.3228	16.2582	None	1.5012	""	""	81691000
2914	BET02050	2024-05-21T05:30:00	""	""	16.6923	68.1035	None	4	5	5.7311	14.8515	20.8803	16.1478	None	1.4171	""	""	81691000
2915	BET02050	2024-05-21T05:40:00	""	""	16.9017	67.1484	None	4.3469	5.0001	6.2291	14.7101	21.8137	15.3689	None	1.5655	""	""	81691000
2916	BET02050	2024-05-21T05:50:00	""	""	17.1502	65.7285	None	4	5.5722	5.7487	8.1903	24.616	14.4781	None	1.6874	""	""	81691000
2917	BET02050	2024-05-21T06:00:00	""	""	17.3425	64.2302	None	3.032	3.7466	3.9057	8.0704	33.4628	13.2715	None	1.6222	""	""	81691000
2918	BET02050	2024-05-21T06:10:00	""	""	17.4583	63.4959	None	2.904	4	4	5.7624	35.6307	12.1838	None	1.7401	""	""	81691000
2919	BET02050	2024-05-21T06:20:00	""	""	17.6924	62.6699	None	3.9999	3.7724	3.9545	5.3986	32.9723	12.39	None	1.6974	""	""	81691000
2920	BET02050	2024-05-21T06:30:00	""	""	17.7677	62.1589	None	3	4	4	9.9625	31.2435	12.91	None	1.6267	""	""	81691000
2921	BET02050	2024-05-21T06:40:00	""	""	17.9494	61.7148	None	3	4	4.0388	12.3465	29.5936	14.1163	None	1.5277	""	""	81691000
2922	BET02050	2024-05-21T06:50:00	""	""	18.1878	60.6546	None	4	4.6419	5.1504	12.0621	29.8653	13.2614	None	1.5806	""	""	81691000
2923	BET02050	2024-05-21T07:00:00	""	""	18.2937	60.3938	None	4.3368	6.101	5.6516	13.8999	31.578	13.8058	None	1.578	""	""	81691000
2924	BET02050	2024-05-21T07:10:00	""	""	18.5601	59.9537	None	6.33	7.8182	8.5643	13.3132	30.6467	13.7843	None	1.6024	""	""	81691000
2925	BET02050	2024-05-21T07:20:00	""	""	19.0146	59.2435	None	5.7752	7.3681	7.6116	15.0952	32.7134	12.0247	None	1.603	""	""	81691000
2926	BET02050	2024-05-21T07:30:00	""	""	19.1943	57.6957	None	5.0466	6.2677	6.8062	11.1634	31.2864	12.7228	None	1.6607	""	""	81691000
2927	BET02050	2024-05-21T07:40:00	""	""	19.4219	56.6468	None	5	6.1969	7	9.7635	33.1962	11.557	None	1.6811	""	""	81691000
2928	BET02050	2024-05-21T07:50:00	""	""	19.6584	56.0592	None	4	5	5.3425	11.2078	32.4015	11.6804	None	1.7352	""	""	81691000
2929	BET02050	2024-05-21T08:00:00	""	""	19.9519	55.1603	None	3.7238	4.3358	4.9402	12.2771	34.0208	8.3065	None	1.6878	""	""	81691000
2930	BET02050	2024-05-21T08:10:00	""	""	20.4737	53.0151	None	3.3849	4.0896	4.2532	6.786	35.0165	7.3481	None	2.0099	""	""	81691000
2931	BET02050	2024-05-21T08:20:00	""	""	20.8753	51.7282	None	4.1526	4.9113	5.465	3.1021	32.3892	10.0727	None	2.1907	""	""	81691000
2932	BET02050	2024-05-21T08:30:00	""	""	20.8907	51.0928	None	2.0001	3.5887	3.685	7.853	37.4262	7.3828	None	2.1359	""	""	81691000
2933	BET02050	2024-05-21T08:40:00	""	""	21.0853	54.839	None	4.2318	5.3484	5.5011	30.1911	33.7529	9.7665	None	1.8249	""	""	81691000
2934	BET02050	2024-05-21T08:50:00	""	""	20.8466	55.7754	None	4.2702	5.4945	5.6989	15.648	39.1035	5.2481	None	1.9643	""	""	81691000
2935	BET02050	2024-05-21T09:00:00	""	""	20.8324	55.3346	None	4.2164	5.7723	5.7977	20.4541	33.8503	9.4805	None	1.9154	""	""	81691000
2936	BET02050	2024-05-21T09:10:00	""	""	20.9308	55.4086	None	5.0499	6.0374	6.1874	16.6094	42.8059	5.9691	None	1.9963	""	""	81691000
2937	BET02050	2024-05-21T09:20:00	""	""	20.8544	58.4591	None	5	6.3789	6.5334	21.6083	47.6575	3.8499	None	1.9831	""	""	81691000
2938	BET02050	2024-05-21T09:30:00	""	""	20.7858	60.7495	None	5	7.5185	7.8753	26.3258	51.6339	2.6996	None	1.9797	""	""	81691000
2939	BET02050	2024-05-21T09:40:00	""	""	20.9495	62.737	None	6	8.6858	8.5719	24.107	45.9563	3.7147	None	1.9756	""	""	81691000
2940	BET02050	2024-05-21T09:50:00	""	""	20.9697	68.1341	None	6.5606	8.4133	8.5841	29.1544	64.2181	3.2708	None	1.998	""	""	81691000
2941	BET02050	2024-05-21T10:00:00	""	""	20.9516	71.0045	None	7.5968	9.5494	10.1136	27.2683	69.7803	3.2307	None	2.0058	""	""	81691000
2942	BET02050	2024-05-21T10:10:00	""	""	21.081	72.6176	None	8.7796	11.4823	11.6656	24.0533	66.5981	5.3779	None	2.0103	""	""	81691000
2943	BET02050	2024-05-21T10:20:00	""	""	21.8567	70.979	None	7.8929	10.4036	10.5667	18.9207	53.1211	9.6533	None	2.0186	""	""	81691000
2944	BET02050	2024-05-21T10:30:00	""	""	21.6928	62.0112	None	5.2287	6.924	7.5255	0.0184	44.9189	10.4896	None	2.0442	""	""	81691000
2945	BET02050	2024-05-21T10:40:00	""	""	22.152	55.5059	None	3.6294	4.7076	4.8998	0.1709	53.2935	10.4662	None	3.0026	""	""	81691000
2946	BET02050	2024-05-21T10:50:00	""	""	22.3574	52.4882	None	2.3624	3.0957	3.1995	0.1203	59.2643	10.8222	None	3.1605	""	""	81691000
2947	BET02050	2024-05-21T11:00:00	""	""	23.2451	50.8099	None	2.0348	2	2.5575	5.4453	40.5673	11.7391	None	3.533	""	""	81691000
2948	BET02050	2024-05-21T11:10:00	""	""	24.0584	49.611	None	2.0325	2.458	2.7598	6.34	55.0489	10.3078	None	3.6397	""	""	81691000
2949	BET02050	2024-05-21T11:20:00	""	""	24.1218	48.2565	None	2	2	2.8693	5.2618	57.3653	10.3617	None	3.6155	""	""	81691000
2950	BET02050	2024-05-21T11:30:00	""	""	24.0434	47.4645	None	2	2.6046	2.6738	5.876	66.3671	10.0412	None	3.6453	""	""	81691000
2951	BET02050	2024-05-21T11:40:00	""	""	23.7218	50.0052	None	2.5894	3.5178	3.7945	12.2304	63.6062	9.2197	None	3.189	""	""	81691000
2952	BET02050	2024-05-21T11:50:00	""	""	22.874	49.1124	None	2	3	3.1763	6.7412	58.4788	9.4813	None	3.3062	""	""	81691000
2953	BET02050	2024-05-21T12:00:00	""	""	23.5952	49.2872	None	2	3.2547	3.7694	5.6923	64.915	9.0739	None	3.3996	""	""	81691000
2954	BET02050	2024-05-21T12:10:00	""	""	22.2151	49.0517	None	2.0972	2.5592	2.6756	6.6014	77.2944	8.0211	None	3.003	""	""	81691000
2955	BET02050	2024-05-21T12:20:00	""	""	23.6196	52.5887	None	2.7184	3.6171	3.6861	21.4013	63.9095	7.7949	None	3.3696	""	""	81691000
2956	BET02050	2024-05-21T12:30:00	""	""	22.55	48.4228	None	2.0001	3.0001	3.0001	8.8017	64.5588	8.7582	None	3.3135	""	""	81691000
2957	BET02050	2024-05-21T12:40:00	""	""	21.8073	48.9477	None	2	3.3806	3.9932	7.1827	74.1111	7.0245	None	3.315	""	""	81691000
2958	BET02050	2024-05-21T12:50:00	""	""	22.1572	53.5766	None	2.7603	3.5615	3.7173	15.9976	79.104	7.4325	None	2.9516	""	""	81691000
2959	BET02050	2024-05-21T13:00:00	""	""	22.4109	60.9891	None	2.8064	3.5984	3.8959	25.9449	76.0345	7.79	None	2.3072	""	""	81691000
2960	BET02050	2024-05-21T13:10:00	""	""	22.4697	49.6613	None	2.4989	3.7657	4.1378	5.1005	54.9447	9.9315	None	3.3821	""	""	81691000
2961	BET02050	2024-05-21T13:20:00	""	""	23.4535	48.076	None	2	3.1301	3.1762	2.8888	70.06	8.4923	None	3.6443	""	""	81691000
2962	BET02050	2024-05-21T13:30:00	""	""	24.2969	47.8434	None	2.6562	3.1195	4.0961	4.8483	72.3469	8.1744	None	3.6812	""	""	81691000
2963	BET02050	2024-05-21T13:40:00	""	""	23.489	47.7308	None	2.4075	3.0785	3.127	9.1426	84.1157	7.488	None	3.5016	""	""	81691000
2964	BET02050	2024-05-21T13:50:00	""	""	24.0017	51.0991	None	2.1373	3.0896	3.3156	10.4355	61.0484	8.0384	None	3.4099	""	""	81691000
2965	BET02050	2024-05-21T14:00:00	""	""	23.3002	48.235	None	2.7687	3.1323	3.3754	5.1877	66.8974	8.1175	None	3.4757	""	""	81691000
2966	BET02050	2024-05-21T14:10:00	""	""	23.6193	49.0575	None	2	3	3.399	6.3477	69.176	7.9735	None	3.4878	""	""	81691000
2967	BET02050	2024-05-21T14:20:00	""	""	24.0682	48.0339	None	2.0837	2.0001	3.0479	10.4252	69.1885	7.432	None	3.6037	""	""	81691000
2968	BET02050	2024-05-21T14:30:00	""	""	24.0067	49.889	None	2	3.1658	3.3907	10.7133	78.2815	7.444	None	3.448	""	""	81691000
2969	BET02050	2024-05-21T14:40:00	""	""	24.1365	49.1549	None	2	2.9211	3.0068	10.5175	68.6668	7.6095	None	3.4972	""	""	81691000
2970	BET02050	2024-05-21T14:50:00	""	""	25.3558	49.9503	None	2.5	2.9509	3.0667	20.7271	66.2488	7.0268	None	3.6575	""	""	81691000
2971	BET02050	2024-05-21T15:00:00	""	""	24.5072	49.6934	None	2.6899	3.3052	3.7289	21.9253	70.2977	6.7938	None	3.3582	""	""	81691000
2972	BET02050	2024-05-21T15:10:00	""	""	23.7669	51.6326	None	3.1594	3.879	4	12.9928	66.619	7.4988	None	3.1463	""	""	81691000
2973	BET02050	2024-05-21T15:20:00	""	""	23.3579	49.1681	None	2.5486	3.4215	3.4725	9.6359	74.1045	7.5517	None	3.273	""	""	81691000
2974	BET02050	2024-05-21T15:30:00	""	""	23.5763	52.3617	None	2	2.8734	3.3023	17.8207	68.7849	7.0987	None	3.1296	""	""	81691000
2975	BET02050	2024-05-21T15:40:00	""	""	23.2906	52.8518	None	2.5462	3.1123	3.1772	12.6086	69.258	7.6988	None	3.0584	""	""	81691000
2976	BET02050	2024-05-21T15:50:00	""	""	23.513	51.0335	None	2.2328	2.8514	3.0846	9.0135	60.2033	8.1392	None	3.2982	""	""	81691000
2977	BET02050	2024-05-21T16:00:00	""	""	23.0595	54.1895	None	2.4363	3.3977	3.4616	14.4404	79.6176	7.3225	None	2.825	""	""	81691000
2978	BET02050	2024-05-21T16:10:00	""	""	23.4361	54.4137	None	3.0143	4.1955	4.5633	13.8379	70.7005	7.3908	None	3.0165	""	""	81691000
2979	BET02050	2024-05-21T16:20:00	""	""	23.2629	55.1313	None	2.9275	3.8091	5	14.7837	68.6715	7.3753	None	2.8832	""	""	81691000
2980	BET02050	2024-05-21T16:30:00	""	""	23.6182	55.0538	None	3.2232	4.3437	4.381	13.891	67.2366	7.6198	None	3.1145	""	""	81691000
2981	BET02050	2024-05-21T16:40:00	""	""	23.44	54.9654	None	3.229	4.555	4.7865	15.6814	68.6416	7.7167	None	2.9395	""	""	81691000
2982	BET02050	2024-05-21T16:50:00	""	""	22.6999	56.8011	None	3.2557	4.3571	4.4984	15.0249	74.3456	7.595	None	2.7188	""	""	81691000
2983	BET02050	2024-05-21T17:00:00	""	""	22.5223	58.1668	None	3.3991	4.778	4.9921	15.2747	72.32	7.5569	None	2.5229	""	""	81691000
2984	BET02050	2024-05-21T17:10:00	""	""	22.0625	59.6969	None	3.4218	5.0246	5.5468	17.978	71.6678	7.3996	None	2.25	""	""	81691000
2985	BET02050	2024-05-21T17:20:00	""	""	22.4631	54.7639	None	3.98	4.8841	5.4725	5.4744	54.4772	8.8463	None	2.9186	""	""	81691000
2986	BET02050	2024-05-21T17:30:00	""	""	22.48	52.4986	None	3.9224	5.1788	5.4955	8.3319	67.303	8.3522	None	3.0023	""	""	81691000
2987	BET02050	2024-05-21T17:40:00	""	""	22.3191	54.6413	None	3.9434	5.076	5.3985	13.8002	64.9024	7.853	None	2.6042	""	""	81691000
2988	BET02050	2024-05-21T17:50:00	""	""	22.3825	54.5355	None	3.8688	4.8398	4.9136	14.7183	57.445	8.2537	None	2.4873	""	""	81691000
2989	BET02050	2024-05-21T18:00:00	""	""	22.3527	54.5742	None	3.6747	4.2754	5.0086	18.9851	53.3742	7.9618	None	2.366	""	""	81691000
2990	BET02050	2024-05-21T18:10:00	""	""	21.9579	54.8197	None	3.2717	4.3785	5.2109	12.6775	63.0935	7.9905	None	2.3421	""	""	81691000
2991	BET02050	2024-05-21T18:20:00	""	""	22.0087	54.5606	None	3.3309	4.4882	4.8142	11.5872	63.8318	7.9138	None	2.3747	""	""	81691000
2992	BET02050	2024-05-21T18:30:00	""	""	21.9849	60.3145	None	4.7523	5.3428	5.9577	32.6732	67.6915	7.0432	None	2.1474	""	""	81691000
2993	BET02050	2024-05-21T18:40:00	""	""	21.4039	63.1579	None	5.1019	6.9735	7.0367	48.0438	47.4432	7.4418	None	2.0179	""	""	81691000
2994	BET02050	2024-05-21T18:50:00	""	""	21.1434	64.7775	None	5.0594	6.8614	7.2541	43.8427	42.4286	7.3927	None	2.0123	""	""	81691000
2995	BET02050	2024-05-21T19:00:00	""	""	20.5145	66.8366	None	5.134	6	7.4777	26.2347	61.4463	0.7484	None	1.955	""	""	81691000
2996	BET02050	2024-05-21T19:10:00	""	""	20.1143	69.022	None	3.2378	4.4981	4.4999	27.1391	58.9791	0.1687	None	1.972	""	""	81691000
2997	BET02050	2024-05-21T19:20:00	""	""	20.1048	70.4537	None	3	3.9999	4.2635	19.9265	67.0962	0.2467	None	1.9871	""	""	81691000
2998	BET02050	2024-05-21T19:30:00	""	""	19.9532	71.5268	None	2.5592	3.4773	3.8221	17.1374	63.1832	0.2283	None	1.9607	""	""	81691000
2999	BET02050	2024-05-21T19:40:00	""	""	20.2796	69.5749	None	2.8437	4.3757	4.7969	17.0034	60.9359	1.1409	None	1.9774	""	""	81691000
3000	BET02050	2024-05-21T19:50:00	""	""	20.4209	70.62	None	4.0892	5.7188	6.3756	48.4997	30.7457	2.0832	None	1.8471	""	""	81691000
3001	BET02050	2024-05-21T20:00:00	""	""	20.3715	72.2769	None	5.9477	8.3046	9.1595	56.9624	32.2737	2.7567	None	1.9317	""	""	81691000
3002	BET02050	2024-05-21T20:10:00	""	""	20.2873	74.459	None	6.0001	9.6719	10.1454	52.2386	33.7264	2.0642	None	1.9066	""	""	81691000
3003	BET02050	2024-05-21T20:20:00	""	""	20.0919	75.0043	None	7.9785	10.7244	11.1382	42.3031	35.7784	1.754	None	1.8728	""	""	81691000
3004	BET02050	2024-05-21T20:30:00	""	""	19.9802	75.9659	None	7.2529	9.9379	10.8507	33.1431	36.0187	2.2858	None	1.8089	""	""	81691000
3005	BET02050	2024-05-21T20:40:00	""	""	19.7715	78.3466	None	8.6721	12.05	13.6124	45.7809	42.6176	2.1304	None	1.7062	""	""	81691000
3006	BET02050	2024-05-21T20:50:00	""	""	19.532	80.2114	None	8.8045	13.0785	14.9312	28.9914	57.8841	2.3635	None	1.7049	""	""	81691000
3007	BET02050	2024-05-21T21:00:00	""	""	19.627	81.8379	None	8.4048	12.6667	13.5394	35.59	44.2864	5.4571	None	1.5455	""	""	81691000
3008	BET02050	2024-05-21T21:10:00	""	""	19.578	83.5617	None	10.2155	14.661	16.2417	37.4181	30.7044	5.6233	None	1.6058	""	""	81691000
3009	BET02050	2024-05-21T21:20:00	""	""	19.6171	83.0636	None	10.1364	13.8781	14.7691	25.7065	36.5634	6.3814	None	1.6084	""	""	81691000
3010	BET02050	2024-05-21T21:30:00	""	""	19.3339	81.2403	None	8.0157	10.8242	11.9668	16.6548	41.2857	7.1125	None	1.5778	""	""	81691000
3011	BET02050	2024-05-21T21:40:00	""	""	19.1542	81.6058	None	6.9432	10.098	9.6632	23.3427	38.8561	7.4544	None	1.6218	""	""	81691000
3012	BET02050	2024-05-21T21:50:00	""	""	18.9166	82.125	None	8.7733	12.262	13.0617	22.3206	28.3701	8.3789	None	1.5508	""	""	81691000
3013	BET02050	2024-05-21T22:00:00	""	""	18.9935	82.516	None	7.5839	11.4222	12.9183	4.6551	52.7659	8.8548	None	1.676	""	""	81691000
3014	BET02050	2024-05-21T22:10:00	""	""	19.0322	82.1537	None	6.1155	9.1555	10.1454	0.113	66.1048	8.4334	None	1.912	""	""	81691000
3015	BET02050	2024-05-21T22:20:00	""	""	18.976	82.5181	None	7.008	8.803	9.0589	2.9218	58.9795	8.5023	None	1.8936	""	""	81691000
3016	BET02050	2024-05-21T22:30:00	""	""	18.9332	82.4178	None	6.4556	8.7503	9.3669	0.1017	51.8068	9.5643	None	1.8015	""	""	81691000
3017	BET02050	2024-05-21T22:40:00	""	""	19.0163	81.994	None	6.9262	8.8705	8.6107	4.7395	60.1805	8.153	None	1.9607	""	""	81691000
3018	BET02050	2024-05-21T22:50:00	""	""	18.9538	82.5885	None	6.748	8.6231	8.8863	5.8476	44.2678	8.9256	None	1.7279	""	""	81691000
3019	BET02050	2024-05-21T23:00:00	""	""	19.0161	81.8259	None	6.1674	8.933	9.592	0.1936	62.7663	9.2178	None	1.9644	""	""	81691000
3020	BET02050	2024-05-21T23:10:00	""	""	18.9111	82.0018	None	6.5776	9.8852	9.8867	3.3296	54.4911	9.2398	None	1.8811	""	""	81691000
3021	BET02050	2024-05-21T23:20:00	""	""	18.9806	81.8432	None	6.1756	8.7119	10.5315	3.0862	46.9223	10.2388	None	1.7769	""	""	81691000
3022	BET02050	2024-05-21T23:30:00	""	""	18.907	80.4016	None	5.7475	8.1303	8.6928	0.2545	37.7624	11.4035	None	1.8127	""	""	81691000
3023	BET02050	2024-05-21T23:40:00	""	""	18.9091	77.7242	None	4.8391	6	7.3596	0.1506	54.4416	10.4857	None	1.9504	""	""	81691000
3024	BET02050	2024-05-21T23:50:00	""	""	18.8417	76.8699	None	5.5127	7.8466	9.0264	0.0522	59.8583	9.6089	None	1.9646	""	""	81691000
3025	BET02050	2024-05-22T00:00:00	""	""	18.6753	78.3075	None	4.1388	5.9289	6.7716	0.0639	64.7061	8.5691	None	1.9713	""	""	81691000
3026	BET02050	2024-05-22T00:10:00	""	""	18.5922	79.7175	None	4.528	5.6555	6.349	0.2404	53.7163	8.3781	None	1.9588	""	""	81691000
3027	BET02050	2024-05-22T00:20:00	""	""	18.6283	80.9881	None	4	5.6631	6.4614	0.3976	63.8339	7.8392	None	1.9672	""	""	81691000
3028	BET02050	2024-05-22T00:30:00	""	""	18.589	82.2016	None	3.9664	5.7453	6.1939	3.7295	57.4874	7.4123	None	1.9649	""	""	81691000
3029	BET02050	2024-05-22T00:40:00	""	""	18.5879	83.7945	None	6	7.9494	8.9721	3.0184	58.8322	7.913	None	1.8895	""	""	81691000
3030	BET02050	2024-05-22T00:50:00	""	""	18.6277	84.5139	None	4.7112	7	8	3.1867	50.6732	8.8189	None	1.7783	""	""	81691000
3031	BET02050	2024-05-22T01:00:00	""	""	18.673	84.1084	None	None	None	None	4.1372	55.0397	9.2413	None	1.8394	""	""	81691000
3032	BET02050	2024-05-22T01:10:00	""	""	18.6642	83.7056	None	5.0234	7.1304	7.6673	6.4366	48.0039	9.4948	None	1.8314	""	""	81691000
3033	BET02050	2024-05-22T01:20:00	""	""	18.7306	82.8184	None	4.4214	6.3621	6.1961	0.2315	47.6007	10.3599	None	1.7706	""	""	81691000
3034	BET02050	2024-05-22T01:30:00	""	""	18.6582	82.043	None	4.7698	6.9373	7.6932	0.0779	53.089	10.1283	None	1.7795	""	""	81691000
3035	BET02050	2024-05-22T01:40:00	""	""	18.6209	82.0299	None	5.1555	7.2954	8.0746	3.1256	61.296	8.9961	None	1.9283	""	""	81691000
3036	BET02050	2024-05-22T01:50:00	""	""	18.5189	82.2127	None	5	7.9592	8.9582	4.2423	46.5999	9.9328	None	1.7824	""	""	81691000
3037	BET02050	2024-05-22T02:00:00	""	""	18.5014	81.6543	None	6.7458	10.2515	11.5664	0.5061	63.0314	9.6531	None	1.9717	""	""	81691000
3038	BET02050	2024-05-22T02:10:00	""	""	18.316	81.2777	None	4.74	7.1079	7.937	1.0691	60.0547	9.8532	None	1.9739	""	""	81691000
3039	BET02050	2024-05-22T02:20:00	""	""	18.427	80.7503	None	5.3018	7.788	8.4111	2.6097	52.6639	11.026	None	1.9566	""	""	81691000
3040	BET02050	2024-05-22T02:30:00	""	""	18.4424	79.9641	None	4.2118	6.3985	7.1526	0.2225	50.1204	11.0225	None	1.9555	""	""	81691000
3041	BET02050	2024-05-22T02:40:00	""	""	18.5182	78.4699	None	4.7861	6.4543	6.7988	2.2325	37.7095	11.5585	None	1.8844	""	""	81691000
3042	BET02050	2024-05-22T02:50:00	""	""	18.52	77.2876	None	6.8403	9.0248	10.0359	1.2991	35.5035	10.811	None	1.7429	""	""	81691000
3043	BET02050	2024-05-22T03:00:00	""	""	17.982	77.8254	None	8.8513	11.6325	12.3324	21.2595	7.6928	11.356	None	1.3981	""	""	81691000
3044	BET02050	2024-05-22T03:10:00	""	""	17.5696	77.6632	None	12.0653	15.5628	17.2423	16.5336	14.7485	11.1922	None	1.3305	""	""	81691000
3045	BET02050	2024-05-22T03:20:00	""	""	17.489	78.5159	None	15.2944	21.2246	22.6242	16.8059	11.3089	10.9559	None	1.3627	""	""	81691000
3046	BET02050	2024-05-22T03:30:00	""	""	17.4662	78.5321	None	17.1349	23.7347	24.084	23.9797	3.8978	11.7572	None	1.3507	""	""	81691000
3047	BET02050	2024-05-22T03:40:00	""	""	17.4784	78.4715	None	13.5857	18.3687	19.6115	25.7229	3.6739	11.3276	None	1.3813	""	""	81691000
3048	BET02050	2024-05-22T03:50:00	""	""	17.4711	78.4161	None	11.4205	14.7807	16.5058	26.9176	3.1179	12.2422	None	1.3469	""	""	81691000
3049	BET02050	2024-05-22T04:00:00	""	""	17.549	78.5324	None	11.1	15.1541	15.7821	32.8256	0.237	11.3441	None	1.3775	""	""	81691000
3050	BET02050	2024-05-22T04:10:00	""	""	17.6308	78.7849	None	11.2879	15.2473	16.3282	37.6252	0.246	12.4424	None	1.3977	""	""	81691000
3051	BET02050	2024-05-22T04:20:00	""	""	17.5801	78.8506	None	13.03	17.7306	19.8168	37.4611	0.0763	12.9599	None	1.3879	""	""	81691000
3052	BET02050	2024-05-22T04:30:00	""	""	17.7497	80.2289	None	10.7074	14.8736	15.4945	35.067	0.8792	11.6734	None	1.3369	""	""	81691000
3053	BET02050	2024-05-22T04:40:00	""	""	17.8167	80.409	None	10.7512	14.6685	15.3612	33.107	4.2192	11.3978	None	1.3642	""	""	81691000
3054	BET02050	2024-05-22T04:50:00	""	""	17.9892	81.2503	None	9.2414	12.244	12.3235	24.5299	28.4387	11.1139	None	1.4793	""	""	81691000
3055	BET02050	2024-05-22T05:00:00	""	""	18.1702	81.966	None	5.8454	8.2785	9.5541	27.0818	20.3268	13.5041	None	1.4504	""	""	81691000
3056	BET02050	2024-05-22T05:10:00	""	""	18.1119	80.7084	None	7.3384	11.6053	12.2978	41.6577	0.061	22.4256	None	1.3331	""	""	81691000
3057	BET02050	2024-05-22T05:20:00	""	""	18.4036	80.3169	None	8.5677	10.7478	11.4682	33.7544	8.5891	15.0656	None	1.3953	""	""	81691000
3058	BET02050	2024-05-22T05:30:00	""	""	18.3882	77.6971	None	6.0003	12.5131	13.9992	35.9014	0.1468	24.2248	None	1.4271	""	""	81691000
3059	BET02050	2024-05-22T05:40:00	""	""	18.0082	76.9821	None	13.0683	17.8025	18.9664	33.5674	0.1304	24.4527	None	1.429	""	""	81691000
3060	BET02050	2024-05-22T05:50:00	""	""	18.03	76.4158	None	13.0765	18.1185	19.1741	33.9217	0.0278	25.4865	None	1.3952	""	""	81691000
3061	BET02050	2024-05-22T06:00:00	""	""	18.1399	76.0426	None	11.8388	15.6376	16.4957	40.2674	0.0279	25.8281	None	1.4177	""	""	81691000
3062	BET02050	2024-05-22T06:10:00	""	""	18.1465	76.6972	None	12.189	17.1908	17.8372	50.46	0.117	42.2	None	1.7527	""	""	81691000
3063	BET02050	2024-05-22T06:20:00	""	""	18.5711	77.36	None	14	19.0836	19.9788	68.8846	0.0531	46.2432	None	1.4534	""	""	81691000
3064	BET02050	2024-05-22T06:30:00	""	""	19.224	75.8892	None	6.1001	8.5902	8.6303	33.1332	19.994	19.4774	None	1.5851	""	""	81691000
3065	BET02050	2024-05-22T06:40:00	""	""	19.3661	75.2091	None	6.6117	8.9799	9.3861	27.6969	29.4486	12.5987	None	1.9212	""	""	81691000
3066	BET02050	2024-05-22T06:50:00	""	""	19.6636	75.4019	None	7.8911	10.9674	11.435	47.2858	18.1595	17.6609	None	1.5065	""	""	81691000
3067	BET02050	2024-05-22T07:00:00	""	""	19.7127	75.1508	None	8.0527	10.7843	11.3863	17.959	37.858	9.5922	None	1.9419	""	""	81691000
3068	BET02050	2024-05-22T07:10:00	""	""	19.6099	74.8622	None	5.7596	6.9261	8.0054	11.2421	55.8071	8.3224	None	1.9741	""	""	81691000
3069	BET02050	2024-05-22T07:20:00	""	""	19.8411	76.2207	None	6	7.4626	8.6066	15.494	51.3159	7.9994	None	1.9502	""	""	81691000
3070	BET02050	2024-05-22T07:30:00	""	""	19.9588	76.2719	None	5.6218	8.4536	9.2026	9.4222	56.1382	8.4235	None	1.9748	""	""	81691000
3071	BET02050	2024-05-22T07:40:00	""	""	20.2113	77.1583	None	7	8.6676	9.2722	22.5963	40.1517	6.4755	None	1.7782	""	""	81691000
3072	BET02050	2024-05-22T07:50:00	""	""	20.6255	76.099	None	5.7332	7.8182	8.0322	8.6451	46.2731	12.9724	None	1.9731	""	""	81691000
3073	BET02050	2024-05-22T08:00:00	""	""	20.5018	72.0664	None	6.4774	8.5335	9.3932	0.0564	56.1815	6.5357	None	1.9841	""	""	81691000
3074	BET02050	2024-05-22T08:10:00	""	""	20.4691	71.146	None	5.0001	7.0001	9.3706	0.0165	58.9998	6.3429	None	1.9802	""	""	81691000
3075	BET02050	2024-05-22T08:20:00	""	""	20.7494	72.7055	None	5.6839	7.7903	8.2586	1.0293	58.5631	7.5585	None	1.9883	""	""	81691000
3076	BET02050	2024-05-22T08:30:00	""	""	21.5402	72.7328	None	6.5355	8.9224	9.5839	3.1936	50.7	10.8426	None	1.9986	""	""	81691000
3077	BET02050	2024-05-22T08:40:00	""	""	21.6323	69.7159	None	7.2612	10.1825	11.1866	2.6681	54.5129	10.7013	None	2.0032	""	""	81691000
3078	BET02050	2024-05-22T08:50:00	""	""	21.5006	69.7364	None	8.6011	13.9365	15.2374	12.3787	47.8571	10.4835	None	1.9881	""	""	81691000
3079	BET02050	2024-05-22T09:00:00	""	""	21.4633	70.2968	None	7.8816	10.3327	10.4505	7.3903	57.1432	10.5243	None	2.0009	""	""	81691000
3080	BET02050	2024-05-22T09:10:00	""	""	20.9082	70.8043	None	6.6805	9.0868	10.136	6.8566	61.0728	8.273	None	1.9913	""	""	81691000
3081	BET02050	2024-05-22T09:20:00	""	""	21.0356	72.0466	None	6.5	8.402	9.3579	7.5437	59.7967	9.0649	None	1.9968	""	""	81691000
3082	BET02050	2024-05-22T09:30:00	""	""	21.1702	71.1329	None	6.3425	9.1607	9.5045	8.1837	57.9449	10.4042	None	2.0031	""	""	81691000
3083	BET02050	2024-05-22T09:40:00	""	""	21.1013	69.7322	None	7.2432	9.7957	9.7681	13.2913	48.2188	10.6234	None	1.9968	""	""	81691000
3084	BET02050	2024-05-22T09:50:00	""	""	21.3448	70.2113	None	6.9542	9.4384	9.9478	2.8837	60.691	10.6566	None	2.0051	""	""	81691000
3085	BET02050	2024-05-22T10:00:00	""	""	20.9191	69.6815	None	6.593	9.6063	10.4521	4.2979	66.1448	7.2369	None	2.0038	""	""	81691000
3086	BET02050	2024-05-22T10:10:00	""	""	21.686	69.9551	None	7.0757	9.7447	10.1795	15.0643	46.8178	11.4975	None	2.0064	""	""	81691000
3087	BET02050	2024-05-22T10:20:00	""	""	21.9351	68.7349	None	6.7406	10.0131	11.6226	31.1927	35.934	11.645	None	2.0215	""	""	81691000
3088	BET02050	2024-05-22T10:30:00	""	""	22.087	67.4486	None	7.0822	9.7659	10.281	7.3577	53.8081	10.4594	None	2.0142	""	""	81691000
3089	BET02050	2024-05-22T10:40:00	""	""	22.0544	66.1038	None	6.5158	8.9706	9.5563	10.2985	48.3475	10.9367	None	2.0292	""	""	81691000
3090	BET02050	2024-05-22T10:50:00	""	""	22.1595	65.3566	None	5.9523	8.5937	9.0271	0.8148	52.4377	10.66	None	2.0314	""	""	81691000
3091	BET02050	2024-05-22T11:00:00	""	""	22.5505	64.5846	None	5.6832	7.5743	7.9721	5.0521	56.4146	10.5337	None	2.0327	""	""	81691000
3092	BET02050	2024-05-22T11:10:00	""	""	22.7018	64.2372	None	5.8737	7.8293	8.0804	6.147	59.1077	10.6563	None	2.0244	""	""	81691000
3093	BET02050	2024-05-22T11:20:00	""	""	23.3847	63.073	None	6.2397	9.481	9.4734	1.2828	64.2525	9.7399	None	2.1311	""	""	81691000
3094	BET02050	2024-05-22T11:30:00	""	""	23.9716	62.0478	None	5.2504	7.735	8.2538	0.0412	59.5243	9.5973	None	2.4661	""	""	81691000
3095	BET02050	2024-05-22T11:40:00	""	""	23.5537	61.6113	None	5.379	7.2591	7.607	0.234	60.925	9.5834	None	2.3085	""	""	81691000
3096	BET02050	2024-05-22T11:50:00	""	""	23.8644	61.5311	None	5.1391	7.4567	7.9884	0.2432	59.3387	9.5807	None	2.4082	""	""	81691000
3097	BET02050	2024-05-22T12:00:00	""	""	24.2866	60.2782	None	5.4494	7.4017	8.7392	0.0478	50.4828	9.6371	None	2.7334	""	""	81691000
3098	BET02050	2024-05-22T12:10:00	""	""	24.3081	59.1486	None	4.9906	7	7	0.0122	64.366	9.0092	None	2.8732	""	""	81691000
3099	BET02050	2024-05-22T12:20:00	""	""	24.7288	58.8082	None	6.1429	7.5843	9.3247	9.8272	59.3568	8.8703	None	2.8483	""	""	81691000
3100	BET02050	2024-05-22T12:30:00	""	""	24.9139	57.6217	None	5.4421	7.3988	8.7905	2.0196	62.761	9.0789	None	3.0837	""	""	81691000
3101	BET02050	2024-05-22T12:40:00	""	""	23.5212	58.374	None	5	7.2519	7.5671	7.4344	69.2583	9.4549	None	2.5245	""	""	81691000
3102	BET02050	2024-05-22T12:50:00	""	""	22.7556	59.5688	None	4.7196	7.1969	7.3445	5.8261	74.3527	9.0726	None	2.3253	""	""	81691000
3103	BET02050	2024-05-22T13:00:00	""	""	23.3331	59.7818	None	5	7.4935	8.0403	6.2562	66.6758	8.8819	None	2.4956	""	""	81691000
3104	BET02050	2024-05-22T13:10:00	""	""	22.7043	60.7986	None	5.1961	8.0493	8.5213	8.8585	76.0901	8.2272	None	2.3479	""	""	81691000
3105	BET02050	2024-05-22T13:20:00	""	""	21.2939	63.6519	None	5	6.0001	7.8677	11.9468	78.5673	4.2095	None	2.0936	""	""	81691000
3106	BET02050	2024-05-22T13:30:00	""	""	21.3959	66.3401	None	4.0001	7	7.6584	18.2493	70.1335	6.2482	None	2.061	""	""	81691000
3107	BET02050	2024-05-22T13:40:00	""	""	20.7301	69.13	None	5.2424	7.1161	7.5786	16.6574	77.6837	0.0336	None	2.0111	""	""	81691000
3108	BET02050	2024-05-22T13:50:00	""	""	20.3266	72.8519	None	4.3547	6.0032	6.5212	18.443	69.0393	0.1658	None	1.9887	""	""	81691000
3109	BET02050	2024-05-22T14:00:00	""	""	20.3291	74.3498	None	4.132	6.0839	6.78	17.4725	72.6577	0.0292	None	1.9892	""	""	81691000
3110	BET02050	2024-05-22T14:10:00	""	""	21.209	74.9047	None	4.3017	6.0312	6.2192	17.8286	59.7388	5.5654	None	2.0015	""	""	81691000
3111	BET02050	2024-05-22T14:20:00	""	""	20.8597	74.3968	None	3.6471	5.1594	5.4371	11.3124	78.5867	1.7595	None	2.0145	""	""	81691000
3112	BET02050	2024-05-22T14:30:00	""	""	22.0218	74.1382	None	3.5677	4.613	5.0041	8.0532	70.5784	9.1784	None	2.042	""	""	81691000
3113	BET02050	2024-05-22T14:40:00	""	""	21.9473	72.5626	None	3.3569	4.4447	4.8771	13.3869	66.0799	9.1418	None	2.0376	""	""	81691000
3114	BET02050	2024-05-22T14:50:00	""	""	21.8311	72.0716	None	3.595	4.901	5.3216	10.5375	66.0407	9.2051	None	2.041	""	""	81691000
3115	BET02050	2024-05-22T15:00:00	""	""	22.4827	72.3456	None	3.6338	5.3306	6.0272	11.9002	74.9268	9.1748	None	2.1066	""	""	81691000
3116	BET02050	2024-05-22T15:10:00	""	""	22.5786	70.6971	None	3.502	4.9804	5	8.5131	69.2901	9.4803	None	2.1065	""	""	81691000
3117	BET02050	2024-05-22T15:20:00	""	""	22.129	70.7629	None	4.3286	6.6801	6.8282	9.0996	64.2841	9.5147	None	2.0364	""	""	81691000
3118	BET02050	2024-05-22T15:30:00	""	""	21.599	71.5834	None	3.5148	4.5162	5.4122	11.6403	63.0431	9.0357	None	2.0198	""	""	81691000
3119	BET02050	2024-05-22T15:40:00	""	""	22.1408	72.5127	None	3.9972	5.6916	6.1669	7.3317	75.0185	9.2036	None	2.1066	""	""	81691000
3120	BET02050	2024-05-22T15:50:00	""	""	21.8921	72.1031	None	4	5.7225	6	5.5718	73.3482	9.4974	None	2.0689	""	""	81691000
3121	BET02050	2024-05-22T16:00:00	""	""	21.6347	70.4115	None	4.4136	6.2049	6.5126	0.2483	73.2105	9.6764	None	2.0483	""	""	81691000
3122	BET02050	2024-05-22T16:10:00	""	""	21.9593	68.9405	None	4.5912	5.65	6.1618	0.1683	70.213	9.726	None	2.0994	""	""	81691000
3123	BET02050	2024-05-22T16:20:00	""	""	22.0558	67.2983	None	5.769	6.6752	6.9306	16.2317	64.3533	9.8208	None	2.0739	""	""	81691000
3124	BET02050	2024-05-22T16:30:00	""	""	22.3589	70.3437	None	5.0193	6.039	6.2933	15.7528	62.9107	10.2742	None	2.064	""	""	81691000
3125	BET02050	2024-05-22T16:40:00	""	""	21.8228	64.3782	None	5	5.2664	6.3417	1.8832	73.34	9.5998	None	2.1439	""	""	81691000
3126	BET02050	2024-05-22T16:50:00	""	""	21.2597	68.4697	None	4.5217	5.8015	6.0678	7.2284	74.0889	5.7955	None	2.0786	""	""	81691000
3127	BET02050	2024-05-22T17:00:00	""	""	21.3377	69.7835	None	5.2416	6.9311	6.8633	15.3799	70.6019	7.2069	None	2.0747	""	""	81691000
3128	BET02050	2024-05-22T17:10:00	""	""	21.2422	70.2937	None	5	7.9384	7.916	15.9907	66.6232	6.1482	None	2.0526	""	""	81691000
3129	BET02050	2024-05-22T17:20:00	""	""	20.7842	70.225	None	5	7.5144	8.1897	7.6962	82.0655	2.4112	None	2.0424	""	""	81691000
3130	BET02050	2024-05-22T17:30:00	""	""	21.2033	70.7298	None	5.1332	6	7.4719	10.5969	81.2986	6.625	None	2.0457	""	""	81691000
3131	BET02050	2024-05-22T17:40:00	""	""	20.7533	70.0943	None	6	8.6022	8.7509	13.321	81.846	2.2031	None	2.055	""	""	81691000
3132	BET02050	2024-05-22T17:50:00	""	""	20.5348	72.529	None	6.4225	8.3841	8.6051	9.4624	83.3897	2.0759	None	2.0353	""	""	81691000
3133	BET02050	2024-05-22T18:00:00	""	""	20.4359	71.9072	None	6.372	8.7824	9.027	8.6881	70.8139	2.152	None	2.0205	""	""	81691000
3134	BET02050	2024-05-22T18:10:00	""	""	20.5222	67.5044	None	6.6761	8.2722	8.5766	0.2393	61.6708	3.938	None	2.0225	""	""	81691000
3135	BET02050	2024-05-22T18:20:00	""	""	20.3861	66.9495	None	5.3793	6.6831	7	0.1001	72.1615	2.1849	None	2.0229	""	""	81691000
3136	BET02050	2024-05-22T18:30:00	""	""	20.3704	64.9588	None	5.0321	6.5418	6.6615	0.0205	62.7542	2.9173	None	2.0259	""	""	81691000
3137	BET02050	2024-05-22T18:40:00	""	""	20.1941	60.2337	None	3.4091	4.6082	4.9318	0.0189	59.4103	4.494	None	2.0249	""	""	81691000
3138	BET02050	2024-05-22T18:50:00	""	""	19.9898	59.1295	None	2.7711	3.6883	4.2059	0.0583	58.2902	3.6101	None	2.0138	""	""	81691000
3139	BET02050	2024-05-22T19:00:00	""	""	20.0518	60.4729	None	2.4552	3.6763	4.0341	3.0931	62.1172	2.4776	None	2.0062	""	""	81691000
3140	BET02050	2024-05-22T19:10:00	""	""	19.9086	62.3539	None	3.5832	4.1653	4.9872	10.5417	64.575	1.6744	None	2.0015	""	""	81691000
3141	BET02050	2024-05-22T19:20:00	""	""	19.6838	64.9064	None	4.9651	7.1529	7.3541	13.7767	64.1885	1.4387	None	1.996	""	""	81691000
3142	BET02050	2024-05-22T19:30:00	""	""	19.4744	66.1394	None	4.299	5.8729	6.2873	14.8354	64.9386	1.3692	None	1.9928	""	""	81691000
3143	BET02050	2024-05-22T19:40:00	""	""	19.469	67.5562	None	3.9829	5.4575	6.0446	17.768	61.4419	1.3989	None	1.9849	""	""	81691000
3144	BET02050	2024-05-22T19:50:00	""	""	19.3452	68.9646	None	4.1458	5.5577	5.8572	16.7995	63.2176	1.4216	None	1.9845	""	""	81691000
3145	BET02050	2024-05-22T20:00:00	""	""	19.3844	68.589	None	3.6361	4.7401	5.6018	17.1917	54.3643	2.5354	None	1.9743	""	""	81691000
3146	BET02050	2024-05-22T20:10:00	""	""	19.394	68.1592	None	3.3485	4.7943	5.0875	16.2476	54.0476	1.9357	None	1.9571	""	""	81691000
3147	BET02050	2024-05-22T20:20:00	""	""	19.3241	68.6972	None	3.5375	4.8242	5.4566	17.9531	56.4515	1.9565	None	1.9633	""	""	81691000
3148	BET02050	2024-05-22T20:30:00	""	""	19.309	69.3529	None	3.0895	4.4953	4.9463	15.2922	59.3654	1.991	None	1.9675	""	""	81691000
3149	BET02050	2024-05-22T20:40:00	""	""	19.2682	70.6379	None	3.1138	4.8764	5.0651	14.2527	61.5982	1.6287	None	1.9619	""	""	81691000
3150	BET02050	2024-05-22T20:50:00	""	""	19.297	71.1716	None	3.2198	4.2868	4.3398	13.7391	55.5455	2.0514	None	1.9534	""	""	81691000
3151	BET02050	2024-05-22T21:00:00	""	""	19.2107	70.7934	None	3.6036	4.878	4.9611	20.4045	43.9085	4.2298	None	1.9243	""	""	81691000
3152	BET02050	2024-05-22T21:10:00	""	""	19.1648	69.7157	None	5.1971	7.2007	8.0272	12.5977	47.7796	3.8791	None	1.8859	""	""	81691000
3153	BET02050	2024-05-22T21:20:00	""	""	19.1039	68.564	None	3.6693	4.847	5.2737	5.3149	51.3749	4.3262	None	1.9428	""	""	81691000
3154	BET02050	2024-05-22T21:30:00	""	""	19.0915	67.452	None	3.6002	5.1897	5.124	3.9702	50.1019	5.2105	None	1.9378	""	""	81691000
3155	BET02050	2024-05-22T21:40:00	""	""	19.1375	66.9265	None	3	4.4198	4.4981	0.1147	51.5159	4.5099	None	1.9344	""	""	81691000
3156	BET02050	2024-05-22T21:50:00	""	""	19.1885	66.0915	None	3	4.4734	5.041	1.8817	46.4907	4.4614	None	1.9112	""	""	81691000
3157	BET02050	2024-05-22T22:00:00	""	""	19.0902	65.4495	None	3.476	4.8466	4.9848	11.2896	51.339	3.5379	None	1.9355	""	""	81691000
3158	BET02050	2024-05-22T22:10:00	""	""	19.0531	66.2448	None	3.9028	5.3186	5.5804	14.8845	39.9567	3.0857	None	1.8518	""	""	81691000
3159	BET02050	2024-05-22T22:20:00	""	""	18.4688	67.2109	None	5.2137	7.3301	7.8762	21.7134	27.9034	4.3035	None	1.6307	""	""	81691000
3160	BET02050	2024-05-22T22:30:00	""	""	18.4	68.0564	None	6	8.0087	8.4543	22.5911	23.3613	5.0972	None	1.6075	""	""	81691000
3161	BET02050	2024-05-22T22:40:00	""	""	18.3391	68.6891	None	7	9.3809	9.8345	24.9637	21.5048	5.1951	None	1.6283	""	""	81691000
3162	BET02050	2024-05-22T22:50:00	""	""	17.8052	69.3575	None	7.1567	9.6189	9.7844	30.6846	9.7206	5.7437	None	1.4411	""	""	81691000
3163	BET02050	2024-05-22T23:00:00	""	""	17.7174	69.6914	None	7	9.2019	9.8235	32.7507	7.3836	6.3055	None	1.4185	""	""	81691000
3164	BET02050	2024-05-22T23:10:00	""	""	17.5922	70.7112	None	9.6361	11.7517	13.3188	44.2765	0.0275	6.3516	None	1.3608	""	""	81691000
3165	BET02050	2024-05-22T23:20:00	""	""	16.8904	70.4353	None	8.769	11.7772	12.5694	31.3067	0.2397	9.2607	None	1.2514	""	""	81691000
3166	BET02050	2024-05-22T23:30:00	""	""	16.5074	69.0735	None	7.4082	10.0233	10.4533	25.6258	3.6221	9.4242	None	1.2338	""	""	81691000
3167	BET02050	2024-05-22T23:40:00	""	""	16.287	68.0167	None	7.2374	10.2079	10.7144	24.5089	11.1394	8.5907	None	1.2504	""	""	81691000
3168	BET02050	2024-05-22T23:50:00	""	""	16.2966	68.6873	None	8.8854	12.5098	12.748	21.8438	14.6109	9.747	None	1.31	""	""	81691000
3169	BET02050	2024-05-23T00:00:00	""	""	16.3799	68.7872	None	7.6561	10.3856	10.2092	21.9009	16.7721	8.7572	None	1.3442	""	""	81691000
3170	BET02050	2024-05-23T00:10:00	""	""	16.4162	68.9866	None	8	10.4964	10.6628	18.0598	19.768	8.5278	None	1.401	""	""	81691000
3171	BET02050	2024-05-23T00:20:00	""	""	16.5045	68.2276	None	7.2762	9.57	10.2928	13.8089	26.1676	8.8861	None	1.5175	""	""	81691000
3172	BET02050	2024-05-23T00:30:00	""	""	16.4894	67.8605	None	7.1483	8.8663	9.3439	13.5116	26.041	8.7688	None	1.4497	""	""	81691000
3173	BET02050	2024-05-23T00:40:00	""	""	16.2878	67.7165	None	6.4621	8.2072	8.3512	13.8937	25.0442	8.3782	None	1.3323	""	""	81691000
3174	BET02050	2024-05-23T00:50:00	""	""	16.1392	68.0683	None	6.7282	8.6869	9.5954	15.4138	21.8409	8.3485	None	1.2969	""	""	81691000
3175	BET02050	2024-05-23T01:00:00	""	""	15.8681	68.1254	None	None	None	None	18.8315	17.4608	9.1489	None	1.2122	""	""	81691000
3176	BET02050	2024-05-23T01:10:00	""	""	15.8792	69.0446	None	8	10.9752	11.166	19.8199	17.549	8.3306	None	1.2322	""	""	81691000
3177	BET02050	2024-05-23T01:20:00	""	""	15.5469	69.8442	None	11.9983	16.0055	17.6323	21.7578	16.3207	7.8769	None	1.2252	""	""	81691000
3178	BET02050	2024-05-23T01:30:00	""	""	15.3913	71.0825	None	15.1197	20.3207	22.0965	22.9274	15.4111	7.4874	None	1.217	""	""	81691000
3179	BET02050	2024-05-23T01:40:00	""	""	15.5948	71.6942	None	14.0773	20.4702	21.2918	21.2092	15.6063	8.1253	None	1.2522	""	""	81691000
3180	BET02050	2024-05-23T01:50:00	""	""	15.8418	71.7838	None	12.9155	17.9659	18.9994	21.3217	16.1577	9.4043	None	1.2642	""	""	81691000
3181	BET02050	2024-05-23T02:00:00	""	""	15.8313	72.123	None	12.9295	18.7803	20.5848	24.7801	13.5869	8.6139	None	1.2849	""	""	81691000
3182	BET02050	2024-05-23T02:10:00	""	""	15.744	72.6461	None	15.2373	21.1784	22.1129	27.4896	9.4774	9.1147	None	1.2486	""	""	81691000
3183	BET02050	2024-05-23T02:20:00	""	""	15.8744	73.144	None	14.2365	20.1103	22.2363	29.5314	9.2982	8.7983	None	1.2604	""	""	81691000
3184	BET02050	2024-05-23T02:30:00	""	""	15.848	74.072	None	15.0236	21.4481	23.0812	30.3433	7.5823	9.0828	None	1.277	""	""	81691000
3185	BET02050	2024-05-23T02:40:00	""	""	15.9605	74.5499	None	13.4009	20.1246	19.946	26.5096	10.5975	10.3008	None	1.3402	""	""	81691000
3186	BET02050	2024-05-23T02:50:00	""	""	16.0873	74.8417	None	12.8353	16.9616	18.6196	24.9768	11.4369	9.4439	None	1.3131	""	""	81691000
3187	BET02050	2024-05-23T03:00:00	""	""	16.2098	74.9645	None	12.2151	17.6129	18.7036	29.0399	9.7738	10.1082	None	1.3806	""	""	81691000
3188	BET02050	2024-05-23T03:10:00	""	""	16.2425	76.044	None	13.2111	18.3909	20.5027	26.8908	13.0644	9.2337	None	1.3785	""	""	81691000
3189	BET02050	2024-05-23T03:20:00	""	""	16.4085	76.8475	None	13.9079	19.0758	19.5829	26.1853	13.5372	9.3441	None	1.4114	""	""	81691000
3190	BET02050	2024-05-23T03:30:00	""	""	16.4989	77.3968	None	13.0353	18.0734	19.5032	28.5061	13.073	9.3502	None	1.3735	""	""	81691000
3191	BET02050	2024-05-23T03:40:00	""	""	16.5279	78.0917	None	13.9301	19.1214	19.9749	29.729	10.5242	9.4714	None	1.4035	""	""	81691000
3192	BET02050	2024-05-23T03:50:00	""	""	16.4992	78.187	None	14.7355	21.162	22.7408	30.3136	12.2228	9.5487	None	1.4178	""	""	81691000
3193	BET02050	2024-05-23T04:00:00	""	""	16.5871	79.5032	None	14.6686	20.27	22.8209	25.1451	17.7782	9.0501	None	1.362	""	""	81691000
3194	BET02050	2024-05-23T04:10:00	""	""	16.3957	80.1659	None	15.0021	21.1997	22.1204	24.2825	14.5192	10.0004	None	1.3572	""	""	81691000
3195	BET02050	2024-05-23T04:20:00	""	""	16.3725	80.559	None	14.0606	18.8183	19.6971	24.8978	11.0302	11.5554	None	1.2667	""	""	81691000
3196	BET02050	2024-05-23T04:30:00	""	""	16.2065	80.5747	None	13.4835	18.1285	19.2571	26.9159	7.5574	12.3177	None	1.293	""	""	81691000
3197	BET02050	2024-05-23T04:40:00	""	""	16.2672	80.8782	None	12.9922	17.7383	18.6992	29.405	4.1135	13.4245	None	1.2946	""	""	81691000
3198	BET02050	2024-05-23T04:50:00	""	""	16.3065	80.9309	None	13.2557	17.2791	17.7983	37.291	0.1356	17.927	None	1.3017	""	""	81691000
3199	BET02050	2024-05-23T05:00:00	""	""	16.4828	81.5034	None	13.2606	17.7699	18.5862	35.7983	0.1938	17.1011	None	1.3281	""	""	81691000
3200	BET02050	2024-05-23T05:10:00	""	""	16.4611	80.3015	None	12.947	17.6366	18.9401	39.1119	0.2196	31.646	None	1.3759	""	""	81691000
3201	BET02050	2024-05-23T05:20:00	""	""	16.3836	77.9698	None	12.6084	17.2185	17.4337	31.2772	0.1794	27.9819	None	1.3448	""	""	81691000
3202	BET02050	2024-05-23T05:30:00	""	""	16.4529	76.8112	None	12.3498	16.8686	17.8667	28.5616	2.9831	20.7965	None	1.3487	""	""	81691000
3203	BET02050	2024-05-23T05:40:00	""	""	16.567	76.1408	None	10.8608	15.042	15.6673	24.9691	5.7452	21.4211	None	1.3235	""	""	81691000
3204	BET02050	2024-05-23T05:50:00	""	""	16.6723	75.5274	None	11.4449	16.0269	17.1293	26.2059	5.7673	22.595	None	1.3475	""	""	81691000
3205	BET02050	2024-05-23T06:00:00	""	""	17.1357	75.5723	None	11.0253	16.008	17.0164	34.4001	1.4945	29.4944	None	1.4091	""	""	81691000
3206	BET02050	2024-05-23T06:10:00	""	""	17.5019	75.6068	None	12.0013	15.9883	16.8571	45.8286	0.0517	38.1674	None	1.4888	""	""	81691000
3207	BET02050	2024-05-23T06:20:00	""	""	18.1978	74.6783	None	11.6559	15.3693	17.1914	17.5395	17.9974	18.7698	None	1.6766	""	""	81691000
3208	BET02050	2024-05-23T06:30:00	""	""	18.6703	68.623	None	8	12.0638	12.7051	1.8	32.4326	17.282	None	1.9304	""	""	81691000
3209	BET02050	2024-05-23T06:40:00	""	""	19.0706	67.7027	None	8.121	11.7944	12.498	12.4568	29.918	18.197	None	1.8664	""	""	81691000
3210	BET02050	2024-05-23T06:50:00	""	""	19.5504	66.917	None	7.7115	10.5153	11.5811	28.5882	14.4323	22.2295	None	1.7637	""	""	81691000
3211	BET02050	2024-05-23T07:00:00	""	""	19.6096	66.1886	None	7.104	9.4794	9.6828	25.1719	35.6391	14.3633	None	1.9088	""	""	81691000
3212	BET02050	2024-05-23T07:10:00	""	""	19.7115	69.0301	None	7.8063	10.7506	11.0813	38.3595	24.6774	13.168	None	1.9194	""	""	81691000
3213	BET02050	2024-05-23T07:20:00	""	""	19.5705	70.571	None	7.9069	11.4182	10.8994	27.4216	47.7556	7.7234	None	1.9616	""	""	81691000
3214	BET02050	2024-05-23T07:30:00	""	""	19.7996	72.0318	None	7.5226	10.9759	11.3302	16.8519	49.2836	4.0538	None	1.9604	""	""	81691000
3215	BET02050	2024-05-23T07:40:00	""	""	20.1295	72.643	None	6.9991	9.7267	10.3657	20.2627	36.709	5.5101	None	1.9456	""	""	81691000
3216	BET02050	2024-05-23T07:50:00	""	""	20.0127	70.8219	None	5.9512	7.5489	7.768	10.7946	48.94	8.0107	None	1.9632	""	""	81691000
3217	BET02050	2024-05-23T11:00:00	""	""	24.1336	54.6662	None	None	None	None	17.157	43.1973	10.4953	None	3.3221	""	""	81691000
3218	BET02050	2024-05-23T11:10:00	""	""	23.7486	54.8872	None	3.4952	4.6646	4.9337	21.47	46.0703	10.2048	None	2.9068	""	""	81691000
3219	BET02050	2024-05-23T11:20:00	""	""	24.1687	55.0724	None	4.6399	5.8889	5.7865	15.4484	64.2718	8.8555	None	3.0484	""	""	81691000
3220	BET02050	2024-05-23T11:30:00	""	""	24.6758	54.4252	None	4.7107	7.219	7.3626	18.025	31.1477	10.1899	None	3.184	""	""	81691000
3221	BET02050	2024-05-23T11:40:00	""	""	24.6809	54.1394	None	4.0771	5.7037	6.3639	12.3977	52.0543	9.2258	None	3.3436	""	""	81691000
3222	BET02050	2024-05-23T11:50:00	""	""	25.4298	53.9859	None	3.0001	5.3955	6.0447	20.9702	39.1805	8.9863	None	3.4675	""	""	81691000
3223	BET02050	2024-05-23T12:00:00	""	""	24.5342	53.4695	None	4.3547	5.711	6.0586	15.2563	52.0936	9.2089	None	3.3028	""	""	81691000
3224	BET02050	2024-05-23T12:10:00	""	""	24.4403	53.205	None	4.7556	5.4043	5.4334	18.3928	51.0265	8.7061	None	3.2147	""	""	81691000
3225	BET02050	2024-05-23T12:20:00	""	""	23.8134	53.2728	None	4.319	5.8855	6.0495	21.114	45.2826	8.4074	None	2.6486	""	""	81691000
3226	BET02050	2024-05-23T12:30:00	""	""	23.712	55.0982	None	4.0001	5.5995	5.6267	14.8812	58.6027	8.0625	None	2.7748	""	""	81691000
3227	BET02050	2024-05-23T12:40:00	""	""	24.6937	54.0065	None	3.2913	4.3739	4.6156	18.9709	43.8298	8.464	None	3.2893	""	""	81691000
3228	BET02050	2024-05-23T12:50:00	""	""	24.538	51.9546	None	3.2069	3.6797	3.9701	9.593	56.6777	8.6351	None	3.3372	""	""	81691000
3229	BET02050	2024-05-23T13:00:00	""	""	25.0294	51.2977	None	2.9999	3.4947	3.5031	6.8273	41.5406	8.9619	None	3.4326	""	""	81691000
3230	BET02050	2024-05-23T13:10:00	""	""	24.0054	50.2624	None	2.9064	3.8204	4.1231	5.9185	69.395	8.4296	None	3.0112	""	""	81691000
3231	BET02050	2024-05-23T13:20:00	""	""	24.1702	50.8874	None	1.0001	1.0001	1.0001	8.3019	57.1972	8.7234	None	3.0046	""	""	81691000
3232	BET02050	2024-05-23T13:30:00	""	""	24.8304	50.6413	None	2.576	4.9999	5	13.5985	59.1221	8.3632	None	3.47	""	""	81691000
3233	BET02050	2024-05-23T13:40:00	""	""	24.6127	51.986	None	1.9853	2.5184	3.474	16.469	53.6685	7.9806	None	3.2408	""	""	81691000
3234	BET02050	2024-05-23T13:50:00	""	""	23.9604	52.7592	None	2.4031	3.6143	4.1113	17.2363	54.461	8.1356	None	2.8374	""	""	81691000
3235	BET02050	2024-05-23T14:00:00	""	""	24.5885	54.237	None	2.6018	3.6539	3.8747	16.4926	55.2497	7.6838	None	3.086	""	""	81691000
3236	BET02050	2024-05-23T14:10:00	""	""	24.2076	55.1674	None	2.6729	3.8724	4.0324	15.3769	63.7801	7.963	None	3.0391	""	""	81691000
3237	BET02050	2024-05-23T14:20:00	""	""	24.0287	53.8228	None	2.2024	3.3121	3.312	15.6627	57.9209	8.3982	None	2.981	""	""	81691000
3238	BET02050	2024-05-23T14:30:00	""	""	24.6886	53.7373	None	1.8773	3.0975	3.2724	20.4464	48.3808	8.4725	None	3.2551	""	""	81691000
3239	BET02050	2024-05-23T14:40:00	""	""	25.1424	53.13	None	1.6976	2.6886	2.9106	15.0412	57.579	7.8291	None	3.4293	""	""	81691000
3240	BET02050	2024-05-23T14:50:00	""	""	25.3104	53.9855	None	1.6663	2	3	22.5605	52.4602	7.9499	None	3.4387	""	""	81691000
3241	BET02050	2024-05-23T15:00:00	""	""	25.7539	52.4612	None	3.0556	4.3868	4.5768	22.1193	50.4153	9.4514	None	3.4853	""	""	81691000
3242	BET02050	2024-05-23T15:10:00	""	""	24.6578	50.3844	None	1	2	2	14.0902	72.2005	7.2375	None	3.4364	""	""	81691000
3243	BET02050	2024-05-23T15:20:00	""	""	23.8157	52.2604	None	1.2652	2.1757	2.3702	21.4839	57.3933	8.1542	None	2.6896	""	""	81691000
3244	BET02050	2024-05-23T15:30:00	""	""	23.3719	54.6866	None	2.2197	3.5	3.7254	21.1171	57.7045	7.5336	None	2.3591	""	""	81691000
3245	BET02050	2024-05-23T15:40:00	""	""	23.9809	55.307	None	1	1.5124	1.4656	19.1723	62.2822	8.169	None	2.7126	""	""	81691000
3246	BET02050	2024-05-23T15:50:00	""	""	24.3029	55.3124	None	1.908	2.3251	2.6433	23.9359	52.3207	8.4951	None	2.5767	""	""	81691000
3247	BET02050	2024-05-23T16:00:00	""	""	23.6406	55.0797	None	2	3.1292	3.4416	14.5036	56.6947	8.5126	None	2.4757	""	""	81691000
3248	BET02050	2024-05-23T16:10:00	""	""	24.0869	56.3468	None	1.0001	2.9419	3.068	16.211	61.0679	7.6607	None	2.9129	""	""	81691000
3249	BET02050	2024-05-23T16:20:00	""	""	23.1345	56.5103	None	3	3.6952	4.1684	17.3291	57.6337	8.0236	None	2.266	""	""	81691000
3250	BET02050	2024-05-23T16:30:00	""	""	23.0702	57.1631	None	2.8395	4.0623	4.4508	15.262	55.1873	8.1639	None	2.2964	""	""	81691000
3251	BET02050	2024-05-23T16:40:00	""	""	22.7355	58.1345	None	3.5263	5	4.8418	18.643	59.5004	8.033	None	2.1027	""	""	81691000
3252	BET02050	2024-05-23T16:50:00	""	""	22.3326	57.3374	None	3	3.7501	3.9589	13.3417	59.9713	8.1074	None	2.1259	""	""	81691000
3253	BET02050	2024-05-23T17:00:00	""	""	22.3778	57.5063	None	3.2701	4.1575	4.4262	18.1589	55.6209	8.2999	None	2.126	""	""	81691000
3254	BET02050	2024-05-23T17:10:00	""	""	21.9781	57.8819	None	2	4	3.6688	22.0796	50.886	8.4656	None	2.0267	""	""	81691000
3255	BET02050	2024-05-23T17:20:00	""	""	21.8649	58.8179	None	3.1517	4.0664	4.6145	21.1891	52.6493	8.4907	None	1.9947	""	""	81691000
3256	BET02050	2024-05-23T17:30:00	""	""	21.7427	59.6122	None	3.3396	4.9753	5.139	19.2263	55.1025	8.1993	None	1.9912	""	""	81691000
3257	BET02050	2024-05-23T17:40:00	""	""	21.7434	60.2578	None	3.0433	4.2605	4.69	40.0541	27.2904	9.0327	None	1.8923	""	""	81691000
3258	BET02050	2024-05-23T17:50:00	""	""	21.4846	60.9531	None	2.6198	3.4315	3.677	17.981	52.8283	8.2753	None	1.9727	""	""	81691000
3259	BET02050	2024-05-23T18:00:00	""	""	21.2311	61.5194	None	2.5	3.684	4.262	19.2826	52.2204	7.8726	None	1.9255	""	""	81691000
3260	BET02050	2024-05-23T18:10:00	""	""	20.6235	62.6663	None	3.4498	4.741	4.9159	25.1007	45.731	2.7681	None	1.8602	""	""	81691000
3261	BET02050	2024-05-23T18:20:00	""	""	20.4726	63.7775	None	3.2259	4.7796	5.2026	23.2409	47.4906	1.6171	None	1.885	""	""	81691000
3262	BET02050	2024-05-23T18:30:00	""	""	20.262	65.3753	None	2.9852	4.1279	4.4146	19.0248	60.2183	1.3078	None	1.9353	""	""	81691000
3263	BET02050	2024-05-23T18:40:00	""	""	20.145	66.3219	None	2.6509	3.9781	4.2559	18.1581	56.6773	1.4815	None	1.9444	""	""	81691000
3264	BET02050	2024-05-23T18:50:00	""	""	20.2063	66.8559	None	2.3017	3.3521	3.5932	15.9926	59.7667	1.3028	None	1.9469	""	""	81691000
3265	BET02050	2024-05-23T19:00:00	""	""	20.1591	67.3881	None	2.0001	3	4.3623	19.9095	52.0092	1.6288	None	1.8949	""	""	81691000
3266	BET02050	2024-05-23T19:10:00	""	""	19.914	67.6303	None	2	4.0306	4.1656	14.3334	63.318	1.0117	None	1.9669	""	""	81691000
3267	BET02050	2024-05-23T19:20:00	""	""	19.7435	69.1092	None	3.1038	5.0051	4.9554	22.5014	50.2148	1.1601	None	1.9441	""	""	81691000
3268	BET02050	2024-05-23T19:30:00	""	""	19.8364	69.9011	None	2.0001	3.9605	4.4227	14.1664	65.9002	1.058	None	1.9726	""	""	81691000
3269	BET02050	2024-05-23T19:40:00	""	""	19.7772	70.4059	None	2.9895	4.7545	5.1247	24.8001	47.0363	1.4232	None	1.941	""	""	81691000
3270	BET02050	2024-05-23T19:50:00	""	""	19.731	70.5937	None	5.6914	8.0854	8.2041	26.8896	46.6138	1.5612	None	1.9317	""	""	81691000
3271	BET02050	2024-05-23T20:00:00	""	""	19.7069	70.63	None	3.6079	5.2757	5.5149	14.9891	60.0794	1.5971	None	1.9423	""	""	81691000
3272	BET02050	2024-05-23T20:10:00	""	""	19.6574	70.7566	None	3.6252	4.9677	5.5456	12.5166	58.773	1.6955	None	1.9383	""	""	81691000
3273	BET02050	2024-05-23T20:20:00	""	""	19.5859	70.5047	None	3	4.5774	4.7631	22.3238	42.5922	2.3343	None	1.9124	""	""	81691000
3274	BET02050	2024-05-23T20:30:00	""	""	19.7804	70.3229	None	3.4117	5	4.9179	12.045	47.985	2.3631	None	1.9124	""	""	81691000
3275	BET02050	2024-05-23T20:40:00	""	""	19.7084	68.9821	None	2.3491	3.6915	4.352	9.6697	57.0194	2.1336	None	1.9201	""	""	81691000
3276	BET02050	2024-05-23T20:50:00	""	""	19.4377	68.861	None	3	4.1881	4.777	8.376	57.3823	2.3753	None	1.9305	""	""	81691000
3277	BET02050	2024-05-23T21:00:00	""	""	19.4392	69.1666	None	2	3.3758	3.609	17.2387	41.8321	2.9267	None	1.8945	""	""	81691000
3278	BET02050	2024-05-23T21:10:00	""	""	19.4451	68.8682	None	3.7	5.4465	5.8071	4.8952	58.3148	2.5963	None	1.957	""	""	81691000
3279	BET02050	2024-05-23T21:20:00	""	""	19.3366	68.5899	None	2	2.2379	2.2359	2.3781	60.0489	2.9351	None	1.9262	""	""	81691000
3280	BET02050	2024-05-23T21:30:00	""	""	19.2912	68.8289	None	1.7276	2.8234	3.0027	4.8911	61.7419	3.0916	None	1.9391	""	""	81691000
3281	BET02050	2024-05-23T21:40:00	""	""	19.4421	68.1909	None	1.6717	2.8914	3.3905	4.8947	55.7635	3.1693	None	1.9533	""	""	81691000
3282	BET02050	2024-05-23T21:50:00	""	""	19.346	67.827	None	2	2.8007	3.1931	9.2098	56.3782	2.8615	None	1.9513	""	""	81691000
3283	BET02050	2024-05-23T22:00:00	""	""	19.2316	67.789	None	2.6587	3.889	4.2124	2.85	51.5122	3.9943	None	1.9364	""	""	81691000
3284	BET02050	2024-05-23T22:10:00	""	""	19.2251	66.9394	None	1.8001	2.9163	3.2103	1.2008	66.0158	2.7337	None	1.9752	""	""	81691000
3285	BET02050	2024-05-23T22:20:00	""	""	19.1351	68.3634	None	2.5	3.9289	3.4206	3.7312	65.4053	2.8691	None	1.9744	""	""	81691000
3286	BET02050	2024-05-23T22:30:00	""	""	19.1842	69.1165	None	2.0001	4.5408	4.5814	4.644	70.5058	2.9484	None	1.9881	""	""	81691000
3287	BET02050	2024-05-23T22:40:00	""	""	18.9355	69.8799	None	4.166	6.9163	7.1938	7.5588	68.1725	5.9855	None	1.9719	""	""	81691000
3288	BET02050	2024-05-23T22:50:00	""	""	18.9957	71.1602	None	2.8897	4.6466	5.132	8.5395	62.998	4.9928	None	1.9754	""	""	81691000
3289	BET02050	2024-05-23T23:00:00	""	""	19.0945	71.2839	None	3.0769	4.7169	5.2658	3.9697	62.6336	4.6536	None	1.9709	""	""	81691000
3290	BET02050	2024-05-23T23:10:00	""	""	19.0606	71.295	None	3.106	4.7719	5.3023	6.1753	58.8614	3.9511	None	1.9712	""	""	81691000
3291	BET02050	2024-05-23T23:20:00	""	""	18.8511	71.3109	None	3.737	6.1441	7.1305	4.1214	64.4253	7.5191	None	1.9712	""	""	81691000
3292	BET02050	2024-05-23T23:30:00	""	""	18.9215	70.8539	None	3.9997	6.2472	6.9266	2.8867	59.5205	7.0276	None	1.9668	""	""	81691000
3293	BET02050	2024-05-23T23:40:00	""	""	18.9019	70.7791	None	5.071	8.1747	9.3539	4.5151	52.8026	6.5634	None	1.9362	""	""	81691000
3294	BET02050	2024-05-23T23:50:00	""	""	18.8527	70.3515	None	4.3675	6.0165	6.1406	10.7164	47.2619	5.4998	None	1.9203	""	""	81691000
3295	BET02050	2024-05-24T00:00:00	""	""	18.5469	69.7358	None	3.4371	4.6488	5.2071	7.0937	49.8368	6.6459	None	1.9274	""	""	81691000
3296	BET02050	2024-05-24T00:10:00	""	""	18.4903	69.8087	None	3.4462	4.7677	5.0677	7.6391	44.8775	6.6861	None	1.9049	""	""	81691000
3297	BET02050	2024-05-24T00:20:00	""	""	18.6214	69.699	None	3.3669	4	5.104	4.1669	49.8338	6.5968	None	1.928	""	""	81691000
3298	BET02050	2024-05-24T00:30:00	""	""	18.6212	69.0898	None	2.9168	4.4273	4.59	2.274	53.844	6.7871	None	1.9527	""	""	81691000
3299	BET02050	2024-05-24T00:40:00	""	""	18.6016	68.3399	None	2.8906	4.3606	4.7827	1.3424	47.1074	7.3646	None	1.9292	""	""	81691000
3300	BET02050	2024-05-24T00:50:00	""	""	18.3025	70.0528	None	3	4.8627	5.2717	17.7349	30.9156	6.19	None	1.7139	""	""	81691000
3301	BET02050	2024-05-24T01:00:00	""	""	18.1312	70.6814	None	None	None	None	18.24	26.0923	6.6165	None	1.6578	""	""	81691000
3302	BET02050	2024-05-24T01:10:00	""	""	17.9436	71.1488	None	3.8173	5.4243	5.6239	13.3242	28.4911	7.6939	None	1.7	""	""	81691000
3303	BET02050	2024-05-24T01:20:00	""	""	18.2352	70.4147	None	3.9999	5.0042	5.3967	7.6829	30.7678	8.1226	None	1.856	""	""	81691000
3304	BET02050	2024-05-24T01:30:00	""	""	17.9752	70.4882	None	4.4132	6.1566	6.9581	20.2659	17.6046	7.8627	None	1.6257	""	""	81691000
3305	BET02050	2024-05-24T01:40:00	""	""	17.7467	70.3989	None	4.4956	6.2688	6.579	17.8305	19.5835	7.8876	None	1.5461	""	""	81691000
3306	BET02050	2024-05-24T01:50:00	""	""	17.6354	70.2494	None	5	6.2922	6.6326	20.0747	17.9741	7.9855	None	1.5988	""	""	81691000
3307	BET02050	2024-05-24T02:00:00	""	""	17.7088	70.2358	None	4.2112	6.0649	6.2373	19.5033	17.4755	8.287	None	1.5973	""	""	81691000
3308	BET02050	2024-05-24T02:10:00	""	""	17.8499	69.9869	None	5	6.063	6.2107	18.5169	17.7017	8.6343	None	1.617	""	""	81691000
3309	BET02050	2024-05-24T02:20:00	""	""	17.6965	69.6113	None	4	5.9592	5.9964	17.3228	19.2766	8.6886	None	1.5603	""	""	81691000
3310	BET02050	2024-05-24T02:30:00	""	""	17.7002	68.9985	None	4	5.7332	6.0586	16.1795	22.9214	8.445	None	1.6179	""	""	81691000
3311	BET02050	2024-05-24T02:40:00	""	""	17.5455	68.5094	None	4.1543	5.3348	5.4754	16.8504	26.0314	7.4983	None	1.6569	""	""	81691000
3312	BET02050	2024-05-24T02:50:00	""	""	17.5566	69.2182	None	3.6556	4.767	5.4634	13.6844	31.1285	7.178	None	1.7222	""	""	81691000
3313	BET02050	2024-05-24T03:00:00	""	""	17.5943	69.8205	None	4.0872	6	6.181	13.3806	31.3715	6.9771	None	1.7444	""	""	81691000
3314	BET02050	2024-05-24T03:10:00	""	""	17.4815	70.1656	None	4.398	5.8807	6.0775	15.1033	30.9603	6.8339	None	1.7156	""	""	81691000
3315	BET02050	2024-05-24T03:20:00	""	""	17.3092	71.0521	None	4.3591	6.5522	6.8232	17.2081	29.2848	6.7724	None	1.6135	""	""	81691000
3316	BET02050	2024-05-24T03:30:00	""	""	17.1032	71.3908	None	4.4239	6.2171	7.1713	19.4514	23.3389	8.0859	None	1.5649	""	""	81691000
3317	BET02050	2024-05-24T03:40:00	""	""	17.1573	71.7624	None	4.7592	5.9839	6.521	18.7206	24.2974	7.1492	None	1.6434	""	""	81691000
3318	BET02050	2024-05-24T03:50:00	""	""	17.1766	72.0022	None	4.1267	5.3718	5.6438	21.2121	20.4348	7.6409	None	1.6381	""	""	81691000
3319	BET02050	2024-05-24T04:00:00	""	""	17.3082	71.828	None	5	6.6925	6.1126	23.3592	19.3222	7.7401	None	1.6614	""	""	81691000
3320	BET02050	2024-05-24T04:10:00	""	""	17.375	71.967	None	5.1945	7.1145	7.9324	24.7255	13.7989	8.1425	None	1.6016	""	""	81691000
3321	BET02050	2024-05-24T04:20:00	""	""	17.4198	71.5875	None	5.1509	7.1357	7	25.8254	12.959	9.0708	None	1.4721	""	""	81691000
3322	BET02050	2024-05-24T04:30:00	""	""	17.4076	71.4686	None	5.47	7.2906	7.8928	30.3647	10.1804	8.5287	None	1.4805	""	""	81691000
3323	BET02050	2024-05-24T04:40:00	""	""	17.1825	72.1967	None	6.7053	9.5463	10.2567	34.6141	4.8352	9.5114	None	1.4058	""	""	81691000
3324	BET02050	2024-05-24T04:50:00	""	""	17.0993	72.7918	None	7.3825	10.1983	11.139	34.8901	4.3411	10.6992	None	1.3645	""	""	81691000
3325	BET02050	2024-05-24T05:00:00	""	""	17.1036	72.9739	None	8	10.2936	10.9462	41.3313	0.197	14.7891	None	1.3401	""	""	81691000
3326	BET02050	2024-05-24T05:10:00	""	""	17.1175	72.7364	None	6	8.0333	8.9522	41.6894	0.0713	17.6691	None	1.3352	""	""	81691000
3327	BET02050	2024-05-24T05:20:00	""	""	17.1869	72.9683	None	6	8.3711	8.8818	49.3422	0.0131	24.4856	None	1.3311	""	""	81691000
3328	BET02050	2024-05-24T05:30:00	""	""	17.4583	72.9783	None	7.0027	9.1189	10.1165	52.7784	0.1575	32.0705	None	1.3775	""	""	81691000
3329	BET02050	2024-05-24T05:40:00	""	""	17.533	72.5131	None	7.7851	10.3593	10.7411	51.3694	0.0822	33.6568	None	1.3856	""	""	81691000
3330	BET02050	2024-05-24T05:50:00	""	""	17.7444	70.8895	None	6.9981	9.3537	9.7018	41.5334	0.0155	22.7106	None	1.4691	""	""	81691000
3331	BET02050	2024-05-24T06:00:00	""	""	18.0145	68.9246	None	6.0287	8.3504	8.8256	38.559	1.5985	20.5061	None	1.5289	""	""	81691000
3332	BET02050	2024-05-24T06:10:00	""	""	18.2209	68.0207	None	6	8.2172	8.8011	36.0234	5.2144	17.0633	None	1.5399	""	""	81691000
3333	BET02050	2024-05-24T06:20:00	""	""	18.8481	64.9531	None	6.6775	8.2928	9.0705	12.0104	19.8876	17.0242	None	1.9108	""	""	81691000
3334	BET02050	2024-05-24T06:30:00	""	""	19.1164	60.2448	None	4.0219	5.5968	6.1968	4.1333	33.3039	15.5849	None	1.944	""	""	81691000
3335	BET02050	2024-05-24T06:40:00	""	""	19.2912	58.8308	None	4.0577	5.3534	5.783	15.4258	27.8172	16.7945	None	1.8712	""	""	81691000
3336	BET02050	2024-05-24T06:50:00	""	""	19.3992	56.6788	None	3.8052	5.7317	5.8001	12.6843	33.1342	13.3205	None	1.9495	""	""	81691000
3337	BET02050	2024-05-24T07:00:00	""	""	19.6325	56.3276	None	4.6784	6.9447	7.2464	12.5249	29.0313	13.3943	None	1.9349	""	""	81691000
3338	BET02050	2024-05-24T07:10:00	""	""	19.6575	55.7462	None	3.7407	5.1047	5.6942	18.3956	36.298	10.7197	None	1.8575	""	""	81691000
3339	BET02050	2024-05-24T07:20:00	""	""	20.2586	55.0455	None	4.1154	5.7371	6.487	25.8026	21.5202	15.199	None	1.8341	""	""	81691000
3340	BET02050	2024-05-24T07:30:00	""	""	20.3009	54.3672	None	4.3802	6.1029	6.9456	37.1434	16.1167	16.3152	None	1.6857	""	""	81691000
3341	BET02050	2024-05-24T07:40:00	""	""	20.5012	54.9829	None	4.5841	6.1291	7.3759	31.4855	24.8746	16.5469	None	1.9219	""	""	81691000
3342	BET02050	2024-05-24T07:50:00	""	""	20.4786	54.3832	None	3.7571	5.3431	5.8664	22.7472	34.7863	13.434	None	1.9717	""	""	81691000
3343	BET02050	2024-05-24T08:00:00	""	""	21.2534	54.3522	None	3.8987	5.1702	5.2417	29.4862	30.3847	9.2264	None	2.0042	""	""	81691000
3344	BET02050	2024-05-24T08:10:00	""	""	20.8873	54.1046	None	5	6.1535	6.7837	19.3739	40.2362	7.4407	None	2.0044	""	""	81691000
3345	BET02050	2024-05-24T08:20:00	""	""	20.751	54.9153	None	5.0893	6.6342	7.3615	27.0195	35.7484	5.4404	None	1.9899	""	""	81691000
3346	BET02050	2024-05-24T08:30:00	""	""	20.7612	58.6275	None	5.8071	6.5069	7.0904	40.6309	48.0991	4.7395	None	1.9504	""	""	81691000
3347	BET02050	2024-05-24T08:40:00	""	""	20.9387	58.5112	None	4.8628	6.7064	7.7289	23.3728	45.5637	6.15	None	2.0552	""	""	81691000
3348	BET02050	2024-05-24T08:50:00	""	""	21.364	58.0396	None	3.8596	5.1836	5.5691	27.7402	36.7149	9.7491	None	2.0769	""	""	81691000
3349	BET02050	2024-05-24T09:00:00	""	""	21.4955	56.9248	None	3.7228	4	5.9995	32.0323	35.0833	10.5058	None	2.1252	""	""	81691000
3350	BET02050	2024-05-24T09:10:00	""	""	21.0834	58.2837	None	4.3018	5.2052	5.2541	18.0782	51.1432	9.6274	None	2.0107	""	""	81691000
3351	BET02050	2024-05-24T09:20:00	""	""	21.4928	56.4834	None	3.9095	5.2309	5.2614	19.0948	46.3974	10.0457	None	2.232	""	""	81691000
3352	BET02050	2024-05-24T09:30:00	""	""	21.4835	58.9874	None	3	5.4942	5.3183	30.0482	52.4406	8.9994	None	2.1026	""	""	81691000
3353	BET02050	2024-05-24T09:40:00	""	""	21.6093	58.8443	None	3.7073	4.9621	5.5522	30.8117	44.8742	9.7709	None	2.0889	""	""	81691000
3354	BET02050	2024-05-24T09:50:00	""	""	21.4339	59.4506	None	4.3233	6.1747	6.2754	22.2027	54.5187	9.519	None	2.004	""	""	81691000
3355	BET02050	2024-05-24T10:00:00	""	""	21.9782	60.5749	None	3.7946	5	5.5064	35.3945	42.3399	9.3079	None	2.0314	""	""	81691000
3356	BET02050	2024-05-24T10:10:00	""	""	23.0402	60.8026	None	5.0569	7.1234	8.6464	45.9183	26.2983	11.1371	None	2.135	""	""	81691000
3357	BET02050	2024-05-24T10:20:00	""	""	22.3239	55.9067	None	3.4696	4	4	19.2761	43.7826	10.5621	None	2.4223	""	""	81691000
3358	BET02050	2024-05-24T10:30:00	""	""	22.3375	56.2752	None	3.1441	4.174	4.4917	23.144	30.3337	10.5848	None	2.1072	""	""	81691000
3359	BET02050	2024-05-24T10:40:00	""	""	22.7246	55.1905	None	4.5385	6.3503	7.0241	20.4838	36.5283	10.7717	None	2.7275	""	""	81691000
3360	BET02050	2024-05-24T10:50:00	""	""	21.8814	55.9708	None	2.0001	3	3.2975	16.2857	61.9512	9.4447	None	2.1798	""	""	81691000
3361	BET02050	2024-05-24T11:00:00	""	""	22.3934	58.2895	None	4.7676	6.8353	7.4008	39.1244	46.5686	9.9293	None	2.142	""	""	81691000
3362	BET02050	2024-05-24T11:10:00	""	""	23.1372	56.7755	None	3.5845	6	5.1312	20.9475	47.8741	9.4035	None	2.5745	""	""	81691000
3363	BET02050	2024-05-24T11:20:00	""	""	23.4353	54.5105	None	3.7482	5.0451	5.2333	30.0531	44.716	9.9685	None	3.0445	""	""	81691000
3364	BET02050	2024-05-24T11:30:00	""	""	23.5744	54.5695	None	2.984	3.9286	4.4233	11.276	60.7854	9.3403	None	2.9079	""	""	81691000
3365	BET02050	2024-05-24T11:40:00	""	""	22.9006	55.7591	None	2.0104	2.6186	3.0654	13.2789	57.2581	8.8451	None	2.318	""	""	81691000
3366	BET02050	2024-05-24T11:50:00	""	""	23.424	55.5327	None	2.0064	3.3979	3.7086	13.2319	59.4099	9.2475	None	2.8134	""	""	81691000
3367	BET02050	2024-05-24T12:00:00	""	""	23.3677	52.0277	None	3.0795	4.2081	4.3566	4.4286	41.169	10.3907	None	2.9693	""	""	81691000
3368	BET02050	2024-05-24T12:10:00	""	""	23.3731	53.5983	None	2	3.0621	3.7347	16.1447	61.3785	8.4949	None	2.9261	""	""	81691000
3369	BET02050	2024-05-24T12:20:00	""	""	23.4686	56.2761	None	3.7212	4.9031	5.4272	21.8806	51.0646	8.8621	None	2.3778	""	""	81691000
3370	BET02050	2024-05-24T12:30:00	""	""	23.2371	53.3478	None	2.8174	4.1468	4.6566	10.1495	48.9136	9.0883	None	2.7528	""	""	81691000
3371	BET02050	2024-05-24T12:40:00	""	""	23.5427	53.8143	None	1.9999	3	3.2488	10.2783	62.8406	8.983	None	2.8621	""	""	81691000
3372	BET02050	2024-05-24T12:50:00	""	""	24.0033	53.0541	None	2.3882	3.634	3.7758	8.7126	41.531	9.1063	None	3.19	""	""	81691000
3373	BET02050	2024-05-24T13:00:00	""	""	23.9157	52.5478	None	2.9052	3.8287	3.9653	14.7624	62.9118	9.0572	None	3.1908	""	""	81691000
3374	BET02050	2024-05-24T13:10:00	""	""	24.2634	53.5977	None	2.5274	3.6333	4.0814	9.9504	48.2101	9.0216	None	3.2756	""	""	81691000
3375	BET02050	2024-05-24T13:20:00	""	""	24.8959	52.1431	None	3	4.9074	5.2902	7.8148	47.4342	8.8974	None	3.4277	""	""	81691000
3376	BET02050	2024-05-24T13:30:00	""	""	24.3994	51.1434	None	2.1757	4.5758	5.3757	10.2008	64.2636	8.6295	None	3.4598	""	""	81691000
3377	BET02050	2024-05-24T13:40:00	""	""	24.1485	52.5874	None	2.0628	3.3985	3.7027	15.6513	61.1231	8.593	None	3.2379	""	""	81691000
3378	BET02050	2024-05-24T13:50:00	""	""	24.1115	54.1151	None	1	2.768	3.3889	15.8916	60.6931	7.7887	None	3.0529	""	""	81691000
3379	BET02050	2024-05-24T14:00:00	""	""	23.9761	53.3046	None	2.0001	4.917	5.6572	15.8743	65.9586	7.7429	None	2.9812	""	""	81691000
3380	BET02050	2024-05-24T14:10:00	""	""	23.9634	54.0733	None	2.6138	3.7921	3.9802	15.9644	59.2566	8.1199	None	3.0157	""	""	81691000
3381	BET02050	2024-05-24T14:20:00	""	""	23.7391	54.8931	None	3.1482	5.0845	5.7505	12.5868	64.2544	7.8355	None	2.8327	""	""	81691000
3382	BET02050	2024-05-24T14:30:00	""	""	23.587	56.4253	None	2.0177	3.1568	3.4812	18.3771	61.2863	7.6705	None	2.5812	""	""	81691000
3383	BET02050	2024-05-24T14:40:00	""	""	24.1657	55.9462	None	2	3.9255	4.2594	20.3821	52.5603	8.606	None	3.0021	""	""	81691000
3384	BET02050	2024-05-24T14:50:00	""	""	24.3379	55.9877	None	4	7.1516	6.3871	24.0235	53.9726	8.5835	None	2.9468	""	""	81691000
3385	BET02050	2024-05-24T15:00:00	""	""	24.8087	54.3728	None	2	3.6953	4.4916	20.4137	60.1542	7.9167	None	3.3505	""	""	81691000
3386	BET02050	2024-05-24T15:10:00	""	""	24.5537	53.8781	None	2	3	3	17.8537	63.3645	7.5878	None	3.1429	""	""	81691000
3387	BET02050	2024-05-24T15:20:00	""	""	23.6981	54.764	None	2.4605	3.7361	3.6893	17.1413	64.9113	7.7646	None	2.5427	""	""	81691000
3388	BET02050	2024-05-24T15:30:00	""	""	24.177	54.1503	None	2.7658	4.1755	4.6628	19.7808	60.1445	7.8001	None	2.9941	""	""	81691000
3389	BET02050	2024-05-24T15:40:00	""	""	24.3371	55.1447	None	2	3.8212	4.8778	21.4345	60.2159	8.4885	None	3.1784	""	""	81691000
3390	BET02050	2024-05-24T15:50:00	""	""	24.196	55.2041	None	2	3.9523	4.4111	26.9017	60.0756	8.2789	None	2.9468	""	""	81691000
3391	BET02050	2024-05-24T16:00:00	""	""	23.554	55.4048	None	2	4	4.4477	17.076	68.7366	7.9131	None	2.4544	""	""	81691000
3392	BET02050	2024-05-24T16:10:00	""	""	23.1979	57.202	None	2.0001	4.6177	4.8017	15.7881	66.0056	7.9488	None	2.263	""	""	81691000
3393	BET02050	2024-05-24T16:20:00	""	""	23.3684	58.2479	None	2.0001	4.0678	4.4601	19.7898	61.8676	7.8658	None	2.2921	""	""	81691000
3394	BET02050	2024-05-24T16:30:00	""	""	22.7012	58.4402	None	2.0001	4.5104	4.7697	21.2356	63.8848	8.0919	None	1.9766	""	""	81691000
3395	BET02050	2024-05-24T16:40:00	""	""	23.0455	60.0907	None	2.5573	4.3498	5.741	27.1858	57.9662	8.3324	None	2.1082	""	""	81691000
3396	BET02050	2024-05-24T16:50:00	""	""	22.4008	61.0593	None	2.887	4.4458	4.6037	22.4122	53.793	7.9134	None	2.0101	""	""	81691000
3397	BET02050	2024-05-24T17:00:00	""	""	22.7291	61.5765	None	3.673	5.3693	5.5049	26.6152	55.7143	8.0689	None	2.021	""	""	81691000
3398	BET02050	2024-05-24T17:10:00	""	""	21.9094	61.6261	None	3	4.4473	5	16.7196	62.5039	8.0809	None	1.9931	""	""	81691000
3399	BET02050	2024-05-24T17:20:00	""	""	21.3335	63.1139	None	3.1243	4.8006	5.2626	16.5904	62.6123	8.0813	None	1.9741	""	""	81691000
3400	BET02050	2024-05-24T17:30:00	""	""	21.6851	64.109	None	3.5788	4.3234	5.0575	17.294	58.5424	8.4999	None	2.0087	""	""	81691000
3401	BET02050	2024-05-24T17:40:00	""	""	21.0479	66.0341	None	4.3058	5.4875	6.447	25.3528	53.2861	7.4919	None	1.9674	""	""	81691000
3402	BET02050	2024-05-24T17:50:00	""	""	21.0082	67.1459	None	3.6993	5.651	6.2585	23.7779	56.9043	7.309	None	1.9538	""	""	81691000
3403	BET02050	2024-05-24T18:00:00	""	""	20.5997	67.4024	None	3.2151	5.1892	5.3392	15.5714	59.5948	3.7448	None	1.9479	""	""	81691000
3404	BET02050	2024-05-24T18:10:00	""	""	20.4029	68.8518	None	3.0001	5.6241	5.7185	21.7151	59.9146	1.751	None	1.9583	""	""	81691000
3405	BET02050	2024-05-24T18:20:00	""	""	20.1568	69.8104	None	4.1113	5.7439	6.2004	20.6547	57.6989	1.3636	None	1.9564	""	""	81691000
3406	BET02050	2024-05-24T18:30:00	""	""	19.8655	70.3011	None	4	6.2795	6.9465	23.6201	54.6483	1.0478	None	1.9482	""	""	81691000
3407	BET02050	2024-05-24T18:40:00	""	""	19.725	71.895	None	4.4271	6.5432	7.8644	18.8721	56.3573	6.6589	None	1.9146	""	""	81691000
3408	BET02050	2024-05-24T18:50:00	""	""	19.5687	72.9608	None	4.9377	7.0283	7.7588	21.9338	62.7908	2.1813	None	1.9652	""	""	81691000
3409	BET02050	2024-05-24T19:00:00	""	""	19.3272	73.568	None	3.9201	6.6467	7.3255	18.5074	58.1747	2.7144	None	1.9603	""	""	81691000
3410	BET02050	2024-05-24T19:10:00	""	""	19.2855	74.6648	None	4.3493	6.0191	6.6214	27.7794	45.7397	3.1918	None	1.9709	""	""	81691000
3411	BET02050	2024-05-24T19:20:00	""	""	19.2004	75.7337	None	6.8293	11.0744	12.4248	33.2975	41.9378	5.6375	None	1.8981	""	""	81691000
3412	BET02050	2024-05-24T19:30:00	""	""	18.9792	76.4598	None	5.0479	7.1953	8	16.7496	69.3247	2.8348	None	1.9741	""	""	81691000
3413	BET02050	2024-05-24T19:40:00	""	""	18.7733	77.306	None	4.5801	7.2164	7.6452	18.5233	53.0072	5.6913	None	1.9418	""	""	81691000
3414	BET02050	2024-05-24T19:50:00	""	""	18.7741	77.29	None	5.6919	7.9766	8.3571	20.9698	58.2405	3.8679	None	1.9662	""	""	81691000
3415	BET02050	2024-05-24T20:00:00	""	""	18.6063	77.388	None	4.9167	7.2288	7.7603	21.5087	46.4189	5.3592	None	1.9442	""	""	81691000
3416	BET02050	2024-05-24T20:10:00	""	""	18.7359	76.6703	None	5.6617	8.6723	8.9052	18.2245	37.0219	7.305	None	1.914	""	""	81691000
3417	BET02050	2024-05-24T20:20:00	""	""	18.8475	76.0081	None	5.4785	9.4944	10.3692	25.6575	28.5326	8.7704	None	1.8448	""	""	81691000
3418	BET02050	2024-05-24T20:30:00	""	""	18.9321	75.2843	None	5.9365	8.5729	9.1424	14.4422	42.4539	7.9476	None	1.9257	""	""	81691000
3419	BET02050	2024-05-24T20:40:00	""	""	18.791	74.3776	None	4.0113	6.4092	7.0898	5.7012	43.2724	7.4899	None	1.9145	""	""	81691000
3420	BET02050	2024-05-24T20:50:00	""	""	18.8638	74.3442	None	4.3233	6.8452	6.7887	10.688	42.9335	6.9054	None	1.8947	""	""	81691000
3421	BET02050	2024-05-24T21:00:00	""	""	18.7328	75.0044	None	5.353	8.6644	9.998	14.101	47.6984	7.4704	None	1.8918	""	""	81691000
3422	BET02050	2024-05-24T21:10:00	""	""	18.7775	75.4159	None	5.1355	7.8825	8.9014	7.9506	53.7757	6.9965	None	1.9294	""	""	81691000
3423	BET02050	2024-05-24T21:20:00	""	""	18.4474	75.6822	None	4.9641	6.6564	8.509	10.0419	57.8808	7.0856	None	1.8909	""	""	81691000
3424	BET02050	2024-05-24T21:30:00	""	""	18.5559	76.0642	None	6.5882	10.573	11.6449	11.149	52.9515	7.3276	None	1.9411	""	""	81691000
3425	BET02050	2024-05-24T21:40:00	""	""	18.6135	76.1503	None	5.7796	8.8917	9.358	17.6676	34.3663	8.099	None	1.898	""	""	81691000
3426	BET02050	2024-05-24T21:50:00	""	""	18.6403	76.3783	None	6.8682	9.6704	9.9621	27.6072	33.0395	7.9778	None	1.8856	""	""	81691000
3427	BET02050	2024-05-24T22:00:00	""	""	18.6266	77.3667	None	6.2044	8	7.8775	19.4658	36.657	6.6246	None	1.9148	""	""	81691000
3428	BET02050	2024-05-24T22:10:00	""	""	18.5941	77.3809	None	4.9996	5.9053	6.0254	2.3142	55.5067	7.3673	None	1.9552	""	""	81691000
3429	BET02050	2024-05-24T22:20:00	""	""	18.5021	77.2093	None	3	5.0682	5.4908	2.837	47.6584	8.3233	None	1.9187	""	""	81691000
3430	BET02050	2024-05-24T22:30:00	""	""	18.59	77.4172	None	3.6131	5.0606	5.4504	12.0562	45.9238	7.3962	None	1.9185	""	""	81691000
3431	BET02050	2024-05-24T22:40:00	""	""	18.62	78.3772	None	3.9433	5.7443	6.0167	6.2909	49.2679	7.0303	None	1.9336	""	""	81691000
3432	BET02050	2024-05-24T22:50:00	""	""	18.5519	78.8232	None	3.5225	5.431	5.9482	14.0951	37.6185	8.6873	None	1.9045	""	""	81691000
3433	BET02050	2024-05-24T23:00:00	""	""	18.5061	79.0612	None	4.2046	5.941	6.2263	7.5248	40.2584	7.5592	None	1.9055	""	""	81691000
3434	BET02050	2024-05-24T23:10:00	""	""	18.4517	79.7036	None	4.0286	5.928	6.8239	13.5887	48.4811	8.0361	None	1.8769	""	""	81691000
3435	BET02050	2024-05-24T23:20:00	""	""	18.1402	78.9087	None	6.9997	7.6083	8.5419	3.0397	50.5784	7.8417	None	1.9187	""	""	81691000
3436	BET02050	2024-05-24T23:30:00	""	""	18.1465	78.983	None	5	8.1188	9.2258	4.3049	45.6879	8.7366	None	1.8622	""	""	81691000
3437	BET02050	2024-05-24T23:40:00	""	""	17.7628	77.9001	None	6.0609	9.0243	10.0175	6.3853	21.7299	11.6934	None	1.4645	""	""	81691000
3438	BET02050	2024-05-24T23:50:00	""	""	17.1568	76.3211	None	6.8246	9.6353	11.2382	10.7068	19.0452	10.6582	None	1.3558	""	""	81691000
3439	BET02050	2024-05-25T00:00:00	""	""	16.9135	76.4134	None	8.2221	10.6973	12.1631	14.2621	16.1808	10.7082	None	1.3257	""	""	81691000
3440	BET02050	2024-05-25T00:10:00	""	""	16.6061	76.7033	None	9.7493	12.1927	12.2533	15.4057	15.3886	10.3401	None	1.3057	""	""	81691000
3441	BET02050	2024-05-25T00:20:00	""	""	16.4417	77.4926	None	8.7367	11.6057	12.667	17.7587	15.9909	9.8101	None	1.3134	""	""	81691000
3442	BET02050	2024-05-25T00:30:00	""	""	16.3222	78.0588	None	9	11.88	12.6809	18.5163	12.7022	10.203	None	1.2854	""	""	81691000
3443	BET02050	2024-05-25T00:40:00	""	""	16.2185	78.8035	None	8.3301	11.0845	11.9806	16.9149	14.7763	9.769	None	1.2917	""	""	81691000
3444	BET02050	2024-05-25T00:50:00	""	""	16.1503	79.0999	None	8	10.5755	11.3266	17.0277	15.6299	9.9548	None	1.3	""	""	81691000
3445	BET02050	2024-05-25T01:00:00	""	""	15.9898	79.7138	None	None	None	None	19.6529	13.9125	10.3947	None	1.3085	""	""	81691000
3446	BET02050	2024-05-25T01:10:00	""	""	15.7824	81.0267	None	11.8827	17.3652	18.8461	20.4316	11.7039	10.1176	None	1.2841	""	""	81691000
3447	BET02050	2024-05-25T01:20:00	""	""	15.6515	82.2051	None	12	17.2168	19.1645	21.5914	10.9305	9.9342	None	1.2961	""	""	81691000
3448	BET02050	2024-05-25T01:30:00	""	""	15.5794	82.9647	None	12.0442	17.5003	18.7013	20.3999	10.6383	10.2319	None	1.2823	""	""	81691000
3449	BET02050	2024-05-25T01:40:00	""	""	15.6186	83.7094	None	11.4457	16.5842	17.6179	19.3465	14.163	9.8942	None	1.315	""	""	81691000
3450	BET02050	2024-05-25T01:50:00	""	""	15.6592	84.5795	None	10.0001	15.8391	16.3674	20.5703	12.8987	10.0094	None	1.3334	""	""	81691000
3451	BET02050	2024-05-25T02:00:00	""	""	15.6723	84.8635	None	12.1222	16.6887	18.5756	20.6323	9.7051	10.6489	None	1.342	""	""	81691000
3452	BET02050	2024-05-25T02:10:00	""	""	15.5517	85.0412	None	14.7402	21.5675	22.888	22.1771	7.3507	10.4199	None	1.3185	""	""	81691000
3453	BET02050	2024-05-25T02:20:00	""	""	15.5153	85.334	None	16.0429	24.0732	26.593	23.9437	1.6849	11.1868	None	1.3172	""	""	81691000
3454	BET02050	2024-05-25T02:30:00	""	""	15.3442	85.4775	None	16.5251	24.2566	26.4211	23.9154	2.1549	11.138	None	1.3213	""	""	81691000
3455	BET02050	2024-05-25T02:40:00	""	""	15.213	85.7573	None	17.3521	24.8696	28.2803	24.1931	0.2061	10.2772	None	1.3153	""	""	81691000
3456	BET02050	2024-05-25T02:50:00	""	""	15.2233	85.973	None	17.941	26.2548	28.89	23.6309	1.9601	10.8412	None	1.2982	""	""	81691000
3457	BET02050	2024-05-25T03:00:00	""	""	15.1411	86.3902	None	22.4246	32.582	37.3944	24.3085	0.043	11.0161	None	1.308	""	""	81691000
3458	BET02050	2024-05-25T03:10:00	""	""	15.0313	86.9639	None	22.8332	33.4342	39.2699	25.2706	0.1295	11.037	None	1.3017	""	""	81691000
3459	BET02050	2024-05-25T03:20:00	""	""	14.943	87.4649	None	20.7252	30.6194	35.4616	24.4077	1.6982	10.2218	None	1.2743	""	""	81691000
3460	BET02050	2024-05-25T03:30:00	""	""	14.8218	88.5136	None	19.8723	28.1827	30.1215	25.3242	0.0833	10.6841	None	1.2842	""	""	81691000
3461	BET02050	2024-05-25T03:40:00	""	""	14.7581	89.5621	None	19.3954	27.6058	29.0242	25.6881	0.0033	11.4509	None	1.3096	""	""	81691000
3462	BET02050	2024-05-25T03:50:00	""	""	14.757	90.136	None	18.03	26.087	28.3418	24.7875	0.0502	11.5781	None	1.3025	""	""	81691000
3463	BET02050	2024-05-25T04:00:00	""	""	14.713	90.3856	None	18.9806	26.2688	27.852	23.617	0.1209	12.091	None	1.3323	""	""	81691000
3464	BET02050	2024-05-25T04:10:00	""	""	14.6358	90.9818	None	17.5161	25.258	27.2646	23.1107	0.2254	12.257	None	1.3472	""	""	81691000
3465	BET02050	2024-05-25T04:20:00	""	""	14.4941	91.355	None	17.0913	24.2332	26.2028	23.2944	0.054	14.2226	None	1.4856	""	""	81691000
3466	BET02050	2024-05-25T04:30:00	""	""	14.5841	92.2797	None	16.6403	23.535	25.3406	22.8148	2.9686	12.6391	None	1.3997	""	""	81691000
3467	BET02050	2024-05-25T04:40:00	""	""	14.6515	93.0134	None	17.6896	27.2237	30.4255	21.3137	1.9237	13.2305	None	1.4216	""	""	81691000
3468	BET02050	2024-05-25T04:50:00	""	""	14.7198	93.5631	None	17.6617	25.5255	27.7942	20.4686	3.3549	14.6978	None	1.4366	""	""	81691000
3469	BET02050	2024-05-25T05:00:00	""	""	14.7444	93.889	None	17.7165	24.0548	25.4751	20.1968	4.4616	14.8233	None	1.4082	""	""	81691000
3470	BET02050	2024-05-25T05:10:00	""	""	14.8555	94.2812	None	17.1946	23.9885	26.3093	20.2816	6.4566	15.239	None	1.3618	""	""	81691000
3471	BET02050	2024-05-25T05:20:00	""	""	15.0198	94.7487	None	17.3102	24.7582	27.7691	19.0715	5.3287	15.6451	None	1.3777	""	""	81691000
3472	BET02050	2024-05-25T05:30:00	""	""	15.4779	94.1845	None	17.8358	24.8833	26.3917	14.3958	12.7609	14.6905	None	1.3192	""	""	81691000
3473	BET02050	2024-05-25T05:40:00	""	""	15.9012	92.9603	None	17.8853	23.8525	26.5061	10.0112	15.3265	15.279	None	1.3466	""	""	81691000
3474	BET02050	2024-05-25T05:50:00	""	""	16.2963	92.1894	None	17	23.6925	25.309	7.0628	15.6839	17.3034	None	1.3911	""	""	81691000
3475	BET02050	2024-05-25T06:00:00	""	""	16.5835	90.4099	None	17.2835	23.8877	25.7036	6.6438	14.0884	19.147	None	1.4696	""	""	81691000
3476	BET02050	2024-05-25T06:10:00	""	""	16.8297	87.4847	None	18.2471	24.8983	26.5904	5.0215	16.3393	19.7175	None	1.4252	""	""	81691000
3477	BET02050	2024-05-25T06:20:00	""	""	17.0306	85.8792	None	18.0028	26.2152	28.8099	3.1076	18.699	18.719	None	1.4474	""	""	81691000
3478	BET02050	2024-05-25T06:30:00	""	""	17.0567	84.8892	None	14.782	21.4149	23.2365	5.4184	16.6125	18.3102	None	1.4408	""	""	81691000
3479	BET02050	2024-05-25T06:40:00	""	""	16.9929	83.8086	None	16.3611	22.3735	23.8431	5.714	19.1962	17.7797	None	1.4217	""	""	81691000
3480	BET02050	2024-05-25T06:50:00	""	""	17.0376	83.1309	None	13.6273	19.252	20.6975	9.0947	17.3141	19.047	None	1.4079	""	""	81691000
3481	BET02050	2024-05-25T07:00:00	""	""	17.4917	82.777	None	15.7386	22.6413	23.341	9.8193	16.3057	21.6741	None	1.5109	""	""	81691000
3482	BET02050	2024-05-25T07:10:00	""	""	17.975	81.6319	None	15.1851	20.1138	22.1011	6.1871	19.8383	18.9496	None	1.5713	""	""	81691000
3483	BET02050	2024-05-25T07:20:00	""	""	18.4791	78.8303	None	15.1152	20.7447	23.6336	0.0249	29.5294	15.916	None	1.6424	""	""	81691000
3484	BET02050	2024-05-25T07:30:00	""	""	18.9317	77.5708	None	11.9295	16.4822	17.5857	0.4802	27.7916	15.3194	None	1.6897	""	""	81691000
3485	BET02050	2024-05-25T07:40:00	""	""	19.4996	76.2112	None	11.9298	16.796	17.0933	0.2462	30.2049	15.1343	None	1.7797	""	""	81691000
3486	BET02050	2024-05-25T07:50:00	""	""	19.8674	72.5557	None	10.4541	14.3681	15.3568	0.029	36.7901	13.7338	None	1.8454	""	""	81691000
3487	BET02050	2024-05-25T08:00:00	""	""	20.3952	68.3745	None	8.9631	12.1147	12.9317	0.0152	31.441	16.0762	None	1.9568	""	""	81691000
3488	BET02050	2024-05-25T08:10:00	""	""	20.8565	65.0974	None	6.3574	9.0125	9.3308	0.0287	28.3461	15.6202	None	1.9747	""	""	81691000
3489	BET02050	2024-05-25T08:20:00	""	""	20.9321	62.7861	None	6.216	8.7699	9.5422	0.0385	34.9217	13.2033	None	1.987	""	""	81691000
3490	BET02050	2024-05-25T08:30:00	""	""	21.3513	59.8119	None	5.3766	7.4015	7.4665	0.0276	37.5433	11.8207	None	2.0371	""	""	81691000
3491	BET02050	2024-05-25T08:40:00	""	""	21.3757	59.4179	None	5.0215	6.7154	7.4733	7.0567	34.7579	10.8481	None	2.0298	""	""	81691000
3492	BET02050	2024-05-25T08:50:00	""	""	21.49	58.6949	None	6.041	8.0951	8.7668	5.5746	33.5855	10.9699	None	2.0231	""	""	81691000
3493	BET02050	2024-05-25T09:00:00	""	""	21.5924	58.1047	None	5.8715	7.8947	9.0393	10.8826	31.7536	11.1012	None	1.9989	""	""	81691000
3494	BET02050	2024-05-25T09:10:00	""	""	20.8918	56.4844	None	5.2718	6.9993	7.6041	7.3536	40.2588	9.3075	None	1.9583	""	""	81691000
3495	BET02050	2024-05-25T09:20:00	""	""	21.0857	55.3078	None	4.894	6.338	6.0571	5.8661	42.15	8.2091	None	2.0944	""	""	81691000
3496	BET02050	2024-05-25T09:30:00	""	""	21.8068	55.9479	None	4	5	5.7389	2.7021	44.4451	9.7908	None	2.2095	""	""	81691000
3497	BET02050	2024-05-25T09:40:00	""	""	21.8101	53.9216	None	4.5586	5.9889	6.6406	8.9125	37.8688	10.4472	None	2.5258	""	""	81691000
3498	BET02050	2024-05-25T09:50:00	""	""	21.8584	51.7187	None	3.7987	5.5331	5.9993	8.2936	39.5687	10.6258	None	2.67	""	""	81691000
3499	BET02050	2024-05-25T10:00:00	""	""	21.6929	53.555	None	4.0962	5.4994	5.0001	22.596	28.9107	11.0494	None	2.1724	""	""	81691000
3500	BET02050	2024-05-25T10:10:00	""	""	21.4315	52.7717	None	3	5.191	5.4937	16.3232	37.2572	7.4457	None	2.2511	""	""	81691000
3501	BET02050	2024-05-25T10:20:00	""	""	21.8463	50.6062	None	3.738	5.0723	5.2552	11.0223	32.9513	10.2964	None	2.73	""	""	81691000
3502	BET02050	2024-05-25T10:30:00	""	""	22.4011	50.8905	None	3.2379	4.3362	4.4173	10.3123	39.491	10.1018	None	3.1617	""	""	81691000
3503	BET02050	2024-05-25T10:40:00	""	""	22.6302	49.5933	None	4.0197	5.4479	5.8043	7.1482	52.2696	9.548	None	3.2929	""	""	81691000
3504	BET02050	2024-05-25T10:50:00	""	""	22.3737	49.4891	None	4	5.1264	5.1612	6.9668	59.3711	8.8795	None	3.3423	""	""	81691000
3505	BET02050	2024-05-25T11:00:00	""	""	22.2584	50.4131	None	3.8271	4.7149	4.8735	7.1169	69.3474	8.2282	None	3.293	""	""	81691000
3506	BET02050	2024-05-25T11:10:00	""	""	22.712	51.1208	None	4.2949	5.6461	5.5946	8.2002	57.0784	9.137	None	3.2166	""	""	81691000
3507	BET02050	2024-05-25T11:20:00	""	""	23.132	49.244	None	5.1751	6.4016	6.4866	9.3073	53.3844	9.0943	None	3.3133	""	""	81691000
3508	BET02050	2024-05-25T11:30:00	""	""	23.1537	48.605	None	3.6702	4	5.2245	6.5817	63.337	8.2883	None	3.4459	""	""	81691000
3509	BET02050	2024-05-25T11:40:00	""	""	23.9179	49.8449	None	4.5427	6.1623	6.4974	10.2225	56.341	8.3875	None	3.5166	""	""	81691000
3510	BET02050	2024-05-25T11:50:00	""	""	24.559	47.9728	None	3.7581	4.7736	5.5843	18.3209	56.5593	8.7711	None	3.6482	""	""	81691000
3511	BET02050	2024-05-25T12:00:00	""	""	23.4926	51.1785	None	6.9998	7.3992	8.237	15.5078	63.3503	8.2489	None	3.32	""	""	81691000
3512	BET02050	2024-05-25T12:10:00	""	""	23.4078	52.4044	None	6.3496	8.274	8.9345	17.3484	62.9937	7.9512	None	3.2108	""	""	81691000
3513	BET02050	2024-05-25T12:20:00	""	""	23.2233	50.8917	None	5.4051	7.9371	9.4222	11.7726	67.5985	7.7116	None	3.2962	""	""	81691000
3514	BET02050	2024-05-25T12:30:00	""	""	22.2162	54.6014	None	6.7548	9.3395	9.9241	13.2011	84.3583	6.6535	None	2.8241	""	""	81691000
3515	BET02050	2024-05-25T12:40:00	""	""	22.2605	54.0395	None	6.2913	8.7919	9.3753	15.2333	69.1113	7.1088	None	2.6572	""	""	81691000
3516	BET02050	2024-05-25T12:50:00	""	""	22.5776	54.5653	None	6.3601	8.7207	9.1851	15.2172	59.1457	7.7939	None	2.7635	""	""	81691000
3517	BET02050	2024-05-25T13:00:00	""	""	22.4489	54.1164	None	5.5477	7	8.22	10.2097	62.6993	7.8449	None	3.0363	""	""	81691000
3518	BET02050	2024-05-25T13:10:00	""	""	22.6479	56.9184	None	6.9382	9.1346	9.6292	17.1263	77.6687	7.4926	None	3.0393	""	""	81691000
3519	BET02050	2024-05-25T13:20:00	""	""	22.41	56.8933	None	6.918	10.6568	11.7726	15.3083	81.4567	7.4658	None	2.9284	""	""	81691000
3520	BET02050	2024-05-25T13:30:00	""	""	22.6584	55.9334	None	6.9358	10.0694	10.6815	11.4422	68.7634	8.0798	None	3.0368	""	""	81691000
3521	BET02050	2024-05-25T13:40:00	""	""	22.6044	58.8012	None	6.7593	10.4703	10.9254	19.129	79.0492	7.3199	None	2.9043	""	""	81691000
3522	BET02050	2024-05-25T13:50:00	""	""	22.4325	58.307	None	6.3239	8.5785	9.1015	15.3399	84.3657	7.7773	None	2.8813	""	""	81691000
3523	BET02050	2024-05-25T14:00:00	""	""	21.56	61.5495	None	6.9526	9.517	10.6	18.8653	87.7614	4.666	None	2.4465	""	""	81691000
3524	BET02050	2024-05-25T14:10:00	""	""	22.4669	61.2031	None	7	10.3794	10.5666	20.2712	79.9217	7.4323	None	2.7137	""	""	81691000
3525	BET02050	2024-05-25T14:20:00	""	""	21.7111	59.9813	None	6.7466	9.3523	9.2633	14.2669	71.821	6.9563	None	2.3666	""	""	81691000
3526	BET02050	2024-05-25T14:30:00	""	""	21.2805	63.3735	None	6.3094	8.3738	9.096	16.397	88.1004	4.0325	None	2.195	""	""	81691000
3527	BET02050	2024-05-25T14:40:00	""	""	21.7213	64.3002	None	5.6346	8.3953	8.6637	19.9306	83.875	7.2906	None	2.2632	""	""	81691000
3528	BET02050	2024-05-25T14:50:00	""	""	22.2217	63.6998	None	7.0748	9.3207	10.4614	16.8139	83.642	7.8378	None	2.4976	""	""	81691000
3529	BET02050	2024-05-25T15:00:00	""	""	22.743	63.7816	None	8.0714	11.1348	11.4227	16.5425	88.8363	7.7593	None	2.7968	""	""	81691000
3530	BET02050	2024-05-25T15:10:00	""	""	22.6959	61.6738	None	7.211	9.4877	10.1273	10.3593	83.0709	8.333	None	2.8958	""	""	81691000
3531	BET02050	2024-05-25T15:20:00	""	""	22.0915	61.9985	None	6.636	8.9685	9.9709	8.8779	81.9858	8.2501	None	2.4485	""	""	81691000
3532	BET02050	2024-05-25T15:30:00	""	""	21.6125	63.7318	None	6.7056	8.3044	9.1295	13.5843	80.9225	7.4827	None	2.1991	""	""	81691000
3533	BET02050	2024-05-25T15:40:00	""	""	21.3384	64.2496	None	6.1873	8.7702	8.9627	11.5888	77.373	5.4924	None	2.1237	""	""	81691000
3534	BET02050	2024-05-25T15:50:00	""	""	22.3784	65.7479	None	5.4135	7.629	8.3177	17.8359	74.1647	8.0159	None	2.1981	""	""	81691000
3535	BET02050	2024-05-25T16:00:00	""	""	21.9391	64.3357	None	4	7	6.3175	11.5446	73.9779	8.2524	None	2.1302	""	""	81691000
3536	BET02050	2024-05-25T16:10:00	""	""	21.2935	63.379	None	3.5732	5.1884	5.5578	11.2226	74.7338	5.2605	None	2.1025	""	""	81691000
3537	BET02050	2024-05-25T16:20:00	""	""	21.8872	63.7001	None	3.142	4.6512	5.0404	12.0515	68.4897	8.6855	None	2.1277	""	""	81691000
3538	BET02050	2024-05-25T16:30:00	""	""	21.1767	63.5797	None	2.8912	4.3081	4.5451	16.3801	62.2498	4.2953	None	2.0509	""	""	81691000
3539	BET02050	2024-05-25T16:40:00	""	""	20.961	64.8578	None	3.4173	4.8424	4.8667	13.4913	74.236	2.2575	None	2.0605	""	""	81691000
3540	BET02050	2024-05-25T16:50:00	""	""	21.0959	65.848	None	3.3044	4.5832	5.006	14.5667	73.4672	4.3779	None	2.0544	""	""	81691000
3541	BET02050	2024-05-25T17:00:00	""	""	20.9773	66.6953	None	3.3559	4.5409	4.9879	18.9636	63.884	3.6254	None	2.0235	""	""	81691000
3542	BET02050	2024-05-25T17:10:00	""	""	20.61	67.534	None	3.1451	4.4751	4.8941	16.7512	63.3595	1.5857	None	2.0006	""	""	81691000
3543	BET02050	2024-05-25T17:20:00	""	""	20.6782	68.5066	None	3	5.2123	5.3192	16.4311	65.4645	1.7895	None	2.002	""	""	81691000
3544	BET02050	2024-05-25T17:30:00	""	""	20.5021	69.482	None	3.6528	5	5.468	13.6886	70.8219	1.2297	None	2.0012	""	""	81691000
3545	BET02050	2024-05-25T17:40:00	""	""	20.6081	70.537	None	3.4443	4.7052	5.3922	14.3344	69.2242	1.4662	None	2.0037	""	""	81691000
3546	BET02050	2024-05-25T17:50:00	""	""	20.897	71.3122	None	3.2036	4.4685	5.0297	15.8777	64.508	3.0072	None	2.0116	""	""	81691000
3547	BET02050	2024-05-25T18:00:00	""	""	20.6624	71.3625	None	3.691	5.3207	5.6991	15.7372	63.3005	2.1509	None	1.9964	""	""	81691000
3548	BET02050	2024-05-25T18:10:00	""	""	20.3067	72.0614	None	3.59	4.9895	5.1565	11.4856	68.0418	1.4982	None	1.9959	""	""	81691000
3549	BET02050	2024-05-25T18:20:00	""	""	20.2281	73.2789	None	3.7024	4.9207	5.3023	12.5975	70.9864	1.5899	None	1.9989	""	""	81691000
3550	BET02050	2024-05-25T18:30:00	""	""	20.078	73.2001	None	4	6.036	6.2476	11.4693	65.6816	1.8834	None	1.9897	""	""	81691000
3551	BET02050	2024-05-25T18:40:00	""	""	20.1817	73.9674	None	4	6.0856	6.628	17.5316	58.4632	1.8797	None	1.9814	""	""	81691000
3552	BET02050	2024-05-25T18:50:00	""	""	19.9426	74.27	None	4.6829	6.2948	6.9944	8.0987	70.1323	2.0437	None	1.9822	""	""	81691000
3553	BET02050	2024-05-25T19:00:00	""	""	19.8785	75.4416	None	4.0196	5.5035	5.829	11.8648	63.4942	2.2556	None	1.9724	""	""	81691000
3554	BET02050	2024-05-25T19:10:00	""	""	19.6464	76.6226	None	4.0001	7.2673	7.0088	8.4044	66.7553	2.8651	None	1.9847	""	""	81691000
3555	BET02050	2024-05-25T19:20:00	""	""	19.5426	76.7486	None	4.9507	6	6.628	7.3869	63.6112	3.4764	None	1.9864	""	""	81691000
3556	BET02050	2024-05-25T19:30:00	""	""	19.5094	77.9644	None	4	6.198	6.6969	13.0773	60.7246	3.8442	None	1.972	""	""	81691000
3557	BET02050	2024-05-25T19:40:00	""	""	19.3942	78.1594	None	4.5412	6.247	6.8068	13.6896	54.9842	4.4561	None	1.9523	""	""	81691000
3558	BET02050	2024-05-25T19:50:00	""	""	19.3615	77.8038	None	5.5325	7.3131	7.5265	16.7874	51.6666	5.5294	None	1.9572	""	""	81691000
3559	BET02050	2024-05-25T20:00:00	""	""	19.4289	77.917	None	5.8909	8.431	9.0521	15.8816	48.2258	4.7716	None	1.9494	""	""	81691000
3560	BET02050	2024-05-25T20:10:00	""	""	19.2672	78.8893	None	6.8699	8.9502	9.1795	13.0057	58.909	5.2948	None	1.9378	""	""	81691000
3561	BET02050	2024-05-25T20:20:00	""	""	19.3355	78.6023	None	4.927	7.238	7.846	8.2256	53.6079	5.5799	None	1.9259	""	""	81691000
3562	BET02050	2024-05-25T20:30:00	""	""	19.4304	78.1588	None	5.4941	7.4882	8.5403	5.324	54.0045	5.4931	None	1.9114	""	""	81691000
3563	BET02050	2024-05-25T20:40:00	""	""	19.3177	78.4999	None	4.0001	7.8276	8.3379	2.9653	56.6416	5.6953	None	1.9344	""	""	81691000
3564	BET02050	2024-05-25T20:50:00	""	""	19.412	77.6886	None	5.8478	8.2238	8.7122	3.8129	49.5518	5.3979	None	1.8987	""	""	81691000
3565	BET02050	2024-05-25T21:00:00	""	""	19.5577	77.1124	None	6.8718	8.0871	8.2925	3.089	55.5738	4.6227	None	1.9136	""	""	81691000
3566	BET02050	2024-05-25T21:10:00	""	""	19.4544	77.3092	None	7.2061	8.9802	8.4306	3.1273	46.8526	5.1649	None	1.884	""	""	81691000
3567	BET02050	2024-05-25T21:20:00	""	""	19.44	77.1045	None	6.4285	8.7337	7.0001	5.879	48.5185	5.4485	None	1.8636	""	""	81691000
3568	BET02050	2024-05-25T21:30:00	""	""	19.2901	77.1803	None	6.6613	9.0354	9.8316	4.0587	53.4757	5.7413	None	1.8866	""	""	81691000
3569	BET02050	2024-05-25T21:40:00	""	""	19.2024	77.2764	None	7.9946	12.4694	11.9664	8.0506	39.2908	5.7035	None	1.7648	""	""	81691000
3570	BET02050	2024-05-25T21:50:00	""	""	19.0615	77.4509	None	11.4569	15.8973	16.9385	9.0171	37.0538	6.2434	None	1.6933	""	""	81691000
3571	BET02050	2024-05-25T22:00:00	""	""	19.0324	77.5456	None	9.5317	13.0396	14.0686	7.4738	39.0485	6.3084	None	1.7251	""	""	81691000
3572	BET02050	2024-05-25T22:10:00	""	""	19.0327	78.0806	None	8.5725	11.8439	12.5648	9.0029	39.6914	6.5096	None	1.7772	""	""	81691000
3573	BET02050	2024-05-25T22:20:00	""	""	18.9721	78.7956	None	8.3817	11.3259	12.4291	9.8595	42.4332	6.4293	None	1.8512	""	""	81691000
3574	BET02050	2024-05-25T22:30:00	""	""	18.9429	79.4098	None	8.774	12.3232	13.7034	10.6171	38.3192	6.8063	None	1.8023	""	""	81691000
3575	BET02050	2024-05-25T22:40:00	""	""	18.9462	79.9188	None	7.7446	11.1349	10.8585	9.9105	42.054	6.7871	None	1.7751	""	""	81691000
3576	BET02050	2024-05-25T22:50:00	""	""	18.1827	79.8432	None	10.2431	12.9955	14.3777	20.9214	21.5208	8.524	None	1.4045	""	""	81691000
3577	BET02050	2024-05-25T23:00:00	""	""	17.9578	79.8446	None	9.8084	13.0477	14.8232	30.6544	3.1116	9.4311	None	1.3054	""	""	81691000
3578	BET02050	2024-05-25T23:10:00	""	""	17.8555	79.9016	None	10.9715	14.2972	14.8724	25.2591	8.5127	9.1833	None	1.3239	""	""	81691000
3579	BET02050	2024-05-25T23:20:00	""	""	17.6576	80.1227	None	10.1019	13.7045	14.4107	29.3015	4.0334	9.7417	None	1.3199	""	""	81691000
3580	BET02050	2024-05-25T23:30:00	""	""	17.5532	80.4936	None	10.543	13.7896	14.571	27.1529	5.881	10.0012	None	1.3267	""	""	81691000
3581	BET02050	2024-05-25T23:40:00	""	""	17.3679	80.8851	None	9.5587	12.0257	13.5677	24.9974	8.5541	9.2697	None	1.3017	""	""	81691000
3582	BET02050	2024-05-25T23:50:00	""	""	17.3529	81.6669	None	9.5435	13.7888	14.446	19.8013	14.5706	10.2591	None	1.3107	""	""	81691000
3583	BET02050	2024-05-26T00:00:00	""	""	17.364	82.3025	None	10	14.3314	15.1476	15.7215	18.8139	8.7036	None	1.3294	""	""	81691000
3584	BET02050	2024-05-26T00:10:00	""	""	17.2369	83.1105	None	11.8645	15.578	16.4578	16.0914	21.3395	9.2754	None	1.3139	""	""	81691000
3585	BET02050	2024-05-26T00:20:00	""	""	17.162	84.1287	None	12.9359	18.0964	19.5649	16.415	20.096	9.2032	None	1.2916	""	""	81691000
3586	BET02050	2024-05-26T00:30:00	""	""	17.0954	85.0326	None	13.0104	17.6372	18.4404	16.9607	20.3986	9.2148	None	1.3398	""	""	81691000
3587	BET02050	2024-05-26T00:40:00	""	""	16.9587	85.7191	None	13	18.0009	19.7094	15.9507	20.3248	9.7049	None	1.2779	""	""	81691000
3588	BET02050	2024-05-26T00:50:00	""	""	16.9179	86.6596	None	13.1365	18.0431	18.8263	16.5991	19.8302	9.2824	None	1.3018	""	""	81691000
3589	BET02050	2024-05-26T01:00:00	""	""	16.8016	86.555	None	None	None	None	16.9252	19.6509	10.1029	None	1.3226	""	""	81691000
3590	BET02050	2024-05-26T01:10:00	""	""	16.8449	88.3546	None	13.9166	19.3468	20.3425	17.1555	21.5743	10.0958	None	1.3222	""	""	81691000
3591	BET02050	2024-05-26T01:20:00	""	""	16.8244	89.8695	None	14.2209	19.2064	21.3523	17.3724	24.2345	9.7935	None	1.3231	""	""	81691000
3592	BET02050	2024-05-26T01:30:00	""	""	16.7524	90.7366	None	14.8623	20.299	21.2281	16.1637	21.3603	10.8581	None	1.2982	""	""	81691000
3593	BET02050	2024-05-26T01:40:00	""	""	16.7369	91.0727	None	14.6134	19.8151	21.872	16.0254	19.7927	11.4673	None	1.3001	""	""	81691000
3594	BET02050	2024-05-26T01:50:00	""	""	16.745	91.4209	None	13.9744	19.31	20.599	16.4337	19.1818	11.3189	None	1.3027	""	""	81691000
3595	BET02050	2024-05-26T02:00:00	""	""	16.6386	91.4139	None	14.1307	20.0664	21.514	16.3595	17.1661	11.9361	None	1.2967	""	""	81691000
3596	BET02050	2024-05-26T02:10:00	""	""	16.4749	91.7592	None	15.5132	21.4628	22.3428	16.768	15.619	12.0317	None	1.3175	""	""	81691000
3597	BET02050	2024-05-26T02:20:00	""	""	16.2883	91.7694	None	15.2921	21.2172	22.6034	16.8927	13.3765	12.6633	None	1.2589	""	""	81691000
3598	BET02050	2024-05-26T02:30:00	""	""	16.1772	92.0506	None	15.0905	20.9427	22.4745	18.4989	13.2294	12.3011	None	1.2645	""	""	81691000
3599	BET02050	2024-05-26T02:40:00	""	""	16.0424	93.3201	None	15.6867	21.7713	23.7016	19.207	10.9462	12.5408	None	1.256	""	""	81691000
3600	BET02050	2024-05-26T02:50:00	""	""	15.9681	94.3553	None	15.291	21.6508	24.1942	18.5502	13.7514	12.0603	None	1.2083	""	""	81691000
3601	BET02050	2024-05-26T03:00:00	""	""	16.0293	95.7249	None	16.2038	23.852	25.5887	18.209	14.7678	12.5271	None	1.2426	""	""	81691000
3602	BET02050	2024-05-26T03:10:00	""	""	15.9897	96.3526	None	15.3826	21.213	23.5005	15.8536	15.4311	12.0681	None	1.2145	""	""	81691000
3603	BET02050	2024-05-26T03:20:00	""	""	15.9597	96.3466	None	14.554	19.2717	22.531	15.0196	15.714	12.2044	None	1.1995	""	""	81691000
3604	BET02050	2024-05-26T03:30:00	""	""	15.862	96.1534	None	15.2943	22.0871	23.1679	15.8393	10.3668	12.6404	None	1.2295	""	""	81691000
3605	BET02050	2024-05-26T03:40:00	""	""	15.5859	95.328	None	14.8305	20.846	22.5115	15.0442	10.7399	12.0188	None	1.2201	""	""	81691000
3606	BET02050	2024-05-26T03:50:00	""	""	15.4778	95.1917	None	14.4544	20.316	21.9004	18.5816	7.3051	11.5294	None	1.2177	""	""	81691000
3607	BET02050	2024-05-26T04:00:00	""	""	15.515	95.893	None	15.4666	21.0819	21.2279	16.9938	10.4295	11.5962	None	1.2107	""	""	81691000
3608	BET02050	2024-05-26T04:10:00	""	""	15.5141	95.3853	None	15.7982	21.9849	24.2809	16.7138	8.4801	12.0294	None	1.246	""	""	81691000
3609	BET02050	2024-05-26T04:20:00	""	""	15.5941	95.3567	None	15.7374	23.2606	24.6176	20.1403	3.394	12.7991	None	1.2109	""	""	81691000
3610	BET02050	2024-05-26T04:30:00	""	""	15.7065	94.7886	None	17.6805	25.0568	28.1202	18.0361	8.482	12.8049	None	1.2335	""	""	81691000
3611	BET02050	2024-05-26T04:40:00	""	""	15.8026	94.8813	None	17.5434	24.6878	26.3033	15.0091	11.0527	12.383	None	1.2234	""	""	81691000
3612	BET02050	2024-05-26T04:50:00	""	""	15.838	95.0971	None	16.6899	23.4895	25.4459	10.804	16.5502	13.0809	None	1.2127	""	""	81691000
3613	BET02050	2024-05-26T05:00:00	""	""	15.7963	94.5999	None	16.7275	23.472	24.3398	9.8628	17.311	12.685	None	1.2203	""	""	81691000
3614	BET02050	2024-05-26T05:10:00	""	""	15.7866	94.0739	None	15.7261	22.9834	24.629	11.3467	15.9369	13.0415	None	1.2304	""	""	81691000
3615	BET02050	2024-05-26T05:20:00	""	""	15.82	94.0066	None	15.7138	22.6796	24.4202	11.4638	15.4478	13.8685	None	1.2172	""	""	81691000
3616	BET02050	2024-05-26T05:30:00	""	""	15.825	93.8867	None	16.079	23.151	24.0939	13.0545	12.9801	14.3559	None	1.2429	""	""	81691000
3617	BET02050	2024-05-26T05:40:00	""	""	15.9972	94.1579	None	16.3055	22.985	24.3806	13.8172	12.6459	15.7042	None	1.2589	""	""	81691000
3618	BET02050	2024-05-26T05:50:00	""	""	16.1517	94.2118	None	16.524	22.4399	23.0602	14.2231	9.4505	16.9338	None	1.3169	""	""	81691000
3619	BET02050	2024-05-26T06:00:00	""	""	16.4043	94.5338	None	16.0076	22.7624	24.353	14.5431	11.2854	18.4748	None	1.2707	""	""	81691000
3620	BET02050	2024-05-26T06:10:00	""	""	16.6679	94.9825	None	16.2636	22.459	23.8852	14.6635	12.6078	18.7346	None	1.2756	""	""	81691000
3621	BET02050	2024-05-26T06:20:00	""	""	17.1377	95.7322	None	16.8304	23.1453	24.6454	14.9873	14.2702	18.7624	None	1.2886	""	""	81691000
3622	BET02050	2024-05-26T06:30:00	""	""	17.6014	96.0942	None	16.3834	23.0682	25.1045	13.3081	16.809	18.4284	None	1.2764	""	""	81691000
3623	BET02050	2024-05-26T06:40:00	""	""	17.9341	95.4404	None	17.8425	24.4433	27.2617	10.205	19.6949	17.5808	None	1.2449	""	""	81691000
3624	BET02050	2024-05-26T06:50:00	""	""	18.3486	93.603	None	18.1838	26.2251	28.9539	4.9185	26.2306	16.5593	None	1.3269	""	""	81691000
3625	BET02050	2024-05-26T07:00:00	""	""	18.7793	92.0848	None	16.2547	20.883	24.3793	1.7812	41.2843	14.3721	None	1.4769	""	""	81691000
3626	BET02050	2024-05-26T07:10:00	""	""	19.1744	90.5936	None	15.1271	20.3183	21.7554	0.0977	31.155	14.5844	None	1.4893	""	""	81691000
3627	BET02050	2024-05-26T07:20:00	""	""	19.5087	88.9626	None	14.3547	20.4602	20.7667	0.0402	29.644	15.0532	None	1.5273	""	""	81691000
3628	BET02050	2024-05-26T07:30:00	""	""	20.0147	87.4227	None	13.8321	19.0448	19.9391	0.0763	38.3027	13.1533	None	1.5927	""	""	81691000
3629	BET02050	2024-05-26T07:40:00	""	""	20.5186	86.1869	None	12.1851	16.532	18.2779	0.2378	49.0762	11.1415	None	1.8027	""	""	81691000
3630	BET02050	2024-05-26T07:50:00	""	""	20.611	84.676	None	9.585	12.9701	12.9404	0.1701	55.1256	10.8191	None	1.7842	""	""	81691000
3631	BET02050	2024-05-26T08:00:00	""	""	20.7857	82.9746	None	8.7457	11.9461	12.3179	0.0281	55.599	10.2144	None	1.8304	""	""	81691000
3632	BET02050	2024-05-26T08:10:00	""	""	21.0643	82.9349	None	7.8164	11.3234	11.9131	0.221	55.9437	9.8419	None	1.8536	""	""	81691000
3633	BET02050	2024-05-26T08:20:00	""	""	21.3094	81.1765	None	8.0699	10.5853	10.7852	0.0823	58.3325	10.5786	None	1.845	""	""	81691000
3634	BET02050	2024-05-26T08:30:00	""	""	21.4982	80.4733	None	7.7499	10.6596	10.898	0.1406	56.0602	10.7805	None	1.8559	""	""	81691000
3635	BET02050	2024-05-26T08:40:00	""	""	21.6347	77.2696	None	7.5749	9.9553	10.5902	0.1768	54.1334	11.201	None	1.9944	""	""	81691000
3636	BET02050	2024-05-26T08:50:00	""	""	21.822	76.1314	None	7.0329	8.7594	9.0984	0.1956	56.518	10.9463	None	2.0033	""	""	81691000
3637	BET02050	2024-05-26T09:00:00	""	""	22.397	74.2261	None	7.3199	9.2539	10.0678	0.1076	49.3252	10.946	None	2.0009	""	""	81691000
3638	BET02050	2024-05-26T09:10:00	""	""	22.4478	72.4197	None	7.1623	9.2488	9.716	0.1788	50.1683	10.9094	None	2.02	""	""	81691000
3639	BET02050	2024-05-26T09:20:00	""	""	22.3869	69.6328	None	6.9551	8.869	9.0257	0.0685	54.8071	10.7934	None	2.0395	""	""	81691000
3640	BET02050	2024-05-26T09:30:00	""	""	22.5712	67.2953	None	6	7.8622	8.2467	0.127	58.2591	10.8239	None	2.037	""	""	81691000
3641	BET02050	2024-05-26T09:40:00	""	""	23.1254	64.9676	None	4.8889	6.7572	7.2899	0.1566	46.7887	11.0656	None	2.1419	""	""	81691000
3642	BET02050	2024-05-26T09:50:00	""	""	23.3204	62.1664	None	5.8293	6.7985	6.9929	0.1056	47.3511	10.7426	None	2.2203	""	""	81691000
3643	BET02050	2024-05-26T10:00:00	""	""	23.5818	57.3587	None	5.1853	6.6912	6.8772	0.0391	32.7797	11.6862	None	2.8494	""	""	81691000
3644	BET02050	2024-05-26T10:10:00	""	""	23.7551	61.5949	None	5.8116	6.9956	7.3945	14.7037	44.4767	10.4243	None	2.3595	""	""	81691000
3645	BET02050	2024-05-26T10:20:00	""	""	23.6609	58.4806	None	5.0204	7	7	0.205	62.2721	9.6245	None	2.7162	""	""	81691000
3646	BET02050	2024-05-26T10:30:00	""	""	24.0116	63.4304	None	6.1886	8.2254	9.3003	7.9951	59.2684	9.2702	None	2.4576	""	""	81691000
3647	BET02050	2024-05-26T10:40:00	""	""	23.3567	65.0528	None	6.3576	8.0672	8.5113	14.297	58.8002	9.398	None	2.2913	""	""	81691000
3648	BET02050	2024-05-26T10:50:00	""	""	23.9249	65.8633	None	7.446	9.8884	10.0469	12.6372	59.3166	9.2006	None	2.3725	""	""	81691000
3649	BET02050	2024-05-26T11:00:00	""	""	23.945	66.7399	None	8.2246	10.9309	11.7095	12.6933	61.8451	9.0678	None	2.3308	""	""	81691000
3650	BET02050	2024-05-26T11:10:00	""	""	24.281	66.2706	None	9.386	12.2564	12.5935	8.276	62.819	9.0475	None	2.5675	""	""	81691000
3651	BET02050	2024-05-26T11:20:00	""	""	24.7351	65.8769	None	9.4146	11.1303	12.0561	15.6997	52.4192	9.1359	None	2.5199	""	""	81691000
3652	BET02050	2024-05-26T11:30:00	""	""	24.6222	65.4367	None	8.265	9.9308	10.2192	8.0014	63.4566	8.8018	None	2.8502	""	""	81691000
3653	BET02050	2024-05-26T11:40:00	""	""	24.7237	65.221	None	8.0533	10.5758	10.6429	7.6325	56.5276	9.1483	None	2.8499	""	""	81691000
3654	BET02050	2024-05-26T11:50:00	""	""	24.6781	64.0596	None	8.6872	11.2334	11.5413	5.9372	65.6725	8.7831	None	2.6383	""	""	81691000
3655	BET02050	2024-05-26T12:00:00	""	""	24.9759	63.5162	None	9.7881	12.5992	13.1984	10.2992	59.7277	8.8725	None	2.7831	""	""	81691000
3656	BET02050	2024-05-26T12:10:00	""	""	25.5643	62.7795	None	12.2143	13.4009	15.6384	7.3105	56.5023	8.596	None	2.9378	""	""	81691000
3657	BET02050	2024-05-26T12:20:00	""	""	25.0811	61.1033	None	9.4157	13.0437	14.2285	0.7604	63.6614	8.7314	None	2.8485	""	""	81691000
3658	BET02050	2024-05-26T12:30:00	""	""	24.952	59.8011	None	8.1783	10.5575	11.6459	5.0844	68.2623	8.5425	None	2.9616	""	""	81691000
3659	BET02050	2024-05-26T12:40:00	""	""	25.0433	59.8871	None	8.1577	10.4122	10.9358	6.9252	58.549	8.6172	None	2.9549	""	""	81691000
3660	BET02050	2024-05-26T12:50:00	""	""	24.8839	63.1869	None	8.6189	11.2492	12.1266	8.1748	73.1008	7.8583	None	2.9531	""	""	81691000
3661	BET02050	2024-05-26T13:00:00	""	""	25.112	63.999	None	9	10.9915	11.6509	12.7731	63.0264	8.0022	None	2.6624	""	""	81691000
3662	BET02050	2024-05-26T13:10:00	""	""	24.8802	63.8918	None	11.1342	15.4223	15.9855	10.652	53.3726	8.8007	None	2.4573	""	""	81691000
3663	BET02050	2024-05-26T13:20:00	""	""	25.1338	64.5475	None	11.5257	14.937	15.9198	5.0965	56.2902	8.1559	None	2.7139	""	""	81691000
3664	BET02050	2024-05-26T13:30:00	""	""	25.5537	64.2547	None	10.7636	14.3845	15.7188	6.6251	58.3957	7.8791	None	2.9328	""	""	81691000
3665	BET02050	2024-05-26T13:40:00	""	""	24.9364	63.0118	None	8.1487	10.4955	10.8597	2.31	61.4444	8.4427	None	2.6906	""	""	81691000
3666	BET02050	2024-05-26T13:50:00	""	""	25.2497	63.3477	None	7.5758	9.3105	9.6775	3.8125	63.8123	8.1893	None	3.0329	""	""	81691000
3667	BET02050	2024-05-26T14:00:00	""	""	24.4963	63.0519	None	7.7983	9.8506	12.0343	13.691	53.3991	8.7026	None	2.3558	""	""	81691000
3668	BET02050	2024-05-26T14:10:00	""	""	25.0056	63.4674	None	7.0731	8.835	9.0655	10.0358	57.0167	8.125	None	2.5908	""	""	81691000
3669	BET02050	2024-05-26T14:20:00	""	""	25.2432	63.4566	None	6.403	8.7592	8.907	8.4255	59.7532	7.9826	None	2.7381	""	""	81691000
3670	BET02050	2024-05-26T14:30:00	""	""	25.1553	63.0006	None	6.6414	8.6745	9.0323	11.6779	48.7518	8.2957	None	2.5812	""	""	81691000
3671	BET02050	2024-05-26T14:40:00	""	""	25.3532	62.5839	None	6.8497	8.311	8.5153	7.9395	65.0197	7.5991	None	2.9036	""	""	81691000
3672	BET02050	2024-05-26T14:50:00	""	""	26.4397	62.5005	None	6.5467	9.0187	9.2204	7.4537	61.2835	7.7114	None	3.6223	""	""	81691000
3673	BET02050	2024-05-26T15:00:00	""	""	26.925	61.0779	None	6.6147	8.5642	8.8371	6.447	66.1061	7.6053	None	3.3459	""	""	81691000
3674	BET02050	2024-05-26T15:10:00	""	""	26.9199	58.9449	None	6.8465	8.5089	9.1169	9.194	58.0632	7.6176	None	3.238	""	""	81691000
3675	BET02050	2024-05-26T15:20:00	""	""	25.3566	59.2259	None	6.2912	7.9166	8.2152	5.7887	63.965	7.6524	None	2.3975	""	""	81691000
3676	BET02050	2024-05-26T15:30:00	""	""	25.3204	59.4263	None	6.6836	8.0998	8.3733	9.1886	65.1698	7.7977	None	2.5645	""	""	81691000
3677	BET02050	2024-05-26T15:40:00	""	""	26.2495	60.0686	None	6.8653	8.8572	9.545	8.9452	59.7431	7.3096	None	2.9752	""	""	81691000
3678	BET02050	2024-05-26T15:50:00	""	""	26.1035	58.164	None	6.4241	8.098	8.6658	9.3311	54.5808	7.9209	None	3.1923	""	""	81691000
3679	BET02050	2024-05-26T16:00:00	""	""	24.4565	59.1822	None	6.505	8.3711	8.8557	9.6169	68.6967	7.3253	None	2.3984	""	""	81691000
3680	BET02050	2024-05-26T16:10:00	""	""	24.9394	62.1252	None	6.1271	7.9155	8.5425	9.8036	64.6654	7.2805	None	2.5833	""	""	81691000
3681	BET02050	2024-05-26T16:20:00	""	""	24.7565	63.1579	None	6.7134	9.0323	9.5076	15.1687	62.8629	7.3244	None	2.5051	""	""	81691000
3682	BET02050	2024-05-26T16:30:00	""	""	23.7355	64.6784	None	7.5999	9.6439	9.771	12.2362	73.9977	7.3367	None	2.3737	""	""	81691000
3683	BET02050	2024-05-26T16:40:00	""	""	23.3561	66.1835	None	7.339	10.0389	10.0792	11.0676	72.3699	7.5493	None	2.2381	""	""	81691000
3684	BET02050	2024-05-26T16:50:00	""	""	23.0171	68.7084	None	6.6627	7.9304	7.9489	15.6032	70.2928	7.3994	None	2.104	""	""	81691000
3685	BET02050	2024-05-26T17:00:00	""	""	23.2457	69.3553	None	6.9521	9.0866	9.4927	18.5231	61.7233	7.5485	None	2.165	""	""	81691000
3686	BET02050	2024-05-26T17:10:00	""	""	23.6045	69.556	None	7.1061	9.4361	10.2495	20.4469	52.3871	7.9846	None	2.2049	""	""	81691000
3687	BET02050	2024-05-26T17:20:00	""	""	23.0152	69.0583	None	6.4953	8.5033	8.6599	18.4346	58.6405	8.0299	None	2.1068	""	""	81691000
3688	BET02050	2024-05-26T17:30:00	""	""	23.0359	70.771	None	7.0124	9.2087	9.8975	16.948	60.7561	7.9793	None	2.0763	""	""	81691000
3689	BET02050	2024-05-26T17:40:00	""	""	22.9098	72.1464	None	7.1489	8.5414	8.8713	18.1224	58.4961	8.0431	None	2.0283	""	""	81691000
3690	BET02050	2024-05-26T17:50:00	""	""	22.6872	72.7528	None	6.9184	8.7727	8.8836	16.7187	56.6146	8.3218	None	2.0109	""	""	81691000
3691	BET02050	2024-05-26T18:00:00	""	""	22.4414	73.8086	None	7.1244	9.1677	9.5759	16.4264	60.7478	8.5115	None	1.987	""	""	81691000
3692	BET02050	2024-05-26T18:10:00	""	""	22.93	74.0034	None	6.8976	8.5814	8.7792	18.6787	48.6481	8.6137	None	1.959	""	""	81691000
3693	BET02050	2024-05-26T18:20:00	""	""	22.8161	74.2515	None	6.977	8.8822	9.3402	11.106	59.2316	8.6846	None	2.0139	""	""	81691000
3694	BET02050	2024-05-26T18:30:00	""	""	22.853	74.3969	None	7.6754	10.0887	10.6847	15.2572	50.7555	8.7075	None	1.7821	""	""	81691000
3695	BET02050	2024-05-26T18:40:00	""	""	22.8088	74.9925	None	8.1408	10.9921	11.3548	12.1751	55.9172	8.7737	None	1.978	""	""	81691000
3696	BET02050	2024-05-26T18:50:00	""	""	22.5973	75.2005	None	8.5326	11.1569	11.5092	11.902	54.8302	8.698	None	1.9883	""	""	81691000
3697	BET02050	2024-05-26T19:00:00	""	""	22.4631	76.0853	None	7.8849	10.0065	10.7586	14.1474	60.0042	8.7068	None	1.9815	""	""	81691000
3698	BET02050	2024-05-26T19:10:00	""	""	22.0736	77.1729	None	9.1291	12.5909	13.908	18.7968	51.3445	9.1062	None	1.949	""	""	81691000
3699	BET02050	2024-05-26T19:20:00	""	""	21.9915	77.5991	None	9.3664	12.2342	12.4703	11.465	57.6141	9.1703	None	1.9844	""	""	81691000
3700	BET02050	2024-05-26T19:30:00	""	""	21.717	77.2093	None	9.9327	13.426	14.282	9.5153	51.2842	9.2296	None	1.8061	""	""	81691000
3701	BET02050	2024-05-26T19:40:00	""	""	21.9631	77.7869	None	10.0976	13.0669	14.1402	34.7531	20.0128	10.0237	None	1.4932	""	""	81691000
3702	BET02050	2024-05-26T19:50:00	""	""	21.9873	77.729	None	12.8592	16.3773	17.3502	34.6981	36.9258	9.4218	None	1.6055	""	""	81691000
3703	BET02050	2024-05-26T20:00:00	""	""	21.8155	77.7901	None	13.2591	17.7581	18.0215	22.614	33.5456	9.4196	None	1.7328	""	""	81691000
3704	BET02050	2024-05-26T20:10:00	""	""	21.8809	77.2513	None	13.4487	17.2085	19.0241	24.6118	34.1617	9.7164	None	1.5384	""	""	81691000
3705	BET02050	2024-05-26T20:20:00	""	""	21.8788	76.5912	None	13.4188	18.071	20.0485	24.9667	32.8625	9.7616	None	1.7463	""	""	81691000
3706	BET02050	2024-05-26T20:30:00	""	""	21.8117	75.807	None	12.5824	18.0935	17.949	12.0441	43.076	9.9239	None	1.901	""	""	81691000
3707	BET02050	2024-05-26T20:40:00	""	""	21.7447	74.853	None	13	16.8806	18.1016	16.7954	42.786	9.6901	None	1.9292	""	""	81691000
3708	BET02050	2024-05-26T20:50:00	""	""	21.6417	75.5158	None	13.1821	17.2693	18.4331	34.5105	37.9212	9.5433	None	1.9467	""	""	81691000
3709	BET02050	2024-05-26T21:00:00	""	""	21.5157	76.0939	None	12.7903	15.691	16.6029	32.3779	36.816	9.6945	None	1.9426	""	""	81691000
3710	BET02050	2024-05-26T21:10:00	""	""	21.4166	77.0287	None	16.1024	22.482	23.3002	34.589	41.4589	9.4714	None	1.951	""	""	81691000
3711	BET02050	2024-05-26T21:20:00	""	""	21.284	78.0114	None	12.7365	18.0804	16.9861	11.1916	63.1068	9.2829	None	1.9632	""	""	81691000
3712	BET02050	2024-05-26T21:30:00	""	""	21.2968	78.438	None	10.748	14.3942	14.6678	9.2219	52.2842	9.7356	None	1.9625	""	""	81691000
3713	BET02050	2024-05-26T21:40:00	""	""	21.3561	77.7518	None	10.4754	13.608	13.7225	12.7826	49.6239	9.8799	None	1.9715	""	""	81691000
3714	BET02050	2024-05-26T21:50:00	""	""	21.2777	78.9667	None	10.9577	13.3959	14.3818	15.8908	55.644	9.6894	None	1.9774	""	""	81691000
3715	BET02050	2024-05-26T22:00:00	""	""	21.2692	79.8122	None	11.6781	15.3399	16.1817	8.8126	58.0536	9.57	None	1.9525	""	""	81691000
3716	BET02050	2024-05-26T22:10:00	""	""	21.1912	80.9574	None	11.7685	15.7319	16.4854	6.3167	67.3818	9.424	None	1.9767	""	""	81691000
3717	BET02050	2024-05-26T22:20:00	""	""	21.0843	82.0835	None	11.9311	15.9467	17.1241	33.1084	24.2619	9.0176	None	1.6058	""	""	81691000
3718	BET02050	2024-05-26T22:30:00	""	""	21.0478	83.9539	None	12.85	16.8221	18.0403	33.7182	36.6275	8.9028	None	1.6604	""	""	81691000
3719	BET02050	2024-05-26T22:40:00	""	""	20.9847	83.5717	None	11.6217	14.8273	14.125	14.7687	41.3437	8.4913	None	1.6259	""	""	81691000
3720	BET02050	2024-05-26T22:50:00	""	""	20.9844	83.7067	None	10.5534	14.1522	14.7177	7.7856	44.2382	8.5985	None	1.5965	""	""	81691000
3721	BET02050	2024-05-26T23:00:00	""	""	21.0211	86.6876	None	10.4324	14.4655	14.9062	12.4284	67.9644	7.4881	None	1.5892	""	""	81691000
3722	BET02050	2024-05-26T23:10:00	""	""	20.9601	90.0718	None	11.6786	16.1802	17.5558	17.7942	38.2183	8.418	None	1.3975	""	""	81691000
3723	BET02050	2024-05-26T23:20:00	""	""	20.8902	91.0952	None	11.81	16.4034	16.6556	11.7839	60.5945	6.9536	None	1.3474	""	""	81691000
3724	BET02050	2024-05-26T23:30:00	""	""	20.7454	90.379	None	12.7866	16.562	17.5435	9.0161	43.9942	8.8848	None	1.3904	""	""	81691000
3725	BET02050	2024-05-26T23:40:00	""	""	20.7362	90.9771	None	11.1989	15.2038	16.4377	8.0575	48.1691	8.0728	None	1.3824	""	""	81691000
3726	BET02050	2024-05-26T23:50:00	""	""	20.6922	91.4191	None	11.1934	15.4262	15.7026	9.6876	44.2372	8.6948	None	1.2872	""	""	81691000
3727	BET02050	2024-05-27T00:00:00	""	""	20.5134	92.0344	None	12.4776	17.1803	17.5877	13.1527	50.0352	7.9722	None	1.3196	""	""	81691000
3728	BET02050	2024-05-27T00:10:00	""	""	20.4585	92.3066	None	12.6508	17.9123	18.4588	13.9671	48.6457	8.7805	None	1.3199	""	""	81691000
3729	BET02050	2024-05-27T00:20:00	""	""	20.4277	93.3722	None	13.0392	18.3331	18.7244	18.7165	30.9465	9.4781	None	1.2298	""	""	81691000
3730	BET02050	2024-05-27T00:30:00	""	""	20.4169	95.2483	None	12.9264	16.6682	18.499	13.8099	55.0234	8.3748	None	1.2235	""	""	81691000
3731	BET02050	2024-05-27T00:40:00	""	""	20.3149	96.4518	None	10.9125	14.7367	15.106	10.4812	53.8004	9.0417	None	1.1604	""	""	81691000
3732	BET02050	2024-05-27T00:50:00	""	""	20.2346	97.8254	None	13.2055	18.7896	19.6779	11.7049	43.6326	9.8508	None	1.127	""	""	81691000
3733	BET02050	2024-05-27T01:00:00	""	""	20.1614	97.8673	None	None	None	None	11.1563	40.5948	10.3812	None	1.1371	""	""	81691000
3734	BET02050	2024-05-27T01:10:00	""	""	20.2116	98.7217	None	11.595	15.9878	17.0913	11.8421	28.3519	11.239	None	1.0928	""	""	81691000
3735	BET02050	2024-05-27T01:20:00	""	""	20.1911	99.0284	None	14.0454	18.5655	19.6876	11.7123	27.5908	12.2487	None	1.0862	""	""	81691000
3736	BET02050	2024-05-27T01:30:00	""	""	20.1742	98.3693	None	13.1388	17.3401	19.4429	10.639	27.4531	12.6643	None	1.1027	""	""	81691000
3737	BET02050	2024-05-27T01:40:00	""	""	20.1538	97.0619	None	12.0762	16.3753	16.5787	10.5306	27.5764	12.2354	None	1.1429	""	""	81691000
3738	BET02050	2024-05-27T01:50:00	""	""	20.0933	95.9558	None	15.6451	21.6503	22.141	10.896	28.6819	12.1619	None	1.156	""	""	81691000
3739	BET02050	2024-05-27T02:00:00	""	""	20.0661	95.0353	None	15.3473	20.499	20.9673	10.2788	24.4872	12.7896	None	1.164	""	""	81691000
3740	BET02050	2024-05-27T02:10:00	""	""	20.0419	93.9229	None	15.3134	22.7832	24.6371	8.7593	35.7418	11.9578	None	1.2098	""	""	81691000
3741	BET02050	2024-05-27T02:20:00	""	""	20.0828	93.3057	None	14.6977	20.2528	21.5931	6.4284	25.6503	12.1355	None	1.2154	""	""	81691000
3742	BET02050	2024-05-27T02:30:00	""	""	20.0106	92.7867	None	14.703	18.6277	20.7574	8.9078	32.3665	10.6822	None	1.2341	""	""	81691000
3743	BET02050	2024-05-27T02:40:00	""	""	20.0573	92.7596	None	14.2664	20.7182	22.1247	12.1151	26.7975	13.4151	None	1.2413	""	""	81691000
3744	BET02050	2024-05-27T02:50:00	""	""	19.9951	91.752	None	14.7751	21.3456	23.2263	15.9174	18.7295	12.1969	None	1.2459	""	""	81691000
3745	BET02050	2024-05-27T03:00:00	""	""	20.0025	90.3736	None	18.5792	25.0128	26.0825	10.4089	41.946	11.0085	None	1.356	""	""	81691000
3746	BET02050	2024-05-27T03:10:00	""	""	19.9704	90.0557	None	15.9303	21.2445	22.6272	16.28	26.7724	13.1864	None	1.357	""	""	81691000
3747	BET02050	2024-05-27T03:20:00	""	""	19.9708	89.928	None	15.0861	20.2152	21.2936	14.343	31.4862	11.8843	None	1.3975	""	""	81691000
3748	BET02050	2024-05-27T03:30:00	""	""	19.8929	90.1311	None	13.6785	18.2471	19.9934	13.1515	20.5887	11.5831	None	1.2985	""	""	81691000
3749	BET02050	2024-05-27T03:40:00	""	""	19.9402	90.0301	None	13	18.6069	19.5632	13.9696	26.2663	11.4364	None	1.3298	""	""	81691000
3750	BET02050	2024-05-27T03:50:00	""	""	19.9113	89.5318	None	12.1852	16.2115	16.9664	11.8686	36.4155	10.4286	None	1.3745	""	""	81691000
3751	BET02050	2024-05-27T04:00:00	""	""	19.8628	89.4472	None	11	15.2153	16.587	11.2638	49.352	10.2822	None	1.4889	""	""	81691000
3752	BET02050	2024-05-27T04:10:00	""	""	19.87	89.2443	None	11.1566	16.0442	16.8513	15.8584	35.5423	11.1288	None	1.4285	""	""	81691000
3753	BET02050	2024-05-27T04:20:00	""	""	19.8575	89.1791	None	11.7475	16.3546	17.5242	20.0916	23.1855	12.4755	None	1.2748	""	""	81691000
3754	BET02050	2024-05-27T04:30:00	""	""	19.8473	88.9865	None	13.5991	18.307	19.503	23.653	19.2155	14.3933	None	1.3474	""	""	81691000
3755	BET02050	2024-05-27T04:40:00	""	""	19.9331	88.973	None	12.9933	17.8177	17.8405	23.1159	30.0534	12.6972	None	1.3128	""	""	81691000
3756	BET02050	2024-05-27T04:50:00	""	""	19.9229	88.457	None	11.5496	15.6378	17.6862	17.2508	32.5714	14.8317	None	1.365	""	""	81691000
3757	BET02050	2024-05-27T05:00:00	""	""	19.9875	87.7696	None	11.9097	15.9102	16.3665	27.4968	10.1478	14.7413	None	1.3134	""	""	81691000
3758	BET02050	2024-05-27T05:10:00	""	""	20.1201	87.1602	None	12.2853	16.0867	17.2619	28.9965	16.3688	17.8785	None	1.3301	""	""	81691000
3759	BET02050	2024-05-27T05:20:00	""	""	20.1183	90.6107	None	13.1609	17.8935	18.8844	33.15	11.1646	12.1071	None	1.2224	""	""	81691000
3760	BET02050	2024-05-27T05:30:00	""	""	19.8196	94.3646	None	13.241	17.9544	19.4702	35.765	1.6555	17.0252	None	1.1701	""	""	81691000
3761	BET02050	2024-05-27T05:40:00	""	""	19.7327	97.657	None	14.9292	19.5984	21.5784	46.1343	0.0562	24.9741	None	1.1061	""	""	81691000
3762	BET02050	2024-05-27T05:50:00	""	""	19.7664	100	None	16.0311	21.9003	23.1346	47.8828	0.2326	34.3464	None	1.082	""	""	81691000
3763	BET02050	2024-05-27T06:00:00	""	""	19.7773	100	None	17.8704	24.7913	26.9476	37.1679	2.0653	17.7683	None	1.0627	""	""	81691000
3764	BET02050	2024-05-27T06:10:00	""	""	19.8972	100	None	14.1041	19.2186	20.3082	30.398	16.3385	16.2413	None	1.086	""	""	81691000
3765	BET02050	2024-05-27T06:20:00	""	""	19.9107	100	None	13.5432	18.6468	19.7187	35.4584	0.2325	24.6724	None	1.0847	""	""	81691000
3766	BET02050	2024-05-27T06:30:00	""	""	19.9455	100	None	17.7951	23.4825	27.1798	27.7081	25.8704	15.9897	None	1.0792	""	""	81691000
3767	BET02050	2024-05-27T06:40:00	""	""	20.3523	100	None	14.7031	21.1167	22.8616	40.6587	0.0108	29.6515	None	1.1395	""	""	81691000
3768	BET02050	2024-05-27T06:50:00	""	""	20.4153	100	None	14.3804	19.3315	20.6699	31.3164	6.0076	19.297	None	1.0945	""	""	81691000
3769	BET02050	2024-05-27T07:00:00	""	""	20.6012	99.9975	None	11.827	16.2924	17.1691	18.4561	28.1586	17.2445	None	1.0953	""	""	81691000
3770	BET02050	2024-05-27T07:10:00	""	""	20.8192	98.1192	None	12.6764	17.1366	18.1684	19.9047	14.6052	17.8528	None	1.1586	""	""	81691000
3771	BET02050	2024-05-27T07:20:00	""	""	21.1119	95.2561	None	13.5106	18.2021	18.7657	18.4402	22.8277	18.0694	None	1.195	""	""	81691000
3772	BET02050	2024-05-27T07:30:00	""	""	21.1551	91.6395	None	12.4367	17.4732	18.8795	25.1836	11.2628	24.9425	None	1.3421	""	""	81691000
3773	BET02050	2024-05-27T07:40:00	""	""	21.6842	91.4583	None	11.3039	14.8704	15.6648	26.8722	5.5626	21.1328	None	1.3563	""	""	81691000
3774	BET02050	2024-05-27T07:50:00	""	""	21.6652	87.7632	None	10.7058	13.7474	14.3319	25.9094	12.3373	15.869	None	1.4618	""	""	81691000
3775	BET02050	2024-05-27T08:00:00	""	""	22.0671	85.423	None	10.2116	13.3783	13.8034	17.859	15.9495	12.9125	None	1.5271	""	""	81691000
3776	BET02050	2024-05-27T08:10:00	""	""	22.2656	82.6214	None	10.7843	14.4771	15.2979	14.5967	19.5439	13.958	None	1.6428	""	""	81691000
3777	BET02050	2024-05-27T08:20:00	""	""	22.2952	81.0568	None	11.0957	14.4807	15.7608	16.7117	16.3414	13.1565	None	1.6274	""	""	81691000
3778	BET02050	2024-05-27T08:30:00	""	""	22.0259	79.7326	None	9.2338	12.5618	13.6427	8.1033	25.9499	12.3617	None	1.6256	""	""	81691000
3779	BET02050	2024-05-27T08:40:00	""	""	22.3095	78.7731	None	7.5993	10	10.6127	12.2297	26.4714	11.9161	None	1.673	""	""	81691000
3780	BET02050	2024-05-27T08:50:00	""	""	22.5169	78.8983	None	8.3969	10.5942	11.9828	10.2909	28.2142	12.8195	None	1.6266	""	""	81691000
3781	BET02050	2024-05-27T09:00:00	""	""	22.5025	78.9112	None	8.8212	10.9711	11.2645	21.0534	25.4439	11.9797	None	1.6019	""	""	81691000
3782	BET02050	2024-05-27T09:10:00	""	""	22.5365	78.4482	None	9.3805	11.6804	12.3841	2.5064	49.4178	10.8626	None	1.6956	""	""	81691000
3783	BET02050	2024-05-27T09:20:00	""	""	22.5977	78.3204	None	8.1405	10.6348	11.0331	11.4854	40.2493	10.898	None	1.7178	""	""	81691000
3784	BET02050	2024-05-27T09:30:00	""	""	22.911	77.2444	None	7.6085	10.3718	10.362	5.1953	41.379	11.163	None	1.769	""	""	81691000
3785	BET02050	2024-05-27T09:40:00	""	""	22.8425	73.9917	None	6.2446	8.1448	8.3026	0.7142	34.0768	11.6815	None	1.8062	""	""	81691000
3786	BET02050	2024-05-27T09:50:00	""	""	23.3603	72.5608	None	6.1854	9.2182	9.9575	6.1203	31.3426	11.1457	None	1.8063	""	""	81691000
3787	BET02050	2024-05-27T10:00:00	""	""	23.5601	72.4259	None	8.3812	11.5059	12.0489	10.7898	33.2402	11.0472	None	1.7954	""	""	81691000
3788	BET02050	2024-05-27T10:10:00	""	""	23.597	71.2762	None	8.6715	11.1534	12.9927	11.7326	30.411	11.1936	None	1.822	""	""	81691000
3789	BET02050	2024-05-27T10:20:00	""	""	23.712	70.7369	None	7.4776	9.7615	10.346	5.1633	40.6288	10.6068	None	2.024	""	""	81691000
3790	BET02050	2024-05-27T10:30:00	""	""	23.9562	69.7888	None	6.5831	8.7427	9.3933	4.9674	37.976	10.5793	None	1.9574	""	""	81691000
3791	BET02050	2024-05-27T10:40:00	""	""	24.4167	69.4699	None	6.0001	8	8.9405	14.2157	32.6273	10.6034	None	1.8483	""	""	81691000
3792	BET02050	2024-05-27T10:50:00	""	""	24.1979	67.2519	None	6.3308	8.6235	9.0285	3.5828	39.1832	10.9106	None	2.0206	""	""	81691000
3793	BET02050	2024-05-27T11:00:00	""	""	24.3775	67.0133	None	6.1674	8.3297	9.1649	1.1927	35.2492	10.1634	None	2.0398	""	""	81691000
3794	BET02050	2024-05-27T11:10:00	""	""	24.4461	64.1715	None	6	8.6108	9.4996	0.2345	35.7881	11.4908	None	2.0169	""	""	81691000
3795	BET02050	2024-05-27T11:20:00	""	""	24.679	63.6289	None	8.016	10.3062	11.2579	6.2351	29.6521	10.6185	None	2.052	""	""	81691000
3796	BET02050	2024-05-27T11:30:00	""	""	25.4243	63.4604	None	7.5332	9.7742	10.6279	15.7889	18.4347	10.7564	None	2.077	""	""	81691000
3797	BET02050	2024-05-27T11:40:00	""	""	25.4062	62.5501	None	8.1418	10.1892	11.1134	10.9452	23.4388	10.7793	None	2.1137	""	""	81691000
3798	BET02050	2024-05-27T11:50:00	""	""	25.7563	62.5279	None	7.6035	10.5618	11.1714	17.6732	14.457	10.6563	None	2.1497	""	""	81691000
3799	BET02050	2024-05-27T12:00:00	""	""	26.3681	59.3693	None	7.5384	10.0117	10.5604	8.0042	18.9917	10.7328	None	2.6353	""	""	81691000
3800	BET02050	2024-05-27T12:10:00	""	""	25.8346	58.7241	None	6.4091	9.3688	9.6125	10.0042	29.4802	9.5791	None	2.2802	""	""	81691000
3801	BET02050	2024-05-27T12:20:00	""	""	25.5273	58.964	None	7.2789	10.0309	10.3862	12.7134	35.3708	9.3604	None	2.1688	""	""	81691000
3802	BET02050	2024-05-27T12:30:00	""	""	25.9092	58.9777	None	7.5701	9.9692	10.9213	14.8916	28.7159	9.051	None	2.3542	""	""	81691000
3803	BET02050	2024-05-27T12:40:00	""	""	26.9521	57.3207	None	7.5564	10.5834	10.9124	15.3337	15.5994	9.5065	None	2.9026	""	""	81691000
3804	BET02050	2024-05-27T12:50:00	""	""	26.8212	55.4998	None	7.2172	9.378	10.7723	11.4266	17.6991	9.8595	None	2.8873	""	""	81691000
3805	BET02050	2024-05-27T13:00:00	""	""	26.4008	55.2909	None	6.8593	8.8731	9.3222	11.6812	33.0977	9.4546	None	2.7317	""	""	81691000
3806	BET02050	2024-05-27T13:10:00	""	""	25.8492	55.4929	None	6.9423	8.7712	10.0001	13.3984	51.8967	8.2966	None	2.7168	""	""	81691000
3807	BET02050	2024-05-27T13:20:00	""	""	25.9382	56.7055	None	6.3768	8.9039	9.2002	8.2983	48.8165	8.6995	None	2.5319	""	""	81691000
3808	BET02050	2024-05-27T13:30:00	""	""	25.7613	58.1546	None	6.9377	9.4731	10.2043	13.2442	47.0976	8.0696	None	2.5007	""	""	81691000
3809	BET02050	2024-05-27T13:40:00	""	""	25.9203	59.5347	None	6.2957	8.5828	8.7481	17.3281	43.197	8.2826	None	2.5669	""	""	81691000
3810	BET02050	2024-05-27T13:50:00	""	""	26.0665	58.9841	None	5.9648	8.3572	9.1697	14.071	47.6555	7.8657	None	2.6166	""	""	81691000
3811	BET02050	2024-05-27T14:00:00	""	""	25.3918	57.5875	None	6.7359	9.3949	9.5973	14.042	41.7163	8.6889	None	2.2555	""	""	81691000
3812	BET02050	2024-05-27T14:10:00	""	""	25.1208	58.8628	None	6.2663	8.4302	8.993	12.498	48.4093	7.7498	None	2.2147	""	""	81691000
3813	BET02050	2024-05-27T14:20:00	""	""	25.3702	59.6834	None	6.7969	9.32	10.0477	18.1869	41.6508	8.1863	None	2.2044	""	""	81691000
3814	BET02050	2024-05-27T14:30:00	""	""	24.9784	59.6847	None	6.0001	9.4603	9.9726	23.4312	30.4549	8.5831	None	2.1258	""	""	81691000
3815	BET02050	2024-05-27T14:40:00	""	""	25.3282	58.8999	None	7.1775	9.7248	10.0455	16.0108	42.6238	8.6064	None	2.2065	""	""	81691000
3816	BET02050	2024-05-27T14:50:00	""	""	24.5817	58.9499	None	7.0292	8.8783	9.2935	12.265	43.8179	8.5924	None	2.0997	""	""	81691000
3817	BET02050	2024-05-27T15:00:00	""	""	25.0605	59.9939	None	6.1494	8.2234	8.2836	17.0162	45.9292	8.0449	None	2.2665	""	""	81691000
3818	BET02050	2024-05-27T15:10:00	""	""	24.8943	60.0759	None	6.3371	8.6232	9.7308	13.8775	43.9919	7.9754	None	2.2243	""	""	81691000
3819	BET02050	2024-05-27T15:20:00	""	""	24.9912	60.1039	None	6.1993	8.1419	8.4233	20.9387	41.8361	8.5913	None	2.1628	""	""	81691000
3820	BET02050	2024-05-27T15:30:00	""	""	24.528	60.0847	None	6.8362	9.0954	9.8053	21.8845	40.0794	8.2352	None	2.0892	""	""	81691000
3821	BET02050	2024-05-27T15:40:00	""	""	25.5659	59.8575	None	7.0489	9.5105	9.7626	17.5902	30.1406	8.4458	None	2.2649	""	""	81691000
3822	BET02050	2024-05-27T15:50:00	""	""	24.1955	59.6137	None	6.8776	9.4955	10.3795	22.2591	17.3553	10.0528	None	1.8784	""	""	81691000
3823	BET02050	2024-05-27T16:00:00	""	""	23.8732	60.0948	None	6.4731	8.6776	9.6308	19.4742	30.6633	9.323	None	1.9463	""	""	81691000
3824	BET02050	2024-05-27T16:10:00	""	""	23.9929	60.5149	None	6.6405	8.6826	9.8351	19.2032	37.0764	8.5921	None	2.0273	""	""	81691000
3825	BET02050	2024-05-27T16:20:00	""	""	23.9508	60.4939	None	5.6337	8.1195	8.4238	19.1447	29.7218	9.2744	None	1.9373	""	""	81691000
3826	BET02050	2024-05-27T16:30:00	""	""	23.6266	60.2076	None	5.4205	7.9436	8.5312	14.4399	42.2663	8.804	None	2.0258	""	""	81691000
3827	BET02050	2024-05-27T16:40:00	""	""	23.6689	61.6067	None	5.6837	7.7412	7.8507	19.6128	39.8738	8.3782	None	1.9676	""	""	81691000
3828	BET02050	2024-05-27T16:50:00	""	""	23.4154	61.6908	None	5.7506	8.1068	8.9048	21.1312	42.2336	8.9888	None	1.8587	""	""	81691000
3829	BET02050	2024-05-27T17:00:00	""	""	23.1237	62.6687	None	8.2488	11.3613	12.3384	20.9475	39.0706	8.4377	None	1.9065	""	""	81691000
3830	BET02050	2024-05-27T17:10:00	""	""	23.1359	63.2845	None	6.1616	8.3498	8.8184	19.9591	29.8074	9.4224	None	1.8822	""	""	81691000
3831	BET02050	2024-05-27T17:20:00	""	""	22.5647	64.2109	None	5.4832	8.028	9.2966	17.9456	45.4868	8.555	None	1.9276	""	""	81691000
3832	BET02050	2024-05-27T17:30:00	""	""	22.6893	65.3878	None	7.2708	10.293	11.2713	24.2054	31.0353	8.7206	None	1.843	""	""	81691000
3833	BET02050	2024-05-27T17:40:00	""	""	22.487	66.2175	None	6.7936	10.2674	10.7704	29.2608	28.3682	8.9401	None	1.8947	""	""	81691000
3834	BET02050	2024-05-27T17:50:00	""	""	22.2569	67.0238	None	6.7047	9.0611	9.8618	23.1613	29.9621	9.3716	None	1.8163	""	""	81691000
3835	BET02050	2024-05-27T18:00:00	""	""	21.9434	67.508	None	6.2439	8.7651	9.5164	20.6042	40.4742	8.3822	None	1.8616	""	""	81691000
3836	BET02050	2024-05-27T18:10:00	""	""	21.8938	68.0694	None	6.1179	9.7965	9.6536	22.2243	35.7115	8.7589	None	1.8789	""	""	81691000
3837	BET02050	2024-05-27T18:20:00	""	""	22.0024	68.3593	None	7.0061	9.519	9.8582	22.3245	27.1719	9.3495	None	1.8662	""	""	81691000
3838	BET02050	2024-05-27T18:30:00	""	""	21.7958	68.4383	None	6.4967	8.8903	9.4961	31.981	22.7458	9.3558	None	1.8208	""	""	81691000
3839	BET02050	2024-05-27T18:40:00	""	""	21.715	69.0666	None	7.1057	9.2469	9.9576	34.322	20.6611	9.0065	None	1.8735	""	""	81691000
3840	BET02050	2024-05-27T18:50:00	""	""	21.5953	69.964	None	8.6954	11.9092	12.4796	33.1211	20.2027	9.278	None	1.8492	""	""	81691000
3841	BET02050	2024-05-27T19:00:00	""	""	21.3554	70.1279	None	6.8363	8.9222	10.3282	11.947	48.6334	9.0208	None	1.8312	""	""	81691000
3842	BET02050	2024-05-27T19:10:00	""	""	21.2508	70.8975	None	5.5817	7.8317	8.4363	15.8819	42.7902	8.5551	None	1.9346	""	""	81691000
3843	BET02050	2024-05-27T19:20:00	""	""	21.0808	71.9796	None	5.2832	7.6553	7.8811	17.4132	38.1231	8.1521	None	1.8599	""	""	81691000
3844	BET02050	2024-05-27T19:30:00	""	""	21.0191	72.1865	None	5.123	7.0373	7.3696	12.691	41.575	7.6853	None	1.9033	""	""	81691000
3845	BET02050	2024-05-27T19:40:00	""	""	21.0106	72.3519	None	4.5971	6.7819	7.9025	14.188	30.9621	7.1839	None	1.8372	""	""	81691000
3846	BET02050	2024-05-27T19:50:00	""	""	21.1314	71.6764	None	4.3092	5.9307	6.2787	17.43	27.3565	7.8585	None	1.8158	""	""	81691000
3847	BET02050	2024-05-27T20:00:00	""	""	21.0809	71.1724	None	3.8666	6.011	6.8754	16.227	28.259	7.9897	None	1.7589	""	""	81691000
3848	BET02050	2024-05-27T20:10:00	""	""	21.1256	70.9999	None	3.8498	5.934	6.9665	12.7131	32.8187	8.0825	None	1.7763	""	""	81691000
3849	BET02050	2024-05-27T20:20:00	""	""	21.1303	70.7157	None	3.8709	5.4751	6.1277	16.753	28.8818	8.5628	None	1.761	""	""	81691000
3850	BET02050	2024-05-27T20:30:00	""	""	21.0966	70.7847	None	3.7462	5.6915	6.5991	18.6474	22.3929	7.1395	None	1.5942	""	""	81691000
3851	BET02050	2024-05-27T20:40:00	""	""	20.9701	70.8514	None	3.9476	5.8715	6.9111	20.1238	26.6322	6.8326	None	1.646	""	""	81691000
3852	BET02050	2024-05-27T20:50:00	""	""	20.9456	71.3476	None	4	6.1302	6.9071	16.2491	26.6567	5.5898	None	1.606	""	""	81691000
3853	BET02050	2024-05-27T21:00:00	""	""	20.8904	71.6463	None	4	6.6618	6.7962	24.8761	19.3322	5.5091	None	1.5187	""	""	81691000
3854	BET02050	2024-05-27T21:10:00	""	""	20.9926	71.8999	None	3.8315	5.54	5.7776	22.0516	19.1667	5.4052	None	1.4779	""	""	81691000
3855	BET02050	2024-05-27T21:20:00	""	""	20.8858	71.9524	None	3.7146	5.4536	6.4688	13.7998	26.1051	4.6875	None	1.5536	""	""	81691000
3856	BET02050	2024-05-27T21:30:00	""	""	20.9216	72.2378	None	3.9244	5.8982	6.841	11.6984	25.6559	4.5553	None	1.4511	""	""	81691000
3857	BET02050	2024-05-27T21:40:00	""	""	20.7717	72.3629	None	4.0967	6.7334	7.246	23.1065	16.2541	3.6572	None	1.4386	""	""	81691000
3858	BET02050	2024-05-27T21:50:00	""	""	20.6005	72.4933	None	4.4249	7.1978	7.9259	20.8951	15.5165	3.5493	None	1.4591	""	""	81691000
3859	BET02050	2024-05-27T22:00:00	""	""	20.3056	72.9661	None	4	6.2923	6.8744	18.4378	14.2166	2.6907	None	1.4394	""	""	81691000
3860	BET02050	2024-05-27T22:10:00	""	""	20.2643	73.4009	None	4.3632	6.9773	8.1741	19.7236	13.3333	2.7312	None	1.4277	""	""	81691000
3861	BET02050	2024-05-27T22:20:00	""	""	20.2982	74.0585	None	5.1206	7.5496	9.0706	16.7547	13.0586	2.7965	None	1.4577	""	""	81691000
3862	BET02050	2024-05-27T22:30:00	""	""	20.0539	74.086	None	4.8045	6.8112	7.1498	17.7109	14.3917	2.7645	None	1.4301	""	""	81691000
3863	BET02050	2024-05-27T22:40:00	""	""	19.9217	74.7362	None	5	7.7229	8.2481	19.7249	12.1528	3.1114	None	1.435	""	""	81691000
3864	BET02050	2024-05-27T22:50:00	""	""	19.6829	75.7143	None	4.6584	6.8046	8.292	17.5962	21.0632	3.5772	None	1.4382	""	""	81691000
3865	BET02050	2024-05-27T23:00:00	""	""	19.7398	76.5169	None	6.282	8.95	9.3475	20.3258	10.3021	3.9502	None	1.4378	""	""	81691000
3866	BET02050	2024-05-27T23:10:00	""	""	19.5266	76.238	None	5.1812	7.5621	8.1974	14.529	18.2955	4.5103	None	1.4196	""	""	81691000
3867	BET02050	2024-05-27T23:20:00	""	""	19.6159	76.6968	None	5.3252	7.5298	8.7026	17.5403	17.8415	4.0562	None	1.4388	""	""	81691000
3868	BET02050	2024-05-27T23:30:00	""	""	19.6801	77.1149	None	4.9874	7.1041	8.2032	17.1878	16.5587	4.1979	None	1.4829	""	""	81691000
3869	BET02050	2024-05-27T23:40:00	""	""	19.6936	77.1817	None	5.8209	7.4732	8.8297	17.2632	12.0928	4.5758	None	1.4816	""	""	81691000
3870	BET02050	2024-05-27T23:50:00	""	""	19.6535	77.1273	None	6	9.0348	9.3652	17.0409	13.1558	5.334	None	1.4794	""	""	81691000
3871	BET02050	2024-05-28T00:00:00	""	""	19.4769	77.0068	None	5.407	7.7038	8.5573	25.4174	7.0854	6.3188	None	1.5093	""	""	81691000
3872	BET02050	2024-05-28T00:10:00	""	""	19.3844	77.987	None	6.5552	8.8481	9.9912	24.5431	1.602	6.5852	None	1.4842	""	""	81691000
3873	BET02050	2024-05-28T00:20:00	""	""	18.8921	78.4185	None	7.089	9.8496	11.7557	20.0305	5.3464	7.9369	None	1.4368	""	""	81691000
3874	BET02050	2024-05-28T00:30:00	""	""	18.8487	78.7017	None	7.0019	10.2974	11.2253	15.4897	8.6218	8.9578	None	1.5026	""	""	81691000
3875	BET02050	2024-05-28T00:40:00	""	""	18.5404	78.5406	None	7.8485	10.3638	10.9846	17.5652	6.7864	8.3584	None	1.4084	""	""	81691000
3876	BET02050	2024-05-28T00:50:00	""	""	18.4335	78.857	None	8	10.1037	9.5411	22.9766	0.0265	9.119	None	1.5099	""	""	81691000
3877	BET02050	2024-05-28T01:00:00	""	""	18.3486	78.8884	None	None	None	None	21.1772	2.4082	8.314	None	1.4481	""	""	81691000
3878	BET02050	2024-05-28T01:10:00	""	""	18.32	79.7926	None	7	9.2795	10.0897	18.921	3.2315	8.4352	None	1.4452	""	""	81691000
3879	BET02050	2024-05-28T01:20:00	""	""	18.2691	80.2377	None	6.7327	10.2949	10.6435	18.2385	5.5906	8.7466	None	1.4482	""	""	81691000
3880	BET02050	2024-05-28T01:30:00	""	""	18.2655	80.6365	None	6.7451	9.4777	10.004	16.4032	7.1673	8.9715	None	1.4622	""	""	81691000
3881	BET02050	2024-05-28T01:40:00	""	""	18.4297	80.7922	None	5.5913	8.8354	9.4371	17.7594	4.4046	10.0493	None	1.4755	""	""	81691000
3882	BET02050	2024-05-28T01:50:00	""	""	18.6613	80.6392	None	5.1275	7.3647	8.2349	12.5257	6.8388	11.2186	None	1.4357	""	""	81691000
3883	BET02050	2024-05-28T02:00:00	""	""	18.7174	79.7614	None	6	7.777	7.8521	8.9687	9.1378	9.5884	None	1.4942	""	""	81691000
3884	BET02050	2024-05-28T02:10:00	""	""	18.7375	79.3509	None	5.4787	7.619	8.3043	8.6954	8.9949	9.5604	None	1.4675	""	""	81691000
3885	BET02050	2024-05-28T02:20:00	""	""	18.6575	79.0142	None	5.3849	7.7745	8.5042	16.0832	4.1358	9.3567	None	1.5045	""	""	81691000
3886	BET02050	2024-05-28T02:30:00	""	""	18.5792	79.1808	None	5.193	7.7033	8.4466	13.9147	2.5042	12.1738	None	1.4983	""	""	81691000
3887	BET02050	2024-05-28T02:40:00	""	""	18.7214	78.5459	None	4.6974	6.5937	6.9357	10.708	10.2268	10.6138	None	1.4796	""	""	81691000
3888	BET02050	2024-05-28T02:50:00	""	""	18.7628	78.2563	None	3.8373	5	6.1593	9.0303	16.853	8.6522	None	1.4577	""	""	81691000
3889	BET02050	2024-05-28T03:00:00	""	""	18.7399	78.6988	None	3.7727	5.2542	5.9275	12.2367	16.8598	7.8463	None	1.4463	""	""	81691000
3890	BET02050	2024-05-28T03:10:00	""	""	18.7209	80.8621	None	3.9945	6.0289	6.1419	11.3764	21.2874	7.3348	None	1.3947	""	""	81691000
3891	BET02050	2024-05-28T03:20:00	""	""	18.6848	81.6711	None	4.0956	6	6.4936	15.8568	12.5355	7.798	None	1.4079	""	""	81691000
3892	BET02050	2024-05-28T03:30:00	""	""	18.3626	81.2263	None	4.8744	6.7772	7.5633	27.5927	0.227	10.5928	None	1.4355	""	""	81691000
3893	BET02050	2024-05-28T03:40:00	""	""	18.2928	81.2033	None	5.6084	8.064	8.5118	28.0855	0.06	10.0596	None	1.4651	""	""	81691000
3894	BET02050	2024-05-28T03:50:00	""	""	17.8265	81.1976	None	6.5	9.0914	10.2851	27.8113	0.2194	38.7711	None	2.8703	""	""	81691000
3895	BET02050	2024-05-28T04:00:00	""	""	17.5731	81.3433	None	8.881	11.7019	13.1528	28.6218	0.1913	41.6554	None	3.2706	""	""	81691000
3896	BET02050	2024-05-28T04:10:00	""	""	17.724	82.0255	None	8	11.9572	12.9864	29.1919	0.1868	35.603	None	2.8252	""	""	81691000
3897	BET02050	2024-05-28T04:20:00	""	""	17.73	82.6065	None	8.6199	11.5708	12.6445	26.6245	0.1192	34.3928	None	3.2586	""	""	81691000
3898	BET02050	2024-05-28T04:30:00	""	""	17.6502	82.7326	None	9.3878	12.1992	14.3816	25.7817	0.2104	41.183	None	3.5062	""	""	81691000
3899	BET02050	2024-05-28T04:40:00	""	""	17.6203	82.6015	None	14.8761	19.2916	20.4989	26.3633	0.041	35.5972	None	3.4231	""	""	81691000
3900	BET02050	2024-05-28T04:50:00	""	""	17.6483	82.8384	None	11.2654	15.4869	16.6813	30.969	0.0746	55.4383	None	3.4056	""	""	81691000
3901	BET02050	2024-05-28T05:00:00	""	""	17.6432	83.2271	None	12.9376	17.2581	18.5385	31.3327	0.0715	52.4035	None	3.4812	""	""	81691000
3902	BET02050	2024-05-28T05:10:00	""	""	17.785	83.6965	None	13.5136	18.0273	20.4905	28.5159	0.1399	35.6956	None	3.0615	""	""	81691000
3903	BET02050	2024-05-28T05:20:00	""	""	17.9051	83.7561	None	10.9928	15.0075	16.1674	28.057	0.2381	42.5718	None	3.3966	""	""	81691000
3904	BET02050	2024-05-28T05:30:00	""	""	17.974	84.1797	None	10.4448	14.3236	15.1135	31.3663	0.0761	45.0814	None	3.4289	""	""	81691000
3905	BET02050	2024-05-28T05:40:00	""	""	18.3489	84.5912	None	10.7779	15.038	16.2789	32.9588	0.1778	41.5754	None	2.7166	""	""	81691000
3906	BET02050	2024-05-28T05:50:00	""	""	18.5196	84.7415	None	9.3308	13.1518	13.986	29.4921	0.2056	25.4098	None	1.7729	""	""	81691000
3907	BET02050	2024-05-28T06:00:00	""	""	18.6812	84.8174	None	8.6794	11.7088	11.9247	26.5831	1.5869	20.0118	None	1.611	""	""	81691000
3908	BET02050	2024-05-28T06:10:00	""	""	19.1082	85.0004	None	8.8701	11.9596	12.9957	24.1995	7.103	19.166	None	1.5453	""	""	81691000
3909	BET02050	2024-05-28T06:20:00	""	""	19.6985	85.0209	None	10.1811	13.7307	14.9369	31.0134	3.4787	21.5851	None	1.6929	""	""	81691000
3910	BET02050	2024-05-28T06:30:00	""	""	19.9129	83.5399	None	8.8898	13.332	14.7859	22.5439	10.3465	19.2262	None	1.5851	""	""	81691000
3911	BET02050	2024-05-28T06:40:00	""	""	20.1997	82.8148	None	9.1778	12.7339	13.4105	11.9622	20.5816	11.7727	None	1.5807	""	""	81691000
3912	BET02050	2024-05-28T06:50:00	""	""	20.4397	82.7705	None	8.1164	11.9376	12.1184	30.5887	10.7226	24.36	None	1.5741	""	""	81691000
3913	BET02050	2024-05-28T07:00:00	""	""	20.6163	80.7575	None	7.8945	10.8137	11.4849	7.8372	23.5141	13.3635	None	1.581	""	""	81691000
3914	BET02050	2024-05-28T07:10:00	""	""	21.0768	80.6428	None	8.005	11.7971	12.1854	30.3834	9.6988	17.4192	None	1.7799	""	""	81691000
3915	BET02050	2024-05-28T07:20:00	""	""	21.2256	78.3796	None	8.133	10.7268	11.2753	0.1525	27.9931	11.4545	None	1.6502	""	""	81691000
3916	BET02050	2024-05-28T07:30:00	""	""	21.4435	75.4989	None	7.4997	10.6261	10.8389	1.1271	24.2316	11.246	None	1.7679	""	""	81691000
3917	BET02050	2024-05-28T07:40:00	""	""	21.5526	72.2275	None	7.5107	9.8083	10.1852	8.9767	20.7217	12.3327	None	1.7669	""	""	81691000
3918	BET02050	2024-05-28T07:50:00	""	""	21.6076	70.4317	None	7.1317	9.9228	10.6083	0.0354	31.1479	11.8763	None	1.8817	""	""	81691000
3919	BET02050	2024-05-28T08:00:00	""	""	21.7065	64.5251	None	4	5.2615	5.8322	0.0115	41.1444	11.0368	None	1.9625	""	""	81691000
3920	BET02050	2024-05-28T08:10:00	""	""	21.8612	65.2148	None	3.9759	5.4805	6.4144	0.0536	40.9384	11.342	None	1.9712	""	""	81691000
3921	BET02050	2024-05-28T08:20:00	""	""	21.9216	66.6461	None	4.1619	6.0085	6.5245	4.1239	41.5842	10.65	None	1.9721	""	""	81691000
3922	BET02050	2024-05-28T08:30:00	""	""	21.9022	67.2102	None	4	5.6663	6.1254	6.9347	44.5984	10.2427	None	1.9835	""	""	81691000
3923	BET02050	2024-05-28T08:40:00	""	""	21.7663	66.4372	None	4.0839	5.834	6.1423	1.4515	45.7982	10.9466	None	1.9696	""	""	81691000
3924	BET02050	2024-05-28T08:50:00	""	""	21.9099	65.3229	None	3.0538	4.5147	4.5121	0.0973	50.1112	10.0528	None	1.9854	""	""	81691000
3925	BET02050	2024-05-28T09:00:00	""	""	21.7829	65.4428	None	2	4.6059	4	3.8035	48.2532	9.3745	None	1.9709	""	""	81691000
3926	BET02050	2024-05-28T09:10:00	""	""	21.7153	67.4027	None	3	5.4115	6.2413	14.3183	42.5446	9.649	None	1.9664	""	""	81691000
3927	BET02050	2024-05-28T09:20:00	""	""	21.7491	67.8894	None	3.6918	4.9031	5.7545	8.1392	49.2079	9.2659	None	1.9843	""	""	81691000
3928	BET02050	2024-05-28T09:30:00	""	""	22.0129	70.0383	None	2.9661	4.5767	4.8216	12.3725	49.1524	9.2481	None	1.9839	""	""	81691000
3929	BET02050	2024-05-28T09:40:00	""	""	21.9949	69.4773	None	3.2298	4.3638	4.6755	6.7588	48.5728	9.4275	None	1.9917	""	""	81691000
3930	BET02050	2024-05-28T09:50:00	""	""	21.838	67.7836	None	2.5496	4.3059	4.7416	12.7478	47.7152	9.6275	None	1.9885	""	""	81691000
3931	BET02050	2024-05-28T10:00:00	""	""	22.0618	68.9575	None	3.2957	4.6646	5.0999	5.9927	49.6385	9.697	None	1.9884	""	""	81691000
3932	BET02050	2024-05-28T10:10:00	""	""	22.5698	69.7594	None	3.5315	5.3666	5.6535	6.8616	48.6729	9.4371	None	2.01	""	""	81691000
3933	BET02050	2024-05-28T10:20:00	""	""	22.0582	68.753	None	2.6755	3.5736	4.7277	0.1193	57.7875	9.0563	None	1.9972	""	""	81691000
3934	BET02050	2024-05-28T10:30:00	""	""	22.5115	69.0018	None	3.6724	4.9942	5.3045	2.97	58.5219	9.2138	None	2.0216	""	""	81691000
3935	BET02050	2024-05-28T10:40:00	""	""	22.6596	69.1233	None	3.4056	5.3349	5.8394	8.5388	50.879	9.4991	None	2.0251	""	""	81691000
3936	BET02050	2024-05-28T10:50:00	""	""	23.2253	67.8877	None	3.7076	4.9418	5.7664	9.9017	56.7062	9.2113	None	2.0361	""	""	81691000
3937	BET02050	2024-05-28T11:00:00	""	""	22.6595	65.5704	None	3.5377	4.9714	5.4885	0.0222	54.6235	9.4198	None	2.0198	""	""	81691000
3938	BET02050	2024-05-28T11:10:00	""	""	22.9282	60.5947	None	2.6257	3.5806	3.801	0.2434	49.459	10.0032	None	2.1247	""	""	81691000
3939	BET02050	2024-05-28T11:20:00	""	""	23.6208	60.3279	None	2.6188	3.7227	4.0362	0.0867	52.0931	9.3707	None	2.2992	""	""	81691000
3940	BET02050	2024-05-28T11:30:00	""	""	23.6627	59.9164	None	3	4.4589	4.8181	0.0378	50.6	9.6366	None	2.3245	""	""	81691000
3941	BET02050	2024-05-28T11:40:00	""	""	24.8925	59.9542	None	3.9731	4.9985	5.3135	5.5872	46.639	9.6523	None	2.9463	""	""	81691000
3942	BET02050	2024-05-28T11:50:00	""	""	24.3369	58.0141	None	3.0061	4.1936	4.5966	0.1488	48.4729	9.4367	None	2.6119	""	""	81691000
3943	BET02050	2024-05-28T12:00:00	""	""	23.7344	57.5732	None	3.3209	4.4845	5.1719	0.2143	61.0094	8.8248	None	2.41	""	""	81691000
3944	BET02050	2024-05-28T12:10:00	""	""	23.9562	59.3614	None	3	4.3167	4.9589	5.8931	55.9028	8.4358	None	2.3299	""	""	81691000
3945	BET02050	2024-05-28T12:20:00	""	""	22.8353	59.7637	None	3.5022	4.7345	5.0583	11.9093	61.4972	8.1907	None	2.1103	""	""	81691000
3946	BET02050	2024-05-28T12:30:00	""	""	23.3657	61.2128	None	3.3357	5.207	5.5423	7.6758	59.1357	8.4775	None	2.1739	""	""	81691000
3947	BET02050	2024-05-28T12:40:00	""	""	23.4622	60.974	None	3.369	5	5	7.4604	62.7406	8.3136	None	2.2299	""	""	81691000
3948	BET02050	2024-05-28T12:50:00	""	""	23.3723	61.2884	None	3	5.1037	5.6335	8.1827	61.1111	7.8984	None	2.1606	""	""	81691000
3949	BET02050	2024-05-28T13:00:00	""	""	23.4992	62.2735	None	4.3956	6.0363	6.5079	13.3588	60.944	7.9893	None	2.133	""	""	81691000
3950	BET02050	2024-05-28T13:10:00	""	""	23.0054	62.9399	None	3.5875	5.0414	5.3964	7.2095	58.6111	8.285	None	2.1352	""	""	81691000
3951	BET02050	2024-05-28T13:20:00	""	""	22.6048	64.982	None	3.8681	5.2452	5.6832	14.0743	62.7825	7.9611	None	2.0237	""	""	81691000
3952	BET02050	2024-05-28T13:30:00	""	""	22.6918	67.3592	None	3.7517	5.655	6.0122	16.8476	57.3884	7.8896	None	2.0587	""	""	81691000
3953	BET02050	2024-05-28T13:40:00	""	""	22.5024	67.8776	None	3.9028	5.1493	5.3488	12.8018	62.5797	8.0622	None	2.0922	""	""	81691000
3954	BET02050	2024-05-28T13:50:00	""	""	22.9678	67.5729	None	5.3169	8.1278	9.0723	12.0479	65.4535	7.8637	None	2.122	""	""	81691000
3955	BET02050	2024-05-28T14:00:00	""	""	22.368	67.9589	None	4.3896	6.5371	6.657	10.5021	66.7532	8.0408	None	2.0291	""	""	81691000
3956	BET02050	2024-05-28T14:10:00	""	""	23.0943	68.5363	None	4.4253	6.503	6.9437	9.627	54.2942	8.1867	None	2.084	""	""	81691000
3957	BET02050	2024-05-28T14:20:00	""	""	22.6739	68.0398	None	4.8132	6.721	7.6701	7.8585	61.9526	8.3981	None	2.0707	""	""	81691000
3958	BET02050	2024-05-28T14:30:00	""	""	23.3128	67.8591	None	5.0981	7.0974	7.9254	12.9557	52.2967	8.4663	None	2.1245	""	""	81691000
3959	BET02050	2024-05-28T14:40:00	""	""	23.4838	67.0927	None	4.4111	6.0193	6.4916	7.6809	61.9637	8.75	None	2.1142	""	""	81691000
3960	BET02050	2024-05-28T14:50:00	""	""	23.2439	67.3623	None	4.0165	5.5689	5.7301	8.3905	59.8862	8.6096	None	2.0842	""	""	81691000
3961	BET02050	2024-05-28T15:00:00	""	""	24.2513	66.887	None	4	5.5269	5.5782	8.7066	55.0782	8.5193	None	2.2445	""	""	81691000
3962	BET02050	2024-05-28T15:10:00	""	""	23.4736	64.8161	None	3.7101	5.8266	6.207	0.1066	60.9187	8.6696	None	2.1505	""	""	81691000
3963	BET02050	2024-05-28T15:20:00	""	""	24.1471	64.5824	None	4.0472	5.8625	6.1595	4.045	58.1227	8.7454	None	2.2478	""	""	81691000
3964	BET02050	2024-05-28T15:30:00	""	""	24.1911	63.1366	None	3.9034	5.2133	5.857	4.4671	54.4653	8.8894	None	2.174	""	""	81691000
3965	BET02050	2024-05-28T15:40:00	""	""	23.7351	62.0462	None	4.1611	5.5061	5.8311	0.0144	58.8868	8.8397	None	2.1578	""	""	81691000
3966	BET02050	2024-05-28T15:50:00	""	""	23.4699	62.919	None	4	6.0326	6.5385	1.4021	61.3227	8.4195	None	2.1717	""	""	81691000
3967	BET02050	2024-05-28T16:00:00	""	""	22.8798	63.7137	None	4.8383	5.7079	5.8039	5.4781	60.8779	8.477	None	2.0306	""	""	81691000
3968	BET02050	2024-05-28T16:10:00	""	""	22.4926	66.3848	None	5.3122	7.187	7.3514	10.2747	59.9795	8.4845	None	2.0384	""	""	81691000
3969	BET02050	2024-05-28T16:20:00	""	""	22.414	66.9335	None	5.4065	6.7675	7.0629	8.2107	63.079	8.6341	None	2.038	""	""	81691000
3970	BET02050	2024-05-28T16:30:00	""	""	22.6163	67.2204	None	5.2718	6.9261	7.8216	7.6881	59.9723	8.3577	None	2.0429	""	""	81691000
3971	BET02050	2024-05-28T16:40:00	""	""	22.472	67.1845	None	5.1917	7.3947	7.5564	8.9717	61.4145	8.6626	None	2.0369	""	""	81691000
3972	BET02050	2024-05-28T16:50:00	""	""	22.485	67.9261	None	5.165	6.7409	7.3243	8.5848	57.7564	8.7831	None	2.0371	""	""	81691000
3973	BET02050	2024-05-28T17:00:00	""	""	22.2545	68.1408	None	5.5626	7.1507	7.5855	12.2216	60.4372	8.549	None	2.0246	""	""	81691000
3974	BET02050	2024-05-28T17:10:00	""	""	21.9772	69.7082	None	5.4873	7.2052	7.4003	10.8501	60.0943	8.451	None	2.0088	""	""	81691000
3975	BET02050	2024-05-28T17:20:00	""	""	21.8626	70.3	None	5.4424	7.2567	8.0378	9.0581	62.8614	8.725	None	1.992	""	""	81691000
3976	BET02050	2024-05-28T17:30:00	""	""	21.9809	70.9	None	5	7.5043	8.0795	10.2	58.4553	8.655	None	1.983	""	""	81691000
3977	BET02050	2024-05-28T17:40:00	""	""	21.6983	71.7755	None	5.0002	7.3386	7.6057	10.2113	59.6264	8.4338	None	1.9923	""	""	81691000
3978	BET02050	2024-05-28T17:50:00	""	""	21.5727	71.9344	None	5.4011	7.042	7.8124	8.6717	57.5029	8.4161	None	1.9858	""	""	81691000
3979	BET02050	2024-05-28T18:00:00	""	""	21.0824	72.0058	None	5.1694	7.621	8.5001	6.981	64.5251	5.0949	None	1.9899	""	""	81691000
3980	BET02050	2024-05-28T18:10:00	""	""	20.981	73.9134	None	5.2964	6.9315	8.6725	10.2599	64.5002	4.0439	None	1.9535	""	""	81691000
3981	BET02050	2024-05-28T18:20:00	""	""	21.1921	74.1461	None	5	7.3632	8.017	9.3301	60.4288	7.1886	None	1.9677	""	""	81691000
3982	BET02050	2024-05-28T18:30:00	""	""	20.6202	75.7027	None	5.177	7.6151	7.9794	11.478	63.6842	2.2332	None	1.9703	""	""	81691000
3983	BET02050	2024-05-28T18:40:00	""	""	20.5809	76.9043	None	5.4784	7.7123	8.3052	11.8804	59.3737	2.1245	None	1.9602	""	""	81691000
3984	BET02050	2024-05-28T18:50:00	""	""	20.4996	78.3682	None	5.7018	7.4653	8.0645	12.3754	59.273	2.2357	None	1.9554	""	""	81691000
3985	BET02050	2024-05-28T19:00:00	""	""	20.1885	80.1459	None	6	8	8	12.4099	65.0409	2.0694	None	1.9183	""	""	81691000
3986	BET02050	2024-05-28T19:10:00	""	""	20.187	81.1859	None	5.8537	7.9262	8.6039	11.2154	61.9715	2.7867	None	1.7093	""	""	81691000
3987	BET02050	2024-05-28T19:20:00	""	""	20.0328	81.7461	None	5.8909	8.6056	8.8157	9.6747	63.2118	3.0049	None	1.908	""	""	81691000
3988	BET02050	2024-05-28T19:30:00	""	""	20.0848	82.4529	None	5.6488	7.8209	8.258	10.2117	53.1458	4.3094	None	1.7208	""	""	81691000
3989	BET02050	2024-05-28T19:40:00	""	""	20.0367	82.5201	None	6.4025	8.5507	8.6083	8.3038	57.4601	4.5462	None	1.6631	""	""	81691000
3990	BET02050	2024-05-28T19:50:00	""	""	20.0563	82.458	None	6.1333	8.4915	8.9464	3.6408	55.5039	4.5047	None	1.6735	""	""	81691000
3991	BET02050	2024-05-28T20:00:00	""	""	19.9659	82.7189	None	5.7353	8.2298	8.6343	4.8014	51.364	5.0981	None	1.7488	""	""	81691000
3992	BET02050	2024-05-28T20:10:00	""	""	19.9898	82.2438	None	7.1779	8.7067	9.5537	5.8934	53.3618	5.396	None	1.6207	""	""	81691000
3993	BET02050	2024-05-28T20:20:00	""	""	20.0054	82.2351	None	5.5082	7.9488	9.1753	2.2668	54.0845	5.5691	None	1.546	""	""	81691000
3994	BET02050	2024-05-28T20:30:00	""	""	19.8519	82.2625	None	6	7.9329	8.4063	0.1449	52.6501	5.8383	None	1.6554	""	""	81691000
3995	BET02050	2024-05-28T20:40:00	""	""	19.8378	82.2058	None	6.4441	8.9205	9.3022	0.1685	57.8234	5.747	None	1.6346	""	""	81691000
3996	BET02050	2024-05-28T20:50:00	""	""	19.811	82.1678	None	6.1487	8.3514	9.3521	0.099	52.0772	6.126	None	1.5917	""	""	81691000
3997	BET02050	2024-05-28T21:00:00	""	""	19.7936	81.8217	None	5.8875	8.6852	9.1058	0.1224	52.9458	5.7646	None	1.5892	""	""	81691000
3998	BET02050	2024-05-28T21:10:00	""	""	19.6935	82.3302	None	6.4124	8.7698	9.269	0.1775	54.669	6.0948	None	1.5789	""	""	81691000
3999	BET02050	2024-05-28T21:20:00	""	""	19.6956	82.6762	None	5.486	8.501	9.4844	0.5983	44.0938	6.9738	None	1.499	""	""	81691000
4000	BET02050	2024-05-28T21:30:00	""	""	19.6851	82.4362	None	6.6391	8.7594	9.0216	0.1127	46.4606	6.4595	None	1.4771	""	""	81691000
4001	BET02050	2024-05-28T21:40:00	""	""	19.6843	82.4809	None	5.3523	8.1447	8.9027	0.7625	45.1198	6.7206	None	1.4741	""	""	81691000
4002	BET02050	2024-05-28T21:50:00	""	""	19.7672	82.2268	None	6.5652	8.7102	9.8421	1.9866	36.7851	7.0705	None	1.4466	""	""	81691000
4003	BET02050	2024-05-28T22:00:00	""	""	19.8051	81.8244	None	7.173	9.989	10.5562	1.3007	37.8454	6.9718	None	1.4803	""	""	81691000
4004	BET02050	2024-05-28T22:10:00	""	""	19.6121	82.2757	None	5.5656	8.1094	8.4592	0.2354	47.0063	6.809	None	1.5067	""	""	81691000
4005	BET02050	2024-05-28T22:20:00	""	""	19.4269	83.4315	None	6	8.418	8.5373	2.7548	42.9471	7.4691	None	1.4523	""	""	81691000
4006	BET02050	2024-05-28T22:30:00	""	""	19.5385	83.196	None	6.1305	8.5308	9.2565	0.7945	36.5917	7.3622	None	1.443	""	""	81691000
4007	BET02050	2024-05-28T22:40:00	""	""	19.6407	82.7634	None	7.7802	10.8559	10.6908	1.308	35.6131	7.3141	None	1.4374	""	""	81691000
4008	BET02050	2024-05-28T22:50:00	""	""	19.6142	82.2806	None	6.7725	9.0057	10.0351	5.5467	34.6101	7.2297	None	1.4832	""	""	81691000
4009	BET02050	2024-05-28T23:00:00	""	""	19.5349	82.6725	None	6.2701	8.6953	8.776	6.0645	33.389	7.414	None	1.4693	""	""	81691000
4010	BET02050	2024-05-28T23:10:00	""	""	19.3886	83.2035	None	5.8927	8.4317	9.3784	2.3145	42.6	7.4595	None	1.4881	""	""	81691000
4011	BET02050	2024-05-28T23:20:00	""	""	19.4033	83.748	None	6	8.0433	8.5195	5.1199	38.717	7.8894	None	1.4715	""	""	81691000
4012	BET02050	2024-05-28T23:30:00	""	""	19.4011	84.2729	None	5.3166	7.2301	7.8706	2.7672	41.468	7.6873	None	1.5174	""	""	81691000
4013	BET02050	2024-05-28T23:40:00	""	""	19.4421	84.3193	None	5.7243	7.5625	8.0466	3.4795	35.5609	7.3353	None	1.4308	""	""	81691000
4014	BET02050	2024-05-28T23:50:00	""	""	19.3766	84.5866	None	6.207	7.9321	8.6781	7.8047	34.353	8.3847	None	1.4149	""	""	81691000
4015	BET02050	2024-05-29T00:00:00	""	""	19.3742	84.3016	None	5.7722	7.8625	8.3354	2.1992	38.2299	8.4358	None	1.4311	""	""	81691000
4016	BET02050	2024-05-29T00:10:00	""	""	19.3268	84.2438	None	6.0109	8.2917	8.6783	1.5212	32.3896	8.3643	None	1.3793	""	""	81691000
4017	BET02050	2024-05-29T00:20:00	""	""	19.0222	83.646	None	7.6886	10.7033	11.4001	0.2807	30.6915	9.6245	None	1.3408	""	""	81691000
4018	BET02050	2024-05-29T00:30:00	""	""	18.7239	81.8443	None	8.8254	12.7939	13.626	17.7414	5.2892	10.833	None	1.3503	""	""	81691000
4019	BET02050	2024-05-29T00:40:00	""	""	18.3413	80.5774	None	10.651	14.8999	14.9427	24.1486	0.0122	12.2981	None	1.3484	""	""	81691000
4020	BET02050	2024-05-29T00:50:00	""	""	18.3097	81.2531	None	10.2979	14.9071	16.3234	16.2938	7.5699	10.4459	None	1.3389	""	""	81691000
4021	BET02050	2024-05-29T01:00:00	""	""	18.3747	81.2166	None	None	None	None	15.4846	15.0179	9.4664	None	1.3646	""	""	81691000
4022	BET02050	2024-05-29T01:10:00	""	""	18.3238	82.0183	None	11.116	15.7584	17.0203	12.806	16.2184	9.7133	None	1.3891	""	""	81691000
4023	BET02050	2024-05-29T01:20:00	""	""	18.3398	82.543	None	10.9155	15.1183	16.1653	11.0738	18.3175	9.5287	None	1.3841	""	""	81691000
4024	BET02050	2024-05-29T01:30:00	""	""	18.3441	82.6402	None	10.4404	14.5841	16.1048	9.0386	19.4871	9.5729	None	1.3814	""	""	81691000
4025	BET02050	2024-05-29T01:40:00	""	""	18.3141	82.6294	None	11.001	15.1751	16.7909	13.5325	15.1519	9.61	None	1.4013	""	""	81691000
4026	BET02050	2024-05-29T01:50:00	""	""	18.1933	82.5119	None	11.4014	16.0567	17.257	20.6487	3.0974	11.3057	None	1.3643	""	""	81691000
4027	BET02050	2024-05-29T02:00:00	""	""	17.9799	82.0409	None	12.0555	16.566	17.8139	19.5838	4.64	10.2141	None	1.368	""	""	81691000
4028	BET02050	2024-05-29T02:10:00	""	""	17.756	82.5587	None	12.507	18.2052	18.9261	18.6031	5.09	10.3893	None	1.405	""	""	81691000
4029	BET02050	2024-05-29T02:20:00	""	""	17.9066	82.8722	None	12.7581	18.0981	19.4653	18.8986	4.4462	10.8419	None	1.4225	""	""	81691000
4030	BET02050	2024-05-29T02:30:00	""	""	17.767	82.8492	None	12.4094	17.9359	19.8304	22.6979	0.5029	11.2035	None	1.4149	""	""	81691000
4031	BET02050	2024-05-29T02:40:00	""	""	17.7274	83.2064	None	12.9127	18.3678	19.5672	26.0587	0.1818	14.3337	None	1.4791	""	""	81691000
4032	BET02050	2024-05-29T02:50:00	""	""	17.5423	83.5749	None	13.452	18.9541	20.3583	24.8009	0.2163	12.436	None	1.401	""	""	81691000
4033	BET02050	2024-05-29T03:00:00	""	""	17.4785	83.997	None	13.2954	19.5567	20.534	23.4455	0.002	12.755	None	1.4788	""	""	81691000
4034	BET02050	2024-05-29T03:10:00	""	""	17.549	85.2118	None	13.0839	18.4782	20.5092	24.1305	0.0381	11.9692	None	1.4473	""	""	81691000
4035	BET02050	2024-05-29T03:20:00	""	""	17.4399	85.3656	None	13.6417	19.5798	21.81	23.0029	0.0369	12.9836	None	1.4683	""	""	81691000
4036	BET02050	2024-05-29T03:30:00	""	""	17.4112	85.8394	None	13.6161	20.4603	21.3707	26.4902	0.2436	17.4229	None	1.5544	""	""	81691000
4037	BET02050	2024-05-29T03:40:00	""	""	17.3574	86.3931	None	14.544	20.7656	22.5252	26.4845	0.2113	15.2723	None	1.6544	""	""	81691000
4038	BET02050	2024-05-29T03:50:00	""	""	17.2398	86.4579	None	14.861	20.4732	22.0189	27.2143	0.0984	24.9209	None	2.1112	""	""	81691000
4039	BET02050	2024-05-29T04:00:00	""	""	17.1659	86.6266	None	14.0837	20.477	22.1286	26.3251	0.2399	28.516	None	2.76	""	""	81691000
4040	BET02050	2024-05-29T04:10:00	""	""	17.1389	86.9867	None	15.4539	22.4342	24.1723	26.1001	0.0568	39.5758	None	3.5321	""	""	81691000
4041	BET02050	2024-05-29T04:20:00	""	""	16.9878	87.0865	None	15.3386	22.4807	23.9978	26.4068	0.0117	38.651	None	3.5578	""	""	81691000
4042	BET02050	2024-05-29T04:30:00	""	""	16.8932	87.5129	None	15.7441	22.6824	23.3062	26.4995	0.2059	43.0545	None	3.7823	""	""	81691000
4043	BET02050	2024-05-29T04:40:00	""	""	16.9036	88.8133	None	15.6849	24.3028	24.8971	27.2714	0.091	49.42	None	3.8445	""	""	81691000
4044	BET02050	2024-05-29T04:50:00	""	""	16.88	89.5177	None	16.7681	23.5759	25.397	30.0732	0.1622	64.9651	None	3.6423	""	""	81691000
4045	BET02050	2024-05-29T05:00:00	""	""	16.9087	90.6475	None	17.5719	24.7308	27.3631	30.4755	0.0938	72.8925	None	3.5587	""	""	81691000
4046	BET02050	2024-05-29T05:10:00	""	""	17.0076	91.9937	None	18.1136	26.235	28.4544	32.2104	0.1933	68.3857	None	3.7402	""	""	81691000
4047	BET02050	2024-05-29T05:20:00	""	""	17.1898	93.0414	None	18.327	27.2104	29.4307	31.7375	0.0553	63.7163	None	3.8204	""	""	81691000
4048	BET02050	2024-05-29T05:30:00	""	""	17.3138	94.0318	None	19.0371	27.771	30.3407	34.9573	0.1541	71.9366	None	3.6908	""	""	81691000
4049	BET02050	2024-05-29T05:40:00	""	""	17.3559	94.8526	None	19.3005	28.76	31.7182	35.5733	0.0138	69.8735	None	3.8895	""	""	81691000
4050	BET02050	2024-05-29T05:50:00	""	""	17.708	95.5336	None	19.0331	26.5667	31.257	35.3693	0.052	70.0792	None	3.797	""	""	81691000
4051	BET02050	2024-05-29T06:00:00	""	""	17.902	95.727	None	19.4464	28.6732	30.3981	36.5508	0.1083	64.0954	None	3.8359	""	""	81691000
4052	BET02050	2024-05-29T06:10:00	""	""	18.2682	95.8418	None	18.9616	28.066	31.3843	32.323	0.1782	45.8268	None	2.8247	""	""	81691000
4053	BET02050	2024-05-29T06:20:00	""	""	18.7699	95.478	None	18.239	25.9073	28.831	31.9728	0.0249	38.9173	None	2.1126	""	""	81691000
4054	BET02050	2024-05-29T06:30:00	""	""	19.0348	94.3375	None	18.7255	27.7001	31.2387	35.3151	0.1635	40.6495	None	2.1717	""	""	81691000
4055	BET02050	2024-05-29T06:40:00	""	""	19.4033	92.5575	None	17.678	25.7344	28.3764	30.7148	3.4079	29.2112	None	1.3758	""	""	81691000
4056	BET02050	2024-05-29T06:50:00	""	""	19.8359	91.0377	None	14.0338	21.3517	23.7176	26.0953	12.8218	19.3562	None	1.4049	""	""	81691000
4057	BET02050	2024-05-29T07:00:00	""	""	20.2257	90.0448	None	12.3113	17.1443	19.0468	17.3081	20.9358	18.5131	None	1.4853	""	""	81691000
4058	BET02050	2024-05-29T07:10:00	""	""	20.4339	88.1727	None	8.7717	12.2817	13.5153	6.1801	40.7655	13.3281	None	1.5874	""	""	81691000
4059	BET02050	2024-05-29T07:20:00	""	""	20.5269	86.1929	None	6.2924	9.296	10.0506	0.0407	47.9537	13.8643	None	1.642	""	""	81691000
4060	BET02050	2024-05-29T07:30:00	""	""	20.9973	84.6449	None	4.7195	6.9161	7.3058	0.079	46.8764	11.9603	None	1.6983	""	""	81691000
4061	BET02050	2024-05-29T07:40:00	""	""	20.8087	84.5161	None	4.0504	5	5.9885	0.6475	46.406	11.6025	None	1.6725	""	""	81691000
4062	BET02050	2024-05-29T07:50:00	""	""	21.0047	82.9941	None	4	5.1943	5.7619	0.185	52.1155	10.4384	None	1.7197	""	""	81691000
4063	BET02050	2024-05-29T08:00:00	""	""	20.9422	82.6527	None	4.0305	4.8136	5.5516	0.206	54.2079	9.7925	None	1.7208	""	""	81691000
4064	BET02050	2024-05-29T08:10:00	""	""	21.1556	82.2684	None	4	6.0916	6.3721	0.1849	56.3066	10.6746	None	1.7447	""	""	81691000
4065	BET02050	2024-05-29T08:20:00	""	""	21.4076	81.3545	None	3.9777	5.2021	5.6614	0.0236	56.4127	10.5451	None	1.7735	""	""	81691000
4066	BET02050	2024-05-29T08:30:00	""	""	21.7569	81.5372	None	4.2675	5.814	5.7718	0.0445	56.1871	11.2739	None	1.7595	""	""	81691000
4067	BET02050	2024-05-29T08:40:00	""	""	21.4325	80.4586	None	3.8141	5.36	5.7453	0.0403	60.0347	9.7861	None	1.7962	""	""	81691000
4068	BET02050	2024-05-29T08:50:00	""	""	21.7291	80.5521	None	4.1961	6.3904	6.3894	4.0979	52.4834	11.2417	None	1.8493	""	""	81691000
4069	BET02050	2024-05-29T09:00:00	""	""	21.7516	80.1175	None	4.9925	6.9694	7.8142	0.6184	62.0206	10.237	None	1.8401	""	""	81691000
4070	BET02050	2024-05-29T09:10:00	""	""	22.3371	79.0034	None	5.8504	7.6602	8.4656	2.5542	54.5265	10.8278	None	1.8629	""	""	81691000
4071	BET02050	2024-05-29T09:20:00	""	""	22.7007	78.6301	None	6.839	8.9304	10.1651	2.4235	58.0065	10.7538	None	1.8701	""	""	81691000
4072	BET02050	2024-05-29T09:30:00	""	""	22.4492	77.494	None	6.8524	9.4221	9.9124	0.0701	64.4468	10.584	None	2.0003	""	""	81691000
4073	BET02050	2024-05-29T09:40:00	""	""	22.0361	78.1062	None	6.897	9.6833	10.499	3.0315	63.5783	10.4479	None	2.0048	""	""	81691000
4074	BET02050	2024-05-29T09:50:00	""	""	22.885	78.7018	None	6.8585	9.6794	10.0366	5.0141	55.4822	10.151	None	1.8737	""	""	81691000
4075	BET02050	2024-05-29T10:00:00	""	""	22.9697	77.3044	None	7.0477	9.7449	10.844	0.1834	61.6666	10.1936	None	1.9144	""	""	81691000
4076	BET02050	2024-05-29T10:10:00	""	""	22.6684	76.6071	None	7.0698	9.2454	11.8154	0.441	64.5793	10.2852	None	2.0273	""	""	81691000
4077	BET02050	2024-05-29T10:20:00	""	""	23.1422	77.1665	None	7.7955	10.2991	10.8046	7.2612	56.6143	10.7241	None	1.8672	""	""	81691000
4078	BET02050	2024-05-29T10:30:00	""	""	22.7469	75.8412	None	9	11.5258	11.8129	0.0651	70.6422	10.1127	None	2.0645	""	""	81691000
4079	BET02050	2024-05-29T10:40:00	""	""	22.9403	76.3485	None	7.9111	10.1648	10.9184	2.3661	66.4313	10.1627	None	2.0756	""	""	81691000
4080	BET02050	2024-05-29T10:50:00	""	""	23.4157	76.3854	None	8.1004	10.7836	11.4638	3.2227	59.5738	10.2538	None	1.8897	""	""	81691000
4081	BET02050	2024-05-29T11:00:00	""	""	23.216	76.7383	None	7.0239	9.4298	10.4257	8.2951	64.794	10.0577	None	2.0066	""	""	81691000
4082	BET02050	2024-05-29T11:10:00	""	""	23.3573	76.9995	None	7.5292	10.0958	10.6805	3.715	64.6991	9.8163	None	1.9242	""	""	81691000
4083	BET02050	2024-05-29T11:20:00	""	""	23.7104	76.8571	None	6.7077	9.3712	10.0793	0.5494	64.7045	9.5236	None	1.8521	""	""	81691000
4084	BET02050	2024-05-29T11:30:00	""	""	24.0585	76.4479	None	6.2379	8.569	9.6591	5.5482	63.9255	10.1141	None	1.8278	""	""	81691000
4085	BET02050	2024-05-29T11:40:00	""	""	24.6864	74.1334	None	6.2559	8.3105	8.6551	3.0354	58.2856	9.6985	None	1.9604	""	""	81691000
4086	BET02050	2024-05-29T11:50:00	""	""	24.9164	71.5134	None	6.0001	8.8859	9.557	0.147	62.423	9.5922	None	2.5534	""	""	81691000
4087	BET02050	2024-05-29T12:00:00	""	""	24.7877	69.8191	None	6	8.7132	9.4743	0.0384	73.4615	9.8235	None	2.7802	""	""	81691000
4088	BET02050	2024-05-29T12:10:00	""	""	24.3863	69.35	None	6.9037	9.6954	9.8172	0.0325	76.0062	9.083	None	2.6357	""	""	81691000
4089	BET02050	2024-05-29T12:20:00	""	""	24.2342	69.9821	None	6.765	10.164	11.3918	0.1888	69.77	9.2003	None	2.4855	""	""	81691000
4090	BET02050	2024-05-29T12:30:00	""	""	24.6526	70.5975	None	6.461	9.1237	9.6952	3.2386	65.0906	8.937	None	2.6116	""	""	81691000
4091	BET02050	2024-05-29T12:40:00	""	""	24.381	69.3816	None	6.784	9.0078	9.9915	1.3785	66.6156	8.8054	None	2.5424	""	""	81691000
4092	BET02050	2024-05-29T12:50:00	""	""	24.6468	70.0017	None	7.0634	9.7193	10.4625	1.2478	63.9511	8.8882	None	2.4637	""	""	81691000
4093	BET02050	2024-05-29T13:00:00	""	""	24.6576	69.7132	None	7.0265	8.8357	9.5214	3.1778	64.5645	9.0138	None	2.4769	""	""	81691000
4094	BET02050	2024-05-29T13:10:00	""	""	24.8397	69.3621	None	6.6461	8.4482	9.4951	0.0201	64.2692	8.9255	None	2.6243	""	""	81691000
4095	BET02050	2024-05-29T13:20:00	""	""	24.8848	69.7916	None	6.8298	9.1379	9.7648	4.8808	63.0798	8.8687	None	2.8218	""	""	81691000
4096	BET02050	2024-05-29T13:30:00	""	""	24.4964	68.4269	None	7.0066	9.0391	9.6079	3.4595	66.5113	9.2751	None	2.6769	""	""	81691000
4097	BET02050	2024-05-29T13:40:00	""	""	25.3988	69.0733	None	6.6446	9.0129	9.8267	5.626	66.6844	8.4423	None	3.2262	""	""	81691000
4098	BET02050	2024-05-29T13:50:00	""	""	24.8215	68.6682	None	6.2288	8.7576	10.0591	5.2947	63.3037	8.8112	None	2.7635	""	""	81691000
4099	BET02050	2024-05-29T14:00:00	""	""	25.0563	69.211	None	6.6195	8.7299	9.1622	7.2202	63.894	8.5611	None	3.3958	""	""	81691000
4100	BET02050	2024-05-29T14:10:00	""	""	24.7612	69.224	None	8	8	8.8196	6.6954	67.7586	8.3085	None	3.0337	""	""	81691000
4101	BET02050	2024-05-29T14:20:00	""	""	24.5481	68.2945	None	6.2085	8.5596	9.1307	5.5534	63.365	8.5295	None	2.5872	""	""	81691000
4102	BET02050	2024-05-29T14:30:00	""	""	24.8517	68.9246	None	5.0058	6.9552	7.8518	9.5597	64.923	8.4198	None	2.7092	""	""	81691000
4103	BET02050	2024-05-29T14:40:00	""	""	24.3084	67.9346	None	5.3477	7.3257	8.1319	8.1073	61.0451	8.8119	None	2.3401	""	""	81691000
4104	BET02050	2024-05-29T14:50:00	""	""	24.4896	68.6425	None	5.6309	6.9551	7.3103	7.262	65.1279	8.1534	None	2.4883	""	""	81691000
4105	BET02050	2024-05-29T15:00:00	""	""	25.375	67.4978	None	5.6606	7.1506	7.3499	11.4991	60.8055	7.9906	None	3.2225	""	""	81691000
4106	BET02050	2024-05-29T15:10:00	""	""	24.8123	66.1078	None	5.2329	6.2415	7.8153	5.7258	66.9706	8.1914	None	2.907	""	""	81691000
4107	BET02050	2024-05-29T15:20:00	""	""	25.0822	66.7749	None	5.11	6.9671	7.3003	5.7745	68.4218	7.9323	None	2.985	""	""	81691000
4108	BET02050	2024-05-29T15:30:00	""	""	24.6971	66.0081	None	4.4259	6.4239	7.182	6.4913	70.9477	7.9743	None	2.7086	""	""	81691000
4109	BET02050	2024-05-29T15:40:00	""	""	25.7407	65.5293	None	4.6144	6.3067	7.0377	4.6093	66.554	8.3606	None	3.4744	""	""	81691000
4110	BET02050	2024-05-29T15:50:00	""	""	25.1938	65.0762	None	4.4576	6.5381	6.4555	6.1836	65.5447	7.6733	None	2.782	""	""	81691000
4111	BET02050	2024-05-29T16:00:00	""	""	25.1107	65.0702	None	4.885	6.6065	7.0931	3.8954	63.5747	8.0094	None	2.6	""	""	81691000
4112	BET02050	2024-05-29T16:10:00	""	""	23.9118	66.8016	None	4.4903	6.5767	7.416	6.2852	63.3344	8.1908	None	2.0752	""	""	81691000
4113	BET02050	2024-05-29T16:20:00	""	""	24.4596	66.4154	None	4.934	6.7237	7.2046	5.4272	62.9426	8.2585	None	2.2898	""	""	81691000
4114	BET02050	2024-05-29T16:30:00	""	""	24.0705	65.7511	None	4.9157	6.4295	7.2307	2.2737	53.92	8.8028	None	2.1499	""	""	81691000
4115	BET02050	2024-05-29T16:40:00	""	""	24.0223	67.2993	None	4.2629	5.9639	6.766	8.4517	55.911	8.2363	None	2.1287	""	""	81691000
4116	BET02050	2024-05-29T16:50:00	""	""	24.0882	68.3365	None	4.5768	6.0996	7.2482	10.3676	53.552	8.1038	None	2.0884	""	""	81691000
4117	BET02050	2024-05-29T17:00:00	""	""	24.3066	68.4572	None	4.3108	6.3703	7.181	10.2212	58.4884	8.0817	None	2.2117	""	""	81691000
4118	BET02050	2024-05-29T17:10:00	""	""	23.2911	70.76	None	4.2677	6.5402	6.9843	14.5913	57.9066	7.9801	None	1.9951	""	""	81691000
4119	BET02050	2024-05-29T17:20:00	""	""	23.1908	72.9439	None	4.5396	7.269	8.3402	19.9462	52.9476	8.3524	None	1.9921	""	""	81691000
4120	BET02050	2024-05-29T17:30:00	""	""	23.0785	73.599	None	5.178	7.51	8.1586	14.645	56.0066	8.2964	None	1.9916	""	""	81691000
4121	BET02050	2024-05-29T17:40:00	""	""	22.8111	74.5318	None	4.9717	6.9769	7.9411	13.4863	59.3281	8.4436	None	1.9588	""	""	81691000
4122	BET02050	2024-05-29T17:50:00	""	""	22.6421	75.5011	None	5.3522	7.7401	8.4816	15.3182	62.384	8.2866	None	1.9802	""	""	81691000
4123	BET02050	2024-05-29T18:00:00	""	""	22.6609	77.0882	None	5.2136	7.2904	7.9917	13.9116	55.8457	8.7647	None	1.5212	""	""	81691000
4124	BET02050	2024-05-29T18:10:00	""	""	22.4881	77.7987	None	5.647	7.8488	8.4537	15.2811	54.7637	8.8008	None	1.5412	""	""	81691000
4125	BET02050	2024-05-29T18:20:00	""	""	22.3167	78.8223	None	5.8644	8.1412	8.9524	14.5327	61.5561	8.7449	None	1.5968	""	""	81691000
4126	BET02050	2024-05-29T18:30:00	""	""	22.0018	80.0563	None	5.9148	7.7054	7.742	13.9427	57.4476	8.7254	None	1.5236	""	""	81691000
4127	BET02050	2024-05-29T18:40:00	""	""	21.9234	80.914	None	5.6398	8.2884	9.0556	13.0344	54.0993	8.7869	None	1.4691	""	""	81691000
4128	BET02050	2024-05-29T18:50:00	""	""	21.8228	81.7281	None	5.3891	7.5269	8.1939	13.9775	53.4764	8.8739	None	1.456	""	""	81691000
4129	BET02050	2024-05-29T19:00:00	""	""	21.6476	82.3871	None	5.9533	8.6121	9.6153	13.3577	56.3446	8.3098	None	1.4373	""	""	81691000
4130	BET02050	2024-05-29T19:10:00	""	""	21.5907	83.0421	None	6.1372	8.1401	8.4878	14.6413	50.6806	8.3126	None	1.4057	""	""	81691000
4131	BET02050	2024-05-29T19:20:00	""	""	21.6227	83.9905	None	6.6102	9.0806	10.2469	15.6239	42.7724	8.4326	None	1.4527	""	""	81691000
4132	BET02050	2024-05-29T19:30:00	""	""	21.6486	83.8833	None	5.9795	8.465	9.1439	14.3753	40.4717	8.8584	None	1.4884	""	""	81691000
4133	BET02050	2024-05-29T19:40:00	""	""	21.7521	83.6654	None	8.5106	11.0469	11.8607	7.4641	42.086	9.0756	None	1.3928	""	""	81691000
4134	BET02050	2024-05-29T19:50:00	""	""	21.587	83.6283	None	6.1985	9.1458	9.7779	10.3152	45.4808	8.7904	None	1.4154	""	""	81691000
4135	BET02050	2024-05-29T20:00:00	""	""	21.54	83.6228	None	6.4817	9.4323	10.0157	16.8661	36.6396	8.5608	None	1.3219	""	""	81691000
4136	BET02050	2024-05-29T20:10:00	""	""	21.4549	84.5111	None	6.6445	9.6813	10.1921	10.6948	50.3219	8.0266	None	1.3059	""	""	81691000
4137	BET02050	2024-05-29T20:20:00	""	""	21.3435	84.9252	None	5.895	8	8.8905	16.43	40.3783	7.0614	None	1.292	""	""	81691000
4138	BET02050	2024-05-29T20:30:00	""	""	21.3995	85.5633	None	6.463	9.757	10.1515	10.5714	41.4092	7.6817	None	1.2313	""	""	81691000
4139	BET02050	2024-05-29T20:40:00	""	""	21.4769	85.4898	None	6.9423	9.5855	10.4608	19.3848	29.6506	8.2986	None	1.2408	""	""	81691000
4140	BET02050	2024-05-29T20:50:00	""	""	21.3311	85.5215	None	6.8734	10.047	11.0927	11.0501	42.6423	7.6362	None	1.2327	""	""	81691000
4141	BET02050	2024-05-29T21:00:00	""	""	21.182	85.897	None	7.1729	9.921	11.2303	13.2564	36.2361	6.6745	None	1.2308	""	""	81691000
4142	BET02050	2024-05-29T21:10:00	""	""	21.0693	87.0621	None	6.7426	9.7369	10.773	12.3505	45.7688	6.9923	None	1.2093	""	""	81691000
4143	BET02050	2024-05-29T21:20:00	""	""	20.9267	89.0905	None	6.8401	9.1501	9.7639	13.4215	45.1294	6.451	None	1.1605	""	""	81691000
4144	BET02050	2024-05-29T21:30:00	""	""	20.9281	90.1069	None	6.2919	9.2048	10.2661	10.5938	53.8757	6.3127	None	1.1693	""	""	81691000
4145	BET02050	2024-05-29T21:40:00	""	""	20.7327	91.7213	None	6.3991	8.5294	8.9877	10.7646	47.2914	6.5463	None	1.1567	""	""	81691000
4146	BET02050	2024-05-29T21:50:00	""	""	20.8183	93.0699	None	6.5177	8.8938	9.3739	13.9406	40.8587	8.5569	None	1.1361	""	""	81691000
4147	BET02050	2024-05-29T22:00:00	""	""	20.7799	92.9585	None	6.4892	8.853	9.1583	9.351	40.3464	7.4125	None	1.1263	""	""	81691000
4148	BET02050	2024-05-29T22:10:00	""	""	20.7061	93.6068	None	5.8531	9.2557	9.8118	10.2574	45.6827	8.1467	None	1.1251	""	""	81691000
4149	BET02050	2024-05-29T22:20:00	""	""	20.58	94.5611	None	6.8392	9.9348	10.672	12.1163	40.5806	8.7069	None	1.1101	""	""	81691000
4150	BET02050	2024-05-29T22:30:00	""	""	20.4889	96.7038	None	6.4207	9.5588	10.3022	10.9468	41.4659	8.5431	None	1.0931	""	""	81691000
4151	BET02050	2024-05-29T22:40:00	""	""	20.5164	97.2054	None	6.8473	10.2508	10.7154	10.2992	41.7215	8.4298	None	1.098	""	""	81691000
4152	BET02050	2024-05-29T22:50:00	""	""	20.446	98.1512	None	7.025	10.0517	11.1895	10.9355	41.158	9.8128	None	1.09	""	""	81691000
4153	BET02050	2024-05-29T23:00:00	""	""	20.3769	100	None	7.7251	10.5783	10.9384	10.2617	40.1282	10.0019	None	1.0546	""	""	81691000
4154	BET02050	2024-05-29T23:10:00	""	""	20.38	100	None	7.0576	9.6382	10.6699	8.8113	39.9701	10.0834	None	1.0657	""	""	81691000
4155	BET02050	2024-05-29T23:20:00	""	""	20.284	100	None	6.7372	9.5214	9.8404	8.2724	45.0037	10.2146	None	1.0677	""	""	81691000
4156	BET02050	2024-05-29T23:30:00	""	""	20.2262	100	None	6.7671	9.9329	10.893	9.3162	41.2384	10.4099	None	1.0708	""	""	81691000
4157	BET02050	2024-05-29T23:40:00	""	""	20.2295	100	None	6.9102	9.8456	10.9288	11.5458	34.2371	11.1377	None	1.0666	""	""	81691000
4158	BET02050	2024-05-29T23:50:00	""	""	20.1789	100	None	7.1405	10.2814	10.495	9.9395	32.4399	11.037	None	1.0672	""	""	81691000
4159	BET02050	2024-05-30T00:00:00	""	""	20.2007	100	None	7.0021	9.8117	10.4754	9.821	32.205	11.0327	None	1.0669	""	""	81691000
4160	BET02050	2024-05-30T00:10:00	""	""	20.2119	100	None	7.1275	9.3176	11.1228	9.042	33.6683	11.5275	None	1.0666	""	""	81691000
4161	BET02050	2024-05-30T00:20:00	""	""	20.1901	100	None	7.3172	10.5437	11.2448	11.6913	27.6478	12.2389	None	1.0735	""	""	81691000
4162	BET02050	2024-05-30T00:30:00	""	""	20.1382	100	None	7.3109	10.0876	12.2189	9.2386	33.028	11.8616	None	1.0612	""	""	81691000
4163	BET02050	2024-05-30T00:40:00	""	""	20.0497	100	None	7.0988	10.0407	10.4451	6.7252	31.5048	11.5335	None	1.0595	""	""	81691000
4164	BET02050	2024-05-30T00:50:00	""	""	19.7456	100	None	9.1031	13.2046	14.3452	5.9796	27.3242	12.7243	None	1.0633	""	""	81691000
4165	BET02050	2024-05-30T01:00:00	""	""	19.6647	99.9993	None	None	None	None	8.3049	22.3805	12.3277	None	1.0667	""	""	81691000
4166	BET02050	2024-05-30T01:10:00	""	""	19.6692	100	None	9.1388	13.6813	14.6352	8.5747	27.2396	11.9065	None	1.0645	""	""	81691000
4167	BET02050	2024-05-30T01:20:00	""	""	19.5742	100	None	9.7517	13.0709	14.2163	7.8178	30.4286	12.0161	None	1.079	""	""	81691000
4168	BET02050	2024-05-30T01:30:00	""	""	19.5012	100	None	8.7749	11.9583	13.4041	5.4461	28.2181	12.9017	None	1.0778	""	""	81691000
4169	BET02050	2024-05-30T01:40:00	""	""	19.2815	99.4498	None	9.3511	13.0999	14.4116	8.8443	19.7314	12.9458	None	1.0793	""	""	81691000
4170	BET02050	2024-05-30T01:50:00	""	""	19.2229	97.9133	None	10.7433	14.2995	15.6559	10.4118	8.7691	13.722	None	1.1306	""	""	81691000
4171	BET02050	2024-05-30T02:00:00	""	""	19.0546	96.4296	None	10.1575	13.6471	14.0998	12.0334	3.0432	13.9594	None	1.1393	""	""	81691000
4172	BET02050	2024-05-30T02:10:00	""	""	18.6834	91.7365	None	10.7158	14.2687	15.2454	12.4537	0.1804	16.5755	None	1.5109	""	""	81691000
4173	BET02050	2024-05-30T02:20:00	""	""	18.4287	89.0654	None	11.3698	15.8075	16.7306	10.4922	3.3949	14.6102	None	1.3964	""	""	81691000
4174	BET02050	2024-05-30T02:30:00	""	""	18.4366	88.1258	None	10.7196	14.3688	15.6045	8.4394	12.5155	13.3642	None	1.3269	""	""	81691000
4175	BET02050	2024-05-30T02:40:00	""	""	18.2564	88.9714	None	10.8404	14.485	15.317	16.9772	2.2002	13.9848	None	1.4752	""	""	81691000
4176	BET02050	2024-05-30T02:50:00	""	""	18.2292	89.7208	None	12.0371	16.9573	17.858	20.8396	0.1157	14.2794	None	1.4005	""	""	81691000
4177	BET02050	2024-05-30T03:00:00	""	""	18.3792	89.6443	None	11.3272	15.097	16.5368	19.6594	0.0561	13.0255	None	1.3879	""	""	81691000
4178	BET02050	2024-05-30T03:10:00	""	""	18.3301	89.9249	None	12.0643	16.6293	17.2259	20.6294	0.1528	13.1342	None	1.3976	""	""	81691000
4179	BET02050	2024-05-30T03:20:00	""	""	18.4101	90.0495	None	11.0865	16.0559	16.936	20.9039	0.1767	13.3776	None	1.4743	""	""	81691000
4180	BET02050	2024-05-30T03:30:00	""	""	18.5721	90.3261	None	12.0633	17.1048	18.8362	21.3003	0.0419	13.5183	None	1.5612	""	""	81691000
4181	BET02050	2024-05-30T03:40:00	""	""	18.64	89.9981	None	11.5585	15.6183	17.0588	24.4804	0.1877	14.0824	None	1.4988	""	""	81691000
4182	BET02050	2024-05-30T03:50:00	""	""	18.7133	89.8148	None	12.2051	16.9765	18.0951	27.477	0.2358	19.7597	None	1.8938	""	""	81691000
4183	BET02050	2024-05-30T04:00:00	""	""	18.4712	89.0028	None	12.9018	17.5478	19.1847	25.9122	0.1433	26.039	None	2.513	""	""	81691000
4184	BET02050	2024-05-30T04:10:00	""	""	18.3716	88.6168	None	12.2029	17.503	19.1886	26.2633	0.1078	33.6086	None	3.1724	""	""	81691000
4185	BET02050	2024-05-30T04:20:00	""	""	18.0131	88.1454	None	13.5109	19.1324	20.5896	25.3067	0.1161	33.7018	None	3.3167	""	""	81691000
4186	BET02050	2024-05-30T04:30:00	""	""	17.8277	88.1189	None	14.1242	21.0055	22.4174	25.8962	0.1739	30.3444	None	2.8279	""	""	81691000
4187	BET02050	2024-05-30T04:40:00	""	""	17.8498	88.7567	None	14.0699	20.3672	21.4502	27.2672	0.2114	34.7464	None	3.4137	""	""	81691000
4188	BET02050	2024-05-30T04:50:00	""	""	17.9891	90.0669	None	14.0286	19.7493	21.0112	29.2193	0.0362	46.8901	None	3.7438	""	""	81691000
4189	BET02050	2024-05-30T05:00:00	""	""	17.9925	90.3981	None	14.3794	20.0055	21.6056	29.6759	0.0532	59.0388	None	3.5642	""	""	81691000
4190	BET02050	2024-05-30T05:10:00	""	""	18.2899	90.9419	None	14.902	19.4696	21.4347	31.0433	0.1207	63.4257	None	3.4993	""	""	81691000
4191	BET02050	2024-05-30T05:20:00	""	""	18.3743	91.3517	None	15.3209	20.4433	22.0194	32.7784	0.0807	72.7386	None	3.3083	""	""	81691000
4192	BET02050	2024-05-30T05:30:00	""	""	18.5083	91.7715	None	15.2603	21.5079	22.8064	33.7539	0.1626	79.0412	None	3.2929	""	""	81691000
4193	BET02050	2024-05-30T05:40:00	""	""	18.6244	92.2404	None	16.8657	24.4461	24.3217	35.4695	0.0675	80.5621	None	3.1788	""	""	81691000
4194	BET02050	2024-05-30T05:50:00	""	""	18.9257	92.9378	None	16.6246	22.7999	23.9541	35.3977	0.23	58.2746	None	3.6769	""	""	81691000
4195	BET02050	2024-05-30T06:00:00	""	""	19.2504	93.6506	None	16.551	22.9252	24.7827	37.4425	0.0309	51.0612	None	3.492	""	""	81691000
4196	BET02050	2024-05-30T06:10:00	""	""	19.6334	94.2045	None	16.1279	21.9413	24.4879	35.215	0.0505	36.8157	None	1.9205	""	""	81691000
4197	BET02050	2024-05-30T06:20:00	""	""	20.0882	94.3412	None	15.0803	21.587	24.5263	33.3695	0.017	29.4144	None	1.343	""	""	81691000
4198	BET02050	2024-05-30T06:30:00	""	""	20.4176	94.3077	None	16.0766	22.3007	23.9287	33.4189	0.1759	26.0404	None	1.3349	""	""	81691000
4199	BET02050	2024-05-30T06:40:00	""	""	20.6582	93.7531	None	15.3095	21.3342	23.3693	28.1932	14.2872	17.3776	None	1.2259	""	""	81691000
4200	BET02050	2024-05-30T06:50:00	""	""	21.0972	93.4113	None	14.9483	20.9429	23.21	27.2154	11.3798	20.5307	None	1.2638	""	""	81691000
4201	BET02050	2024-05-30T07:00:00	""	""	21.6068	93.3256	None	13.3624	18.5949	20.5934	22.1168	27.4863	16.3909	None	1.2505	""	""	81691000
4202	BET02050	2024-05-30T07:10:00	""	""	21.7059	92.255	None	9.6387	12.983	13.9281	9.9883	48.5787	11.3744	None	1.3716	""	""	81691000
4203	BET02050	2024-05-30T07:20:00	""	""	21.8324	90.3574	None	9.1037	12.4975	13.3144	6.8499	48.2485	11.7989	None	1.3778	""	""	81691000
4204	BET02050	2024-05-30T07:30:00	""	""	21.9722	88.2807	None	7.9891	10.7326	11.4555	3.4088	50.8766	11.9074	None	1.4791	""	""	81691000
4205	BET02050	2024-05-30T07:40:00	""	""	22.2909	86.4964	None	8.7133	11.6948	12.563	0.2368	45.5489	11.2642	None	1.4755	""	""	81691000
4206	BET02050	2024-05-30T07:50:00	""	""	22.8617	84.6552	None	8.0869	10.9462	11.1655	0.6171	45.5975	11.1229	None	1.6598	""	""	81691000
4207	BET02050	2024-05-30T08:00:00	""	""	22.6893	82.7568	None	8.0723	10.2133	11.1397	0.0646	50.1855	11.1601	None	1.6553	""	""	81691000
4208	BET02050	2024-05-30T08:10:00	""	""	22.722	82.4679	None	7.5745	10.1599	10.7482	0.248	50.8464	10.8159	None	1.6635	""	""	81691000
4209	BET02050	2024-05-30T08:20:00	""	""	22.8676	81.466	None	7.9228	9.6062	10.9167	5.9311	53.7795	10.8596	None	1.6804	""	""	81691000
4210	BET02050	2024-05-30T08:30:00	""	""	23.4638	79.8933	None	7.8861	10.1585	10.6811	0.1418	47.6295	11.0556	None	1.7155	""	""	81691000
4211	BET02050	2024-05-30T08:40:00	""	""	23.2981	78.8213	None	7.6453	11.0654	11.371	5.6114	60.7696	10.6371	None	1.8061	""	""	81691000
4212	BET02050	2024-05-30T08:50:00	""	""	23.48	80.4651	None	6.8482	9.5343	9.9602	9.8868	52.0056	10.7377	None	1.6912	""	""	81691000
4213	BET02050	2024-05-30T09:00:00	""	""	23.3842	78.4694	None	6.8929	9.0995	9.3794	4.5118	54.9284	10.5417	None	1.771	""	""	81691000
4214	BET02050	2024-05-30T09:10:00	""	""	23.7043	77.7073	None	7.5895	10.0314	10.8978	10.1555	51.8395	10.5481	None	1.8188	""	""	81691000
4215	BET02050	2024-05-30T09:20:00	""	""	23.7817	75.6959	None	6.9975	10.1413	10.9391	0.2143	56.5648	10.3236	None	1.8772	""	""	81691000
4216	BET02050	2024-05-30T09:30:00	""	""	23.8907	74.3815	None	7.6099	10.6444	11.6923	0.131	62.8775	10.0712	None	2.1794	""	""	81691000
4217	BET02050	2024-05-30T09:40:00	""	""	24.071	74.9618	None	7.6118	10.3309	10.7535	8.0827	59.583	10.2735	None	1.8457	""	""	81691000
4218	BET02050	2024-05-30T09:50:00	""	""	24.1582	73.604	None	7	10.3369	11.1427	0.0094	49.4305	10.5908	None	2.135	""	""	81691000
4219	BET02050	2024-05-30T10:00:00	""	""	23.9204	74.3455	None	7.4309	10.3001	10.8212	11.0053	62.2162	9.9577	None	2.178	""	""	81691000
4220	BET02050	2024-05-30T10:10:00	""	""	24.2595	72.2679	None	7.0624	9.8676	10.8301	4.9725	43.5306	10.9008	None	2.2437	""	""	81691000
4221	BET02050	2024-05-30T10:20:00	""	""	23.9823	71.0692	None	6.2673	8.5851	9.1466	0.1568	66.4212	9.6728	None	2.3684	""	""	81691000
4222	BET02050	2024-05-30T10:30:00	""	""	24.5516	71.7376	None	6.1182	8.3408	9.3244	8.4513	52.1798	9.6475	None	2.1897	""	""	81691000
4223	BET02050	2024-05-30T10:40:00	""	""	24.6984	67.2513	None	5.4385	7.5497	7.7359	0.0927	44.2775	10.4415	None	2.2904	""	""	81691000
4224	BET02050	2024-05-30T10:50:00	""	""	25.4477	68.6028	None	6.4361	8.8565	9.574	5.2611	52.5205	10.0153	None	2.3962	""	""	81691000
4225	BET02050	2024-05-30T11:00:00	""	""	25.0898	66.1158	None	5.8795	7.9262	8.4385	1.6635	47.4424	10.435	None	2.314	""	""	81691000
4226	BET02050	2024-05-30T11:10:00	""	""	25.0369	67.4198	None	6.4898	8.1032	8.7551	10.3929	54.6391	9.9799	None	2.563	""	""	81691000
4227	BET02050	2024-05-30T11:20:00	""	""	25.5173	67.5289	None	6.1144	8.3244	8.8688	8.6047	60.5397	9.2582	None	2.8914	""	""	81691000
4228	BET02050	2024-05-30T11:30:00	""	""	25.9659	67.2981	None	5.6413	7.8272	9.044	11.313	61.1146	9.2683	None	3.4101	""	""	81691000
4229	BET02050	2024-05-30T11:40:00	""	""	26.4738	66.1454	None	6.4015	8.9107	9.3311	9.063	56.3465	8.9494	None	3.6879	""	""	81691000
4230	BET02050	2024-05-30T11:50:00	""	""	26.6766	64.2724	None	6.0368	8.3432	8.6319	8.5246	52.0987	9.1858	None	3.501	""	""	81691000
4231	BET02050	2024-05-30T12:00:00	""	""	26.4927	62.8478	None	5.2185	7.2794	7.5582	6.74	51.8224	9.1074	None	3.3104	""	""	81691000
4232	BET02050	2024-05-30T12:10:00	""	""	26.2375	60.8396	None	6.1413	8.7269	9.007	8.2217	56.4505	10.1073	None	2.9862	""	""	81691000
4233	BET02050	2024-05-30T12:20:00	""	""	26.2043	56.0581	None	4.7219	7.0273	7.2156	3.5305	50.2207	9.7764	None	3.2255	""	""	81691000
4234	BET02050	2024-05-30T12:30:00	""	""	26.3234	59.0867	None	4.5977	6.7577	7.4004	10.8923	43.7546	9.2261	None	2.8865	""	""	81691000
4235	BET02050	2024-05-30T12:40:00	""	""	26.1144	60.1688	None	4.8929	6.6477	6.4182	10.6314	55.7417	8.3553	None	3.0307	""	""	81691000
4236	BET02050	2024-05-30T12:50:00	""	""	26.2103	58.0453	None	4.4811	6.2616	6.4325	7.617	51.5809	8.447	None	3.2529	""	""	81691000
4237	BET02050	2024-05-30T13:00:00	""	""	26.6436	56.4846	None	4.8276	6.5894	7.2855	6.6509	40.6575	9.0789	None	3.2552	""	""	81691000
4238	BET02050	2024-05-30T13:10:00	""	""	26.2673	55.736	None	4.0001	6	7.5433	10.604	50.0071	8.7623	None	3.2045	""	""	81691000
4239	BET02050	2024-05-30T13:20:00	""	""	26.2061	55.6275	None	3.7863	4.9148	5.3865	8.1753	54.0333	8.5213	None	3.0459	""	""	81691000
4240	BET02050	2024-05-30T13:30:00	""	""	27.1989	53.936	None	3.3983	4.6877	5.5569	9.177	47.6292	8.4738	None	3.3808	""	""	81691000
4241	BET02050	2024-05-30T13:40:00	""	""	26.1926	52.822	None	3.1054	4.6855	5.4917	10.5103	52.3218	8.2295	None	3.0888	""	""	81691000
4242	BET02050	2024-05-30T13:50:00	""	""	26.4517	55.1437	None	3.5546	4.7823	5.5279	12.1313	52.2767	7.2885	None	3.1722	""	""	81691000
4243	BET02050	2024-05-30T14:00:00	""	""	24.6335	57.7493	None	3.3637	4.4838	4.6488	15.0942	54.7244	6.872	None	2.3063	""	""	81691000
4244	BET02050	2024-05-30T14:10:00	""	""	24.4117	60.992	None	3.6452	5.3737	5.2232	21.5003	56.5089	6.2606	None	2.3908	""	""	81691000
4245	BET02050	2024-05-30T14:20:00	""	""	24.6614	61.7637	None	4.2566	5.8293	6.1528	17.595	54.5186	6.9873	None	2.597	""	""	81691000
4246	BET02050	2024-05-30T14:30:00	""	""	24.6146	62.9558	None	3.3239	4.7338	4.6939	23.8907	38.0343	7.0312	None	2.3251	""	""	81691000
4247	BET02050	2024-05-30T14:40:00	""	""	24.6218	62.7809	None	3	4.369	4.9485	20.7478	55.3771	6.6825	None	2.3531	""	""	81691000
4248	BET02050	2024-05-30T14:50:00	""	""	24.9764	62.5657	None	3.4799	4.5347	4.7429	29.3398	51.3332	7.416	None	2.8763	""	""	81691000
4249	BET02050	2024-05-30T15:00:00	""	""	24.9538	62.4503	None	5.5502	7.0446	7.4323	26.0324	60.2696	6.8969	None	2.7468	""	""	81691000
4250	BET02050	2024-05-30T15:10:00	""	""	24.7301	64.9026	None	4.3131	5.0001	5.0001	20.7897	59.3928	7.0954	None	2.6655	""	""	81691000
4251	BET02050	2024-05-30T15:20:00	""	""	24.2697	66.2213	None	4.9999	5.1898	5.5721	23.8288	56.7956	7.2207	None	2.2743	""	""	81691000
4252	BET02050	2024-05-30T15:30:00	""	""	25.2861	65.0807	None	5.9999	5.9754	6.0485	22.2405	43.4317	7.802	None	2.3725	""	""	81691000
4253	BET02050	2024-05-30T15:40:00	""	""	25.6377	64.3928	None	4	5.7916	6.2865	34.0672	31.3727	9.0185	None	2.1151	""	""	81691000
4254	BET02050	2024-05-30T15:50:00	""	""	27.772	63.4638	None	4.74	5.8201	6.3227	21.4748	44.2421	7.6096	None	2.7008	""	""	81691000
4255	BET02050	2024-05-30T16:00:00	""	""	28.0864	60.9041	None	5.4681	6.7135	6.8797	10.8717	63.9212	8.1807	None	3.528	""	""	81691000
4256	BET02050	2024-05-30T16:10:00	""	""	27.2651	59.9257	None	4.0326	5.8156	6.2294	7.4882	66.0966	7.8499	None	3.4763	""	""	81691000
4257	BET02050	2024-05-30T16:20:00	""	""	26.7507	57.2935	None	4.9301	6.529	6.8681	5.8926	60.6596	8.1403	None	3.2839	""	""	81691000
4258	BET02050	2024-05-30T16:30:00	""	""	26.0969	59.4861	None	4.9807	6.5227	6.839	21.5908	64.7526	7.4883	None	3.5083	""	""	81691000
4259	BET02050	2024-05-30T16:40:00	""	""	26.3491	62.3789	None	6.2946	7.7906	8.425	29.5993	47.1561	7.8801	None	3.0539	""	""	81691000
4260	BET02050	2024-05-30T16:50:00	""	""	25.9092	62.2496	None	6.9797	8.5599	9.256	17.1419	65.7205	7.5114	None	3.0789	""	""	81691000
4261	BET02050	2024-05-30T17:00:00	""	""	25.9497	62.3805	None	5.6663	7.1948	7.6428	18.0846	63.1671	7.3302	None	3.2073	""	""	81691000
4262	BET02050	2024-05-30T17:10:00	""	""	25.692	63.2615	None	6.1014	7.645	8.0947	23.062	56.9853	7.5477	None	2.6041	""	""	81691000
4263	BET02050	2024-05-30T17:20:00	""	""	25.2624	65.5125	None	6.7181	8.6248	9.1807	21.404	64.8713	7.306	None	3.104	""	""	81691000
4264	BET02050	2024-05-30T17:30:00	""	""	24.5057	67.4225	None	6.2862	7.9839	8.5291	16.4186	75.5085	7.3412	None	2.8224	""	""	81691000
4265	BET02050	2024-05-30T17:40:00	""	""	24.466	69.378	None	6.4471	8.5564	8.9854	30.7211	64.5188	7.6987	None	3.0374	""	""	81691000
4266	BET02050	2024-05-30T17:50:00	""	""	24.0858	72.0192	None	7	9.4522	10.4058	25.4886	72.7809	7.1957	None	2.3473	""	""	81691000
4267	BET02050	2024-05-30T18:00:00	""	""	24.0581	74.1927	None	7.8968	10.7143	11.1764	38.1013	59.7725	7.7072	None	2.1475	""	""	81691000
4268	BET02050	2024-05-30T18:10:00	""	""	23.444	75.4491	None	7.4177	10.248	10.8876	23.1489	71.8624	7.7441	None	2.0406	""	""	81691000
4269	BET02050	2024-05-30T18:20:00	""	""	22.9457	77.6272	None	6.8246	9.3068	10.0644	21.0031	68.487	8.4203	None	1.6903	""	""	81691000
4270	BET02050	2024-05-30T18:30:00	""	""	22.6603	79.7372	None	7.5632	10.4177	11.3709	26.0827	62.9197	8.5894	None	1.6539	""	""	81691000
4271	BET02050	2024-05-30T18:40:00	""	""	22.3063	81.4733	None	7.9627	10.4871	11.1604	26.8797	59.1937	8.7968	None	1.6132	""	""	81691000
4272	BET02050	2024-05-30T18:50:00	""	""	22.0511	82.6793	None	8.7713	12.1121	12.3717	21.371	69.0799	8.9579	None	1.6934	""	""	81691000
4273	BET02050	2024-05-30T19:00:00	""	""	22.0489	82.0507	None	8.7096	12.0296	12.3314	12.4933	71.9584	9.2952	None	1.7592	""	""	81691000
4274	BET02050	2024-05-30T19:10:00	""	""	21.8361	82.1512	None	7.2626	9.7516	9.8645	16.1334	60.878	9.6203	None	1.5954	""	""	81691000
4275	BET02050	2024-05-30T19:20:00	""	""	21.746	82.4613	None	7.2857	9.4102	10.253	21.175	37.3197	10.0659	None	1.6076	""	""	81691000
4276	BET02050	2024-05-30T19:30:00	""	""	21.6328	80.5515	None	7.9731	10.9841	11.1549	15.3267	41.6276	9.9501	None	1.6954	""	""	81691000
4277	BET02050	2024-05-30T19:40:00	""	""	21.7603	78.8149	None	8.8606	13.0274	14.2364	19.2498	39.7342	10.2067	None	1.6866	""	""	81691000
4278	BET02050	2024-05-30T19:50:00	""	""	21.837	77.9424	None	8.3537	11.2302	12.4369	27.7429	38.5862	10.1045	None	1.6909	""	""	81691000
4279	BET02050	2024-05-30T20:00:00	""	""	21.693	78.0664	None	7.3611	10.6054	11.2927	33.4675	28.5874	10.2208	None	1.6748	""	""	81691000
4280	BET02050	2024-05-30T20:10:00	""	""	21.8095	77.6487	None	8.5931	11.3859	13.1362	24.0194	35.4885	10.0922	None	1.8258	""	""	81691000
4281	BET02050	2024-05-30T20:20:00	""	""	21.7417	77.4616	None	7.7369	9.6731	10.8615	26.8914	39.8946	10.0411	None	1.8717	""	""	81691000
4282	BET02050	2024-05-30T20:30:00	""	""	21.7549	74.5292	None	6.9299	9.4885	10.3736	2.7003	41.8424	10.7687	None	1.9905	""	""	81691000
4283	BET02050	2024-05-30T20:40:00	""	""	21.6037	72.9048	None	5.9767	8.2081	9.3078	11.5582	37.0858	10.3138	None	1.9629	""	""	81691000
4284	BET02050	2024-05-30T20:50:00	""	""	21.6238	72.7879	None	6.8133	10.9868	11.4186	10.6976	43.1813	10.3223	None	1.9741	""	""	81691000
4285	BET02050	2024-05-30T21:00:00	""	""	21.5647	71.2954	None	6.8272	8.9813	9.8579	2.0792	48.4813	10.6889	None	2.0004	""	""	81691000
4286	BET02050	2024-05-30T21:10:00	""	""	21.5845	69.6817	None	5.6798	7.5082	7.855	0.2256	53.7747	10.2722	None	1.9815	""	""	81691000
4287	BET02050	2024-05-30T21:20:00	""	""	21.6115	69.4319	None	6.3399	8.3979	9.1636	2.6767	52.3305	10.0044	None	1.983	""	""	81691000
4288	BET02050	2024-05-30T21:30:00	""	""	21.5933	71.1791	None	5.0001	7.7441	8.031	18.9386	35.9357	9.4662	None	1.9369	""	""	81691000
4289	BET02050	2024-05-30T21:40:00	""	""	21.5445	72.2182	None	6.925	8.4727	9.0546	11.8385	36.5536	9.7151	None	1.8745	""	""	81691000
4290	BET02050	2024-05-30T21:50:00	""	""	21.076	71.7779	None	2.7434	3.0001	3.9999	7.7806	32.235	8.2019	None	1.7565	""	""	81691000
4291	BET02050	2024-05-30T22:00:00	""	""	21.015	72.9086	None	2	3.5491	3.8798	7.3232	38.6234	8.2337	None	1.7576	""	""	81691000
4292	BET02050	2024-05-30T22:10:00	""	""	20.8847	74.1075	None	2.5164	3.4438	3.5861	10.1817	45.2877	7.5632	None	1.7892	""	""	81691000
4293	BET02050	2024-05-30T22:20:00	""	""	20.7367	75.7411	None	2.7032	3.8373	4.0829	13.692	30.1178	4.8304	None	1.5401	""	""	81691000
4294	BET02050	2024-05-30T22:30:00	""	""	20.5739	76.3836	None	2.7457	4.0862	4.6136	15.7468	25.7591	3.8156	None	1.4441	""	""	81691000
4295	BET02050	2024-05-30T22:40:00	""	""	20.5162	76.7108	None	2	3	3	8.0254	38.7236	3.5344	None	1.4959	""	""	81691000
4296	BET02050	2024-05-30T22:50:00	""	""	20.5939	78.2176	None	2	3	4.1071	9.0288	45.3659	4.4772	None	1.4698	""	""	81691000
4297	BET02050	2024-05-30T23:00:00	""	""	20.4362	79.074	None	2.5087	3.6159	4.0029	10.7424	42.6409	4.0293	None	1.5217	""	""	81691000
4298	BET02050	2024-05-30T23:10:00	""	""	20.3527	79.3486	None	3.0001	3.9758	4.0819	13.2665	31.8395	4.3967	None	1.4519	""	""	81691000
4299	BET02050	2024-05-30T23:20:00	""	""	20.3965	79.1625	None	3.503	4.6666	4.8375	9.6246	38.7513	4.416	None	1.5261	""	""	81691000
4300	BET02050	2024-05-30T23:30:00	""	""	20.4086	78.9943	None	3.0544	3.8844	4	0.92	40.3296	4.7545	None	1.5586	""	""	81691000
4301	BET02050	2024-05-30T23:40:00	""	""	20.3403	78.5735	None	2.0001	3.5433	3.5619	0.1547	44.4405	4.7731	None	1.6085	""	""	81691000
4302	BET02050	2024-05-30T23:50:00	""	""	20.3789	78.2256	None	2.7145	3.7463	4.0055	0.1997	37.8696	4.7921	None	1.5273	""	""	81691000
